<?xml version="1.0" encoding="UTF-8" standalone="no" ?>
<gpx xmlns="http://www.topografix.com/GPX/1/1" xmlns:xsi="http://www.w3.org/2001/XMLSchema-instance" xsi:schemaLocation="http://www.topografix.com/GPX/1/1 http://www.topografix.com/GPX/1/1/gpx.xsd" version="1.1" creator="VisuGPX - https://www.visugpx.com">
  <metadata>
    <name>PlCy-P139</name>
  </metadata>
  <trk>
    <name><![CDATA[PlCy-P139]]></name>
    <trkseg>
      <trkpt lat="48.02025" lon="-4.21779">
        <ele>145.75475603979</ele>
        <time>2021-08-19T11:57:28.000Z</time>
      </trkpt>
      <trkpt lat="48.02044" lon="-4.21772">
        <ele>146.14726786565</ele>
        <time>2021-08-19T11:57:28.003Z</time>
      </trkpt>
      <trkpt lat="48.02056" lon="-4.21762">
        <ele>146.63235331362</ele>
        <time>2021-08-19T11:57:28.007Z</time>
      </trkpt>
      <trkpt lat="48.02054" lon="-4.21745">
        <ele>147.34666867338</ele>
        <time>2021-08-19T11:57:28.013Z</time>
      </trkpt>
      <trkpt lat="48.01978" lon="-4.21576">
        <ele>148.80708690366</ele>
        <time>2021-08-19T11:57:28.037Z</time>
      </trkpt>
      <trkpt lat="48.01958" lon="-4.21542">
        <ele>150.01734153257</ele>
        <time>2021-08-19T11:57:28.066Z</time>
      </trkpt>
      <trkpt lat="48.01946" lon="-4.21531">
        <ele>151.03958536146</ele>
        <time>2021-08-19T11:57:28.096Z</time>
      </trkpt>
      <trkpt lat="48.01943" lon="-4.21526">
        <ele>151.85868792857</ele>
        <time>2021-08-19T11:57:28.127Z</time>
      </trkpt>
      <trkpt lat="48.01937" lon="-4.21499">
        <ele>152.57099360223</ele>
        <time>2021-08-19T11:57:28.161Z</time>
      </trkpt>
      <trkpt lat="48.01925" lon="-4.21462">
        <ele>153.22403573508</ele>
        <time>2021-08-19T11:57:28.198Z</time>
      </trkpt>
      <trkpt lat="48.01894" lon="-4.214">
        <ele>153.63016400826</ele>
        <time>2021-08-19T11:57:28.242Z</time>
      </trkpt>
      <trkpt lat="48.01864" lon="-4.21345">
        <ele>153.96730319272</ele>
        <time>2021-08-19T11:57:28.293Z</time>
      </trkpt>
      <trkpt lat="48.0182" lon="-4.21256">
        <ele>154.47194332142</ele>
        <time>2021-08-19T11:57:28.354Z</time>
      </trkpt>
      <trkpt lat="48.01806" lon="-4.21223">
        <ele>154.83001538857</ele>
        <time>2021-08-19T11:57:28.418Z</time>
      </trkpt>
      <trkpt lat="48.01752" lon="-4.21114">
        <ele>155.14815368949</ele>
        <time>2021-08-19T11:57:28.495Z</time>
      </trkpt>
      <trkpt lat="48.01729" lon="-4.21059">
        <ele>154.99482648191</ele>
        <time>2021-08-19T11:57:28.578Z</time>
      </trkpt>
      <trkpt lat="48.01708" lon="-4.21002">
        <ele>154.7046417809</ele>
        <time>2021-08-19T11:57:28.667Z</time>
      </trkpt>
      <trkpt lat="48.01677" lon="-4.20937">
        <ele>154.60112239944</ele>
        <time>2021-08-19T11:57:28.763Z</time>
      </trkpt>
      <trkpt lat="48.01641" lon="-4.20868">
        <ele>154.3647077607</ele>
        <time>2021-08-19T11:57:28.867Z</time>
      </trkpt>
      <trkpt lat="48.016" lon="-4.20781">
        <ele>154.19811337432</ele>
        <time>2021-08-19T11:57:28.980Z</time>
      </trkpt>
      <trkpt lat="48.01573" lon="-4.20719">
        <ele>153.74501392578</ele>
        <time>2021-08-19T11:57:29.100Z</time>
      </trkpt>
      <trkpt lat="48.01445" lon="-4.20452">
        <ele>152.84595833394</ele>
        <time>2021-08-19T11:57:29.250Z</time>
      </trkpt>
      <trkpt lat="48.01437" lon="-4.20437">
        <ele>152.13065439706</ele>
        <time>2021-08-19T11:57:29.402Z</time>
      </trkpt>
      <trkpt lat="48.0142" lon="-4.20416">
        <ele>151.36611989734</ele>
        <time>2021-08-19T11:57:29.556Z</time>
      </trkpt>
      <trkpt lat="48.01406" lon="-4.20377">
        <ele>150.59037071247</ele>
        <time>2021-08-19T11:57:29.714Z</time>
      </trkpt>
      <trkpt lat="48.01399" lon="-4.2036">
        <ele>149.85582531693</ele>
        <time>2021-08-19T11:57:29.874Z</time>
      </trkpt>
      <trkpt lat="48.01369" lon="-4.20306">
        <ele>149.03484630344</ele>
        <time>2021-08-19T11:57:30.041Z</time>
      </trkpt>
      <trkpt lat="48.01351" lon="-4.20277">
        <ele>148.3094681694</ele>
        <time>2021-08-19T11:57:30.211Z</time>
      </trkpt>
      <trkpt lat="48.01325" lon="-4.2024">
        <ele>147.72473961132</ele>
        <time>2021-08-19T11:57:30.386Z</time>
      </trkpt>
      <trkpt lat="48.01297" lon="-4.20192">
        <ele>147.17661694999</ele>
        <time>2021-08-19T11:57:30.567Z</time>
      </trkpt>
      <trkpt lat="48.01285" lon="-4.20159">
        <ele>146.75616576463</ele>
        <time>2021-08-19T11:57:30.751Z</time>
      </trkpt>
      <trkpt lat="48.0128" lon="-4.20136">
        <ele>146.48132470184</ele>
        <time>2021-08-19T11:57:30.937Z</time>
      </trkpt>
      <trkpt lat="48.01244" lon="-4.19903">
        <ele>146.55151559718</ele>
        <time>2021-08-19T11:57:31.145Z</time>
      </trkpt>
      <trkpt lat="48.01219" lon="-4.19761">
        <ele>146.30967730498</ele>
        <time>2021-08-19T11:57:31.366Z</time>
      </trkpt>
      <trkpt lat="48.01216" lon="-4.19754">
        <ele>146.27828543198</ele>
        <time>2021-08-19T11:57:31.588Z</time>
      </trkpt>
      <trkpt lat="48.01213" lon="-4.19748">
        <ele>146.32229783679</ele>
        <time>2021-08-19T11:57:31.811Z</time>
      </trkpt>
      <trkpt lat="48.01207" lon="-4.19745">
        <ele>146.43521491328</ele>
        <time>2021-08-19T11:57:32.035Z</time>
      </trkpt>
      <trkpt lat="48.01202" lon="-4.19745">
        <ele>146.622681087</ele>
        <time>2021-08-19T11:57:32.259Z</time>
      </trkpt>
      <trkpt lat="48.01184" lon="-4.1975">
        <ele>146.83161271526</ele>
        <time>2021-08-19T11:57:32.486Z</time>
      </trkpt>
      <trkpt lat="48.01177" lon="-4.19749">
        <ele>147.15102152179</ele>
        <time>2021-08-19T11:57:32.714Z</time>
      </trkpt>
      <trkpt lat="48.0117" lon="-4.19746">
        <ele>147.54908530584</ele>
        <time>2021-08-19T11:57:32.943Z</time>
      </trkpt>
      <trkpt lat="48.01158" lon="-4.19733">
        <ele>148.00700770551</ele>
        <time>2021-08-19T11:57:33.174Z</time>
      </trkpt>
      <trkpt lat="48.01148" lon="-4.19716">
        <ele>148.51765928482</ele>
        <time>2021-08-19T11:57:33.407Z</time>
      </trkpt>
      <trkpt lat="48.01132" lon="-4.19694">
        <ele>149.00736495191</ele>
        <time>2021-08-19T11:57:33.643Z</time>
      </trkpt>
      <trkpt lat="48.01095" lon="-4.19633">
        <ele>149.60857889695</ele>
        <time>2021-08-19T11:57:33.886Z</time>
      </trkpt>
      <trkpt lat="48.01054" lon="-4.19583">
        <ele>150.3407523368</ele>
        <time>2021-08-19T11:57:34.136Z</time>
      </trkpt>
      <trkpt lat="48.01014" lon="-4.19553">
        <ele>151.17106176919</ele>
        <time>2021-08-19T11:57:34.393Z</time>
      </trkpt>
      <trkpt lat="48.00975" lon="-4.19535">
        <ele>151.97144836146</ele>
        <time>2021-08-19T11:57:34.655Z</time>
      </trkpt>
      <trkpt lat="48.00938" lon="-4.19526">
        <ele>152.66014098958</ele>
        <time>2021-08-19T11:57:34.922Z</time>
      </trkpt>
      <trkpt lat="48.00925" lon="-4.19525">
        <ele>153.24639455822</ele>
        <time>2021-08-19T11:57:35.191Z</time>
      </trkpt>
      <trkpt lat="48.00875" lon="-4.19531">
        <ele>153.79900943785</ele>
        <time>2021-08-19T11:57:35.467Z</time>
      </trkpt>
      <trkpt lat="48.00863" lon="-4.19534">
        <ele>154.16727610739</ele>
        <time>2021-08-19T11:57:35.744Z</time>
      </trkpt>
      <trkpt lat="48.0082" lon="-4.19552">
        <ele>154.49964017152</ele>
        <time>2021-08-19T11:57:36.027Z</time>
      </trkpt>
      <trkpt lat="48.00688" lon="-4.19625">
        <ele>155.23231609109</ele>
        <time>2021-08-19T11:57:36.329Z</time>
      </trkpt>
      <trkpt lat="48.00645" lon="-4.19647">
        <ele>155.22885127956</ele>
        <time>2021-08-19T11:57:36.637Z</time>
      </trkpt>
      <trkpt lat="48.00608" lon="-4.1966">
        <ele>154.91256432322</ele>
        <time>2021-08-19T11:57:36.951Z</time>
      </trkpt>
      <trkpt lat="48.00591" lon="-4.19662">
        <ele>154.29520910914</ele>
        <time>2021-08-19T11:57:37.267Z</time>
      </trkpt>
      <trkpt lat="48.00542" lon="-4.1966">
        <ele>153.2631833995</ele>
        <time>2021-08-19T11:57:37.590Z</time>
      </trkpt>
      <trkpt lat="48.00484" lon="-4.19647">
        <ele>151.8919426344</ele>
        <time>2021-08-19T11:57:37.920Z</time>
      </trkpt>
      <trkpt lat="48.00097" lon="-4.19531">
        <ele>149.03987109031</ele>
        <time>2021-08-19T11:57:38.304Z</time>
      </trkpt>
      <trkpt lat="48.00032" lon="-4.19507">
        <ele>147.30516538855</ele>
        <time>2021-08-19T11:57:38.697Z</time>
      </trkpt>
      <trkpt lat="47.99971" lon="-4.19482">
        <ele>145.48780731642</ele>
        <time>2021-08-19T11:57:39.098Z</time>
      </trkpt>
      <trkpt lat="47.99912" lon="-4.19459">
        <ele>143.5882076253</ele>
        <time>2021-08-19T11:57:39.508Z</time>
      </trkpt>
      <trkpt lat="47.99898" lon="-4.1946">
        <ele>141.73834877032</ele>
        <time>2021-08-19T11:57:39.920Z</time>
      </trkpt>
      <trkpt lat="47.99878" lon="-4.19468">
        <ele>139.86471892189</ele>
        <time>2021-08-19T11:57:40.334Z</time>
      </trkpt>
      <trkpt lat="47.99872" lon="-4.19469">
        <ele>138.042004564</ele>
        <time>2021-08-19T11:57:40.749Z</time>
      </trkpt>
      <trkpt lat="47.99865" lon="-4.19467">
        <ele>136.24719560219</ele>
        <time>2021-08-19T11:57:41.165Z</time>
      </trkpt>
      <trkpt lat="47.99854" lon="-4.19457">
        <ele>134.48260965138</ele>
        <time>2021-08-19T11:57:41.583Z</time>
      </trkpt>
      <trkpt lat="47.99843" lon="-4.19443">
        <ele>132.76407881874</ele>
        <time>2021-08-19T11:57:42.003Z</time>
      </trkpt>
      <trkpt lat="47.99831" lon="-4.19433">
        <ele>131.0489705779</ele>
        <time>2021-08-19T11:57:42.425Z</time>
      </trkpt>
      <trkpt lat="47.99817" lon="-4.19425">
        <ele>129.37257636885</ele>
        <time>2021-08-19T11:57:42.849Z</time>
      </trkpt>
      <trkpt lat="47.99761" lon="-4.19399">
        <ele>127.50303676126</ele>
        <time>2021-08-19T11:57:43.281Z</time>
      </trkpt>
      <trkpt lat="47.99662" lon="-4.1936">
        <ele>125.77801439309</ele>
        <time>2021-08-19T11:57:43.727Z</time>
      </trkpt>
      <trkpt lat="47.99604" lon="-4.19334">
        <ele>124.22421159884</ele>
        <time>2021-08-19T11:57:44.181Z</time>
      </trkpt>
      <trkpt lat="47.99575" lon="-4.19319">
        <ele>122.80414932522</ele>
        <time>2021-08-19T11:57:44.639Z</time>
      </trkpt>
      <trkpt lat="47.99509" lon="-4.19273">
        <ele>121.4543949588</ele>
        <time>2021-08-19T11:57:45.107Z</time>
      </trkpt>
      <trkpt lat="47.99483" lon="-4.19249">
        <ele>120.20878370832</ele>
        <time>2021-08-19T11:57:45.579Z</time>
      </trkpt>
      <trkpt lat="47.99451" lon="-4.19213">
        <ele>119.01004270269</ele>
        <time>2021-08-19T11:57:46.056Z</time>
      </trkpt>
      <trkpt lat="47.99413" lon="-4.19164">
        <ele>117.79439331241</ele>
        <time>2021-08-19T11:57:46.540Z</time>
      </trkpt>
      <trkpt lat="47.99292" lon="-4.18982">
        <ele>117.04124617575</ele>
        <time>2021-08-19T11:57:47.047Z</time>
      </trkpt>
      <trkpt lat="47.99244" lon="-4.18921">
        <ele>115.97338126433</ele>
        <time>2021-08-19T11:57:47.563Z</time>
      </trkpt>
      <trkpt lat="47.99192" lon="-4.18871">
        <ele>114.81789093595</ele>
        <time>2021-08-19T11:57:48.087Z</time>
      </trkpt>
      <trkpt lat="47.99137" lon="-4.18833">
        <ele>113.8043976311</ele>
        <time>2021-08-19T11:57:48.620Z</time>
      </trkpt>
      <trkpt lat="47.99118" lon="-4.18824">
        <ele>112.8241971775</ele>
        <time>2021-08-19T11:57:49.155Z</time>
      </trkpt>
      <trkpt lat="47.99069" lon="-4.18807">
        <ele>111.82496399258</ele>
        <time>2021-08-19T11:57:49.697Z</time>
      </trkpt>
      <trkpt lat="47.9901" lon="-4.18799">
        <ele>110.90121323013</ele>
        <time>2021-08-19T11:57:50.247Z</time>
      </trkpt>
      <trkpt lat="47.98951" lon="-4.18799">
        <ele>109.77050876661</ele>
        <time>2021-08-19T11:57:50.805Z</time>
      </trkpt>
      <trkpt lat="47.98894" lon="-4.18804">
        <ele>108.4300637455</ele>
        <time>2021-08-19T11:57:51.371Z</time>
      </trkpt>
      <trkpt lat="47.98869" lon="-4.18814">
        <ele>107.23242168757</ele>
        <time>2021-08-19T11:57:51.940Z</time>
      </trkpt>
      <trkpt lat="47.98862" lon="-4.18814">
        <ele>106.06911398962</ele>
        <time>2021-08-19T11:57:52.510Z</time>
      </trkpt>
      <trkpt lat="47.98842" lon="-4.18807">
        <ele>104.82867338597</ele>
        <time>2021-08-19T11:57:53.083Z</time>
      </trkpt>
      <trkpt lat="47.98835" lon="-4.18806">
        <ele>103.60455521222</ele>
        <time>2021-08-19T11:57:53.657Z</time>
      </trkpt>
      <trkpt lat="47.98717" lon="-4.18813">
        <ele>102.22456208371</ele>
        <time>2021-08-19T11:57:54.247Z</time>
      </trkpt>
      <trkpt lat="47.98655" lon="-4.18813">
        <ele>101.02905093276</ele>
        <time>2021-08-19T11:57:54.845Z</time>
      </trkpt>
      <trkpt lat="47.98553" lon="-4.18807">
        <ele>99.777776214463</ele>
        <time>2021-08-19T11:57:55.457Z</time>
      </trkpt>
      <trkpt lat="47.98315" lon="-4.18783">
        <ele>97.942708767525</ele>
        <time>2021-08-19T11:57:56.101Z</time>
      </trkpt>
      <trkpt lat="47.98199" lon="-4.18781">
        <ele>96.336874494922</ele>
        <time>2021-08-19T11:57:56.761Z</time>
      </trkpt>
      <trkpt lat="47.9812" lon="-4.18786">
        <ele>94.822066294452</ele>
        <time>2021-08-19T11:57:57.432Z</time>
      </trkpt>
      <trkpt lat="47.98062" lon="-4.18792">
        <ele>93.425446945136</ele>
        <time>2021-08-19T11:57:58.111Z</time>
      </trkpt>
      <trkpt lat="47.97944" lon="-4.1881">
        <ele>92.050562689546</ele>
        <time>2021-08-19T11:57:58.806Z</time>
      </trkpt>
      <trkpt lat="47.97925" lon="-4.18816">
        <ele>90.900075924567</ele>
        <time>2021-08-19T11:57:59.503Z</time>
      </trkpt>
      <trkpt lat="47.97902" lon="-4.1884">
        <ele>89.897138526755</ele>
        <time>2021-08-19T11:58:00.204Z</time>
      </trkpt>
      <trkpt lat="47.97892" lon="-4.18842">
        <ele>88.913944031762</ele>
        <time>2021-08-19T11:58:00.906Z</time>
      </trkpt>
      <trkpt lat="47.97863" lon="-4.18829">
        <ele>87.982077245833</ele>
        <time>2021-08-19T11:58:01.613Z</time>
      </trkpt>
      <trkpt lat="47.97842" lon="-4.1883">
        <ele>87.166603694806</ele>
        <time>2021-08-19T11:58:02.322Z</time>
      </trkpt>
      <trkpt lat="47.97504" lon="-4.18892">
        <ele>86.094243560521</ele>
        <time>2021-08-19T11:58:03.077Z</time>
      </trkpt>
      <trkpt lat="47.9745" lon="-4.18895">
        <ele>85.44094342842</ele>
        <time>2021-08-19T11:58:03.840Z</time>
      </trkpt>
      <trkpt lat="47.97405" lon="-4.18881">
        <ele>84.756456878692</ele>
        <time>2021-08-19T11:58:04.609Z</time>
      </trkpt>
      <trkpt lat="47.97384" lon="-4.1887">
        <ele>84.154066220398</ele>
        <time>2021-08-19T11:58:05.381Z</time>
      </trkpt>
      <trkpt lat="47.97358" lon="-4.18851">
        <ele>83.590637568805</ele>
        <time>2021-08-19T11:58:06.157Z</time>
      </trkpt>
      <trkpt lat="47.97317" lon="-4.18803">
        <ele>82.941307479687</ele>
        <time>2021-08-19T11:58:06.940Z</time>
      </trkpt>
      <trkpt lat="47.97281" lon="-4.18741">
        <ele>82.466196280276</ele>
        <time>2021-08-19T11:58:07.730Z</time>
      </trkpt>
      <trkpt lat="47.97211" lon="-4.18595">
        <ele>81.982343821212</ele>
        <time>2021-08-19T11:58:08.537Z</time>
      </trkpt>
      <trkpt lat="47.97185" lon="-4.18543">
        <ele>81.37765546119</ele>
        <time>2021-08-19T11:58:09.350Z</time>
      </trkpt>
      <trkpt lat="47.97137" lon="-4.18469">
        <ele>80.795278983215</ele>
        <time>2021-08-19T11:58:10.172Z</time>
      </trkpt>
      <trkpt lat="47.97104" lon="-4.18428">
        <ele>80.242030744916</ele>
        <time>2021-08-19T11:58:11.000Z</time>
      </trkpt>
      <trkpt lat="47.97084" lon="-4.18406">
        <ele>79.8390968366</ele>
        <time>2021-08-19T11:58:11.831Z</time>
      </trkpt>
      <trkpt lat="47.96903" lon="-4.18223">
        <ele>79.214796879747</ele>
        <time>2021-08-19T11:58:12.692Z</time>
      </trkpt>
      <trkpt lat="47.9685" lon="-4.18181">
        <ele>78.732116797036</ele>
        <time>2021-08-19T11:58:13.561Z</time>
      </trkpt>
      <trkpt lat="47.9683" lon="-4.18181">
        <ele>78.256923625445</ele>
        <time>2021-08-19T11:58:14.433Z</time>
      </trkpt>
      <trkpt lat="47.96817" lon="-4.18175">
        <ele>77.84070037683</ele>
        <time>2021-08-19T11:58:15.306Z</time>
      </trkpt>
      <trkpt lat="47.96812" lon="-4.18168">
        <ele>77.469397840548</ele>
        <time>2021-08-19T11:58:16.180Z</time>
      </trkpt>
      <trkpt lat="47.96809" lon="-4.18159">
        <ele>77.137688996513</ele>
        <time>2021-08-19T11:58:17.055Z</time>
      </trkpt>
      <trkpt lat="47.96802" lon="-4.18131">
        <ele>76.824846584127</ele>
        <time>2021-08-19T11:58:17.933Z</time>
      </trkpt>
      <trkpt lat="47.96794" lon="-4.18113">
        <ele>76.538732740126</ele>
        <time>2021-08-19T11:58:18.813Z</time>
      </trkpt>
      <trkpt lat="47.96789" lon="-4.18106">
        <ele>76.327812155833</ele>
        <time>2021-08-19T11:58:19.694Z</time>
      </trkpt>
      <trkpt lat="47.96731" lon="-4.1803">
        <ele>76.187457509227</ele>
        <time>2021-08-19T11:58:20.585Z</time>
      </trkpt>
      <trkpt lat="47.96596" lon="-4.17875">
        <ele>75.972335570328</ele>
        <time>2021-08-19T11:58:21.499Z</time>
      </trkpt>
      <trkpt lat="47.96545" lon="-4.17807">
        <ele>75.908704621998</ele>
        <time>2021-08-19T11:58:22.423Z</time>
      </trkpt>
      <trkpt lat="47.96495" lon="-4.17725">
        <ele>76.05199313284</ele>
        <time>2021-08-19T11:58:23.357Z</time>
      </trkpt>
      <trkpt lat="47.96461" lon="-4.1766">
        <ele>76.249245863298</ele>
        <time>2021-08-19T11:58:24.298Z</time>
      </trkpt>
      <trkpt lat="47.96331" lon="-4.17399">
        <ele>76.238585564886</ele>
        <time>2021-08-19T11:58:25.269Z</time>
      </trkpt>
      <trkpt lat="47.96294" lon="-4.17331">
        <ele>76.665226218256</ele>
        <time>2021-08-19T11:58:26.248Z</time>
      </trkpt>
      <trkpt lat="47.96282" lon="-4.17312">
        <ele>77.16112220039</ele>
        <time>2021-08-19T11:58:27.229Z</time>
      </trkpt>
      <trkpt lat="47.96239" lon="-4.17254">
        <ele>77.769627738099</ele>
        <time>2021-08-19T11:58:28.218Z</time>
      </trkpt>
      <trkpt lat="47.96192" lon="-4.1721">
        <ele>78.457134004802</ele>
        <time>2021-08-19T11:58:29.214Z</time>
      </trkpt>
      <trkpt lat="47.96142" lon="-4.17179">
        <ele>79.199974862932</ele>
        <time>2021-08-19T11:58:30.218Z</time>
      </trkpt>
      <trkpt lat="47.96065" lon="-4.17142">
        <ele>79.94435412115</ele>
        <time>2021-08-19T11:58:31.233Z</time>
      </trkpt>
      <trkpt lat="47.9592" lon="-4.1708">
        <ele>81.139705101257</ele>
        <time>2021-08-19T11:58:32.268Z</time>
      </trkpt>
      <trkpt lat="47.95893" lon="-4.17067">
        <ele>81.894463843851</ele>
        <time>2021-08-19T11:58:33.307Z</time>
      </trkpt>
      <trkpt lat="47.95873" lon="-4.17055">
        <ele>82.548045927112</ele>
        <time>2021-08-19T11:58:34.349Z</time>
      </trkpt>
      <trkpt lat="47.95855" lon="-4.1704">
        <ele>83.131854328547</ele>
        <time>2021-08-19T11:58:35.393Z</time>
      </trkpt>
      <trkpt lat="47.95825" lon="-4.17007">
        <ele>83.593079511115</ele>
        <time>2021-08-19T11:58:36.443Z</time>
      </trkpt>
      <trkpt lat="47.95802" lon="-4.16984">
        <ele>83.930366628492</ele>
        <time>2021-08-19T11:58:37.496Z</time>
      </trkpt>
      <trkpt lat="47.95791" lon="-4.16981">
        <ele>84.206955507016</ele>
        <time>2021-08-19T11:58:38.551Z</time>
      </trkpt>
      <trkpt lat="47.95786" lon="-4.16982">
        <ele>84.399458116877</ele>
        <time>2021-08-19T11:58:39.606Z</time>
      </trkpt>
      <trkpt lat="47.95764" lon="-4.16992">
        <ele>84.453487764223</ele>
        <time>2021-08-19T11:58:40.665Z</time>
      </trkpt>
      <trkpt lat="47.95753" lon="-4.16989">
        <ele>84.437626009324</ele>
        <time>2021-08-19T11:58:41.725Z</time>
      </trkpt>
      <trkpt lat="47.95734" lon="-4.16955">
        <ele>84.317119802385</ele>
        <time>2021-08-19T11:58:42.789Z</time>
      </trkpt>
      <trkpt lat="47.95724" lon="-4.16944">
        <ele>84.136613739253</ele>
        <time>2021-08-19T11:58:43.855Z</time>
      </trkpt>
      <trkpt lat="47.95712" lon="-4.16938">
        <ele>83.852127004747</ele>
        <time>2021-08-19T11:58:44.922Z</time>
      </trkpt>
      <trkpt lat="47.95693" lon="-4.1693">
        <ele>83.473156455818</ele>
        <time>2021-08-19T11:58:45.992Z</time>
      </trkpt>
      <trkpt lat="47.95666" lon="-4.16922">
        <ele>82.976357300471</ele>
        <time>2021-08-19T11:58:47.066Z</time>
      </trkpt>
      <trkpt lat="47.95645" lon="-4.16926">
        <ele>82.432728389627</ele>
        <time>2021-08-19T11:58:48.143Z</time>
      </trkpt>
      <trkpt lat="47.95631" lon="-4.16922">
        <ele>81.843008356338</ele>
        <time>2021-08-19T11:58:49.222Z</time>
      </trkpt>
      <trkpt lat="47.95593" lon="-4.1689">
        <ele>81.120875217931</ele>
        <time>2021-08-19T11:58:50.306Z</time>
      </trkpt>
      <trkpt lat="47.95579" lon="-4.1688">
        <ele>80.459104367628</ele>
        <time>2021-08-19T11:58:51.393Z</time>
      </trkpt>
      <trkpt lat="47.95538" lon="-4.16857">
        <ele>79.763596994777</ele>
        <time>2021-08-19T11:58:52.485Z</time>
      </trkpt>
      <trkpt lat="47.95511" lon="-4.16847">
        <ele>79.04777865009</ele>
        <time>2021-08-19T11:58:53.581Z</time>
      </trkpt>
      <trkpt lat="47.95492" lon="-4.16842">
        <ele>78.33254804295</ele>
        <time>2021-08-19T11:58:54.680Z</time>
      </trkpt>
      <trkpt lat="47.95483" lon="-4.16842">
        <ele>77.594283165835</ele>
        <time>2021-08-19T11:58:55.780Z</time>
      </trkpt>
      <trkpt lat="47.95465" lon="-4.16848">
        <ele>76.837797689231</ele>
        <time>2021-08-19T11:58:56.883Z</time>
      </trkpt>
      <trkpt lat="47.95367" lon="-4.16909">
        <ele>75.973630898427</ele>
        <time>2021-08-19T11:58:58.000Z</time>
      </trkpt>
      <trkpt lat="47.9525" lon="-4.1699">
        <ele>74.851131323164</ele>
        <time>2021-08-19T11:58:59.134Z</time>
      </trkpt>
      <trkpt lat="47.95098" lon="-4.17089">
        <ele>73.748112704001</ele>
        <time>2021-08-19T11:59:00.291Z</time>
      </trkpt>
      <trkpt lat="47.9502" lon="-4.17128">
        <ele>73.026487136845</ele>
        <time>2021-08-19T11:59:01.459Z</time>
      </trkpt>
      <trkpt lat="47.94961" lon="-4.17145">
        <ele>72.167478110136</ele>
        <time>2021-08-19T11:59:02.635Z</time>
      </trkpt>
      <trkpt lat="47.9483" lon="-4.17164">
        <ele>71.379593808624</ele>
        <time>2021-08-19T11:59:03.829Z</time>
      </trkpt>
      <trkpt lat="47.94755" lon="-4.17172">
        <ele>70.610046154906</ele>
        <time>2021-08-19T11:59:05.033Z</time>
      </trkpt>
      <trkpt lat="47.9463" lon="-4.17192">
        <ele>69.663782953946</ele>
        <time>2021-08-19T11:59:06.254Z</time>
      </trkpt>
      <trkpt lat="47.94563" lon="-4.17191">
        <ele>68.608890850646</ele>
        <time>2021-08-19T11:59:07.484Z</time>
      </trkpt>
      <trkpt lat="47.94409" lon="-4.17181">
        <ele>67.224939260402</ele>
        <time>2021-08-19T11:59:08.735Z</time>
      </trkpt>
      <trkpt lat="47.94324" lon="-4.17178">
        <ele>65.994856195464</ele>
        <time>2021-08-19T11:59:09.997Z</time>
      </trkpt>
      <trkpt lat="47.94252" lon="-4.17178">
        <ele>64.686086546682</ele>
        <time>2021-08-19T11:59:11.269Z</time>
      </trkpt>
      <trkpt lat="47.94183" lon="-4.17183">
        <ele>63.499149605536</ele>
        <time>2021-08-19T11:59:12.551Z</time>
      </trkpt>
      <trkpt lat="47.94053" lon="-4.17196">
        <ele>62.20124294291</ele>
        <time>2021-08-19T11:59:13.850Z</time>
      </trkpt>
      <trkpt lat="47.93987" lon="-4.17205">
        <ele>60.927591697543</ele>
        <time>2021-08-19T11:59:15.158Z</time>
      </trkpt>
      <trkpt lat="47.93931" lon="-4.17215">
        <ele>59.567939516918</ele>
        <time>2021-08-19T11:59:16.474Z</time>
      </trkpt>
      <trkpt lat="47.93831" lon="-4.17224">
        <ele>58.268118623883</ele>
        <time>2021-08-19T11:59:17.803Z</time>
      </trkpt>
      <trkpt lat="47.93734" lon="-4.17235">
        <ele>56.842339177788</ele>
        <time>2021-08-19T11:59:19.145Z</time>
      </trkpt>
      <trkpt lat="47.93558" lon="-4.17259">
        <ele>55.241124811143</ele>
        <time>2021-08-19T11:59:20.511Z</time>
      </trkpt>
      <trkpt lat="47.93539" lon="-4.17263">
        <ele>53.890562071737</ele>
        <time>2021-08-19T11:59:21.880Z</time>
      </trkpt>
      <trkpt lat="47.93511" lon="-4.17274">
        <ele>52.525065779667</ele>
        <time>2021-08-19T11:59:23.253Z</time>
      </trkpt>
      <trkpt lat="47.93445" lon="-4.17306">
        <ele>51.175300304233</ele>
        <time>2021-08-19T11:59:24.635Z</time>
      </trkpt>
      <trkpt lat="47.93426" lon="-4.17316">
        <ele>49.90557692921</ele>
        <time>2021-08-19T11:59:26.020Z</time>
      </trkpt>
      <trkpt lat="47.93373" lon="-4.17348">
        <ele>48.609706481179</ele>
        <time>2021-08-19T11:59:27.413Z</time>
      </trkpt>
      <trkpt lat="47.93306" lon="-4.17407">
        <ele>47.29463992999</ele>
        <time>2021-08-19T11:59:28.816Z</time>
      </trkpt>
      <trkpt lat="47.93254" lon="-4.17456">
        <ele>46.034261401472</ele>
        <time>2021-08-19T11:59:30.228Z</time>
      </trkpt>
      <trkpt lat="47.93237" lon="-4.17474">
        <ele>44.8816935503</ele>
        <time>2021-08-19T11:59:31.642Z</time>
      </trkpt>
      <trkpt lat="47.93221" lon="-4.17495">
        <ele>43.746495688461</ele>
        <time>2021-08-19T11:59:33.059Z</time>
      </trkpt>
      <trkpt lat="47.93198" lon="-4.17528">
        <ele>42.621496411886</ele>
        <time>2021-08-19T11:59:34.481Z</time>
      </trkpt>
      <trkpt lat="47.9317" lon="-4.17575">
        <ele>41.502557140982</ele>
        <time>2021-08-19T11:59:35.908Z</time>
      </trkpt>
      <trkpt lat="47.93153" lon="-4.17611">
        <ele>40.431683834694</ele>
        <time>2021-08-19T11:59:37.339Z</time>
      </trkpt>
      <trkpt lat="47.93122" lon="-4.17704">
        <ele>39.231691370378</ele>
        <time>2021-08-19T11:59:38.780Z</time>
      </trkpt>
      <trkpt lat="47.93114" lon="-4.17732">
        <ele>38.178186468441</ele>
        <time>2021-08-19T11:59:40.223Z</time>
      </trkpt>
      <trkpt lat="47.93104" lon="-4.17789">
        <ele>37.1196329178</ele>
        <time>2021-08-19T11:59:41.672Z</time>
      </trkpt>
      <trkpt lat="47.93096" lon="-4.17876">
        <ele>36.081489009389</ele>
        <time>2021-08-19T11:59:43.129Z</time>
      </trkpt>
      <trkpt lat="47.93096" lon="-4.17949">
        <ele>35.052799431962</ele>
        <time>2021-08-19T11:59:44.592Z</time>
      </trkpt>
      <trkpt lat="47.93107" lon="-4.18118">
        <ele>34.180748040484</ele>
        <time>2021-08-19T11:59:46.071Z</time>
      </trkpt>
      <trkpt lat="47.93111" lon="-4.18157">
        <ele>33.413083129516</ele>
        <time>2021-08-19T11:59:47.553Z</time>
      </trkpt>
      <trkpt lat="47.93113" lon="-4.18223">
        <ele>32.799241323218</ele>
        <time>2021-08-19T11:59:49.042Z</time>
      </trkpt>
      <trkpt lat="47.93109" lon="-4.18263">
        <ele>32.262576968905</ele>
        <time>2021-08-19T11:59:50.534Z</time>
      </trkpt>
      <trkpt lat="47.93104" lon="-4.18287">
        <ele>31.741050249577</ele>
        <time>2021-08-19T11:59:52.028Z</time>
      </trkpt>
      <trkpt lat="47.93085" lon="-4.18331">
        <ele>31.264586139452</ele>
        <time>2021-08-19T11:59:53.527Z</time>
      </trkpt>
      <trkpt lat="47.93051" lon="-4.18389">
        <ele>30.989929353852</ele>
        <time>2021-08-19T11:59:55.033Z</time>
      </trkpt>
      <trkpt lat="47.92998" lon="-4.18474">
        <ele>30.686978016603</ele>
        <time>2021-08-19T11:59:56.550Z</time>
      </trkpt>
      <trkpt lat="47.92973" lon="-4.18503">
        <ele>30.353044207369</ele>
        <time>2021-08-19T11:59:58.071Z</time>
      </trkpt>
      <trkpt lat="47.92918" lon="-4.18558">
        <ele>29.996465953584</ele>
        <time>2021-08-19T11:59:59.601Z</time>
      </trkpt>
      <trkpt lat="47.92898" lon="-4.1858">
        <ele>29.740010969572</ele>
        <time>2021-08-19T12:00:01.134Z</time>
      </trkpt>
      <trkpt lat="47.92871" lon="-4.18606">
        <ele>29.556223460922</ele>
        <time>2021-08-19T12:00:02.672Z</time>
      </trkpt>
      <trkpt lat="47.92864" lon="-4.18611">
        <ele>29.615175630156</ele>
        <time>2021-08-19T12:00:04.211Z</time>
      </trkpt>
      <trkpt lat="47.92849" lon="-4.18618">
        <ele>29.82978059252</ele>
        <time>2021-08-19T12:00:05.752Z</time>
      </trkpt>
      <trkpt lat="47.92835" lon="-4.18621">
        <ele>30.182324512807</ele>
        <time>2021-08-19T12:00:07.295Z</time>
      </trkpt>
      <trkpt lat="47.92815" lon="-4.18622">
        <ele>30.673459402835</ele>
        <time>2021-08-19T12:00:08.840Z</time>
      </trkpt>
      <trkpt lat="47.92803" lon="-4.18621">
        <ele>31.249114603832</ele>
        <time>2021-08-19T12:00:10.387Z</time>
      </trkpt>
      <trkpt lat="47.92773" lon="-4.18612">
        <ele>31.935778991258</ele>
        <time>2021-08-19T12:00:11.938Z</time>
      </trkpt>
      <trkpt lat="47.9275" lon="-4.18603">
        <ele>32.765530642047</ele>
        <time>2021-08-19T12:00:13.492Z</time>
      </trkpt>
      <trkpt lat="47.9274" lon="-4.18597">
        <ele>33.699334151088</ele>
        <time>2021-08-19T12:00:15.048Z</time>
      </trkpt>
      <trkpt lat="47.92715" lon="-4.18575">
        <ele>34.793251620553</ele>
        <time>2021-08-19T12:00:16.608Z</time>
      </trkpt>
      <trkpt lat="47.92658" lon="-4.18512">
        <ele>35.878015518198</ele>
        <time>2021-08-19T12:00:18.177Z</time>
      </trkpt>
      <trkpt lat="47.92628" lon="-4.18477">
        <ele>37.053127129868</ele>
        <time>2021-08-19T12:00:19.752Z</time>
      </trkpt>
      <trkpt lat="47.9261" lon="-4.18459">
        <ele>38.197237892678</ele>
        <time>2021-08-19T12:00:21.329Z</time>
      </trkpt>
      <trkpt lat="47.92583" lon="-4.1844">
        <ele>39.385284618511</ele>
        <time>2021-08-19T12:00:22.911Z</time>
      </trkpt>
      <trkpt lat="47.92524" lon="-4.18404">
        <ele>40.659095930174</ele>
        <time>2021-08-19T12:00:24.501Z</time>
      </trkpt>
      <trkpt lat="47.92494" lon="-4.18393">
        <ele>41.972499904431</ele>
        <time>2021-08-19T12:00:26.095Z</time>
      </trkpt>
      <trkpt lat="47.92468" lon="-4.18389">
        <ele>43.130609637109</ele>
        <time>2021-08-19T12:00:27.693Z</time>
      </trkpt>
      <trkpt lat="47.92437" lon="-4.18389">
        <ele>44.23990388114</ele>
        <time>2021-08-19T12:00:29.295Z</time>
      </trkpt>
      <trkpt lat="47.92389" lon="-4.18399">
        <ele>45.298252970995</ele>
        <time>2021-08-19T12:00:30.904Z</time>
      </trkpt>
      <trkpt lat="47.92359" lon="-4.18412">
        <ele>46.159347269729</ele>
        <time>2021-08-19T12:00:32.517Z</time>
      </trkpt>
      <trkpt lat="47.92323" lon="-4.18434">
        <ele>46.899039493322</ele>
        <time>2021-08-19T12:00:34.135Z</time>
      </trkpt>
      <trkpt lat="47.92211" lon="-4.18533">
        <ele>47.405123527846</ele>
        <time>2021-08-19T12:00:35.771Z</time>
      </trkpt>
      <trkpt lat="47.92162" lon="-4.18571">
        <ele>47.778218642786</ele>
        <time>2021-08-19T12:00:37.414Z</time>
      </trkpt>
      <trkpt lat="47.92148" lon="-4.18578">
        <ele>48.133496484968</ele>
        <time>2021-08-19T12:00:39.059Z</time>
      </trkpt>
      <trkpt lat="47.92133" lon="-4.18583">
        <ele>48.391456873001</ele>
        <time>2021-08-19T12:00:40.706Z</time>
      </trkpt>
      <trkpt lat="47.9209" lon="-4.18591">
        <ele>48.556121060626</ele>
        <time>2021-08-19T12:00:42.359Z</time>
      </trkpt>
      <trkpt lat="47.91954" lon="-4.18613">
        <ele>48.250882593302</ele>
        <time>2021-08-19T12:00:44.031Z</time>
      </trkpt>
      <trkpt lat="47.91816" lon="-4.18642">
        <ele>48.120124361611</ele>
        <time>2021-08-19T12:00:45.722Z</time>
      </trkpt>
      <trkpt lat="47.91769" lon="-4.18654">
        <ele>48.282701651345</ele>
        <time>2021-08-19T12:00:47.419Z</time>
      </trkpt>
      <trkpt lat="47.91718" lon="-4.18674">
        <ele>48.372410558832</ele>
        <time>2021-08-19T12:00:49.123Z</time>
      </trkpt>
      <trkpt lat="47.91671" lon="-4.187">
        <ele>48.378020173571</ele>
        <time>2021-08-19T12:00:50.834Z</time>
      </trkpt>
      <trkpt lat="47.91634" lon="-4.18725">
        <ele>48.199157303113</ele>
        <time>2021-08-19T12:00:52.550Z</time>
      </trkpt>
      <trkpt lat="47.91615" lon="-4.18742">
        <ele>47.978142689037</ele>
        <time>2021-08-19T12:00:54.269Z</time>
      </trkpt>
      <trkpt lat="47.91604" lon="-4.18746">
        <ele>47.728501990778</ele>
        <time>2021-08-19T12:00:55.990Z</time>
      </trkpt>
      <trkpt lat="47.91593" lon="-4.18743">
        <ele>47.449710157761</ele>
        <time>2021-08-19T12:00:57.712Z</time>
      </trkpt>
      <trkpt lat="47.91581" lon="-4.18745">
        <ele>47.127503878612</ele>
        <time>2021-08-19T12:00:59.436Z</time>
      </trkpt>
      <trkpt lat="47.91561" lon="-4.18765">
        <ele>46.750167923604</ele>
        <time>2021-08-19T12:01:01.163Z</time>
      </trkpt>
      <trkpt lat="47.91527" lon="-4.18808">
        <ele>46.339995487164</ele>
        <time>2021-08-19T12:01:02.896Z</time>
      </trkpt>
      <trkpt lat="47.91482" lon="-4.18858">
        <ele>45.877141594903</ele>
        <time>2021-08-19T12:01:04.637Z</time>
      </trkpt>
      <trkpt lat="47.9143" lon="-4.18908">
        <ele>45.317629615813</ele>
        <time>2021-08-19T12:01:06.386Z</time>
      </trkpt>
      <trkpt lat="47.91386" lon="-4.18945">
        <ele>44.770862225932</ele>
        <time>2021-08-19T12:01:08.142Z</time>
      </trkpt>
      <trkpt lat="47.91331" lon="-4.18981">
        <ele>44.328825173616</ele>
        <time>2021-08-19T12:01:09.906Z</time>
      </trkpt>
      <trkpt lat="47.91283" lon="-4.19004">
        <ele>43.868681214351</ele>
        <time>2021-08-19T12:01:11.677Z</time>
      </trkpt>
      <trkpt lat="47.91227" lon="-4.19021">
        <ele>43.426775904369</ele>
        <time>2021-08-19T12:01:13.456Z</time>
      </trkpt>
      <trkpt lat="47.9115" lon="-4.19047">
        <ele>42.917541195401</ele>
        <time>2021-08-19T12:01:15.245Z</time>
      </trkpt>
      <trkpt lat="47.91135" lon="-4.19049">
        <ele>42.447150343359</ele>
        <time>2021-08-19T12:01:17.036Z</time>
      </trkpt>
      <trkpt lat="47.91112" lon="-4.19043">
        <ele>41.98752738494</ele>
        <time>2021-08-19T12:01:18.831Z</time>
      </trkpt>
      <trkpt lat="47.91107" lon="-4.19044">
        <ele>41.538281702305</ele>
        <time>2021-08-19T12:01:20.626Z</time>
      </trkpt>
      <trkpt lat="47.91026" lon="-4.19087">
        <ele>41.114205058386</ele>
        <time>2021-08-19T12:01:22.433Z</time>
      </trkpt>
      <trkpt lat="47.90951" lon="-4.19121">
        <ele>40.670145920444</ele>
        <time>2021-08-19T12:01:24.250Z</time>
      </trkpt>
      <trkpt lat="47.90942" lon="-4.19126">
        <ele>40.242298551753</ele>
        <time>2021-08-19T12:01:26.069Z</time>
      </trkpt>
      <trkpt lat="47.90937" lon="-4.19136">
        <ele>39.817481936917</ele>
        <time>2021-08-19T12:01:27.889Z</time>
      </trkpt>
      <trkpt lat="47.90935" lon="-4.1916">
        <ele>39.382353759451</ele>
        <time>2021-08-19T12:01:29.711Z</time>
      </trkpt>
      <trkpt lat="47.90928" lon="-4.19171">
        <ele>38.987864109473</ele>
        <time>2021-08-19T12:01:31.534Z</time>
      </trkpt>
      <trkpt lat="47.90866" lon="-4.19221">
        <ele>38.443346501494</ele>
        <time>2021-08-19T12:01:33.367Z</time>
      </trkpt>
      <trkpt lat="47.90854" lon="-4.19225">
        <ele>38.082127011526</ele>
        <time>2021-08-19T12:01:35.202Z</time>
      </trkpt>
      <trkpt lat="47.9085" lon="-4.19223">
        <ele>37.76783400154</ele>
        <time>2021-08-19T12:01:37.037Z</time>
      </trkpt>
      <trkpt lat="47.90843" lon="-4.19214">
        <ele>37.465984050079</ele>
        <time>2021-08-19T12:01:38.874Z</time>
      </trkpt>
      <trkpt lat="47.90795" lon="-4.19135">
        <ele>37.192264302695</ele>
        <time>2021-08-19T12:01:40.720Z</time>
      </trkpt>
      <trkpt lat="47.9077" lon="-4.19101">
        <ele>36.960417738846</ele>
        <time>2021-08-19T12:01:42.571Z</time>
      </trkpt>
      <trkpt lat="47.90722" lon="-4.19048">
        <ele>36.747385467103</ele>
        <time>2021-08-19T12:01:44.430Z</time>
      </trkpt>
      <trkpt lat="47.90673" lon="-4.1901">
        <ele>36.564262979473</ele>
        <time>2021-08-19T12:01:46.296Z</time>
      </trkpt>
      <trkpt lat="47.90646" lon="-4.18995">
        <ele>36.471651705159</ele>
        <time>2021-08-19T12:01:48.166Z</time>
      </trkpt>
      <trkpt lat="47.90618" lon="-4.18983">
        <ele>36.448575223907</ele>
        <time>2021-08-19T12:01:50.040Z</time>
      </trkpt>
      <trkpt lat="47.90577" lon="-4.1897">
        <ele>36.520680649438</ele>
        <time>2021-08-19T12:01:51.920Z</time>
      </trkpt>
      <trkpt lat="47.903" lon="-4.18903">
        <ele>36.601806994336</ele>
        <time>2021-08-19T12:01:53.838Z</time>
      </trkpt>
      <trkpt lat="47.90261" lon="-4.18892">
        <ele>36.599939975833</ele>
        <time>2021-08-19T12:01:55.761Z</time>
      </trkpt>
      <trkpt lat="47.9023" lon="-4.18878">
        <ele>36.490459923271</ele>
        <time>2021-08-19T12:01:57.689Z</time>
      </trkpt>
      <trkpt lat="47.90206" lon="-4.18865">
        <ele>36.391383086966</ele>
        <time>2021-08-19T12:01:59.620Z</time>
      </trkpt>
      <trkpt lat="47.90183" lon="-4.1885">
        <ele>36.230146652182</ele>
        <time>2021-08-19T12:02:01.554Z</time>
      </trkpt>
      <trkpt lat="47.90143" lon="-4.18819">
        <ele>35.98605990914</ele>
        <time>2021-08-19T12:02:03.495Z</time>
      </trkpt>
      <trkpt lat="47.90026" lon="-4.18723">
        <ele>35.236426712433</ele>
        <time>2021-08-19T12:02:05.454Z</time>
      </trkpt>
      <trkpt lat="47.89831" lon="-4.18578">
        <ele>35.113613302492</ele>
        <time>2021-08-19T12:02:07.442Z</time>
      </trkpt>
      <trkpt lat="47.89797" lon="-4.18556">
        <ele>34.780978937036</ele>
        <time>2021-08-19T12:02:09.435Z</time>
      </trkpt>
      <trkpt lat="47.89703" lon="-4.1851">
        <ele>34.507571174011</ele>
        <time>2021-08-19T12:02:11.442Z</time>
      </trkpt>
      <trkpt lat="47.89653" lon="-4.18482">
        <ele>34.126617584354</ele>
        <time>2021-08-19T12:02:13.456Z</time>
      </trkpt>
      <trkpt lat="47.89624" lon="-4.18464">
        <ele>33.666692735076</ele>
        <time>2021-08-19T12:02:15.474Z</time>
      </trkpt>
      <trkpt lat="47.89576" lon="-4.18428">
        <ele>33.167446173812</ele>
        <time>2021-08-19T12:02:17.499Z</time>
      </trkpt>
      <trkpt lat="47.89527" lon="-4.18385">
        <ele>32.691597809789</ele>
        <time>2021-08-19T12:02:19.532Z</time>
      </trkpt>
      <trkpt lat="47.89422" lon="-4.18287">
        <ele>32.068076027573</ele>
        <time>2021-08-19T12:02:21.582Z</time>
      </trkpt>
      <trkpt lat="47.89372" lon="-4.18239">
        <ele>31.357509528614</ele>
        <time>2021-08-19T12:02:23.640Z</time>
      </trkpt>
      <trkpt lat="47.89351" lon="-4.18216">
        <ele>30.618145406953</ele>
        <time>2021-08-19T12:02:25.701Z</time>
      </trkpt>
      <trkpt lat="47.89318" lon="-4.18171">
        <ele>29.815679465709</ele>
        <time>2021-08-19T12:02:27.768Z</time>
      </trkpt>
      <trkpt lat="47.89282" lon="-4.18101">
        <ele>28.969329977169</ele>
        <time>2021-08-19T12:02:29.843Z</time>
      </trkpt>
      <trkpt lat="47.89277" lon="-4.18087">
        <ele>28.247186700474</ele>
        <time>2021-08-19T12:02:31.920Z</time>
      </trkpt>
      <trkpt lat="47.89268" lon="-4.1806">
        <ele>27.540310124227</ele>
        <time>2021-08-19T12:02:33.999Z</time>
      </trkpt>
      <trkpt lat="47.89256" lon="-4.18017">
        <ele>26.838021873283</ele>
        <time>2021-08-19T12:02:36.083Z</time>
      </trkpt>
      <trkpt lat="47.89215" lon="-4.17831">
        <ele>25.981294388819</ele>
        <time>2021-08-19T12:02:38.184Z</time>
      </trkpt>
      <trkpt lat="47.89198" lon="-4.17767">
        <ele>25.281026920627</ele>
        <time>2021-08-19T12:02:40.292Z</time>
      </trkpt>
      <trkpt lat="47.89163" lon="-4.17655">
        <ele>24.708392557842</ele>
        <time>2021-08-19T12:02:42.411Z</time>
      </trkpt>
      <trkpt lat="47.89135" lon="-4.17584">
        <ele>24.273643730781</ele>
        <time>2021-08-19T12:02:44.537Z</time>
      </trkpt>
      <trkpt lat="47.89074" lon="-4.17449">
        <ele>24.121533186437</ele>
        <time>2021-08-19T12:02:46.678Z</time>
      </trkpt>
      <trkpt lat="47.89037" lon="-4.17372">
        <ele>23.783698663315</ele>
        <time>2021-08-19T12:02:48.828Z</time>
      </trkpt>
      <trkpt lat="47.89022" lon="-4.17341">
        <ele>23.610271265252</ele>
        <time>2021-08-19T12:02:50.981Z</time>
      </trkpt>
      <trkpt lat="47.89004" lon="-4.17314">
        <ele>23.567407433611</ele>
        <time>2021-08-19T12:02:53.138Z</time>
      </trkpt>
      <trkpt lat="47.88979" lon="-4.17281">
        <ele>23.546016338567</ele>
        <time>2021-08-19T12:02:55.299Z</time>
      </trkpt>
      <trkpt lat="47.88951" lon="-4.17251">
        <ele>23.5296752542</ele>
        <time>2021-08-19T12:02:57.465Z</time>
      </trkpt>
      <trkpt lat="47.88896" lon="-4.17206">
        <ele>23.507584439368</ele>
        <time>2021-08-19T12:02:59.639Z</time>
      </trkpt>
      <trkpt lat="47.88828" lon="-4.17159">
        <ele>23.4624833163</ele>
        <time>2021-08-19T12:03:01.824Z</time>
      </trkpt>
      <trkpt lat="47.88758" lon="-4.17114">
        <ele>23.577009934903</ele>
        <time>2021-08-19T12:03:04.019Z</time>
      </trkpt>
      <trkpt lat="47.8855" lon="-4.16971">
        <ele>23.976903658981</ele>
        <time>2021-08-19T12:03:06.245Z</time>
      </trkpt>
      <trkpt lat="47.88469" lon="-4.16923">
        <ele>24.165707907679</ele>
        <time>2021-08-19T12:03:08.483Z</time>
      </trkpt>
      <trkpt lat="47.88435" lon="-4.16915">
        <ele>24.405302760772</ele>
        <time>2021-08-19T12:03:10.725Z</time>
      </trkpt>
      <trkpt lat="47.88424" lon="-4.16905">
        <ele>24.693738342413</ele>
        <time>2021-08-19T12:03:12.969Z</time>
      </trkpt>
      <trkpt lat="47.8842" lon="-4.16897">
        <ele>24.997247009322</ele>
        <time>2021-08-19T12:03:15.214Z</time>
      </trkpt>
      <trkpt lat="47.88416" lon="-4.16868">
        <ele>25.351198616191</ele>
        <time>2021-08-19T12:03:17.462Z</time>
      </trkpt>
      <trkpt lat="47.88416" lon="-4.16819">
        <ele>25.683465119388</ele>
        <time>2021-08-19T12:03:19.714Z</time>
      </trkpt>
      <trkpt lat="47.88413" lon="-4.16769">
        <ele>26.018196940624</ele>
        <time>2021-08-19T12:03:21.971Z</time>
      </trkpt>
      <trkpt lat="47.88406" lon="-4.16712">
        <ele>26.35146419286</ele>
        <time>2021-08-19T12:03:24.233Z</time>
      </trkpt>
      <trkpt lat="47.884" lon="-4.16679">
        <ele>26.672608607771</ele>
        <time>2021-08-19T12:03:26.498Z</time>
      </trkpt>
      <trkpt lat="47.88399" lon="-4.1666">
        <ele>27.039986734351</ele>
        <time>2021-08-19T12:03:28.765Z</time>
      </trkpt>
      <trkpt lat="47.88386" lon="-4.16578">
        <ele>27.376623608789</ele>
        <time>2021-08-19T12:03:31.039Z</time>
      </trkpt>
      <trkpt lat="47.88371" lon="-4.16471">
        <ele>27.729295022439</ele>
        <time>2021-08-19T12:03:33.323Z</time>
      </trkpt>
      <trkpt lat="47.88368" lon="-4.1643">
        <ele>28.094644699311</ele>
        <time>2021-08-19T12:03:35.611Z</time>
      </trkpt>
      <trkpt lat="47.88368" lon="-4.16399">
        <ele>28.414019367856</ele>
        <time>2021-08-19T12:03:37.902Z</time>
      </trkpt>
      <trkpt lat="47.8837" lon="-4.16344">
        <ele>28.687780636708</ele>
        <time>2021-08-19T12:03:40.198Z</time>
      </trkpt>
      <trkpt lat="47.8839" lon="-4.16142">
        <ele>29.199425596114</ele>
        <time>2021-08-19T12:03:42.513Z</time>
      </trkpt>
      <trkpt lat="47.88403" lon="-4.16045">
        <ele>29.512839888949</ele>
        <time>2021-08-19T12:03:44.837Z</time>
      </trkpt>
      <trkpt lat="47.88431" lon="-4.15807">
        <ele>29.575176364688</ele>
        <time>2021-08-19T12:03:47.183Z</time>
      </trkpt>
      <trkpt lat="47.88434" lon="-4.15773">
        <ele>29.735005840638</ele>
        <time>2021-08-19T12:03:49.532Z</time>
      </trkpt>
      <trkpt lat="47.88434" lon="-4.15714">
        <ele>29.819086975867</ele>
        <time>2021-08-19T12:03:51.886Z</time>
      </trkpt>
      <trkpt lat="47.88428" lon="-4.15635">
        <ele>30.099265442408</ele>
        <time>2021-08-19T12:03:54.247Z</time>
      </trkpt>
      <trkpt lat="47.88423" lon="-4.15604">
        <ele>30.379860253182</ele>
        <time>2021-08-19T12:03:56.611Z</time>
      </trkpt>
      <trkpt lat="47.88421" lon="-4.15572">
        <ele>30.629315074303</ele>
        <time>2021-08-19T12:03:58.978Z</time>
      </trkpt>
      <trkpt lat="47.8841" lon="-4.15494">
        <ele>30.911143980732</ele>
        <time>2021-08-19T12:04:01.352Z</time>
      </trkpt>
      <trkpt lat="47.8839" lon="-4.15299">
        <ele>31.197702867797</ele>
        <time>2021-08-19T12:04:03.744Z</time>
      </trkpt>
      <trkpt lat="47.88381" lon="-4.15231">
        <ele>31.393040152088</ele>
        <time>2021-08-19T12:04:06.143Z</time>
      </trkpt>
      <trkpt lat="47.88362" lon="-4.15152">
        <ele>31.537815881666</ele>
        <time>2021-08-19T12:04:08.549Z</time>
      </trkpt>
      <trkpt lat="47.88342" lon="-4.15094">
        <ele>31.695024385804</ele>
        <time>2021-08-19T12:04:10.961Z</time>
      </trkpt>
      <trkpt lat="47.88312" lon="-4.15032">
        <ele>31.855231400833</ele>
        <time>2021-08-19T12:04:13.380Z</time>
      </trkpt>
      <trkpt lat="47.88276" lon="-4.14976">
        <ele>31.783347127452</ele>
        <time>2021-08-19T12:04:15.806Z</time>
      </trkpt>
      <trkpt lat="47.88218" lon="-4.14907">
        <ele>31.735041651653</ele>
        <time>2021-08-19T12:04:18.242Z</time>
      </trkpt>
      <trkpt lat="47.882" lon="-4.14884">
        <ele>31.607908540923</ele>
        <time>2021-08-19T12:04:20.681Z</time>
      </trkpt>
      <trkpt lat="47.88161" lon="-4.1484">
        <ele>31.338250908134</ele>
        <time>2021-08-19T12:04:23.127Z</time>
      </trkpt>
      <trkpt lat="47.88093" lon="-4.14756">
        <ele>31.115884329704</ele>
        <time>2021-08-19T12:04:25.585Z</time>
      </trkpt>
      <trkpt lat="47.8804" lon="-4.14694">
        <ele>30.867223265664</ele>
        <time>2021-08-19T12:04:28.052Z</time>
      </trkpt>
      <trkpt lat="47.87979" lon="-4.1462">
        <ele>30.80926161692</ele>
        <time>2021-08-19T12:04:30.530Z</time>
      </trkpt>
      <trkpt lat="47.87951" lon="-4.14579">
        <ele>30.927884756918</ele>
        <time>2021-08-19T12:04:33.013Z</time>
      </trkpt>
      <trkpt lat="47.87918" lon="-4.14517">
        <ele>31.190596024621</ele>
        <time>2021-08-19T12:04:35.503Z</time>
      </trkpt>
      <trkpt lat="47.87901" lon="-4.14467">
        <ele>31.565034233654</ele>
        <time>2021-08-19T12:04:37.998Z</time>
      </trkpt>
      <trkpt lat="47.87892" lon="-4.14433">
        <ele>31.857688205894</ele>
        <time>2021-08-19T12:04:40.497Z</time>
      </trkpt>
      <trkpt lat="47.87888" lon="-4.14407">
        <ele>32.172370284562</ele>
        <time>2021-08-19T12:04:42.998Z</time>
      </trkpt>
      <trkpt lat="47.87881" lon="-4.1435">
        <ele>32.482967298954</ele>
        <time>2021-08-19T12:04:45.504Z</time>
      </trkpt>
      <trkpt lat="47.87878" lon="-4.14303">
        <ele>32.651646467617</ele>
        <time>2021-08-19T12:04:48.015Z</time>
      </trkpt>
      <trkpt lat="47.8788" lon="-4.14271">
        <ele>32.771551110689</ele>
        <time>2021-08-19T12:04:50.529Z</time>
      </trkpt>
      <trkpt lat="47.87887" lon="-4.14206">
        <ele>32.896310787259</ele>
        <time>2021-08-19T12:04:53.049Z</time>
      </trkpt>
      <trkpt lat="47.8789" lon="-4.14126">
        <ele>33.008531642407</ele>
        <time>2021-08-19T12:04:55.576Z</time>
      </trkpt>
      <trkpt lat="47.8789" lon="-4.14041">
        <ele>32.951813562402</ele>
        <time>2021-08-19T12:04:58.111Z</time>
      </trkpt>
      <trkpt lat="47.87886" lon="-4.13974">
        <ele>32.660449432195</ele>
        <time>2021-08-19T12:05:00.652Z</time>
      </trkpt>
      <trkpt lat="47.87879" lon="-4.13909">
        <ele>32.305049158633</ele>
        <time>2021-08-19T12:05:03.199Z</time>
      </trkpt>
      <trkpt lat="47.87865" lon="-4.13829">
        <ele>31.890719189146</ele>
        <time>2021-08-19T12:05:05.753Z</time>
      </trkpt>
      <trkpt lat="47.87827" lon="-4.13672">
        <ele>31.183778343982</ele>
        <time>2021-08-19T12:05:08.322Z</time>
      </trkpt>
      <trkpt lat="47.87813" lon="-4.13607">
        <ele>30.53569481738</ele>
        <time>2021-08-19T12:05:10.898Z</time>
      </trkpt>
      <trkpt lat="47.87793" lon="-4.13492">
        <ele>29.868978671339</ele>
        <time>2021-08-19T12:05:13.484Z</time>
      </trkpt>
      <trkpt lat="47.87791" lon="-4.13454">
        <ele>29.07633471322</ele>
        <time>2021-08-19T12:05:16.074Z</time>
      </trkpt>
      <trkpt lat="47.87795" lon="-4.13432">
        <ele>28.25611594355</ele>
        <time>2021-08-19T12:05:18.666Z</time>
      </trkpt>
      <trkpt lat="47.87805" lon="-4.13399">
        <ele>27.37261853557</ele>
        <time>2021-08-19T12:05:21.261Z</time>
      </trkpt>
      <trkpt lat="47.87827" lon="-4.13287">
        <ele>26.426145710582</ele>
        <time>2021-08-19T12:05:23.867Z</time>
      </trkpt>
      <trkpt lat="47.87841" lon="-4.13226">
        <ele>25.422551194603</ele>
        <time>2021-08-19T12:05:26.479Z</time>
      </trkpt>
      <trkpt lat="47.87866" lon="-4.13141">
        <ele>24.346790275373</ele>
        <time>2021-08-19T12:05:29.099Z</time>
      </trkpt>
      <trkpt lat="47.87895" lon="-4.13073">
        <ele>23.361194261128</ele>
        <time>2021-08-19T12:05:31.726Z</time>
      </trkpt>
      <trkpt lat="47.87916" lon="-4.13031">
        <ele>22.438847155531</ele>
        <time>2021-08-19T12:05:34.358Z</time>
      </trkpt>
      <trkpt lat="47.8794" lon="-4.12991">
        <ele>21.576132380835</ele>
        <time>2021-08-19T12:05:36.995Z</time>
      </trkpt>
      <trkpt lat="47.88058" lon="-4.12816">
        <ele>20.72412745362</ele>
        <time>2021-08-19T12:05:39.655Z</time>
      </trkpt>
      <trkpt lat="47.8814" lon="-4.127">
        <ele>19.971525980048</ele>
        <time>2021-08-19T12:05:42.330Z</time>
      </trkpt>
      <trkpt lat="47.88226" lon="-4.1257">
        <ele>19.307021547537</ele>
        <time>2021-08-19T12:05:45.022Z</time>
      </trkpt>
      <trkpt lat="47.88413" lon="-4.12297">
        <ele>17.28559759687</ele>
        <time>2021-08-19T12:05:47.749Z</time>
      </trkpt>
      <trkpt lat="47.88614" lon="-4.11999">
        <ele>16.947673188147</ele>
        <time>2021-08-19T12:05:50.514Z</time>
      </trkpt>
      <trkpt lat="47.88634" lon="-4.11967">
        <ele>16.851577677266</ele>
        <time>2021-08-19T12:05:53.283Z</time>
      </trkpt>
      <trkpt lat="47.88647" lon="-4.11943">
        <ele>16.708261221164</ele>
        <time>2021-08-19T12:05:56.055Z</time>
      </trkpt>
      <trkpt lat="47.88665" lon="-4.11901">
        <ele>16.502390210886</ele>
        <time>2021-08-19T12:05:58.832Z</time>
      </trkpt>
      <trkpt lat="47.88676" lon="-4.11869">
        <ele>16.257562601741</ele>
        <time>2021-08-19T12:06:01.612Z</time>
      </trkpt>
      <trkpt lat="47.88685" lon="-4.11835">
        <ele>15.941902995448</ele>
        <time>2021-08-19T12:06:04.395Z</time>
      </trkpt>
      <trkpt lat="47.88694" lon="-4.1178">
        <ele>15.624070878412</ele>
        <time>2021-08-19T12:06:07.183Z</time>
      </trkpt>
      <trkpt lat="47.88699" lon="-4.11703">
        <ele>15.303820400368</ele>
        <time>2021-08-19T12:06:09.979Z</time>
      </trkpt>
      <trkpt lat="47.88694" lon="-4.11607">
        <ele>14.784168987066</ele>
        <time>2021-08-19T12:06:12.783Z</time>
      </trkpt>
      <trkpt lat="47.88687" lon="-4.11572">
        <ele>14.258815522345</ele>
        <time>2021-08-19T12:06:15.591Z</time>
      </trkpt>
      <trkpt lat="47.88673" lon="-4.11523">
        <ele>13.691612919038</ele>
        <time>2021-08-19T12:06:18.403Z</time>
      </trkpt>
      <trkpt lat="47.88641" lon="-4.11448">
        <ele>13.024903871613</ele>
        <time>2021-08-19T12:06:21.224Z</time>
      </trkpt>
      <trkpt lat="47.88576" lon="-4.11331">
        <ele>12.656209176351</ele>
        <time>2021-08-19T12:06:24.058Z</time>
      </trkpt>
      <trkpt lat="47.88549" lon="-4.11278">
        <ele>12.011440827269</ele>
        <time>2021-08-19T12:06:26.898Z</time>
      </trkpt>
      <trkpt lat="47.88511" lon="-4.11216">
        <ele>11.151534719431</ele>
        <time>2021-08-19T12:06:29.746Z</time>
      </trkpt>
      <trkpt lat="47.88489" lon="-4.11177">
        <ele>10.483105002015</ele>
        <time>2021-08-19T12:06:32.599Z</time>
      </trkpt>
      <trkpt lat="47.88472" lon="-4.11154">
        <ele>9.9276707830324</ele>
        <time>2021-08-19T12:06:35.455Z</time>
      </trkpt>
      <trkpt lat="47.884" lon="-4.11022">
        <ele>9.5320228999041</ele>
        <time>2021-08-19T12:06:38.326Z</time>
      </trkpt>
      <trkpt lat="47.884" lon="-4.11023">
        <ele>8.7991412702112</ele>
        <time>2021-08-19T12:06:41.197Z</time>
      </trkpt>
      <trkpt lat="47.88345" lon="-4.1092">
        <ele>8.1821688317478</ele>
        <time>2021-08-19T12:06:44.080Z</time>
      </trkpt>
      <trkpt lat="47.88305" lon="-4.10838">
        <ele>7.9595856761505</ele>
        <time>2021-08-19T12:06:46.972Z</time>
      </trkpt>
      <trkpt lat="47.88202" lon="-4.10644">
        <ele>8.0962840785798</ele>
        <time>2021-08-19T12:06:49.887Z</time>
      </trkpt>
      <trkpt lat="47.88152" lon="-4.10556">
        <ele>8.5614232569519</ele>
        <time>2021-08-19T12:06:52.812Z</time>
      </trkpt>
      <trkpt lat="47.88142" lon="-4.10543">
        <ele>8.6143424546733</ele>
        <time>2021-08-19T12:06:55.739Z</time>
      </trkpt>
      <trkpt lat="47.8813" lon="-4.10534">
        <ele>8.7099275558044</ele>
        <time>2021-08-19T12:06:58.668Z</time>
      </trkpt>
      <trkpt lat="47.88117" lon="-4.10529">
        <ele>8.8872752441781</ele>
        <time>2021-08-19T12:07:01.599Z</time>
      </trkpt>
      <trkpt lat="47.88088" lon="-4.10527">
        <ele>9.0566296883413</ele>
        <time>2021-08-19T12:07:04.534Z</time>
      </trkpt>
      <trkpt lat="47.88065" lon="-4.10533">
        <ele>9.5873510648855</ele>
        <time>2021-08-19T12:07:07.472Z</time>
      </trkpt>
      <trkpt lat="47.8805" lon="-4.10542">
        <ele>10.179367181971</ele>
        <time>2021-08-19T12:07:10.412Z</time>
      </trkpt>
      <trkpt lat="47.88035" lon="-4.10554">
        <ele>10.850772319383</ele>
        <time>2021-08-19T12:07:13.354Z</time>
      </trkpt>
      <trkpt lat="47.88007" lon="-4.10582">
        <ele>11.613806883269</ele>
        <time>2021-08-19T12:07:16.301Z</time>
      </trkpt>
      <trkpt lat="47.8797" lon="-4.10626">
        <ele>12.492823164826</ele>
        <time>2021-08-19T12:07:19.254Z</time>
      </trkpt>
      <trkpt lat="47.87947" lon="-4.10659">
        <ele>13.396159891331</ele>
        <time>2021-08-19T12:07:22.212Z</time>
      </trkpt>
      <trkpt lat="47.87942" lon="-4.10662">
        <ele>14.286906569663</ele>
        <time>2021-08-19T12:07:25.170Z</time>
      </trkpt>
      <trkpt lat="47.87931" lon="-4.10659">
        <ele>15.225499022116</ele>
        <time>2021-08-19T12:07:28.130Z</time>
      </trkpt>
      <trkpt lat="47.87923" lon="-4.10649">
        <ele>16.162953472734</ele>
        <time>2021-08-19T12:07:31.091Z</time>
      </trkpt>
      <trkpt lat="47.87915" lon="-4.10627">
        <ele>17.111295061945</ele>
        <time>2021-08-19T12:07:34.054Z</time>
      </trkpt>
      <trkpt lat="47.87851" lon="-4.10346">
        <ele>18.41897564494</ele>
        <time>2021-08-19T12:07:37.044Z</time>
      </trkpt>
      <trkpt lat="47.87827" lon="-4.10261">
        <ele>19.290690078555</ele>
        <time>2021-08-19T12:07:40.043Z</time>
      </trkpt>
      <trkpt lat="47.87744" lon="-4.10062">
        <ele>20.009937748924</ele>
        <time>2021-08-19T12:07:43.063Z</time>
      </trkpt>
      <trkpt lat="47.87726" lon="-4.10047">
        <ele>20.569342012729</ele>
        <time>2021-08-19T12:07:46.086Z</time>
      </trkpt>
      <trkpt lat="47.87722" lon="-4.10033">
        <ele>21.031340217878</ele>
        <time>2021-08-19T12:07:49.110Z</time>
      </trkpt>
      <trkpt lat="47.87725" lon="-4.0999">
        <ele>21.417641960067</ele>
        <time>2021-08-19T12:07:52.138Z</time>
      </trkpt>
      <trkpt lat="47.87715" lon="-4.0986">
        <ele>21.752505039498</ele>
        <time>2021-08-19T12:07:55.178Z</time>
      </trkpt>
      <trkpt lat="47.87715" lon="-4.09782">
        <ele>21.831583550442</ele>
        <time>2021-08-19T12:07:58.225Z</time>
      </trkpt>
      <trkpt lat="47.87717" lon="-4.09672">
        <ele>21.736863502256</ele>
        <time>2021-08-19T12:08:01.282Z</time>
      </trkpt>
      <trkpt lat="47.87724" lon="-4.09491">
        <ele>21.424323257219</ele>
        <time>2021-08-19T12:08:04.356Z</time>
      </trkpt>
      <trkpt lat="47.8772" lon="-4.0942">
        <ele>21.165073873717</ele>
        <time>2021-08-19T12:08:07.436Z</time>
      </trkpt>
      <trkpt lat="47.87709" lon="-4.09156">
        <ele>20.655474127087</ele>
        <time>2021-08-19T12:08:10.540Z</time>
      </trkpt>
      <trkpt lat="47.87706" lon="-4.09087">
        <ele>20.286694837599</ele>
        <time>2021-08-19T12:08:13.651Z</time>
      </trkpt>
      <trkpt lat="47.87707" lon="-4.09021">
        <ele>19.851735609724</ele>
        <time>2021-08-19T12:08:16.768Z</time>
      </trkpt>
      <trkpt lat="47.87714" lon="-4.08971">
        <ele>19.424929669342</ele>
        <time>2021-08-19T12:08:19.889Z</time>
      </trkpt>
      <trkpt lat="47.87722" lon="-4.08935">
        <ele>18.870440152425</ele>
        <time>2021-08-19T12:08:23.014Z</time>
      </trkpt>
      <trkpt lat="47.87749" lon="-4.08839">
        <ele>18.254460822719</ele>
        <time>2021-08-19T12:08:26.148Z</time>
      </trkpt>
      <trkpt lat="47.87756" lon="-4.08809">
        <ele>17.597281945269</ele>
        <time>2021-08-19T12:08:29.285Z</time>
      </trkpt>
      <trkpt lat="47.87758" lon="-4.08788">
        <ele>16.914567999289</ele>
        <time>2021-08-19T12:08:32.424Z</time>
      </trkpt>
      <trkpt lat="47.8777" lon="-4.08749">
        <ele>16.205091559569</ele>
        <time>2021-08-19T12:08:35.567Z</time>
      </trkpt>
      <trkpt lat="47.87775" lon="-4.08715">
        <ele>15.501163300429</ele>
        <time>2021-08-19T12:08:38.713Z</time>
      </trkpt>
      <trkpt lat="47.87778" lon="-4.0863">
        <ele>14.735271648969</ele>
        <time>2021-08-19T12:08:41.867Z</time>
      </trkpt>
      <trkpt lat="47.87778" lon="-4.08592">
        <ele>14.071123129378</ele>
        <time>2021-08-19T12:08:45.024Z</time>
      </trkpt>
      <trkpt lat="47.87767" lon="-4.08474">
        <ele>13.373089030884</ele>
        <time>2021-08-19T12:08:48.192Z</time>
      </trkpt>
      <trkpt lat="47.87765" lon="-4.08433">
        <ele>12.794833720353</ele>
        <time>2021-08-19T12:08:51.364Z</time>
      </trkpt>
      <trkpt lat="47.87766" lon="-4.0836">
        <ele>12.224172955933</ele>
        <time>2021-08-19T12:08:54.543Z</time>
      </trkpt>
      <trkpt lat="47.87772" lon="-4.08252">
        <ele>11.831020464368</ele>
        <time>2021-08-19T12:08:57.731Z</time>
      </trkpt>
      <trkpt lat="47.87779" lon="-4.0816">
        <ele>11.48780230101</ele>
        <time>2021-08-19T12:09:00.928Z</time>
      </trkpt>
      <trkpt lat="47.87794" lon="-4.08036">
        <ele>11.163417345679</ele>
        <time>2021-08-19T12:09:04.136Z</time>
      </trkpt>
      <trkpt lat="47.87801" lon="-4.0795">
        <ele>11.076591278803</ele>
        <time>2021-08-19T12:09:07.352Z</time>
      </trkpt>
      <trkpt lat="47.87798" lon="-4.07854">
        <ele>11.158738600554</ele>
        <time>2021-08-19T12:09:10.577Z</time>
      </trkpt>
      <trkpt lat="47.87783" lon="-4.07774">
        <ele>11.354601409005</ele>
        <time>2021-08-19T12:09:13.809Z</time>
      </trkpt>
      <trkpt lat="47.87763" lon="-4.07703">
        <ele>11.668807110518</ele>
        <time>2021-08-19T12:09:17.048Z</time>
      </trkpt>
      <trkpt lat="47.8775" lon="-4.07646">
        <ele>12.11072752682</ele>
        <time>2021-08-19T12:09:20.293Z</time>
      </trkpt>
      <trkpt lat="47.87742" lon="-4.07593">
        <ele>12.651432228602</ele>
        <time>2021-08-19T12:09:23.543Z</time>
      </trkpt>
      <trkpt lat="47.87735" lon="-4.0753">
        <ele>13.331187945786</ele>
        <time>2021-08-19T12:09:26.799Z</time>
      </trkpt>
      <trkpt lat="47.87727" lon="-4.07313">
        <ele>14.217357806251</ele>
        <time>2021-08-19T12:09:30.074Z</time>
      </trkpt>
      <trkpt lat="47.87713" lon="-4.07211">
        <ele>14.747827731136</ele>
        <time>2021-08-19T12:09:33.359Z</time>
      </trkpt>
      <trkpt lat="47.87708" lon="-4.07184">
        <ele>15.219434101826</ele>
        <time>2021-08-19T12:09:36.646Z</time>
      </trkpt>
      <trkpt lat="47.87697" lon="-4.0715">
        <ele>15.630990067959</ele>
        <time>2021-08-19T12:09:39.937Z</time>
      </trkpt>
      <trkpt lat="47.87685" lon="-4.07127">
        <ele>16.005313202502</ele>
        <time>2021-08-19T12:09:43.231Z</time>
      </trkpt>
      <trkpt lat="47.87676" lon="-4.07086">
        <ele>16.266821478085</ele>
        <time>2021-08-19T12:09:46.528Z</time>
      </trkpt>
      <trkpt lat="47.87648" lon="-4.06988">
        <ele>16.34640457283</ele>
        <time>2021-08-19T12:09:49.835Z</time>
      </trkpt>
      <trkpt lat="47.87634" lon="-4.06928">
        <ele>16.519112090922</ele>
        <time>2021-08-19T12:09:53.148Z</time>
      </trkpt>
      <trkpt lat="47.87624" lon="-4.06841">
        <ele>16.758018491087</ele>
        <time>2021-08-19T12:09:56.469Z</time>
      </trkpt>
      <trkpt lat="47.87623" lon="-4.06753">
        <ele>16.949108071814</ele>
        <time>2021-08-19T12:09:59.798Z</time>
      </trkpt>
      <trkpt lat="47.87626" lon="-4.06636">
        <ele>17.019212321652</ele>
        <time>2021-08-19T12:10:03.138Z</time>
      </trkpt>
      <trkpt lat="47.87628" lon="-4.06335">
        <ele>16.637714770001</ele>
        <time>2021-08-19T12:10:06.505Z</time>
      </trkpt>
      <trkpt lat="47.87625" lon="-4.06233">
        <ele>16.661182775804</ele>
        <time>2021-08-19T12:10:09.881Z</time>
      </trkpt>
      <trkpt lat="47.87617" lon="-4.06156">
        <ele>16.775954378536</ele>
        <time>2021-08-19T12:10:13.264Z</time>
      </trkpt>
      <trkpt lat="47.87609" lon="-4.06114">
        <ele>16.988154110284</ele>
        <time>2021-08-19T12:10:16.651Z</time>
      </trkpt>
      <trkpt lat="47.87587" lon="-4.06027">
        <ele>17.14388328733</ele>
        <time>2021-08-19T12:10:20.047Z</time>
      </trkpt>
      <trkpt lat="47.87524" lon="-4.05811">
        <ele>17.373579714818</ele>
        <time>2021-08-19T12:10:23.464Z</time>
      </trkpt>
      <trkpt lat="47.87507" lon="-4.05776">
        <ele>17.639793944696</ele>
        <time>2021-08-19T12:10:26.885Z</time>
      </trkpt>
      <trkpt lat="47.87507" lon="-4.05767">
        <ele>17.946828363297</ele>
        <time>2021-08-19T12:10:30.307Z</time>
      </trkpt>
      <trkpt lat="47.87508" lon="-4.05757">
        <ele>18.310145741021</ele>
        <time>2021-08-19T12:10:33.730Z</time>
      </trkpt>
      <trkpt lat="47.87523" lon="-4.05719">
        <ele>18.757478736943</ele>
        <time>2021-08-19T12:10:37.157Z</time>
      </trkpt>
      <trkpt lat="47.87556" lon="-4.056">
        <ele>19.286688556222</ele>
        <time>2021-08-19T12:10:40.596Z</time>
      </trkpt>
      <trkpt lat="47.87571" lon="-4.05531">
        <ele>19.802622076067</ele>
        <time>2021-08-19T12:10:44.041Z</time>
      </trkpt>
      <trkpt lat="47.87587" lon="-4.05446">
        <ele>20.485912583045</ele>
        <time>2021-08-19T12:10:47.494Z</time>
      </trkpt>
      <trkpt lat="47.87606" lon="-4.05366">
        <ele>21.040448772037</ele>
        <time>2021-08-19T12:10:50.955Z</time>
      </trkpt>
      <trkpt lat="47.87641" lon="-4.05183">
        <ele>21.948787685212</ele>
        <time>2021-08-19T12:10:54.433Z</time>
      </trkpt>
      <trkpt lat="47.87669" lon="-4.05054">
        <ele>22.851728522299</ele>
        <time>2021-08-19T12:10:57.924Z</time>
      </trkpt>
      <trkpt lat="47.87677" lon="-4.04971">
        <ele>23.812328042743</ele>
        <time>2021-08-19T12:11:01.422Z</time>
      </trkpt>
      <trkpt lat="47.87677" lon="-4.04898">
        <ele>24.678457774396</ele>
        <time>2021-08-19T12:11:04.927Z</time>
      </trkpt>
      <trkpt lat="47.87679" lon="-4.04858">
        <ele>25.45714105738</ele>
        <time>2021-08-19T12:11:08.435Z</time>
      </trkpt>
      <trkpt lat="47.87684" lon="-4.04828">
        <ele>26.291825619846</ele>
        <time>2021-08-19T12:11:11.946Z</time>
      </trkpt>
      <trkpt lat="47.87697" lon="-4.04781">
        <ele>27.146428509789</ele>
        <time>2021-08-19T12:11:15.462Z</time>
      </trkpt>
      <trkpt lat="47.87722" lon="-4.0473">
        <ele>27.887144780593</ele>
        <time>2021-08-19T12:11:18.984Z</time>
      </trkpt>
      <trkpt lat="47.87749" lon="-4.04693">
        <ele>28.619192331308</ele>
        <time>2021-08-19T12:11:22.511Z</time>
      </trkpt>
      <trkpt lat="47.87778" lon="-4.04672">
        <ele>29.428785577267</ele>
        <time>2021-08-19T12:11:26.042Z</time>
      </trkpt>
      <trkpt lat="47.87875" lon="-4.04627">
        <ele>30.331119766666</ele>
        <time>2021-08-19T12:11:29.587Z</time>
      </trkpt>
      <trkpt lat="47.87907" lon="-4.04602">
        <ele>31.185587354661</ele>
        <time>2021-08-19T12:11:33.137Z</time>
      </trkpt>
      <trkpt lat="47.8796" lon="-4.04555">
        <ele>32.056561915853</ele>
        <time>2021-08-19T12:11:36.695Z</time>
      </trkpt>
      <trkpt lat="47.87995" lon="-4.04511">
        <ele>32.930671630837</ele>
        <time>2021-08-19T12:11:40.259Z</time>
      </trkpt>
      <trkpt lat="47.88034" lon="-4.04453">
        <ele>33.902372645691</ele>
        <time>2021-08-19T12:11:43.831Z</time>
      </trkpt>
      <trkpt lat="47.88056" lon="-4.04414">
        <ele>34.840095021575</ele>
        <time>2021-08-19T12:11:47.407Z</time>
      </trkpt>
      <trkpt lat="47.88089" lon="-4.04352">
        <ele>35.801191296807</ele>
        <time>2021-08-19T12:11:50.990Z</time>
      </trkpt>
      <trkpt lat="47.88261" lon="-4.04018">
        <ele>37.195141202753</ele>
        <time>2021-08-19T12:11:54.612Z</time>
      </trkpt>
      <trkpt lat="47.88293" lon="-4.03975">
        <ele>38.087338214864</ele>
        <time>2021-08-19T12:11:58.240Z</time>
      </trkpt>
      <trkpt lat="47.8834" lon="-4.03924">
        <ele>38.957827350801</ele>
        <time>2021-08-19T12:12:01.875Z</time>
      </trkpt>
      <trkpt lat="47.88367" lon="-4.03885">
        <ele>39.889510552678</ele>
        <time>2021-08-19T12:12:05.515Z</time>
      </trkpt>
      <trkpt lat="47.88377" lon="-4.03868">
        <ele>40.798545533243</ele>
        <time>2021-08-19T12:12:09.157Z</time>
      </trkpt>
      <trkpt lat="47.88406" lon="-4.03805">
        <ele>41.742074667154</ele>
        <time>2021-08-19T12:12:12.806Z</time>
      </trkpt>
      <trkpt lat="47.88426" lon="-4.03737">
        <ele>42.74923328841</ele>
        <time>2021-08-19T12:12:16.462Z</time>
      </trkpt>
      <trkpt lat="47.88452" lon="-4.03627">
        <ele>43.738178626731</ele>
        <time>2021-08-19T12:12:20.129Z</time>
      </trkpt>
      <trkpt lat="47.88475" lon="-4.03551">
        <ele>44.734392527227</ele>
        <time>2021-08-19T12:12:23.803Z</time>
      </trkpt>
      <trkpt lat="47.88473" lon="-4.03513">
        <ele>45.657761908126</ele>
        <time>2021-08-19T12:12:27.481Z</time>
      </trkpt>
      <trkpt lat="47.88477" lon="-4.03497">
        <ele>46.551509406578</ele>
        <time>2021-08-19T12:12:31.160Z</time>
      </trkpt>
      <trkpt lat="47.88488" lon="-4.03488">
        <ele>47.451140463461</ele>
        <time>2021-08-19T12:12:34.841Z</time>
      </trkpt>
      <trkpt lat="47.88506" lon="-4.0348">
        <ele>48.37077083197</ele>
        <time>2021-08-19T12:12:38.525Z</time>
      </trkpt>
      <trkpt lat="47.88518" lon="-4.03469">
        <ele>49.254026790241</ele>
        <time>2021-08-19T12:12:42.211Z</time>
      </trkpt>
      <trkpt lat="47.88556" lon="-4.03421">
        <ele>50.159410009517</ele>
        <time>2021-08-19T12:12:45.903Z</time>
      </trkpt>
      <trkpt lat="47.88579" lon="-4.03367">
        <ele>51.136063780557</ele>
        <time>2021-08-19T12:12:49.601Z</time>
      </trkpt>
      <trkpt lat="47.88598" lon="-4.0331">
        <ele>52.18083611461</ele>
        <time>2021-08-19T12:12:53.305Z</time>
      </trkpt>
      <trkpt lat="47.88602" lon="-4.0329">
        <ele>53.195831640008</ele>
        <time>2021-08-19T12:12:57.011Z</time>
      </trkpt>
      <trkpt lat="47.88612" lon="-4.03222">
        <ele>54.311018319287</ele>
        <time>2021-08-19T12:13:00.723Z</time>
      </trkpt>
      <trkpt lat="47.88616" lon="-4.03141">
        <ele>55.407172363527</ele>
        <time>2021-08-19T12:13:04.443Z</time>
      </trkpt>
      <trkpt lat="47.88622" lon="-4.03057">
        <ele>56.411847832877</ele>
        <time>2021-08-19T12:13:08.170Z</time>
      </trkpt>
      <trkpt lat="47.88656" lon="-4.02909">
        <ele>57.720365414599</ele>
        <time>2021-08-19T12:13:11.911Z</time>
      </trkpt>
      <trkpt lat="47.88659" lon="-4.02869">
        <ele>58.842315530615</ele>
        <time>2021-08-19T12:13:15.656Z</time>
      </trkpt>
      <trkpt lat="47.88672" lon="-4.02843">
        <ele>59.97539872013</ele>
        <time>2021-08-19T12:13:19.404Z</time>
      </trkpt>
      <trkpt lat="47.88677" lon="-4.02829">
        <ele>61.024096582714</ele>
        <time>2021-08-19T12:13:23.154Z</time>
      </trkpt>
      <trkpt lat="47.88734" lon="-4.02614">
        <ele>62.042638023005</ele>
        <time>2021-08-19T12:13:26.925Z</time>
      </trkpt>
      <trkpt lat="47.88803" lon="-4.02371">
        <ele>63.322405230127</ele>
        <time>2021-08-19T12:13:30.720Z</time>
      </trkpt>
      <trkpt lat="47.88828" lon="-4.02295">
        <ele>64.214700575263</ele>
        <time>2021-08-19T12:13:34.522Z</time>
      </trkpt>
      <trkpt lat="47.88851" lon="-4.02239">
        <ele>65.127831575262</ele>
        <time>2021-08-19T12:13:38.330Z</time>
      </trkpt>
      <trkpt lat="47.88886" lon="-4.0214">
        <ele>65.925044570954</ele>
        <time>2021-08-19T12:13:42.148Z</time>
      </trkpt>
      <trkpt lat="47.88904" lon="-4.02101">
        <ele>66.649276869978</ele>
        <time>2021-08-19T12:13:45.971Z</time>
      </trkpt>
      <trkpt lat="47.88945" lon="-4.02044">
        <ele>67.338994073074</ele>
        <time>2021-08-19T12:13:49.801Z</time>
      </trkpt>
      <trkpt lat="47.88959" lon="-4.02019">
        <ele>67.962032291933</ele>
        <time>2021-08-19T12:13:53.634Z</time>
      </trkpt>
      <trkpt lat="47.88971" lon="-4.01993">
        <ele>68.548014816066</ele>
        <time>2021-08-19T12:13:57.470Z</time>
      </trkpt>
      <trkpt lat="47.88993" lon="-4.01936">
        <ele>69.104980939618</ele>
        <time>2021-08-19T12:14:01.312Z</time>
      </trkpt>
      <trkpt lat="47.89011" lon="-4.0186">
        <ele>69.615077435048</ele>
        <time>2021-08-19T12:14:05.161Z</time>
      </trkpt>
      <trkpt lat="47.89026" lon="-4.01758">
        <ele>69.962929177294</ele>
        <time>2021-08-19T12:14:09.020Z</time>
      </trkpt>
      <trkpt lat="47.89032" lon="-4.01725">
        <ele>70.207614006078</ele>
        <time>2021-08-19T12:14:12.882Z</time>
      </trkpt>
      <trkpt lat="47.89041" lon="-4.01694">
        <ele>70.379540037734</ele>
        <time>2021-08-19T12:14:16.747Z</time>
      </trkpt>
      <trkpt lat="47.89062" lon="-4.01637">
        <ele>70.470081411774</ele>
        <time>2021-08-19T12:14:20.618Z</time>
      </trkpt>
      <trkpt lat="47.8909" lon="-4.01587">
        <ele>70.478538142268</ele>
        <time>2021-08-19T12:14:24.495Z</time>
      </trkpt>
      <trkpt lat="47.89143" lon="-4.0151">
        <ele>70.361665709671</ele>
        <time>2021-08-19T12:14:28.382Z</time>
      </trkpt>
      <trkpt lat="47.89157" lon="-4.01474">
        <ele>70.233180412921</ele>
        <time>2021-08-19T12:14:32.273Z</time>
      </trkpt>
      <trkpt lat="47.89167" lon="-4.01464">
        <ele>70.018901893716</ele>
        <time>2021-08-19T12:14:36.165Z</time>
      </trkpt>
      <trkpt lat="47.89174" lon="-4.01464">
        <ele>69.714453758703</ele>
        <time>2021-08-19T12:14:40.058Z</time>
      </trkpt>
      <trkpt lat="47.89181" lon="-4.01467">
        <ele>69.312626578232</ele>
        <time>2021-08-19T12:14:43.952Z</time>
      </trkpt>
      <trkpt lat="47.89218" lon="-4.015">
        <ele>68.828384793614</ele>
        <time>2021-08-19T12:14:47.852Z</time>
      </trkpt>
      <trkpt lat="47.89287" lon="-4.01535">
        <ele>68.291836963172</ele>
        <time>2021-08-19T12:14:51.762Z</time>
      </trkpt>
      <trkpt lat="47.89424" lon="-4.01603">
        <ele>67.31106818875</ele>
        <time>2021-08-19T12:14:55.691Z</time>
      </trkpt>
      <trkpt lat="47.89604" lon="-4.01688">
        <ele>66.491926886027</ele>
        <time>2021-08-19T12:14:59.646Z</time>
      </trkpt>
      <trkpt lat="47.89622" lon="-4.01693">
        <ele>65.67558091835</ele>
        <time>2021-08-19T12:15:03.603Z</time>
      </trkpt>
      <trkpt lat="47.89628" lon="-4.01692">
        <ele>64.743334902912</ele>
        <time>2021-08-19T12:15:07.561Z</time>
      </trkpt>
      <trkpt lat="47.89651" lon="-4.01676">
        <ele>63.716886343566</ele>
        <time>2021-08-19T12:15:11.523Z</time>
      </trkpt>
      <trkpt lat="47.89662" lon="-4.01664">
        <ele>62.593448538852</ele>
        <time>2021-08-19T12:15:15.487Z</time>
      </trkpt>
      <trkpt lat="47.89703" lon="-4.01588">
        <ele>61.241584013085</ele>
        <time>2021-08-19T12:15:19.459Z</time>
      </trkpt>
      <trkpt lat="47.89724" lon="-4.01551">
        <ele>59.834338639014</ele>
        <time>2021-08-19T12:15:23.436Z</time>
      </trkpt>
      <trkpt lat="47.8975" lon="-4.01514">
        <ele>58.332556544028</ele>
        <time>2021-08-19T12:15:27.418Z</time>
      </trkpt>
      <trkpt lat="47.89779" lon="-4.01481">
        <ele>56.691178390784</ele>
        <time>2021-08-19T12:15:31.405Z</time>
      </trkpt>
      <trkpt lat="47.89792" lon="-4.01462">
        <ele>55.067905184585</ele>
        <time>2021-08-19T12:15:35.394Z</time>
      </trkpt>
      <trkpt lat="47.89806" lon="-4.01429">
        <ele>53.345188177576</ele>
        <time>2021-08-19T12:15:39.387Z</time>
      </trkpt>
      <trkpt lat="47.89813" lon="-4.01421">
        <ele>51.674856032024</ele>
        <time>2021-08-19T12:15:43.381Z</time>
      </trkpt>
      <trkpt lat="47.8982" lon="-4.01417">
        <ele>49.948814209992</ele>
        <time>2021-08-19T12:15:47.376Z</time>
      </trkpt>
      <trkpt lat="47.89844" lon="-4.01406">
        <ele>48.121943567976</ele>
        <time>2021-08-19T12:15:51.374Z</time>
      </trkpt>
      <trkpt lat="47.89878" lon="-4.01384">
        <ele>46.245499842802</ele>
        <time>2021-08-19T12:15:55.377Z</time>
      </trkpt>
      <trkpt lat="47.89896" lon="-4.0137">
        <ele>44.347076778277</ele>
        <time>2021-08-19T12:15:59.383Z</time>
      </trkpt>
      <trkpt lat="47.89922" lon="-4.01346">
        <ele>42.370220581138</ele>
        <time>2021-08-19T12:16:03.393Z</time>
      </trkpt>
      <trkpt lat="47.89949" lon="-4.01318">
        <ele>40.271224936576</ele>
        <time>2021-08-19T12:16:07.408Z</time>
      </trkpt>
      <trkpt lat="47.89958" lon="-4.01307">
        <ele>38.246783060841</ele>
        <time>2021-08-19T12:16:11.424Z</time>
      </trkpt>
      <trkpt lat="47.89972" lon="-4.01281">
        <ele>36.150961154441</ele>
        <time>2021-08-19T12:16:15.443Z</time>
      </trkpt>
      <trkpt lat="47.89985" lon="-4.01252">
        <ele>34.091244557041</ele>
        <time>2021-08-19T12:16:19.465Z</time>
      </trkpt>
      <trkpt lat="47.89999" lon="-4.01208">
        <ele>32.044138771754</ele>
        <time>2021-08-19T12:16:23.492Z</time>
      </trkpt>
      <trkpt lat="47.90007" lon="-4.01131">
        <ele>29.77395343698</ele>
        <time>2021-08-19T12:16:27.526Z</time>
      </trkpt>
      <trkpt lat="47.90017" lon="-4.01083">
        <ele>27.684207830296</ele>
        <time>2021-08-19T12:16:31.564Z</time>
      </trkpt>
      <trkpt lat="47.90026" lon="-4.01013">
        <ele>25.754517116884</ele>
        <time>2021-08-19T12:16:35.609Z</time>
      </trkpt>
      <trkpt lat="47.90032" lon="-4.00978">
        <ele>24.020405184564</ele>
        <time>2021-08-19T12:16:39.657Z</time>
      </trkpt>
      <trkpt lat="47.90041" lon="-4.00943">
        <ele>22.399489328742</ele>
        <time>2021-08-19T12:16:43.709Z</time>
      </trkpt>
      <trkpt lat="47.90054" lon="-4.0091">
        <ele>21.026097757682</ele>
        <time>2021-08-19T12:16:47.764Z</time>
      </trkpt>
      <trkpt lat="47.90131" lon="-4.00777">
        <ele>19.630137692329</ele>
        <time>2021-08-19T12:16:51.835Z</time>
      </trkpt>
      <trkpt lat="47.9015" lon="-4.00749">
        <ele>18.58714537236</ele>
        <time>2021-08-19T12:16:55.910Z</time>
      </trkpt>
      <trkpt lat="47.90182" lon="-4.0071">
        <ele>17.703003683646</ele>
        <time>2021-08-19T12:16:59.990Z</time>
      </trkpt>
      <trkpt lat="47.90251" lon="-4.00638">
        <ele>16.642642813908</ele>
        <time>2021-08-19T12:17:04.082Z</time>
      </trkpt>
      <trkpt lat="47.90271" lon="-4.00612">
        <ele>16.333203537872</ele>
        <time>2021-08-19T12:17:08.177Z</time>
      </trkpt>
      <trkpt lat="47.90287" lon="-4.00584">
        <ele>16.373566922747</ele>
        <time>2021-08-19T12:17:12.276Z</time>
      </trkpt>
      <trkpt lat="47.903" lon="-4.00555">
        <ele>16.666652414611</ele>
        <time>2021-08-19T12:17:16.378Z</time>
      </trkpt>
      <trkpt lat="47.90315" lon="-4.00504">
        <ele>17.241273840354</ele>
        <time>2021-08-19T12:17:20.485Z</time>
      </trkpt>
      <trkpt lat="47.90351" lon="-4.00337">
        <ele>18.060810240855</ele>
        <time>2021-08-19T12:17:24.608Z</time>
      </trkpt>
      <trkpt lat="47.90358" lon="-4.00281">
        <ele>19.001907424007</ele>
        <time>2021-08-19T12:17:28.736Z</time>
      </trkpt>
      <trkpt lat="47.90372" lon="-4.00143">
        <ele>20.301501688786</ele>
        <time>2021-08-19T12:17:32.877Z</time>
      </trkpt>
      <trkpt lat="47.90382" lon="-4.00074">
        <ele>21.417131353457</ele>
        <time>2021-08-19T12:17:37.024Z</time>
      </trkpt>
      <trkpt lat="47.90394" lon="-4.00016">
        <ele>22.579520685305</ele>
        <time>2021-08-19T12:17:41.176Z</time>
      </trkpt>
      <trkpt lat="47.90539" lon="-3.99421">
        <ele>23.525612441713</ele>
        <time>2021-08-19T12:17:45.386Z</time>
      </trkpt>
      <trkpt lat="47.90577" lon="-3.99278">
        <ele>24.829029865835</ele>
        <time>2021-08-19T12:17:49.610Z</time>
      </trkpt>
      <trkpt lat="47.90613" lon="-3.99153">
        <ele>26.144141593825</ele>
        <time>2021-08-19T12:17:53.846Z</time>
      </trkpt>
      <trkpt lat="47.90636" lon="-3.99067">
        <ele>27.284215925051</ele>
        <time>2021-08-19T12:17:58.091Z</time>
      </trkpt>
      <trkpt lat="47.90647" lon="-3.99017">
        <ele>28.193971359336</ele>
        <time>2021-08-19T12:18:02.341Z</time>
      </trkpt>
      <trkpt lat="47.9065" lon="-3.98972">
        <ele>28.956739813408</ele>
        <time>2021-08-19T12:18:06.595Z</time>
      </trkpt>
      <trkpt lat="47.90665" lon="-3.98874">
        <ele>29.668858064512</ele>
        <time>2021-08-19T12:18:10.858Z</time>
      </trkpt>
      <trkpt lat="47.90682" lon="-3.98813">
        <ele>30.178447086933</ele>
        <time>2021-08-19T12:18:15.127Z</time>
      </trkpt>
      <trkpt lat="47.90732" lon="-3.98668">
        <ele>30.388436629885</ele>
        <time>2021-08-19T12:18:19.411Z</time>
      </trkpt>
      <trkpt lat="47.90764" lon="-3.98551">
        <ele>30.116082893463</ele>
        <time>2021-08-19T12:18:23.706Z</time>
      </trkpt>
      <trkpt lat="47.90787" lon="-3.9849">
        <ele>29.570826410588</ele>
        <time>2021-08-19T12:18:28.008Z</time>
      </trkpt>
      <trkpt lat="47.90798" lon="-3.9845">
        <ele>28.836018339842</ele>
        <time>2021-08-19T12:18:32.313Z</time>
      </trkpt>
      <trkpt lat="47.90803" lon="-3.98422">
        <ele>28.012101702772</ele>
        <time>2021-08-19T12:18:36.621Z</time>
      </trkpt>
      <trkpt lat="47.90806" lon="-3.98376">
        <ele>26.977667864898</ele>
        <time>2021-08-19T12:18:40.933Z</time>
      </trkpt>
      <trkpt lat="47.90799" lon="-3.98272">
        <ele>25.662519126689</ele>
        <time>2021-08-19T12:18:45.255Z</time>
      </trkpt>
      <trkpt lat="47.90801" lon="-3.98236">
        <ele>24.29683338347</ele>
        <time>2021-08-19T12:18:49.580Z</time>
      </trkpt>
      <trkpt lat="47.90822" lon="-3.9814">
        <ele>22.830578968226</ele>
        <time>2021-08-19T12:18:53.914Z</time>
      </trkpt>
      <trkpt lat="47.90825" lon="-3.98106">
        <ele>21.333846351583</ele>
        <time>2021-08-19T12:18:58.251Z</time>
      </trkpt>
      <trkpt lat="47.9082" lon="-3.98065">
        <ele>19.624517173203</ele>
        <time>2021-08-19T12:19:02.592Z</time>
      </trkpt>
      <trkpt lat="47.90803" lon="-3.97975">
        <ele>17.701596103772</ele>
        <time>2021-08-19T12:19:06.942Z</time>
      </trkpt>
      <trkpt lat="47.90806" lon="-3.97956">
        <ele>16.112089002073</ele>
        <time>2021-08-19T12:19:11.293Z</time>
      </trkpt>
      <trkpt lat="47.90821" lon="-3.97919">
        <ele>14.51132137154</ele>
        <time>2021-08-19T12:19:15.648Z</time>
      </trkpt>
      <trkpt lat="47.90832" lon="-3.97902">
        <ele>13.06554028219</ele>
        <time>2021-08-19T12:19:20.005Z</time>
      </trkpt>
      <trkpt lat="47.90838" lon="-3.97896">
        <ele>11.785025628621</ele>
        <time>2021-08-19T12:19:24.363Z</time>
      </trkpt>
      <trkpt lat="47.90853" lon="-3.97885">
        <ele>10.601256516044</ele>
        <time>2021-08-19T12:19:28.724Z</time>
      </trkpt>
      <trkpt lat="47.90921" lon="-3.97848">
        <ele>9.4390286679614</ele>
        <time>2021-08-19T12:19:33.095Z</time>
      </trkpt>
      <trkpt lat="47.90945" lon="-3.97834">
        <ele>8.6973779462188</ele>
        <time>2021-08-19T12:19:37.469Z</time>
      </trkpt>
      <trkpt lat="47.90951" lon="-3.97824">
        <ele>8.1635055736395</ele>
        <time>2021-08-19T12:19:41.844Z</time>
      </trkpt>
      <trkpt lat="47.90958" lon="-3.978">
        <ele>7.8457612474757</ele>
        <time>2021-08-19T12:19:46.222Z</time>
      </trkpt>
      <trkpt lat="47.90962" lon="-3.97796">
        <ele>7.7765511134319</ele>
        <time>2021-08-19T12:19:50.600Z</time>
      </trkpt>
      <trkpt lat="47.90976" lon="-3.97793">
        <ele>7.9550665898629</ele>
        <time>2021-08-19T12:19:54.980Z</time>
      </trkpt>
      <trkpt lat="47.90984" lon="-3.97788">
        <ele>8.3654116504984</ele>
        <time>2021-08-19T12:19:59.361Z</time>
      </trkpt>
      <trkpt lat="47.90991" lon="-3.97778">
        <ele>9.0036624787087</ele>
        <time>2021-08-19T12:20:03.744Z</time>
      </trkpt>
      <trkpt lat="47.91006" lon="-3.97746">
        <ele>10.088104952985</ele>
        <time>2021-08-19T12:20:08.130Z</time>
      </trkpt>
      <trkpt lat="47.91028" lon="-3.97718">
        <ele>11.316729897175</ele>
        <time>2021-08-19T12:20:12.520Z</time>
      </trkpt>
      <trkpt lat="47.91081" lon="-3.97667">
        <ele>12.875141063316</ele>
        <time>2021-08-19T12:20:16.919Z</time>
      </trkpt>
      <trkpt lat="47.91133" lon="-3.97623">
        <ele>14.386761555161</ele>
        <time>2021-08-19T12:20:21.326Z</time>
      </trkpt>
      <trkpt lat="47.91147" lon="-3.97607">
        <ele>15.990660120155</ele>
        <time>2021-08-19T12:20:25.735Z</time>
      </trkpt>
      <trkpt lat="47.91165" lon="-3.97572">
        <ele>17.821830348025</ele>
        <time>2021-08-19T12:20:30.148Z</time>
      </trkpt>
      <trkpt lat="47.91179" lon="-3.97529">
        <ele>19.836047591172</ele>
        <time>2021-08-19T12:20:34.565Z</time>
      </trkpt>
      <trkpt lat="47.91193" lon="-3.97494">
        <ele>21.830375033637</ele>
        <time>2021-08-19T12:20:38.986Z</time>
      </trkpt>
      <trkpt lat="47.91202" lon="-3.97477">
        <ele>23.767931217184</ele>
        <time>2021-08-19T12:20:43.409Z</time>
      </trkpt>
      <trkpt lat="47.91216" lon="-3.97459">
        <ele>25.72348051758</ele>
        <time>2021-08-19T12:20:47.835Z</time>
      </trkpt>
      <trkpt lat="47.91229" lon="-3.97451">
        <ele>27.651617860918</ele>
        <time>2021-08-19T12:20:52.262Z</time>
      </trkpt>
      <trkpt lat="47.91243" lon="-3.97445">
        <ele>29.574230785354</ele>
        <time>2021-08-19T12:20:56.691Z</time>
      </trkpt>
      <trkpt lat="47.91314" lon="-3.97416">
        <ele>31.679937665871</ele>
        <time>2021-08-19T12:21:01.130Z</time>
      </trkpt>
      <trkpt lat="47.91403" lon="-3.97377">
        <ele>34.187800739762</ele>
        <time>2021-08-19T12:21:05.582Z</time>
      </trkpt>
      <trkpt lat="47.91412" lon="-3.97375">
        <ele>36.157992223724</ele>
        <time>2021-08-19T12:21:10.035Z</time>
      </trkpt>
      <trkpt lat="47.91426" lon="-3.97379">
        <ele>38.063666658004</ele>
        <time>2021-08-19T12:21:14.490Z</time>
      </trkpt>
      <trkpt lat="47.91459" lon="-3.97407">
        <ele>39.822363008598</ele>
        <time>2021-08-19T12:21:18.950Z</time>
      </trkpt>
      <trkpt lat="47.91468" lon="-3.97412">
        <ele>41.591845334553</ele>
        <time>2021-08-19T12:21:23.411Z</time>
      </trkpt>
      <trkpt lat="47.91477" lon="-3.97414">
        <ele>43.340140398615</ele>
        <time>2021-08-19T12:21:27.874Z</time>
      </trkpt>
      <trkpt lat="47.91498" lon="-3.97409">
        <ele>45.166589996826</ele>
        <time>2021-08-19T12:21:32.340Z</time>
      </trkpt>
      <trkpt lat="47.91515" lon="-3.9739">
        <ele>46.943482703579</ele>
        <time>2021-08-19T12:21:36.809Z</time>
      </trkpt>
      <trkpt lat="47.91529" lon="-3.97362">
        <ele>48.653979848408</ele>
        <time>2021-08-19T12:21:41.281Z</time>
      </trkpt>
      <trkpt lat="47.91555" lon="-3.97327">
        <ele>50.311048582577</ele>
        <time>2021-08-19T12:21:45.757Z</time>
      </trkpt>
      <trkpt lat="47.91568" lon="-3.97304">
        <ele>51.836544202253</ele>
        <time>2021-08-19T12:21:50.236Z</time>
      </trkpt>
      <trkpt lat="47.91624" lon="-3.97193">
        <ele>53.362377380126</ele>
        <time>2021-08-19T12:21:54.728Z</time>
      </trkpt>
      <trkpt lat="47.91675" lon="-3.971">
        <ele>54.505984388848</ele>
        <time>2021-08-19T12:21:59.231Z</time>
      </trkpt>
      <trkpt lat="47.91693" lon="-3.97063">
        <ele>55.607453685311</ele>
        <time>2021-08-19T12:22:03.738Z</time>
      </trkpt>
      <trkpt lat="47.91697" lon="-3.9704">
        <ele>56.679189846915</ele>
        <time>2021-08-19T12:22:08.247Z</time>
      </trkpt>
      <trkpt lat="47.91689" lon="-3.96912">
        <ele>57.848793631021</ele>
        <time>2021-08-19T12:22:12.768Z</time>
      </trkpt>
      <trkpt lat="47.91692" lon="-3.9686">
        <ele>58.603159552073</ele>
        <time>2021-08-19T12:22:17.293Z</time>
      </trkpt>
      <trkpt lat="47.91703" lon="-3.96792">
        <ele>59.347487690226</ele>
        <time>2021-08-19T12:22:21.825Z</time>
      </trkpt>
      <trkpt lat="47.91716" lon="-3.96746">
        <ele>60.063521772484</ele>
        <time>2021-08-19T12:22:26.361Z</time>
      </trkpt>
      <trkpt lat="47.91724" lon="-3.96723">
        <ele>60.71693146687</ele>
        <time>2021-08-19T12:22:30.900Z</time>
      </trkpt>
      <trkpt lat="47.91744" lon="-3.96677">
        <ele>61.266581701296</ele>
        <time>2021-08-19T12:22:35.444Z</time>
      </trkpt>
      <trkpt lat="47.91782" lon="-3.96594">
        <ele>61.813463410297</ele>
        <time>2021-08-19T12:22:39.997Z</time>
      </trkpt>
      <trkpt lat="47.91804" lon="-3.96538">
        <ele>62.320937413391</ele>
        <time>2021-08-19T12:22:44.556Z</time>
      </trkpt>
      <trkpt lat="47.91815" lon="-3.96479">
        <ele>62.820638482474</ele>
        <time>2021-08-19T12:22:49.120Z</time>
      </trkpt>
      <trkpt lat="47.91827" lon="-3.9643">
        <ele>63.270982366371</ele>
        <time>2021-08-19T12:22:53.689Z</time>
      </trkpt>
      <trkpt lat="47.91836" lon="-3.96396">
        <ele>63.636006852771</ele>
        <time>2021-08-19T12:22:58.261Z</time>
      </trkpt>
      <trkpt lat="47.9185" lon="-3.96358">
        <ele>63.928844970509</ele>
        <time>2021-08-19T12:23:02.837Z</time>
      </trkpt>
      <trkpt lat="47.91852" lon="-3.96343">
        <ele>64.074306956348</ele>
        <time>2021-08-19T12:23:07.415Z</time>
      </trkpt>
      <trkpt lat="47.91852" lon="-3.96326">
        <ele>64.126305983084</ele>
        <time>2021-08-19T12:23:11.994Z</time>
      </trkpt>
      <trkpt lat="47.91847" lon="-3.96302">
        <ele>64.08383075586</ele>
        <time>2021-08-19T12:23:16.575Z</time>
      </trkpt>
      <trkpt lat="47.91818" lon="-3.96248">
        <ele>64.005401218934</ele>
        <time>2021-08-19T12:23:21.163Z</time>
      </trkpt>
      <trkpt lat="47.9179" lon="-3.96184">
        <ele>63.720049897258</ele>
        <time>2021-08-19T12:23:25.758Z</time>
      </trkpt>
      <trkpt lat="47.9178" lon="-3.96124">
        <ele>63.348601463343</ele>
        <time>2021-08-19T12:23:30.358Z</time>
      </trkpt>
      <trkpt lat="47.91776" lon="-3.96062">
        <ele>62.796840437262</ele>
        <time>2021-08-19T12:23:34.964Z</time>
      </trkpt>
      <trkpt lat="47.9178" lon="-3.9582">
        <ele>62.01391180065</ele>
        <time>2021-08-19T12:23:39.592Z</time>
      </trkpt>
      <trkpt lat="47.91779" lon="-3.9576">
        <ele>60.871605468495</ele>
        <time>2021-08-19T12:23:44.225Z</time>
      </trkpt>
      <trkpt lat="47.91774" lon="-3.95697">
        <ele>59.624540924777</ele>
        <time>2021-08-19T12:23:48.864Z</time>
      </trkpt>
      <trkpt lat="47.91766" lon="-3.95658">
        <ele>58.325509269658</ele>
        <time>2021-08-19T12:23:53.507Z</time>
      </trkpt>
      <trkpt lat="47.91754" lon="-3.95618">
        <ele>56.933333407219</ele>
        <time>2021-08-19T12:23:58.154Z</time>
      </trkpt>
      <trkpt lat="47.91745" lon="-3.95592">
        <ele>55.447327713497</ele>
        <time>2021-08-19T12:24:02.804Z</time>
      </trkpt>
      <trkpt lat="47.91718" lon="-3.95542">
        <ele>53.784194294169</ele>
        <time>2021-08-19T12:24:07.459Z</time>
      </trkpt>
      <trkpt lat="47.91683" lon="-3.95495">
        <ele>52.086586072975</ele>
        <time>2021-08-19T12:24:12.121Z</time>
      </trkpt>
      <trkpt lat="47.91614" lon="-3.95413">
        <ele>50.409441168453</ele>
        <time>2021-08-19T12:24:16.795Z</time>
      </trkpt>
      <trkpt lat="47.91595" lon="-3.95386">
        <ele>48.558710159173</ele>
        <time>2021-08-19T12:24:21.472Z</time>
      </trkpt>
      <trkpt lat="47.91577" lon="-3.95354">
        <ele>46.740985476098</ele>
        <time>2021-08-19T12:24:26.153Z</time>
      </trkpt>
      <trkpt lat="47.9157" lon="-3.95337">
        <ele>44.963311443227</ele>
        <time>2021-08-19T12:24:30.836Z</time>
      </trkpt>
      <trkpt lat="47.91563" lon="-3.95319">
        <ele>43.226113495331</ele>
        <time>2021-08-19T12:24:35.521Z</time>
      </trkpt>
      <trkpt lat="47.91554" lon="-3.95281">
        <ele>41.527161791654</ele>
        <time>2021-08-19T12:24:40.209Z</time>
      </trkpt>
      <trkpt lat="47.91545" lon="-3.95222">
        <ele>39.750208709274</ele>
        <time>2021-08-19T12:24:44.903Z</time>
      </trkpt>
      <trkpt lat="47.91538" lon="-3.95138">
        <ele>38.337185706663</ele>
        <time>2021-08-19T12:24:49.605Z</time>
      </trkpt>
      <trkpt lat="47.91532" lon="-3.95096">
        <ele>37.04737412242</ele>
        <time>2021-08-19T12:24:54.310Z</time>
      </trkpt>
      <trkpt lat="47.91514" lon="-3.95037">
        <ele>35.795647893008</ele>
        <time>2021-08-19T12:24:59.021Z</time>
      </trkpt>
      <trkpt lat="47.91479" lon="-3.94946">
        <ele>34.853043409194</ele>
        <time>2021-08-19T12:25:03.742Z</time>
      </trkpt>
      <trkpt lat="47.91463" lon="-3.94888">
        <ele>34.307479596641</ele>
        <time>2021-08-19T12:25:08.469Z</time>
      </trkpt>
      <trkpt lat="47.91459" lon="-3.94847">
        <ele>33.848105181069</ele>
        <time>2021-08-19T12:25:13.199Z</time>
      </trkpt>
      <trkpt lat="47.9146" lon="-3.94806">
        <ele>33.854702245619</ele>
        <time>2021-08-19T12:25:17.933Z</time>
      </trkpt>
      <trkpt lat="47.91476" lon="-3.94709">
        <ele>33.73034984203</ele>
        <time>2021-08-19T12:25:22.676Z</time>
      </trkpt>
      <trkpt lat="47.91502" lon="-3.9462">
        <ele>34.324357950655</ele>
        <time>2021-08-19T12:25:27.428Z</time>
      </trkpt>
      <trkpt lat="47.91514" lon="-3.94573">
        <ele>35.729777460854</ele>
        <time>2021-08-19T12:25:32.185Z</time>
      </trkpt>
      <trkpt lat="47.91543" lon="-3.94426">
        <ele>37.701404956977</ele>
        <time>2021-08-19T12:25:36.956Z</time>
      </trkpt>
      <trkpt lat="47.91563" lon="-3.9431">
        <ele>39.641545609052</ele>
        <time>2021-08-19T12:25:41.737Z</time>
      </trkpt>
      <trkpt lat="47.91576" lon="-3.94255">
        <ele>41.650723215651</ele>
        <time>2021-08-19T12:25:46.524Z</time>
      </trkpt>
      <trkpt lat="47.916" lon="-3.94191">
        <ele>43.837220246027</ele>
        <time>2021-08-19T12:25:51.317Z</time>
      </trkpt>
      <trkpt lat="47.9169" lon="-3.93993">
        <ele>46.337257647817</ele>
        <time>2021-08-19T12:25:56.132Z</time>
      </trkpt>
      <trkpt lat="47.91705" lon="-3.93943">
        <ele>48.668679800422</ele>
        <time>2021-08-19T12:26:00.952Z</time>
      </trkpt>
      <trkpt lat="47.91728" lon="-3.93854">
        <ele>51.093251867569</ele>
        <time>2021-08-19T12:26:05.781Z</time>
      </trkpt>
      <trkpt lat="47.91736" lon="-3.93807">
        <ele>53.143897439388</ele>
        <time>2021-08-19T12:26:10.614Z</time>
      </trkpt>
      <trkpt lat="47.91739" lon="-3.93743">
        <ele>55.150108776675</ele>
        <time>2021-08-19T12:26:15.453Z</time>
      </trkpt>
      <trkpt lat="47.91732" lon="-3.93657">
        <ele>56.945798655067</ele>
        <time>2021-08-19T12:26:20.300Z</time>
      </trkpt>
      <trkpt lat="47.91724" lon="-3.9361">
        <ele>58.798233389362</ele>
        <time>2021-08-19T12:26:25.151Z</time>
      </trkpt>
      <trkpt lat="47.91722" lon="-3.93569">
        <ele>60.639352346131</ele>
        <time>2021-08-19T12:26:30.006Z</time>
      </trkpt>
      <trkpt lat="47.91725" lon="-3.93544">
        <ele>62.331176884706</ele>
        <time>2021-08-19T12:26:34.863Z</time>
      </trkpt>
      <trkpt lat="47.91729" lon="-3.93529">
        <ele>63.91353259528</ele>
        <time>2021-08-19T12:26:39.722Z</time>
      </trkpt>
      <trkpt lat="47.91766" lon="-3.93421">
        <ele>65.669834627613</ele>
        <time>2021-08-19T12:26:44.592Z</time>
      </trkpt>
      <trkpt lat="47.91775" lon="-3.93367">
        <ele>67.212844127841</ele>
        <time>2021-08-19T12:26:49.467Z</time>
      </trkpt>
      <trkpt lat="47.91772" lon="-3.93327">
        <ele>68.553739961175</ele>
        <time>2021-08-19T12:26:54.345Z</time>
      </trkpt>
      <trkpt lat="47.91776" lon="-3.93312">
        <ele>69.7866370833</ele>
        <time>2021-08-19T12:26:59.225Z</time>
      </trkpt>
      <trkpt lat="47.9178" lon="-3.93308">
        <ele>70.94316319934</ele>
        <time>2021-08-19T12:27:04.106Z</time>
      </trkpt>
      <trkpt lat="47.91796" lon="-3.93308">
        <ele>72.032888394771</ele>
        <time>2021-08-19T12:27:08.989Z</time>
      </trkpt>
      <trkpt lat="47.91808" lon="-3.93304">
        <ele>73.06553933868</ele>
        <time>2021-08-19T12:27:13.873Z</time>
      </trkpt>
      <trkpt lat="47.91818" lon="-3.93294">
        <ele>74.050243996227</ele>
        <time>2021-08-19T12:27:18.759Z</time>
      </trkpt>
      <trkpt lat="47.91835" lon="-3.93268">
        <ele>75.009781595225</ele>
        <time>2021-08-19T12:27:23.648Z</time>
      </trkpt>
      <trkpt lat="47.92045" lon="-3.92897">
        <ele>76.277295998011</ele>
        <time>2021-08-19T12:27:28.582Z</time>
      </trkpt>
      <trkpt lat="47.9207" lon="-3.92845">
        <ele>77.211158526565</ele>
        <time>2021-08-19T12:27:33.521Z</time>
      </trkpt>
      <trkpt lat="47.9208" lon="-3.92817">
        <ele>78.039062847298</ele>
        <time>2021-08-19T12:27:38.463Z</time>
      </trkpt>
      <trkpt lat="47.92088" lon="-3.92788">
        <ele>78.827748888253</ele>
        <time>2021-08-19T12:27:43.408Z</time>
      </trkpt>
      <trkpt lat="47.92093" lon="-3.92758">
        <ele>79.613443727557</ele>
        <time>2021-08-19T12:27:48.356Z</time>
      </trkpt>
      <trkpt lat="47.92126" lon="-3.92513">
        <ele>80.606571955653</ele>
        <time>2021-08-19T12:27:53.327Z</time>
      </trkpt>
      <trkpt lat="47.92133" lon="-3.92445">
        <ele>81.388532743996</ele>
        <time>2021-08-19T12:27:58.304Z</time>
      </trkpt>
      <trkpt lat="47.92133" lon="-3.92371">
        <ele>82.081634295173</ele>
        <time>2021-08-19T12:28:03.287Z</time>
      </trkpt>
      <trkpt lat="47.92131" lon="-3.9229">
        <ele>82.605695355734</ele>
        <time>2021-08-19T12:28:08.278Z</time>
      </trkpt>
      <trkpt lat="47.9212" lon="-3.92198">
        <ele>83.252000375104</ele>
        <time>2021-08-19T12:28:13.277Z</time>
      </trkpt>
      <trkpt lat="47.921" lon="-3.92075">
        <ele>83.888853008736</ele>
        <time>2021-08-19T12:28:18.288Z</time>
      </trkpt>
      <trkpt lat="47.92094" lon="-3.92027">
        <ele>84.313564667807</ele>
        <time>2021-08-19T12:28:23.303Z</time>
      </trkpt>
      <trkpt lat="47.92092" lon="-3.91962">
        <ele>84.743361411614</ele>
        <time>2021-08-19T12:28:28.324Z</time>
      </trkpt>
      <trkpt lat="47.92077" lon="-3.91744">
        <ele>84.9657383466</ele>
        <time>2021-08-19T12:28:33.365Z</time>
      </trkpt>
      <trkpt lat="47.92071" lon="-3.91457">
        <ele>85.579280687827</ele>
        <time>2021-08-19T12:28:38.432Z</time>
      </trkpt>
      <trkpt lat="47.92071" lon="-3.91351">
        <ele>85.996989878844</ele>
        <time>2021-08-19T12:28:43.509Z</time>
      </trkpt>
      <trkpt lat="47.92071" lon="-3.91292">
        <ele>86.168136519931</ele>
        <time>2021-08-19T12:28:48.591Z</time>
      </trkpt>
      <trkpt lat="47.92076" lon="-3.91206">
        <ele>86.232423181453</ele>
        <time>2021-08-19T12:28:53.681Z</time>
      </trkpt>
      <trkpt lat="47.92089" lon="-3.90794">
        <ele>86.243527299144</ele>
        <time>2021-08-19T12:28:58.809Z</time>
      </trkpt>
      <trkpt lat="47.92101" lon="-3.90697">
        <ele>86.092360306293</ele>
        <time>2021-08-19T12:29:03.946Z</time>
      </trkpt>
      <trkpt lat="47.92104" lon="-3.90632">
        <ele>85.9614049693</ele>
        <time>2021-08-19T12:29:09.088Z</time>
      </trkpt>
      <trkpt lat="47.92098" lon="-3.9055">
        <ele>85.658448671624</ele>
        <time>2021-08-19T12:29:14.238Z</time>
      </trkpt>
      <trkpt lat="47.92099" lon="-3.90451">
        <ele>85.277484833976</ele>
        <time>2021-08-19T12:29:19.397Z</time>
      </trkpt>
      <trkpt lat="47.92105" lon="-3.90396">
        <ele>84.881817431012</ele>
        <time>2021-08-19T12:29:24.561Z</time>
      </trkpt>
      <trkpt lat="47.92119" lon="-3.90316">
        <ele>84.478471777643</ele>
        <time>2021-08-19T12:29:29.732Z</time>
      </trkpt>
      <trkpt lat="47.92125" lon="-3.90234">
        <ele>84.072363155505</ele>
        <time>2021-08-19T12:29:34.911Z</time>
      </trkpt>
      <trkpt lat="47.92138" lon="-3.90164">
        <ele>83.632858010997</ele>
        <time>2021-08-19T12:29:40.097Z</time>
      </trkpt>
      <trkpt lat="47.92138" lon="-3.90152">
        <ele>83.086526761015</ele>
        <time>2021-08-19T12:29:45.284Z</time>
      </trkpt>
      <trkpt lat="47.92135" lon="-3.90131">
        <ele>82.467299768993</ele>
        <time>2021-08-19T12:29:50.473Z</time>
      </trkpt>
      <trkpt lat="47.92109" lon="-3.90035">
        <ele>81.801863596278</ele>
        <time>2021-08-19T12:29:55.671Z</time>
      </trkpt>
      <trkpt lat="47.92106" lon="-3.90009">
        <ele>81.074769702337</ele>
        <time>2021-08-19T12:30:00.871Z</time>
      </trkpt>
      <trkpt lat="47.92105" lon="-3.89982">
        <ele>80.312232209706</ele>
        <time>2021-08-19T12:30:06.074Z</time>
      </trkpt>
      <trkpt lat="47.92105" lon="-3.89863">
        <ele>79.387269944551</ele>
        <time>2021-08-19T12:30:11.288Z</time>
      </trkpt>
      <trkpt lat="47.9211" lon="-3.89761">
        <ele>78.514315270218</ele>
        <time>2021-08-19T12:30:16.511Z</time>
      </trkpt>
      <trkpt lat="47.92125" lon="-3.89533">
        <ele>77.510191229615</ele>
        <time>2021-08-19T12:30:21.755Z</time>
      </trkpt>
      <trkpt lat="47.92124" lon="-3.89437">
        <ele>76.56939132176</ele>
        <time>2021-08-19T12:30:27.008Z</time>
      </trkpt>
      <trkpt lat="47.9213" lon="-3.89297">
        <ele>75.466464903146</ele>
        <time>2021-08-19T12:30:32.273Z</time>
      </trkpt>
      <trkpt lat="47.92127" lon="-3.89237">
        <ele>74.405974564673</ele>
        <time>2021-08-19T12:30:37.544Z</time>
      </trkpt>
      <trkpt lat="47.9212" lon="-3.89162">
        <ele>73.40218961005</ele>
        <time>2021-08-19T12:30:42.822Z</time>
      </trkpt>
      <trkpt lat="47.92108" lon="-3.89119">
        <ele>72.381190027215</ele>
        <time>2021-08-19T12:30:48.104Z</time>
      </trkpt>
      <trkpt lat="47.9209" lon="-3.89079">
        <ele>71.360725577654</ele>
        <time>2021-08-19T12:30:53.390Z</time>
      </trkpt>
      <trkpt lat="47.91993" lon="-3.88907">
        <ele>70.300053158614</ele>
        <time>2021-08-19T12:30:58.697Z</time>
      </trkpt>
      <trkpt lat="47.91973" lon="-3.88863">
        <ele>69.344673561329</ele>
        <time>2021-08-19T12:31:04.009Z</time>
      </trkpt>
      <trkpt lat="47.91962" lon="-3.88829">
        <ele>68.409954262706</ele>
        <time>2021-08-19T12:31:09.324Z</time>
      </trkpt>
      <trkpt lat="47.91901" lon="-3.88607">
        <ele>67.070947486814</ele>
        <time>2021-08-19T12:31:14.661Z</time>
      </trkpt>
      <trkpt lat="47.91869" lon="-3.88522">
        <ele>66.321339617385</ele>
        <time>2021-08-19T12:31:20.007Z</time>
      </trkpt>
      <trkpt lat="47.91842" lon="-3.88473">
        <ele>65.808938853035</ele>
        <time>2021-08-19T12:31:25.358Z</time>
      </trkpt>
      <trkpt lat="47.91816" lon="-3.88438">
        <ele>65.380155940498</ele>
        <time>2021-08-19T12:31:30.714Z</time>
      </trkpt>
      <trkpt lat="47.91725" lon="-3.88337">
        <ele>65.109182053796</ele>
        <time>2021-08-19T12:31:36.085Z</time>
      </trkpt>
      <trkpt lat="47.91709" lon="-3.8831">
        <ele>64.405709337537</ele>
        <time>2021-08-19T12:31:41.460Z</time>
      </trkpt>
      <trkpt lat="47.91693" lon="-3.88279">
        <ele>63.622386425696</ele>
        <time>2021-08-19T12:31:46.838Z</time>
      </trkpt>
      <trkpt lat="47.91666" lon="-3.88213">
        <ele>62.850541988249</ele>
        <time>2021-08-19T12:31:52.223Z</time>
      </trkpt>
      <trkpt lat="47.91533" lon="-3.87824">
        <ele>62.063346984169</ele>
        <time>2021-08-19T12:31:57.648Z</time>
      </trkpt>
      <trkpt lat="47.91513" lon="-3.8777">
        <ele>61.471770583623</ele>
        <time>2021-08-19T12:32:03.079Z</time>
      </trkpt>
      <trkpt lat="47.91484" lon="-3.8771">
        <ele>60.815369644893</ele>
        <time>2021-08-19T12:32:08.516Z</time>
      </trkpt>
      <trkpt lat="47.91467" lon="-3.87681">
        <ele>60.215144615268</ele>
        <time>2021-08-19T12:32:13.957Z</time>
      </trkpt>
      <trkpt lat="47.91419" lon="-3.87616">
        <ele>59.528258834775</ele>
        <time>2021-08-19T12:32:19.407Z</time>
      </trkpt>
      <trkpt lat="47.91387" lon="-3.87579">
        <ele>59.080909891961</ele>
        <time>2021-08-19T12:32:24.862Z</time>
      </trkpt>
      <trkpt lat="47.91358" lon="-3.8754">
        <ele>58.802655659099</ele>
        <time>2021-08-19T12:32:30.322Z</time>
      </trkpt>
      <trkpt lat="47.91345" lon="-3.8752">
        <ele>58.673767896639</ele>
        <time>2021-08-19T12:32:35.785Z</time>
      </trkpt>
      <trkpt lat="47.91321" lon="-3.87476">
        <ele>58.673231372077</ele>
        <time>2021-08-19T12:32:41.253Z</time>
      </trkpt>
      <trkpt lat="47.91266" lon="-3.87364">
        <ele>58.581353518196</ele>
        <time>2021-08-19T12:32:46.734Z</time>
      </trkpt>
      <trkpt lat="47.91193" lon="-3.87209">
        <ele>58.330794277883</ele>
        <time>2021-08-19T12:32:52.232Z</time>
      </trkpt>
      <trkpt lat="47.91121" lon="-3.87042">
        <ele>59.440553731489</ele>
        <time>2021-08-19T12:32:57.748Z</time>
      </trkpt>
      <trkpt lat="47.91029" lon="-3.86856">
        <ele>60.520854609158</ele>
        <time>2021-08-19T12:33:03.285Z</time>
      </trkpt>
      <trkpt lat="47.91007" lon="-3.86808">
        <ele>61.646463843896</ele>
        <time>2021-08-19T12:33:08.827Z</time>
      </trkpt>
      <trkpt lat="47.90997" lon="-3.86777">
        <ele>62.935665333681</ele>
        <time>2021-08-19T12:33:14.372Z</time>
      </trkpt>
      <trkpt lat="47.90986" lon="-3.86725">
        <ele>64.421859228108</ele>
        <time>2021-08-19T12:33:19.922Z</time>
      </trkpt>
      <trkpt lat="47.90982" lon="-3.86672">
        <ele>65.961859989835</ele>
        <time>2021-08-19T12:33:25.477Z</time>
      </trkpt>
      <trkpt lat="47.90981" lon="-3.86548">
        <ele>67.67084767308</ele>
        <time>2021-08-19T12:33:31.043Z</time>
      </trkpt>
      <trkpt lat="47.90978" lon="-3.8652">
        <ele>69.459668208631</ele>
        <time>2021-08-19T12:33:36.612Z</time>
      </trkpt>
      <trkpt lat="47.90968" lon="-3.86463">
        <ele>71.218992107677</ele>
        <time>2021-08-19T12:33:42.186Z</time>
      </trkpt>
      <trkpt lat="47.90951" lon="-3.86407">
        <ele>73.226113118817</ele>
        <time>2021-08-19T12:33:47.766Z</time>
      </trkpt>
      <trkpt lat="47.909" lon="-3.8628">
        <ele>75.612710763445</ele>
        <time>2021-08-19T12:33:53.359Z</time>
      </trkpt>
      <trkpt lat="47.90888" lon="-3.86245">
        <ele>77.771739669349</ele>
        <time>2021-08-19T12:33:58.956Z</time>
      </trkpt>
      <trkpt lat="47.908" lon="-3.85966">
        <ele>80.472889887128</ele>
        <time>2021-08-19T12:34:04.581Z</time>
      </trkpt>
      <trkpt lat="47.90781" lon="-3.85897">
        <ele>82.711546679882</ele>
        <time>2021-08-19T12:34:10.213Z</time>
      </trkpt>
      <trkpt lat="47.9077" lon="-3.85846">
        <ele>84.728052008169</ele>
        <time>2021-08-19T12:34:15.850Z</time>
      </trkpt>
      <trkpt lat="47.90742" lon="-3.8567">
        <ele>86.639177246516</ele>
        <time>2021-08-19T12:34:21.503Z</time>
      </trkpt>
      <trkpt lat="47.90734" lon="-3.85638">
        <ele>88.368560489411</ele>
        <time>2021-08-19T12:34:27.159Z</time>
      </trkpt>
      <trkpt lat="47.90708" lon="-3.85567">
        <ele>90.091032910744</ele>
        <time>2021-08-19T12:34:32.822Z</time>
      </trkpt>
      <trkpt lat="47.90691" lon="-3.85527">
        <ele>91.639897337418</ele>
        <time>2021-08-19T12:34:38.490Z</time>
      </trkpt>
      <trkpt lat="47.90686" lon="-3.85519">
        <ele>92.975006466759</ele>
        <time>2021-08-19T12:34:44.159Z</time>
      </trkpt>
      <trkpt lat="47.9065" lon="-3.85366">
        <ele>93.959375884946</ele>
        <time>2021-08-19T12:34:49.843Z</time>
      </trkpt>
      <trkpt lat="47.90643" lon="-3.85347">
        <ele>94.947919343628</ele>
        <time>2021-08-19T12:34:55.528Z</time>
      </trkpt>
      <trkpt lat="47.90576" lon="-3.85207">
        <ele>95.886373145463</ele>
        <time>2021-08-19T12:35:01.229Z</time>
      </trkpt>
      <trkpt lat="47.90558" lon="-3.85158">
        <ele>96.691854078244</ele>
        <time>2021-08-19T12:35:06.935Z</time>
      </trkpt>
      <trkpt lat="47.90551" lon="-3.85132">
        <ele>97.278125240851</ele>
        <time>2021-08-19T12:35:12.644Z</time>
      </trkpt>
      <trkpt lat="47.90544" lon="-3.85096">
        <ele>97.692018492841</ele>
        <time>2021-08-19T12:35:18.356Z</time>
      </trkpt>
      <trkpt lat="47.90542" lon="-3.85049">
        <ele>97.969773862947</ele>
        <time>2021-08-19T12:35:24.072Z</time>
      </trkpt>
      <trkpt lat="47.90544" lon="-3.85003">
        <ele>98.078360271958</ele>
        <time>2021-08-19T12:35:29.793Z</time>
      </trkpt>
      <trkpt lat="47.90548" lon="-3.84976">
        <ele>98.044797441676</ele>
        <time>2021-08-19T12:35:35.516Z</time>
      </trkpt>
      <trkpt lat="47.90562" lon="-3.84922">
        <ele>97.873572824664</ele>
        <time>2021-08-19T12:35:41.244Z</time>
      </trkpt>
      <trkpt lat="47.90565" lon="-3.84924">
        <ele>97.679857366882</ele>
        <time>2021-08-19T12:35:46.973Z</time>
      </trkpt>
      <trkpt lat="47.90565" lon="-3.84924">
        <ele>97.426229169442</ele>
        <time>2021-08-19T12:35:52.702Z</time>
      </trkpt>
      <trkpt lat="47.90591" lon="-3.84836">
        <ele>96.951867749623</ele>
        <time>2021-08-19T12:35:58.440Z</time>
      </trkpt>
      <trkpt lat="47.90591" lon="-3.84836">
        <ele>96.629184121843</ele>
        <time>2021-08-19T12:36:04.178Z</time>
      </trkpt>
      <trkpt lat="47.90617" lon="-3.84744">
        <ele>96.257964402455</ele>
        <time>2021-08-19T12:36:09.925Z</time>
      </trkpt>
      <trkpt lat="47.90627" lon="-3.84689">
        <ele>95.960839135906</ele>
        <time>2021-08-19T12:36:15.677Z</time>
      </trkpt>
      <trkpt lat="47.90632" lon="-3.84575">
        <ele>95.603815952123</ele>
        <time>2021-08-19T12:36:21.439Z</time>
      </trkpt>
      <trkpt lat="47.90644" lon="-3.84512">
        <ele>95.272420406582</ele>
        <time>2021-08-19T12:36:27.207Z</time>
      </trkpt>
      <trkpt lat="47.90644" lon="-3.84512">
        <ele>95.067647974361</ele>
        <time>2021-08-19T12:36:32.975Z</time>
      </trkpt>
      <trkpt lat="47.90663" lon="-3.84395">
        <ele>94.78186686066</ele>
        <time>2021-08-19T12:36:38.754Z</time>
      </trkpt>
      <trkpt lat="47.90663" lon="-3.84395">
        <ele>94.700631647327</ele>
        <time>2021-08-19T12:36:44.533Z</time>
      </trkpt>
      <trkpt lat="47.90667" lon="-3.84363">
        <ele>94.672553331261</ele>
        <time>2021-08-19T12:36:50.315Z</time>
      </trkpt>
      <trkpt lat="47.90668" lon="-3.84341">
        <ele>94.764005790512</ele>
        <time>2021-08-19T12:36:56.099Z</time>
      </trkpt>
      <trkpt lat="47.90657" lon="-3.84176">
        <ele>95.173927605241</ele>
        <time>2021-08-19T12:37:01.898Z</time>
      </trkpt>
      <trkpt lat="47.90654" lon="-3.84147">
        <ele>95.366198380174</ele>
        <time>2021-08-19T12:37:07.700Z</time>
      </trkpt>
      <trkpt lat="47.90627" lon="-3.84003">
        <ele>95.760613827901</ele>
        <time>2021-08-19T12:37:13.515Z</time>
      </trkpt>
      <trkpt lat="47.90622" lon="-3.83953">
        <ele>95.94102502131</ele>
        <time>2021-08-19T12:37:19.335Z</time>
      </trkpt>
      <trkpt lat="47.90623" lon="-3.83914">
        <ele>96.09338969138</ele>
        <time>2021-08-19T12:37:25.159Z</time>
      </trkpt>
      <trkpt lat="47.90627" lon="-3.83885">
        <ele>96.241953594465</ele>
        <time>2021-08-19T12:37:30.985Z</time>
      </trkpt>
      <trkpt lat="47.90648" lon="-3.83811">
        <ele>96.349705457957</ele>
        <time>2021-08-19T12:37:36.819Z</time>
      </trkpt>
      <trkpt lat="47.90655" lon="-3.83777">
        <ele>96.445650249492</ele>
        <time>2021-08-19T12:37:42.656Z</time>
      </trkpt>
      <trkpt lat="47.90658" lon="-3.83679">
        <ele>96.445974317735</ele>
        <time>2021-08-19T12:37:48.502Z</time>
      </trkpt>
      <trkpt lat="47.90658" lon="-3.83662">
        <ele>96.501001891141</ele>
        <time>2021-08-19T12:37:54.349Z</time>
      </trkpt>
      <trkpt lat="47.90653" lon="-3.83661">
        <ele>96.51902079427</ele>
        <time>2021-08-19T12:38:00.197Z</time>
      </trkpt>
      <trkpt lat="47.90651" lon="-3.83656">
        <ele>96.496217766533</ele>
        <time>2021-08-19T12:38:06.046Z</time>
      </trkpt>
      <trkpt lat="47.90651" lon="-3.8365">
        <ele>96.429231933507</ele>
        <time>2021-08-19T12:38:11.895Z</time>
      </trkpt>
      <trkpt lat="47.90653" lon="-3.83647">
        <ele>96.315227022582</ele>
        <time>2021-08-19T12:38:17.744Z</time>
      </trkpt>
      <trkpt lat="47.90656" lon="-3.83645">
        <ele>96.151977782843</ele>
        <time>2021-08-19T12:38:23.594Z</time>
      </trkpt>
      <trkpt lat="47.90659" lon="-3.83647">
        <ele>95.937970578641</ele>
        <time>2021-08-19T12:38:29.444Z</time>
      </trkpt>
      <trkpt lat="47.90662" lon="-3.83652">
        <ele>95.672517547055</ele>
        <time>2021-08-19T12:38:35.295Z</time>
      </trkpt>
      <trkpt lat="47.90684" lon="-3.83647">
        <ele>95.338843002438</ele>
        <time>2021-08-19T12:38:41.149Z</time>
      </trkpt>
      <trkpt lat="47.90684" lon="-3.83647">
        <ele>94.972728938719</ele>
        <time>2021-08-19T12:38:47.003Z</time>
      </trkpt>
      <trkpt lat="47.90701" lon="-3.83643">
        <ele>94.531436826642</ele>
        <time>2021-08-19T12:38:52.859Z</time>
      </trkpt>
      <trkpt lat="47.90701" lon="-3.83637">
        <ele>94.075630166242</ele>
        <time>2021-08-19T12:38:58.716Z</time>
      </trkpt>
      <trkpt lat="47.90711" lon="-3.83604">
        <ele>93.565040301294</ele>
        <time>2021-08-19T12:39:04.576Z</time>
      </trkpt>
      <trkpt lat="47.90727" lon="-3.83553">
        <ele>92.971569985214</ele>
        <time>2021-08-19T12:39:10.441Z</time>
      </trkpt>
      <trkpt lat="47.9074" lon="-3.83517">
        <ele>92.388592145561</ele>
        <time>2021-08-19T12:39:16.310Z</time>
      </trkpt>
      <trkpt lat="47.9075" lon="-3.83495">
        <ele>91.784123305046</ele>
        <time>2021-08-19T12:39:22.181Z</time>
      </trkpt>
      <trkpt lat="47.90763" lon="-3.83482">
        <ele>91.179989205245</ele>
        <time>2021-08-19T12:39:28.055Z</time>
      </trkpt>
      <trkpt lat="47.90816" lon="-3.83483">
        <ele>90.498259178073</ele>
        <time>2021-08-19T12:39:33.936Z</time>
      </trkpt>
      <trkpt lat="47.90836" lon="-3.83476">
        <ele>89.911613338654</ele>
        <time>2021-08-19T12:39:39.819Z</time>
      </trkpt>
      <trkpt lat="47.90848" lon="-3.83468">
        <ele>89.384041378671</ele>
        <time>2021-08-19T12:39:45.704Z</time>
      </trkpt>
      <trkpt lat="47.90858" lon="-3.83478">
        <ele>88.92143429844</ele>
        <time>2021-08-19T12:39:51.591Z</time>
      </trkpt>
      <trkpt lat="47.90876" lon="-3.83485">
        <ele>88.494804652697</ele>
        <time>2021-08-19T12:39:57.480Z</time>
      </trkpt>
      <trkpt lat="47.90944" lon="-3.83498">
        <ele>88.099990052436</ele>
        <time>2021-08-19T12:40:03.379Z</time>
      </trkpt>
      <trkpt lat="47.90983" lon="-3.83502">
        <ele>87.767527938236</ele>
        <time>2021-08-19T12:40:09.283Z</time>
      </trkpt>
      <trkpt lat="47.90983" lon="-3.83496">
        <ele>87.55636607866</ele>
        <time>2021-08-19T12:40:15.187Z</time>
      </trkpt>
      <trkpt lat="47.90999" lon="-3.83499">
        <ele>87.367703418903</ele>
        <time>2021-08-19T12:40:21.094Z</time>
      </trkpt>
      <trkpt lat="47.91047" lon="-3.83513">
        <ele>87.456310730692</ele>
        <time>2021-08-19T12:40:27.007Z</time>
      </trkpt>
      <trkpt lat="47.91081" lon="-3.83527">
        <ele>87.619390290042</ele>
        <time>2021-08-19T12:40:32.925Z</time>
      </trkpt>
      <trkpt lat="47.91095" lon="-3.83531">
        <ele>87.818091471409</ele>
        <time>2021-08-19T12:40:38.845Z</time>
      </trkpt>
      <trkpt lat="47.91146" lon="-3.83532">
        <ele>88.080046840958</ele>
        <time>2021-08-19T12:40:44.772Z</time>
      </trkpt>
      <trkpt lat="47.9118" lon="-3.83523">
        <ele>88.39756438407</ele>
        <time>2021-08-19T12:40:50.703Z</time>
      </trkpt>
      <trkpt lat="47.91232" lon="-3.83499">
        <ele>88.865510229598</ele>
        <time>2021-08-19T12:40:56.642Z</time>
      </trkpt>
      <trkpt lat="47.9127" lon="-3.83493">
        <ele>89.35909020367</ele>
        <time>2021-08-19T12:41:02.586Z</time>
      </trkpt>
      <trkpt lat="47.91338" lon="-3.83491">
        <ele>89.981921675702</ele>
        <time>2021-08-19T12:41:08.539Z</time>
      </trkpt>
      <trkpt lat="47.91369" lon="-3.83488">
        <ele>90.485152687949</ele>
        <time>2021-08-19T12:41:14.496Z</time>
      </trkpt>
      <trkpt lat="47.91408" lon="-3.83481">
        <ele>91.022465800939</ele>
        <time>2021-08-19T12:41:20.459Z</time>
      </trkpt>
      <trkpt lat="47.91447" lon="-3.83466">
        <ele>91.583586938953</ele>
        <time>2021-08-19T12:41:26.427Z</time>
      </trkpt>
      <trkpt lat="47.91532" lon="-3.83423">
        <ele>92.215243781846</ele>
        <time>2021-08-19T12:41:32.407Z</time>
      </trkpt>
      <trkpt lat="47.91579" lon="-3.83404">
        <ele>92.842190839916</ele>
        <time>2021-08-19T12:41:38.394Z</time>
      </trkpt>
      <trkpt lat="47.91608" lon="-3.83399">
        <ele>93.371037406677</ele>
        <time>2021-08-19T12:41:44.385Z</time>
      </trkpt>
      <trkpt lat="47.91684" lon="-3.83395">
        <ele>93.805670294467</ele>
        <time>2021-08-19T12:41:50.386Z</time>
      </trkpt>
      <trkpt lat="47.91711" lon="-3.83391">
        <ele>94.369747156378</ele>
        <time>2021-08-19T12:41:56.391Z</time>
      </trkpt>
      <trkpt lat="47.91728" lon="-3.83385">
        <ele>94.904591059782</ele>
        <time>2021-08-19T12:42:02.398Z</time>
      </trkpt>
      <trkpt lat="47.91766" lon="-3.83368">
        <ele>95.45112928799</ele>
        <time>2021-08-19T12:42:08.411Z</time>
      </trkpt>
      <trkpt lat="47.91779" lon="-3.83365">
        <ele>96.006639965164</ele>
        <time>2021-08-19T12:42:14.425Z</time>
      </trkpt>
      <trkpt lat="47.91802" lon="-3.83361">
        <ele>96.589207868044</ele>
        <time>2021-08-19T12:42:20.442Z</time>
      </trkpt>
      <trkpt lat="47.91828" lon="-3.8335">
        <ele>97.175718633046</ele>
        <time>2021-08-19T12:42:26.463Z</time>
      </trkpt>
      <trkpt lat="47.91865" lon="-3.83322">
        <ele>97.612214507859</ele>
        <time>2021-08-19T12:42:32.490Z</time>
      </trkpt>
      <trkpt lat="47.91944" lon="-3.83267">
        <ele>97.885174508479</ele>
        <time>2021-08-19T12:42:38.529Z</time>
      </trkpt>
      <trkpt lat="47.91961" lon="-3.83257">
        <ele>98.336939856691</ele>
        <time>2021-08-19T12:42:44.570Z</time>
      </trkpt>
      <trkpt lat="47.91969" lon="-3.83252">
        <ele>98.791601494717</ele>
        <time>2021-08-19T12:42:50.612Z</time>
      </trkpt>
      <trkpt lat="47.92011" lon="-3.83241">
        <ele>99.267805273738</ele>
        <time>2021-08-19T12:42:56.660Z</time>
      </trkpt>
      <trkpt lat="47.92034" lon="-3.83244">
        <ele>99.767839917924</ele>
        <time>2021-08-19T12:43:02.711Z</time>
      </trkpt>
      <trkpt lat="47.92088" lon="-3.83267">
        <ele>100.28784653581</ele>
        <time>2021-08-19T12:43:08.770Z</time>
      </trkpt>
      <trkpt lat="47.92114" lon="-3.83275">
        <ele>100.78546319031</ele>
        <time>2021-08-19T12:43:14.832Z</time>
      </trkpt>
      <trkpt lat="47.92139" lon="-3.83283">
        <ele>101.26993526349</ele>
        <time>2021-08-19T12:43:20.898Z</time>
      </trkpt>
      <trkpt lat="47.92181" lon="-3.83292">
        <ele>101.77241589212</ele>
        <time>2021-08-19T12:43:26.969Z</time>
      </trkpt>
      <trkpt lat="47.92197" lon="-3.83295">
        <ele>102.20933521691</ele>
        <time>2021-08-19T12:43:33.043Z</time>
      </trkpt>
      <trkpt lat="47.92224" lon="-3.83297">
        <ele>102.63784880807</ele>
        <time>2021-08-19T12:43:39.120Z</time>
      </trkpt>
      <trkpt lat="47.92245" lon="-3.83297">
        <ele>103.01073193058</ele>
        <time>2021-08-19T12:43:45.200Z</time>
      </trkpt>
      <trkpt lat="47.92287" lon="-3.83293">
        <ele>103.38322092487</ele>
        <time>2021-08-19T12:43:51.286Z</time>
      </trkpt>
      <trkpt lat="47.92303" lon="-3.83293">
        <ele>103.639075807</ele>
        <time>2021-08-19T12:43:57.374Z</time>
      </trkpt>
      <trkpt lat="47.92318" lon="-3.83296">
        <ele>103.83563357234</ele>
        <time>2021-08-19T12:44:03.464Z</time>
      </trkpt>
      <trkpt lat="47.92345" lon="-3.83303">
        <ele>103.97585476739</ele>
        <time>2021-08-19T12:44:09.558Z</time>
      </trkpt>
      <trkpt lat="47.9242" lon="-3.83326">
        <ele>104.17297307757</ele>
        <time>2021-08-19T12:44:15.662Z</time>
      </trkpt>
      <trkpt lat="47.92495" lon="-3.83346">
        <ele>104.15951837596</ele>
        <time>2021-08-19T12:44:21.776Z</time>
      </trkpt>
      <trkpt lat="47.92564" lon="-3.83358">
        <ele>104.22768111704</ele>
        <time>2021-08-19T12:44:27.900Z</time>
      </trkpt>
      <trkpt lat="47.92593" lon="-3.83356">
        <ele>104.1487071995</ele>
        <time>2021-08-19T12:44:34.028Z</time>
      </trkpt>
      <trkpt lat="47.9261" lon="-3.8335">
        <ele>103.94005022924</ele>
        <time>2021-08-19T12:44:40.158Z</time>
      </trkpt>
      <trkpt lat="47.92668" lon="-3.83317">
        <ele>103.5718875392</ele>
        <time>2021-08-19T12:44:46.296Z</time>
      </trkpt>
      <trkpt lat="47.92691" lon="-3.83305">
        <ele>103.21891892408</ele>
        <time>2021-08-19T12:44:52.438Z</time>
      </trkpt>
      <trkpt lat="47.92777" lon="-3.83271">
        <ele>102.54727238307</ele>
        <time>2021-08-19T12:44:58.592Z</time>
      </trkpt>
      <trkpt lat="47.92811" lon="-3.83254">
        <ele>102.44786282788</ele>
        <time>2021-08-19T12:45:04.751Z</time>
      </trkpt>
      <trkpt lat="47.92829" lon="-3.8324">
        <ele>102.43346691463</ele>
        <time>2021-08-19T12:45:10.912Z</time>
      </trkpt>
      <trkpt lat="47.92865" lon="-3.83204">
        <ele>102.45777829189</ele>
        <time>2021-08-19T12:45:17.079Z</time>
      </trkpt>
      <trkpt lat="47.92872" lon="-3.83198">
        <ele>102.71726393005</ele>
        <time>2021-08-19T12:45:23.247Z</time>
      </trkpt>
      <trkpt lat="47.92886" lon="-3.83193">
        <ele>103.13372411152</ele>
        <time>2021-08-19T12:45:29.417Z</time>
      </trkpt>
      <trkpt lat="47.92901" lon="-3.83195">
        <ele>103.74062701799</ele>
        <time>2021-08-19T12:45:35.589Z</time>
      </trkpt>
      <trkpt lat="47.92908" lon="-3.83198">
        <ele>104.50353116195</ele>
        <time>2021-08-19T12:45:41.762Z</time>
      </trkpt>
      <trkpt lat="47.92931" lon="-3.83213">
        <ele>105.54740423906</ele>
        <time>2021-08-19T12:45:47.939Z</time>
      </trkpt>
      <trkpt lat="47.9295" lon="-3.83219">
        <ele>106.74401071238</ele>
        <time>2021-08-19T12:45:54.118Z</time>
      </trkpt>
      <trkpt lat="47.93055" lon="-3.83222">
        <ele>108.4015454739</ele>
        <time>2021-08-19T12:46:00.312Z</time>
      </trkpt>
      <trkpt lat="47.93077" lon="-3.8322">
        <ele>109.76865011997</ele>
        <time>2021-08-19T12:46:06.508Z</time>
      </trkpt>
      <trkpt lat="47.9309" lon="-3.83214">
        <ele>111.14968005734</ele>
        <time>2021-08-19T12:46:12.706Z</time>
      </trkpt>
      <trkpt lat="47.9312" lon="-3.83197">
        <ele>112.58506090439</ele>
        <time>2021-08-19T12:46:18.909Z</time>
      </trkpt>
      <trkpt lat="47.93137" lon="-3.83184">
        <ele>113.95730736591</ele>
        <time>2021-08-19T12:46:25.114Z</time>
      </trkpt>
      <trkpt lat="47.93155" lon="-3.83158">
        <ele>115.30600259194</ele>
        <time>2021-08-19T12:46:31.323Z</time>
      </trkpt>
      <trkpt lat="47.93187" lon="-3.83128">
        <ele>116.64932887948</ele>
        <time>2021-08-19T12:46:37.537Z</time>
      </trkpt>
      <trkpt lat="47.93262" lon="-3.8308">
        <ele>117.99661929614</ele>
        <time>2021-08-19T12:46:43.762Z</time>
      </trkpt>
      <trkpt lat="47.93295" lon="-3.83052">
        <ele>119.11703815532</ele>
        <time>2021-08-19T12:46:49.992Z</time>
      </trkpt>
      <trkpt lat="47.93337" lon="-3.82999">
        <ele>120.16129798701</ele>
        <time>2021-08-19T12:46:56.229Z</time>
      </trkpt>
      <trkpt lat="47.93359" lon="-3.8298">
        <ele>121.02940571947</ele>
        <time>2021-08-19T12:47:02.470Z</time>
      </trkpt>
      <trkpt lat="47.93389" lon="-3.82967">
        <ele>121.78323030675</ele>
        <time>2021-08-19T12:47:08.715Z</time>
      </trkpt>
      <trkpt lat="47.93416" lon="-3.82966">
        <ele>122.43322028321</ele>
        <time>2021-08-19T12:47:14.964Z</time>
      </trkpt>
      <trkpt lat="47.93428" lon="-3.8297">
        <ele>122.9742135417</ele>
        <time>2021-08-19T12:47:21.214Z</time>
      </trkpt>
      <trkpt lat="47.93556" lon="-3.83041">
        <ele>123.17562389992</ele>
        <time>2021-08-19T12:47:27.483Z</time>
      </trkpt>
      <trkpt lat="47.93573" lon="-3.83048">
        <ele>123.55497117678</ele>
        <time>2021-08-19T12:47:33.754Z</time>
      </trkpt>
      <trkpt lat="47.93608" lon="-3.8306">
        <ele>123.88264031509</ele>
        <time>2021-08-19T12:47:40.030Z</time>
      </trkpt>
      <trkpt lat="47.93634" lon="-3.83064">
        <ele>124.22708044234</ele>
        <time>2021-08-19T12:47:46.310Z</time>
      </trkpt>
      <trkpt lat="47.93697" lon="-3.83068">
        <ele>124.62419030703</ele>
        <time>2021-08-19T12:47:52.598Z</time>
      </trkpt>
      <trkpt lat="47.93718" lon="-3.83067">
        <ele>124.9054426639</ele>
        <time>2021-08-19T12:47:58.889Z</time>
      </trkpt>
      <trkpt lat="47.93724" lon="-3.83065">
        <ele>125.12240900561</ele>
        <time>2021-08-19T12:48:05.181Z</time>
      </trkpt>
      <trkpt lat="47.93739" lon="-3.83056">
        <ele>125.36699217645</ele>
        <time>2021-08-19T12:48:11.475Z</time>
      </trkpt>
      <trkpt lat="47.9391" lon="-3.8293">
        <ele>125.64158486421</ele>
        <time>2021-08-19T12:48:17.795Z</time>
      </trkpt>
      <trkpt lat="47.93988" lon="-3.82879">
        <ele>125.49043626225</ele>
        <time>2021-08-19T12:48:24.126Z</time>
      </trkpt>
      <trkpt lat="47.94011" lon="-3.82861">
        <ele>125.61456691273</ele>
        <time>2021-08-19T12:48:30.461Z</time>
      </trkpt>
      <trkpt lat="47.94022" lon="-3.82842">
        <ele>125.86546448444</ele>
        <time>2021-08-19T12:48:36.798Z</time>
      </trkpt>
      <trkpt lat="47.94029" lon="-3.8282">
        <ele>126.15603988439</ele>
        <time>2021-08-19T12:48:43.137Z</time>
      </trkpt>
      <trkpt lat="47.94033" lon="-3.8278">
        <ele>126.48815288448</ele>
        <time>2021-08-19T12:48:49.480Z</time>
      </trkpt>
      <trkpt lat="47.94032" lon="-3.82573">
        <ele>126.80134840474</ele>
        <time>2021-08-19T12:48:55.842Z</time>
      </trkpt>
      <trkpt lat="47.94036" lon="-3.82413">
        <ele>127.43153173648</ele>
        <time>2021-08-19T12:49:02.218Z</time>
      </trkpt>
      <trkpt lat="47.94038" lon="-3.82394">
        <ele>127.91492759372</ele>
        <time>2021-08-19T12:49:08.596Z</time>
      </trkpt>
      <trkpt lat="47.94042" lon="-3.82369">
        <ele>128.44487003819</ele>
        <time>2021-08-19T12:49:14.977Z</time>
      </trkpt>
      <trkpt lat="47.94047" lon="-3.82355">
        <ele>128.95988380961</ele>
        <time>2021-08-19T12:49:21.359Z</time>
      </trkpt>
      <trkpt lat="47.94067" lon="-3.82303">
        <ele>129.62462032702</ele>
        <time>2021-08-19T12:49:27.746Z</time>
      </trkpt>
      <trkpt lat="47.94095" lon="-3.82208">
        <ele>130.40127788487</ele>
        <time>2021-08-19T12:49:34.143Z</time>
      </trkpt>
      <trkpt lat="47.94106" lon="-3.82121">
        <ele>130.86352432143</ele>
        <time>2021-08-19T12:49:40.548Z</time>
      </trkpt>
      <trkpt lat="47.94111" lon="-3.82102">
        <ele>131.17751512251</ele>
        <time>2021-08-19T12:49:46.955Z</time>
      </trkpt>
      <trkpt lat="47.94119" lon="-3.82082">
        <ele>131.33863625411</ele>
        <time>2021-08-19T12:49:53.364Z</time>
      </trkpt>
      <trkpt lat="47.94128" lon="-3.82073">
        <ele>131.46926234798</ele>
        <time>2021-08-19T12:49:59.774Z</time>
      </trkpt>
      <trkpt lat="47.9414" lon="-3.82069">
        <ele>131.5454946686</ele>
        <time>2021-08-19T12:50:06.186Z</time>
      </trkpt>
      <trkpt lat="47.94167" lon="-3.82068">
        <ele>131.53770652344</ele>
        <time>2021-08-19T12:50:12.602Z</time>
      </trkpt>
      <trkpt lat="47.94172" lon="-3.82066">
        <ele>131.49587503617</ele>
        <time>2021-08-19T12:50:19.018Z</time>
      </trkpt>
      <trkpt lat="47.9418" lon="-3.82058">
        <ele>131.339425283</ele>
        <time>2021-08-19T12:50:25.436Z</time>
      </trkpt>
      <trkpt lat="47.94191" lon="-3.82035">
        <ele>131.04442194202</ele>
        <time>2021-08-19T12:50:31.856Z</time>
      </trkpt>
      <trkpt lat="47.94199" lon="-3.82028">
        <ele>130.781321671</ele>
        <time>2021-08-19T12:50:38.277Z</time>
      </trkpt>
      <trkpt lat="47.94209" lon="-3.82026">
        <ele>130.48810346122</ele>
        <time>2021-08-19T12:50:44.700Z</time>
      </trkpt>
      <trkpt lat="47.9422" lon="-3.82026">
        <ele>130.1635232498</ele>
        <time>2021-08-19T12:50:51.124Z</time>
      </trkpt>
      <trkpt lat="47.94253" lon="-3.82032">
        <ele>129.72174366987</ele>
        <time>2021-08-19T12:50:57.553Z</time>
      </trkpt>
      <trkpt lat="47.94291" lon="-3.82041">
        <ele>129.46724629871</ele>
        <time>2021-08-19T12:51:03.987Z</time>
      </trkpt>
      <trkpt lat="47.94379" lon="-3.82052">
        <ele>129.61127000659</ele>
        <time>2021-08-19T12:51:10.433Z</time>
      </trkpt>
      <trkpt lat="47.94412" lon="-3.82061">
        <ele>129.39784103292</ele>
        <time>2021-08-19T12:51:16.884Z</time>
      </trkpt>
      <trkpt lat="47.94451" lon="-3.82078">
        <ele>128.9797613653</ele>
        <time>2021-08-19T12:51:23.340Z</time>
      </trkpt>
      <trkpt lat="47.94474" lon="-3.82093">
        <ele>128.53533314505</ele>
        <time>2021-08-19T12:51:29.799Z</time>
      </trkpt>
      <trkpt lat="47.94506" lon="-3.8212">
        <ele>128.07382108426</ele>
        <time>2021-08-19T12:51:36.263Z</time>
      </trkpt>
      <trkpt lat="47.94543" lon="-3.82162">
        <ele>127.28975198581</ele>
        <time>2021-08-19T12:51:42.734Z</time>
      </trkpt>
      <trkpt lat="47.94644" lon="-3.82293">
        <ele>126.37217020046</ele>
        <time>2021-08-19T12:51:49.223Z</time>
      </trkpt>
      <trkpt lat="47.94713" lon="-3.82379">
        <ele>125.50806932079</ele>
        <time>2021-08-19T12:51:55.724Z</time>
      </trkpt>
      <trkpt lat="47.94808" lon="-3.82484">
        <ele>124.49496594817</ele>
        <time>2021-08-19T12:52:02.241Z</time>
      </trkpt>
      <trkpt lat="47.94863" lon="-3.82535">
        <ele>123.97724336207</ele>
        <time>2021-08-19T12:52:08.767Z</time>
      </trkpt>
      <trkpt lat="47.94921" lon="-3.82579">
        <ele>123.48068514865</ele>
        <time>2021-08-19T12:52:15.302Z</time>
      </trkpt>
      <trkpt lat="47.94937" lon="-3.82593">
        <ele>123.42044661672</ele>
        <time>2021-08-19T12:52:21.839Z</time>
      </trkpt>
      <trkpt lat="47.94958" lon="-3.82615">
        <ele>123.67638320102</ele>
        <time>2021-08-19T12:52:28.380Z</time>
      </trkpt>
      <trkpt lat="47.9498" lon="-3.82648">
        <ele>124.04350392905</ele>
        <time>2021-08-19T12:52:34.925Z</time>
      </trkpt>
      <trkpt lat="47.94989" lon="-3.82664">
        <ele>124.28730040006</ele>
        <time>2021-08-19T12:52:41.472Z</time>
      </trkpt>
      <trkpt lat="47.95023" lon="-3.82739">
        <ele>124.70437191421</ele>
        <time>2021-08-19T12:52:48.027Z</time>
      </trkpt>
      <trkpt lat="47.95044" lon="-3.82793">
        <ele>125.20194352758</ele>
        <time>2021-08-19T12:52:54.587Z</time>
      </trkpt>
      <trkpt lat="47.95053" lon="-3.82812">
        <ele>125.75794230443</ele>
        <time>2021-08-19T12:53:01.150Z</time>
      </trkpt>
      <trkpt lat="47.95065" lon="-3.82828">
        <ele>126.3431639514</ele>
        <time>2021-08-19T12:53:07.715Z</time>
      </trkpt>
      <trkpt lat="47.95078" lon="-3.8284">
        <ele>126.98590019255</ele>
        <time>2021-08-19T12:53:14.282Z</time>
      </trkpt>
      <trkpt lat="47.95092" lon="-3.8285">
        <ele>127.67415483151</ele>
        <time>2021-08-19T12:53:20.851Z</time>
      </trkpt>
      <trkpt lat="47.95106" lon="-3.82856">
        <ele>128.37834983969</ele>
        <time>2021-08-19T12:53:27.422Z</time>
      </trkpt>
      <trkpt lat="47.95142" lon="-3.82867">
        <ele>129.16906112083</ele>
        <time>2021-08-19T12:53:33.998Z</time>
      </trkpt>
      <trkpt lat="47.95167" lon="-3.8287">
        <ele>129.92644457676</ele>
        <time>2021-08-19T12:53:40.577Z</time>
      </trkpt>
      <trkpt lat="47.95176" lon="-3.82873">
        <ele>130.64510970188</ele>
        <time>2021-08-19T12:53:47.158Z</time>
      </trkpt>
      <trkpt lat="47.95184" lon="-3.82882">
        <ele>131.36236218338</ele>
        <time>2021-08-19T12:53:53.740Z</time>
      </trkpt>
      <trkpt lat="47.95188" lon="-3.82894">
        <ele>132.05640473252</ele>
        <time>2021-08-19T12:54:00.323Z</time>
      </trkpt>
      <trkpt lat="47.95187" lon="-3.82909">
        <ele>132.71842937125</ele>
        <time>2021-08-19T12:54:06.907Z</time>
      </trkpt>
      <trkpt lat="47.9516" lon="-3.82976">
        <ele>133.34494147225</ele>
        <time>2021-08-19T12:54:13.499Z</time>
      </trkpt>
      <trkpt lat="47.95111" lon="-3.83077">
        <ele>134.01613603723</ele>
        <time>2021-08-19T12:54:20.102Z</time>
      </trkpt>
      <trkpt lat="47.95091" lon="-3.83124">
        <ele>134.64587361719</ele>
        <time>2021-08-19T12:54:26.710Z</time>
      </trkpt>
      <trkpt lat="47.95049" lon="-3.83248">
        <ele>135.25067956114</ele>
        <time>2021-08-19T12:54:33.330Z</time>
      </trkpt>
      <trkpt lat="47.95016" lon="-3.83339">
        <ele>135.84081913554</ele>
        <time>2021-08-19T12:54:39.960Z</time>
      </trkpt>
      <trkpt lat="47.94997" lon="-3.83404">
        <ele>136.48583702603</ele>
        <time>2021-08-19T12:54:46.596Z</time>
      </trkpt>
      <trkpt lat="47.9496" lon="-3.83507">
        <ele>137.09498761087</ele>
        <time>2021-08-19T12:54:53.243Z</time>
      </trkpt>
      <trkpt lat="47.9495" lon="-3.83536">
        <ele>137.5660015514</ele>
        <time>2021-08-19T12:54:59.893Z</time>
      </trkpt>
      <trkpt lat="47.94943" lon="-3.83566">
        <ele>137.9737091913</ele>
        <time>2021-08-19T12:55:06.546Z</time>
      </trkpt>
      <trkpt lat="47.94935" lon="-3.83609">
        <ele>138.34749494194</ele>
        <time>2021-08-19T12:55:13.203Z</time>
      </trkpt>
      <trkpt lat="47.94931" lon="-3.83679">
        <ele>138.73940056079</ele>
        <time>2021-08-19T12:55:19.866Z</time>
      </trkpt>
      <trkpt lat="47.94936" lon="-3.8374">
        <ele>139.02710810282</ele>
        <time>2021-08-19T12:55:26.535Z</time>
      </trkpt>
      <trkpt lat="47.94953" lon="-3.83811">
        <ele>139.34404866862</ele>
        <time>2021-08-19T12:55:33.211Z</time>
      </trkpt>
      <trkpt lat="47.9497" lon="-3.83854">
        <ele>139.69217650367</ele>
        <time>2021-08-19T12:55:39.891Z</time>
      </trkpt>
      <trkpt lat="47.94979" lon="-3.83873">
        <ele>140.03534764286</ele>
        <time>2021-08-19T12:55:46.573Z</time>
      </trkpt>
      <trkpt lat="47.94989" lon="-3.83889">
        <ele>140.34434748397</ele>
        <time>2021-08-19T12:55:53.257Z</time>
      </trkpt>
      <trkpt lat="47.95011" lon="-3.83919">
        <ele>140.65911303546</ele>
        <time>2021-08-19T12:55:59.945Z</time>
      </trkpt>
      <trkpt lat="47.95029" lon="-3.83938">
        <ele>140.93082429582</ele>
        <time>2021-08-19T12:56:06.636Z</time>
      </trkpt>
      <trkpt lat="47.95082" lon="-3.83988">
        <ele>141.2304963324</ele>
        <time>2021-08-19T12:56:13.336Z</time>
      </trkpt>
      <trkpt lat="47.95161" lon="-3.84057">
        <ele>141.24382759908</ele>
        <time>2021-08-19T12:56:20.048Z</time>
      </trkpt>
      <trkpt lat="47.95181" lon="-3.84069">
        <ele>141.17100764255</ele>
        <time>2021-08-19T12:56:26.763Z</time>
      </trkpt>
      <trkpt lat="47.952" lon="-3.84077">
        <ele>141.01407484811</ele>
        <time>2021-08-19T12:56:33.481Z</time>
      </trkpt>
      <trkpt lat="47.95206" lon="-3.84081">
        <ele>140.72216251829</ele>
        <time>2021-08-19T12:56:40.200Z</time>
      </trkpt>
      <trkpt lat="47.95219" lon="-3.84105">
        <ele>140.27285771027</ele>
        <time>2021-08-19T12:56:46.921Z</time>
      </trkpt>
      <trkpt lat="47.9523" lon="-3.8412">
        <ele>139.75071327663</ele>
        <time>2021-08-19T12:56:53.644Z</time>
      </trkpt>
      <trkpt lat="47.95325" lon="-3.8421">
        <ele>138.80145521919</ele>
        <time>2021-08-19T12:57:00.383Z</time>
      </trkpt>
      <trkpt lat="47.95413" lon="-3.8429">
        <ele>138.05818806638</ele>
        <time>2021-08-19T12:57:07.136Z</time>
      </trkpt>
      <trkpt lat="47.95438" lon="-3.84311">
        <ele>137.22188212395</ele>
        <time>2021-08-19T12:57:13.893Z</time>
      </trkpt>
      <trkpt lat="47.95491" lon="-3.84348">
        <ele>136.32437787635</ele>
        <time>2021-08-19T12:57:20.657Z</time>
      </trkpt>
      <trkpt lat="47.95554" lon="-3.84376">
        <ele>135.28366285454</ele>
        <time>2021-08-19T12:57:27.430Z</time>
      </trkpt>
      <trkpt lat="47.95628" lon="-3.84398">
        <ele>134.25756873672</ele>
        <time>2021-08-19T12:57:34.214Z</time>
      </trkpt>
      <trkpt lat="47.95881" lon="-3.84476">
        <ele>133.19168865934</ele>
        <time>2021-08-19T12:57:41.032Z</time>
      </trkpt>
      <trkpt lat="47.95942" lon="-3.84488">
        <ele>131.52805190021</ele>
        <time>2021-08-19T12:57:47.859Z</time>
      </trkpt>
      <trkpt lat="47.95999" lon="-3.84492">
        <ele>129.69083362037</ele>
        <time>2021-08-19T12:57:54.693Z</time>
      </trkpt>
      <trkpt lat="47.96019" lon="-3.84491">
        <ele>128.19517578055</ele>
        <time>2021-08-19T12:58:01.530Z</time>
      </trkpt>
      <trkpt lat="47.96073" lon="-3.84482">
        <ele>126.63090032792</ele>
        <time>2021-08-19T12:58:08.375Z</time>
      </trkpt>
      <trkpt lat="47.96119" lon="-3.8447">
        <ele>125.22418112018</ele>
        <time>2021-08-19T12:58:15.226Z</time>
      </trkpt>
      <trkpt lat="47.96153" lon="-3.84456">
        <ele>123.91645330233</ele>
        <time>2021-08-19T12:58:22.082Z</time>
      </trkpt>
      <trkpt lat="47.96233" lon="-3.84412">
        <ele>122.63207964033</ele>
        <time>2021-08-19T12:58:28.949Z</time>
      </trkpt>
      <trkpt lat="47.96256" lon="-3.84401">
        <ele>121.46715059526</ele>
        <time>2021-08-19T12:58:35.819Z</time>
      </trkpt>
      <trkpt lat="47.96311" lon="-3.84383">
        <ele>120.35810607992</ele>
        <time>2021-08-19T12:58:42.697Z</time>
      </trkpt>
      <trkpt lat="47.96348" lon="-3.84374">
        <ele>119.35549761674</ele>
        <time>2021-08-19T12:58:49.580Z</time>
      </trkpt>
      <trkpt lat="47.96364" lon="-3.84363">
        <ele>118.42641485861</ele>
        <time>2021-08-19T12:58:56.466Z</time>
      </trkpt>
      <trkpt lat="47.96376" lon="-3.84344">
        <ele>117.62594256091</ele>
        <time>2021-08-19T12:59:03.354Z</time>
      </trkpt>
      <trkpt lat="47.96384" lon="-3.84319">
        <ele>116.96162443683</ele>
        <time>2021-08-19T12:59:10.244Z</time>
      </trkpt>
      <trkpt lat="47.96415" lon="-3.84188">
        <ele>116.50456011026</ele>
        <time>2021-08-19T12:59:17.147Z</time>
      </trkpt>
      <trkpt lat="47.96422" lon="-3.84148">
        <ele>115.92275498152</ele>
        <time>2021-08-19T12:59:24.054Z</time>
      </trkpt>
      <trkpt lat="47.9643" lon="-3.84067">
        <ele>115.40664360292</ele>
        <time>2021-08-19T12:59:30.968Z</time>
      </trkpt>
      <trkpt lat="47.96428" lon="-3.84027">
        <ele>115.05761770455</ele>
        <time>2021-08-19T12:59:37.886Z</time>
      </trkpt>
      <trkpt lat="47.96429" lon="-3.84016">
        <ele>114.82365557366</ele>
        <time>2021-08-19T12:59:44.805Z</time>
      </trkpt>
      <trkpt lat="47.96433" lon="-3.84007">
        <ele>114.68185012265</ele>
        <time>2021-08-19T12:59:51.725Z</time>
      </trkpt>
      <trkpt lat="47.96439" lon="-3.84001">
        <ele>114.62354156058</ele>
        <time>2021-08-19T12:59:58.646Z</time>
      </trkpt>
      <trkpt lat="47.9646" lon="-3.83994">
        <ele>114.64036936504</ele>
        <time>2021-08-19T13:00:05.570Z</time>
      </trkpt>
      <trkpt lat="47.96466" lon="-3.83989">
        <ele>114.74237174255</ele>
        <time>2021-08-19T13:00:12.495Z</time>
      </trkpt>
      <trkpt lat="47.96472" lon="-3.83983">
        <ele>114.91722183684</ele>
        <time>2021-08-19T13:00:19.421Z</time>
      </trkpt>
      <trkpt lat="47.96485" lon="-3.83959">
        <ele>115.14874862576</ele>
        <time>2021-08-19T13:00:26.349Z</time>
      </trkpt>
      <trkpt lat="47.96503" lon="-3.83909">
        <ele>115.44951378908</ele>
        <time>2021-08-19T13:00:33.283Z</time>
      </trkpt>
      <trkpt lat="47.96531" lon="-3.83811">
        <ele>115.9167006285</ele>
        <time>2021-08-19T13:00:40.226Z</time>
      </trkpt>
      <trkpt lat="47.96553" lon="-3.83746">
        <ele>116.41171427613</ele>
        <time>2021-08-19T13:00:47.176Z</time>
      </trkpt>
      <trkpt lat="47.96583" lon="-3.83673">
        <ele>116.95198596243</ele>
        <time>2021-08-19T13:00:54.134Z</time>
      </trkpt>
      <trkpt lat="47.96597" lon="-3.83643">
        <ele>117.48232130191</ele>
        <time>2021-08-19T13:01:01.095Z</time>
      </trkpt>
      <trkpt lat="47.96635" lon="-3.83575">
        <ele>118.04185534021</ele>
        <time>2021-08-19T13:01:08.064Z</time>
      </trkpt>
      <trkpt lat="47.96681" lon="-3.83499">
        <ele>118.63295880285</ele>
        <time>2021-08-19T13:01:15.042Z</time>
      </trkpt>
      <trkpt lat="47.96715" lon="-3.83448">
        <ele>119.29153281179</ele>
        <time>2021-08-19T13:01:22.027Z</time>
      </trkpt>
      <trkpt lat="47.96733" lon="-3.83423">
        <ele>119.89164811721</ele>
        <time>2021-08-19T13:01:29.015Z</time>
      </trkpt>
      <trkpt lat="47.96789" lon="-3.83352">
        <ele>120.43974462489</ele>
        <time>2021-08-19T13:01:36.013Z</time>
      </trkpt>
      <trkpt lat="47.96882" lon="-3.83242">
        <ele>121.10116586596</ele>
        <time>2021-08-19T13:01:43.027Z</time>
      </trkpt>
      <trkpt lat="47.9691" lon="-3.83203">
        <ele>121.85188002889</ele>
        <time>2021-08-19T13:01:50.046Z</time>
      </trkpt>
      <trkpt lat="47.96927" lon="-3.8317">
        <ele>122.60206018948</ele>
        <time>2021-08-19T13:01:57.069Z</time>
      </trkpt>
      <trkpt lat="47.96935" lon="-3.83143">
        <ele>123.31564113806</ele>
        <time>2021-08-19T13:02:04.095Z</time>
      </trkpt>
      <trkpt lat="47.96937" lon="-3.83109">
        <ele>124.06377868477</ele>
        <time>2021-08-19T13:02:11.124Z</time>
      </trkpt>
      <trkpt lat="47.96941" lon="-3.83103">
        <ele>124.70511550048</ele>
        <time>2021-08-19T13:02:18.154Z</time>
      </trkpt>
      <trkpt lat="47.9695" lon="-3.83098">
        <ele>125.31223809827</ele>
        <time>2021-08-19T13:02:25.185Z</time>
      </trkpt>
      <trkpt lat="47.96979" lon="-3.83119">
        <ele>125.813054665</ele>
        <time>2021-08-19T13:02:32.220Z</time>
      </trkpt>
      <trkpt lat="47.96993" lon="-3.83124">
        <ele>126.38658098721</ele>
        <time>2021-08-19T13:02:39.257Z</time>
      </trkpt>
      <trkpt lat="47.97043" lon="-3.83136">
        <ele>127.00481644354</ele>
        <time>2021-08-19T13:02:46.301Z</time>
      </trkpt>
      <trkpt lat="47.971" lon="-3.83156">
        <ele>127.69409307313</ele>
        <time>2021-08-19T13:02:53.353Z</time>
      </trkpt>
      <trkpt lat="47.97308" lon="-3.8325">
        <ele>128.22891457399</ele>
        <time>2021-08-19T13:03:00.434Z</time>
      </trkpt>
      <trkpt lat="47.97351" lon="-3.83268">
        <ele>128.84288011072</ele>
        <time>2021-08-19T13:03:07.521Z</time>
      </trkpt>
      <trkpt lat="47.97373" lon="-3.83275">
        <ele>129.50758313892</ele>
        <time>2021-08-19T13:03:14.611Z</time>
      </trkpt>
      <trkpt lat="47.97394" lon="-3.83281">
        <ele>130.15823802453</ele>
        <time>2021-08-19T13:03:21.704Z</time>
      </trkpt>
      <trkpt lat="47.97442" lon="-3.83285">
        <ele>130.87159579595</ele>
        <time>2021-08-19T13:03:28.804Z</time>
      </trkpt>
      <trkpt lat="47.97586" lon="-3.83281">
        <ele>131.74771302473</ele>
        <time>2021-08-19T13:03:35.923Z</time>
      </trkpt>
      <trkpt lat="47.97612" lon="-3.83283">
        <ele>132.11149064797</ele>
        <time>2021-08-19T13:03:43.046Z</time>
      </trkpt>
      <trkpt lat="47.97621" lon="-3.8329">
        <ele>132.41656964681</ele>
        <time>2021-08-19T13:03:50.170Z</time>
      </trkpt>
      <trkpt lat="47.97627" lon="-3.83302">
        <ele>132.64097914112</ele>
        <time>2021-08-19T13:03:57.296Z</time>
      </trkpt>
      <trkpt lat="47.97637" lon="-3.83339">
        <ele>132.82770672783</ele>
        <time>2021-08-19T13:04:04.425Z</time>
      </trkpt>
      <trkpt lat="47.97652" lon="-3.83388">
        <ele>132.8958473045</ele>
        <time>2021-08-19T13:04:11.559Z</time>
      </trkpt>
      <trkpt lat="47.97669" lon="-3.83418">
        <ele>132.90732410819</ele>
        <time>2021-08-19T13:04:18.697Z</time>
      </trkpt>
      <trkpt lat="47.97684" lon="-3.83438">
        <ele>132.76444388325</ele>
        <time>2021-08-19T13:04:25.837Z</time>
      </trkpt>
      <trkpt lat="47.9771" lon="-3.83459">
        <ele>132.43854163809</ele>
        <time>2021-08-19T13:04:32.981Z</time>
      </trkpt>
      <trkpt lat="47.97788" lon="-3.83514">
        <ele>132.00309899432</ele>
        <time>2021-08-19T13:04:40.137Z</time>
      </trkpt>
      <trkpt lat="47.9781" lon="-3.83531">
        <ele>131.4775158121</ele>
        <time>2021-08-19T13:04:47.296Z</time>
      </trkpt>
      <trkpt lat="47.97949" lon="-3.83673">
        <ele>130.6623383004</ele>
        <time>2021-08-19T13:04:54.478Z</time>
      </trkpt>
      <trkpt lat="47.9799" lon="-3.83721">
        <ele>130.09222303066</ele>
        <time>2021-08-19T13:05:01.667Z</time>
      </trkpt>
      <trkpt lat="47.98012" lon="-3.83756">
        <ele>129.39940371425</ele>
        <time>2021-08-19T13:05:08.861Z</time>
      </trkpt>
      <trkpt lat="47.98036" lon="-3.83799">
        <ele>128.59870671936</ele>
        <time>2021-08-19T13:05:16.060Z</time>
      </trkpt>
      <trkpt lat="47.98221" lon="-3.84193">
        <ele>127.4792775967</ele>
        <time>2021-08-19T13:05:23.302Z</time>
      </trkpt>
      <trkpt lat="47.98242" lon="-3.84233">
        <ele>126.65419006971</ele>
        <time>2021-08-19T13:05:30.549Z</time>
      </trkpt>
      <trkpt lat="47.98259" lon="-3.84261">
        <ele>125.93238725764</ele>
        <time>2021-08-19T13:05:37.799Z</time>
      </trkpt>
      <trkpt lat="47.98273" lon="-3.84277">
        <ele>125.15470361441</ele>
        <time>2021-08-19T13:05:45.052Z</time>
      </trkpt>
      <trkpt lat="47.98295" lon="-3.84299">
        <ele>124.37208249587</ele>
        <time>2021-08-19T13:05:52.308Z</time>
      </trkpt>
      <trkpt lat="47.98322" lon="-3.84316">
        <ele>123.62544154015</ele>
        <time>2021-08-19T13:05:59.568Z</time>
      </trkpt>
      <trkpt lat="47.98342" lon="-3.84324">
        <ele>122.98132313043</ele>
        <time>2021-08-19T13:06:06.831Z</time>
      </trkpt>
      <trkpt lat="47.98353" lon="-3.84327">
        <ele>122.45499700625</ele>
        <time>2021-08-19T13:06:14.096Z</time>
      </trkpt>
      <trkpt lat="47.98375" lon="-3.84328">
        <ele>121.97868513064</ele>
        <time>2021-08-19T13:06:21.364Z</time>
      </trkpt>
      <trkpt lat="47.98434" lon="-3.84321">
        <ele>121.58710252343</ele>
        <time>2021-08-19T13:06:28.640Z</time>
      </trkpt>
      <trkpt lat="47.98527" lon="-3.84317">
        <ele>121.63065216808</ele>
        <time>2021-08-19T13:06:35.928Z</time>
      </trkpt>
      <trkpt lat="47.98544" lon="-3.84316">
        <ele>121.73765715273</ele>
        <time>2021-08-19T13:06:43.218Z</time>
      </trkpt>
      <trkpt lat="47.98571" lon="-3.84311">
        <ele>122.01197880621</ele>
        <time>2021-08-19T13:06:50.512Z</time>
      </trkpt>
      <trkpt lat="47.98589" lon="-3.84305">
        <ele>122.29874334344</ele>
        <time>2021-08-19T13:06:57.809Z</time>
      </trkpt>
      <trkpt lat="47.98612" lon="-3.84302">
        <ele>122.61266331597</ele>
        <time>2021-08-19T13:07:05.109Z</time>
      </trkpt>
      <trkpt lat="47.98646" lon="-3.84307">
        <ele>122.98441646941</ele>
        <time>2021-08-19T13:07:12.413Z</time>
      </trkpt>
      <trkpt lat="47.98701" lon="-3.84321">
        <ele>123.39435245668</ele>
        <time>2021-08-19T13:07:19.725Z</time>
      </trkpt>
      <trkpt lat="47.98717" lon="-3.84324">
        <ele>123.76173293721</ele>
        <time>2021-08-19T13:07:27.039Z</time>
      </trkpt>
      <trkpt lat="47.98727" lon="-3.84324">
        <ele>124.14554933564</ele>
        <time>2021-08-19T13:07:34.355Z</time>
      </trkpt>
      <trkpt lat="47.98738" lon="-3.84324">
        <ele>124.54150409036</ele>
        <time>2021-08-19T13:07:41.672Z</time>
      </trkpt>
      <trkpt lat="47.98797" lon="-3.8431">
        <ele>124.95646767672</ele>
        <time>2021-08-19T13:07:48.997Z</time>
      </trkpt>
      <trkpt lat="47.98877" lon="-3.84306">
        <ele>125.29917232123</ele>
        <time>2021-08-19T13:07:56.333Z</time>
      </trkpt>
      <trkpt lat="47.98956" lon="-3.84293">
        <ele>125.62964441502</ele>
        <time>2021-08-19T13:08:03.680Z</time>
      </trkpt>
      <trkpt lat="47.98983" lon="-3.84289">
        <ele>126.06600085427</ele>
        <time>2021-08-19T13:08:11.030Z</time>
      </trkpt>
      <trkpt lat="47.99001" lon="-3.84289">
        <ele>126.52129639499</ele>
        <time>2021-08-19T13:08:18.383Z</time>
      </trkpt>
      <trkpt lat="47.99058" lon="-3.84297">
        <ele>126.92889129003</ele>
        <time>2021-08-19T13:08:25.743Z</time>
      </trkpt>
      <trkpt lat="47.99106" lon="-3.84307">
        <ele>127.37737766899</ele>
        <time>2021-08-19T13:08:33.110Z</time>
      </trkpt>
      <trkpt lat="47.99144" lon="-3.84319">
        <ele>127.9346051602</ele>
        <time>2021-08-19T13:08:40.482Z</time>
      </trkpt>
      <trkpt lat="47.99249" lon="-3.84362">
        <ele>128.57535112918</ele>
        <time>2021-08-19T13:08:47.869Z</time>
      </trkpt>
      <trkpt lat="47.99266" lon="-3.84366">
        <ele>129.34377481052</ele>
        <time>2021-08-19T13:08:55.258Z</time>
      </trkpt>
      <trkpt lat="47.9929" lon="-3.84369">
        <ele>130.21083878308</ele>
        <time>2021-08-19T13:09:02.651Z</time>
      </trkpt>
      <trkpt lat="47.99343" lon="-3.84366">
        <ele>131.19798966955</ele>
        <time>2021-08-19T13:09:10.051Z</time>
      </trkpt>
      <trkpt lat="47.99455" lon="-3.84345">
        <ele>132.79862882969</ele>
        <time>2021-08-19T13:09:17.466Z</time>
      </trkpt>
      <trkpt lat="47.99548" lon="-3.84334">
        <ele>134.31884368999</ele>
        <time>2021-08-19T13:09:24.894Z</time>
      </trkpt>
      <trkpt lat="47.9958" lon="-3.84326">
        <ele>135.64465686785</ele>
        <time>2021-08-19T13:09:32.326Z</time>
      </trkpt>
      <trkpt lat="47.99607" lon="-3.84327">
        <ele>136.9150012633</ele>
        <time>2021-08-19T13:09:39.762Z</time>
      </trkpt>
      <trkpt lat="47.99698" lon="-3.84355">
        <ele>138.04304938357</ele>
        <time>2021-08-19T13:09:47.210Z</time>
      </trkpt>
      <trkpt lat="47.99838" lon="-3.84392">
        <ele>139.21239378622</ele>
        <time>2021-08-19T13:09:54.677Z</time>
      </trkpt>
      <trkpt lat="47.99925" lon="-3.84413">
        <ele>140.5928546177</ele>
        <time>2021-08-19T13:10:02.156Z</time>
      </trkpt>
      <trkpt lat="47.99986" lon="-3.84442">
        <ele>142.20382466172</ele>
        <time>2021-08-19T13:10:09.644Z</time>
      </trkpt>
      <trkpt lat="48.00026" lon="-3.84457">
        <ele>143.65972405785</ele>
        <time>2021-08-19T13:10:17.138Z</time>
      </trkpt>
      <trkpt lat="48.00095" lon="-3.84489">
        <ele>145.28428613777</ele>
        <time>2021-08-19T13:10:24.641Z</time>
      </trkpt>
      <trkpt lat="48.00116" lon="-3.84501">
        <ele>146.8161056643</ele>
        <time>2021-08-19T13:10:32.147Z</time>
      </trkpt>
      <trkpt lat="48.00241" lon="-3.84584">
        <ele>148.86506038608</ele>
        <time>2021-08-19T13:10:39.672Z</time>
      </trkpt>
      <trkpt lat="48.00275" lon="-3.84601">
        <ele>150.46513085842</ele>
        <time>2021-08-19T13:10:47.202Z</time>
      </trkpt>
      <trkpt lat="48.00317" lon="-3.84615">
        <ele>152.02638087982</ele>
        <time>2021-08-19T13:10:54.738Z</time>
      </trkpt>
      <trkpt lat="48.0034" lon="-3.8462">
        <ele>153.50558334724</ele>
        <time>2021-08-19T13:11:02.277Z</time>
      </trkpt>
      <trkpt lat="48.00457" lon="-3.84625">
        <ele>154.85353590428</ele>
        <time>2021-08-19T13:11:09.832Z</time>
      </trkpt>
      <trkpt lat="48.0051" lon="-3.84637">
        <ele>156.13480024931</ele>
        <time>2021-08-19T13:11:17.394Z</time>
      </trkpt>
      <trkpt lat="48.00533" lon="-3.84648">
        <ele>157.44201678242</ele>
        <time>2021-08-19T13:11:24.959Z</time>
      </trkpt>
      <trkpt lat="48.00596" lon="-3.84685">
        <ele>158.82638022189</ele>
        <time>2021-08-19T13:11:32.533Z</time>
      </trkpt>
      <trkpt lat="48.00636" lon="-3.84706">
        <ele>160.03369404933</ele>
        <time>2021-08-19T13:11:40.113Z</time>
      </trkpt>
      <trkpt lat="48.00668" lon="-3.8472">
        <ele>161.12670124971</ele>
        <time>2021-08-19T13:11:47.697Z</time>
      </trkpt>
      <trkpt lat="48.00688" lon="-3.84725">
        <ele>162.13472763034</ele>
        <time>2021-08-19T13:11:55.284Z</time>
      </trkpt>
      <trkpt lat="48.00714" lon="-3.84726">
        <ele>163.08400537769</ele>
        <time>2021-08-19T13:12:02.875Z</time>
      </trkpt>
      <trkpt lat="48.00774" lon="-3.84713">
        <ele>164.04910594301</ele>
        <time>2021-08-19T13:12:10.474Z</time>
      </trkpt>
      <trkpt lat="48.00809" lon="-3.84703">
        <ele>164.95890095806</ele>
        <time>2021-08-19T13:12:18.078Z</time>
      </trkpt>
      <trkpt lat="48.00868" lon="-3.84682">
        <ele>165.78001554658</ele>
        <time>2021-08-19T13:12:25.690Z</time>
      </trkpt>
      <trkpt lat="48.00923" lon="-3.84666">
        <ele>166.47543551073</ele>
        <time>2021-08-19T13:12:33.309Z</time>
      </trkpt>
      <trkpt lat="48.00962" lon="-3.8465">
        <ele>167.21058460739</ele>
        <time>2021-08-19T13:12:40.934Z</time>
      </trkpt>
      <trkpt lat="48.01275" lon="-3.84486">
        <ele>168.0886910305</ele>
        <time>2021-08-19T13:12:48.604Z</time>
      </trkpt>
      <trkpt lat="48.01317" lon="-3.8446">
        <ele>168.8342190071</ele>
        <time>2021-08-19T13:12:56.280Z</time>
      </trkpt>
      <trkpt lat="48.01336" lon="-3.84445">
        <ele>169.50697861141</ele>
        <time>2021-08-19T13:13:03.959Z</time>
      </trkpt>
      <trkpt lat="48.01347" lon="-3.84433">
        <ele>170.13374718941</ele>
        <time>2021-08-19T13:13:11.640Z</time>
      </trkpt>
      <trkpt lat="48.01387" lon="-3.84379">
        <ele>170.84395751378</ele>
        <time>2021-08-19T13:13:19.328Z</time>
      </trkpt>
      <trkpt lat="48.01404" lon="-3.8435">
        <ele>171.41249905442</ele>
        <time>2021-08-19T13:13:27.020Z</time>
      </trkpt>
      <trkpt lat="48.0143" lon="-3.84296">
        <ele>171.87563930646</ele>
        <time>2021-08-19T13:13:34.718Z</time>
      </trkpt>
      <trkpt lat="48.01462" lon="-3.84223">
        <ele>172.44716593144</ele>
        <time>2021-08-19T13:13:42.423Z</time>
      </trkpt>
      <trkpt lat="48.01484" lon="-3.84164">
        <ele>172.92529899386</ele>
        <time>2021-08-19T13:13:50.135Z</time>
      </trkpt>
      <trkpt lat="48.01503" lon="-3.84099">
        <ele>173.28183050005</ele>
        <time>2021-08-19T13:13:57.853Z</time>
      </trkpt>
      <trkpt lat="48.01556" lon="-3.83871">
        <ele>173.55551328593</ele>
        <time>2021-08-19T13:14:05.593Z</time>
      </trkpt>
      <trkpt lat="48.01582" lon="-3.83772">
        <ele>173.82020821273</ele>
        <time>2021-08-19T13:14:13.343Z</time>
      </trkpt>
      <trkpt lat="48.0161" lon="-3.83709">
        <ele>173.93196786372</ele>
        <time>2021-08-19T13:14:21.099Z</time>
      </trkpt>
      <trkpt lat="48.01645" lon="-3.83638">
        <ele>173.78999685696</ele>
        <time>2021-08-19T13:14:28.863Z</time>
      </trkpt>
      <trkpt lat="48.01698" lon="-3.83537">
        <ele>173.57481616401</ele>
        <time>2021-08-19T13:14:36.639Z</time>
      </trkpt>
      <trkpt lat="48.01725" lon="-3.83496">
        <ele>173.63885453024</ele>
        <time>2021-08-19T13:14:44.420Z</time>
      </trkpt>
      <trkpt lat="48.01756" lon="-3.83463">
        <ele>173.73015683637</ele>
        <time>2021-08-19T13:14:52.206Z</time>
      </trkpt>
      <trkpt lat="48.01818" lon="-3.83414">
        <ele>173.55141311364</ele>
        <time>2021-08-19T13:15:00.002Z</time>
      </trkpt>
      <trkpt lat="48.01835" lon="-3.83397">
        <ele>173.56112468383</ele>
        <time>2021-08-19T13:15:07.801Z</time>
      </trkpt>
      <trkpt lat="48.01865" lon="-3.83361">
        <ele>173.67914794919</ele>
        <time>2021-08-19T13:15:15.605Z</time>
      </trkpt>
      <trkpt lat="48.01884" lon="-3.83333">
        <ele>173.86690563435</ele>
        <time>2021-08-19T13:15:23.412Z</time>
      </trkpt>
      <trkpt lat="48.01949" lon="-3.83212">
        <ele>174.29228897345</ele>
        <time>2021-08-19T13:15:31.234Z</time>
      </trkpt>
      <trkpt lat="48.0197" lon="-3.83178">
        <ele>174.60882995487</ele>
        <time>2021-08-19T13:15:39.060Z</time>
      </trkpt>
      <trkpt lat="48.01989" lon="-3.83153">
        <ele>174.89418201458</ele>
        <time>2021-08-19T13:15:46.889Z</time>
      </trkpt>
      <trkpt lat="48.02033" lon="-3.83113">
        <ele>175.22006728291</ele>
        <time>2021-08-19T13:15:54.725Z</time>
      </trkpt>
      <trkpt lat="48.02049" lon="-3.83103">
        <ele>175.53001700696</ele>
        <time>2021-08-19T13:16:02.564Z</time>
      </trkpt>
      <trkpt lat="48.02144" lon="-3.83059">
        <ele>175.94336742088</ele>
        <time>2021-08-19T13:16:10.416Z</time>
      </trkpt>
      <trkpt lat="48.02174" lon="-3.83041">
        <ele>176.25791663821</ele>
        <time>2021-08-19T13:16:18.272Z</time>
      </trkpt>
      <trkpt lat="48.02194" lon="-3.83023">
        <ele>176.58993048714</ele>
        <time>2021-08-19T13:16:26.131Z</time>
      </trkpt>
      <trkpt lat="48.02219" lon="-3.82995">
        <ele>176.87385525247</ele>
        <time>2021-08-19T13:16:33.995Z</time>
      </trkpt>
      <trkpt lat="48.02251" lon="-3.82945">
        <ele>177.12523927993</ele>
        <time>2021-08-19T13:16:41.865Z</time>
      </trkpt>
      <trkpt lat="48.02301" lon="-3.82839">
        <ele>177.06575431892</ele>
        <time>2021-08-19T13:16:49.747Z</time>
      </trkpt>
      <trkpt lat="48.0237" lon="-3.82713">
        <ele>177.08430676119</ele>
        <time>2021-08-19T13:16:57.644Z</time>
      </trkpt>
      <trkpt lat="48.02386" lon="-3.82679">
        <ele>177.04531212411</ele>
        <time>2021-08-19T13:17:05.544Z</time>
      </trkpt>
      <trkpt lat="48.02395" lon="-3.8265">
        <ele>176.90542544543</ele>
        <time>2021-08-19T13:17:13.447Z</time>
      </trkpt>
      <trkpt lat="48.02401" lon="-3.82619">
        <ele>176.67664951125</ele>
        <time>2021-08-19T13:17:21.353Z</time>
      </trkpt>
      <trkpt lat="48.02403" lon="-3.82599">
        <ele>176.37856023338</ele>
        <time>2021-08-19T13:17:29.261Z</time>
      </trkpt>
      <trkpt lat="48.02403" lon="-3.82555">
        <ele>175.98118682523</ele>
        <time>2021-08-19T13:17:37.173Z</time>
      </trkpt>
      <trkpt lat="48.02402" lon="-3.82552">
        <ele>175.52297298991</ele>
        <time>2021-08-19T13:17:45.085Z</time>
      </trkpt>
      <trkpt lat="48.02395" lon="-3.82542">
        <ele>174.94647266349</ele>
        <time>2021-08-19T13:17:52.999Z</time>
      </trkpt>
      <trkpt lat="48.02382" lon="-3.82528">
        <ele>174.24630836271</ele>
        <time>2021-08-19T13:18:00.915Z</time>
      </trkpt>
      <trkpt lat="48.02379" lon="-3.82521">
        <ele>173.48687877524</ele>
        <time>2021-08-19T13:18:08.831Z</time>
      </trkpt>
      <trkpt lat="48.02378" lon="-3.8251">
        <ele>172.60912371118</ele>
        <time>2021-08-19T13:18:16.748Z</time>
      </trkpt>
      <trkpt lat="48.02382" lon="-3.82482">
        <ele>171.59766962453</ele>
        <time>2021-08-19T13:18:24.668Z</time>
      </trkpt>
      <trkpt lat="48.02387" lon="-3.82467">
        <ele>170.55056578309</ele>
        <time>2021-08-19T13:18:32.590Z</time>
      </trkpt>
      <trkpt lat="48.02411" lon="-3.82421">
        <ele>169.39638777484</ele>
        <time>2021-08-19T13:18:40.517Z</time>
      </trkpt>
      <trkpt lat="48.02417" lon="-3.82402">
        <ele>168.18992836819</ele>
        <time>2021-08-19T13:18:48.446Z</time>
      </trkpt>
      <trkpt lat="48.02427" lon="-3.82349">
        <ele>166.87465536125</ele>
        <time>2021-08-19T13:18:56.380Z</time>
      </trkpt>
      <trkpt lat="48.02432" lon="-3.82274">
        <ele>165.4139633613</ele>
        <time>2021-08-19T13:19:04.321Z</time>
      </trkpt>
      <trkpt lat="48.02437" lon="-3.82217">
        <ele>163.93500935799</ele>
        <time>2021-08-19T13:19:12.267Z</time>
      </trkpt>
      <trkpt lat="48.02452" lon="-3.82141">
        <ele>162.3760940662</ele>
        <time>2021-08-19T13:19:20.220Z</time>
      </trkpt>
      <trkpt lat="48.02471" lon="-3.82083">
        <ele>160.79571633853</ele>
        <time>2021-08-19T13:19:28.179Z</time>
      </trkpt>
      <trkpt lat="48.02522" lon="-3.81953">
        <ele>159.17974739419</ele>
        <time>2021-08-19T13:19:36.152Z</time>
      </trkpt>
      <trkpt lat="48.02536" lon="-3.81901">
        <ele>157.68358185905</ele>
        <time>2021-08-19T13:19:44.130Z</time>
      </trkpt>
      <trkpt lat="48.02543" lon="-3.81862">
        <ele>156.24984779506</ele>
        <time>2021-08-19T13:19:52.111Z</time>
      </trkpt>
      <trkpt lat="48.02547" lon="-3.81795">
        <ele>154.76451582022</ele>
        <time>2021-08-19T13:20:00.098Z</time>
      </trkpt>
      <trkpt lat="48.02543" lon="-3.8174">
        <ele>153.35507225468</ele>
        <time>2021-08-19T13:20:08.090Z</time>
      </trkpt>
      <trkpt lat="48.02532" lon="-3.81642">
        <ele>151.98206027548</ele>
        <time>2021-08-19T13:20:16.091Z</time>
      </trkpt>
      <trkpt lat="48.0253" lon="-3.81567">
        <ele>150.69378228603</ele>
        <time>2021-08-19T13:20:24.099Z</time>
      </trkpt>
      <trkpt lat="48.0253" lon="-3.81534">
        <ele>149.60335853434</ele>
        <time>2021-08-19T13:20:32.110Z</time>
      </trkpt>
      <trkpt lat="48.02531" lon="-3.81499">
        <ele>148.72189706291</ele>
        <time>2021-08-19T13:20:40.124Z</time>
      </trkpt>
      <trkpt lat="48.02552" lon="-3.81253">
        <ele>147.98838741173</ele>
        <time>2021-08-19T13:20:48.161Z</time>
      </trkpt>
      <trkpt lat="48.0256" lon="-3.81173">
        <ele>147.54108362583</ele>
        <time>2021-08-19T13:20:56.205Z</time>
      </trkpt>
      <trkpt lat="48.02563" lon="-3.81158">
        <ele>147.27840562453</ele>
        <time>2021-08-19T13:21:04.251Z</time>
      </trkpt>
      <trkpt lat="48.02583" lon="-3.81092">
        <ele>147.24912912721</ele>
        <time>2021-08-19T13:21:12.303Z</time>
      </trkpt>
      <trkpt lat="48.02592" lon="-3.81068">
        <ele>147.44476318475</ele>
        <time>2021-08-19T13:21:20.358Z</time>
      </trkpt>
      <trkpt lat="48.02693" lon="-3.80861">
        <ele>147.71837463261</ele>
        <time>2021-08-19T13:21:28.436Z</time>
      </trkpt>
      <trkpt lat="48.02709" lon="-3.80824">
        <ele>148.29587081375</ele>
        <time>2021-08-19T13:21:36.518Z</time>
      </trkpt>
      <trkpt lat="48.02734" lon="-3.80757">
        <ele>149.01402957583</ele>
        <time>2021-08-19T13:21:44.607Z</time>
      </trkpt>
      <trkpt lat="48.02793" lon="-3.80581">
        <ele>150.01129277128</ele>
        <time>2021-08-19T13:21:52.714Z</time>
      </trkpt>
      <trkpt lat="48.02798" lon="-3.80554">
        <ele>151.34639247755</ele>
        <time>2021-08-19T13:22:00.823Z</time>
      </trkpt>
      <trkpt lat="48.02799" lon="-3.80478">
        <ele>153.05604701382</ele>
        <time>2021-08-19T13:22:08.939Z</time>
      </trkpt>
      <trkpt lat="48.02788" lon="-3.80309">
        <ele>155.16970284573</ele>
        <time>2021-08-19T13:22:17.071Z</time>
      </trkpt>
      <trkpt lat="48.02792" lon="-3.80272">
        <ele>156.92459026412</ele>
        <time>2021-08-19T13:22:25.206Z</time>
      </trkpt>
      <trkpt lat="48.02796" lon="-3.80249">
        <ele>158.7248707165</ele>
        <time>2021-08-19T13:22:33.343Z</time>
      </trkpt>
      <trkpt lat="48.02845" lon="-3.80031">
        <ele>160.9888276803</ele>
        <time>2021-08-19T13:22:41.501Z</time>
      </trkpt>
      <trkpt lat="48.02861" lon="-3.79972">
        <ele>162.97591921502</ele>
        <time>2021-08-19T13:22:49.665Z</time>
      </trkpt>
      <trkpt lat="48.0288" lon="-3.79913">
        <ele>164.90408414629</ele>
        <time>2021-08-19T13:22:57.835Z</time>
      </trkpt>
      <trkpt lat="48.02896" lon="-3.79875">
        <ele>166.73643018845</ele>
        <time>2021-08-19T13:23:06.009Z</time>
      </trkpt>
      <trkpt lat="48.02934" lon="-3.79801">
        <ele>168.62948760361</ele>
        <time>2021-08-19T13:23:14.191Z</time>
      </trkpt>
      <trkpt lat="48.02956" lon="-3.79734">
        <ele>170.61687202367</ele>
        <time>2021-08-19T13:23:22.380Z</time>
      </trkpt>
      <trkpt lat="48.02991" lon="-3.79621">
        <ele>172.65212511428</ele>
        <time>2021-08-19T13:23:30.580Z</time>
      </trkpt>
      <trkpt lat="48.03002" lon="-3.79578">
        <ele>174.25795138902</ele>
        <time>2021-08-19T13:23:38.784Z</time>
      </trkpt>
      <trkpt lat="48.03017" lon="-3.795">
        <ele>175.7701602773</ele>
        <time>2021-08-19T13:23:46.996Z</time>
      </trkpt>
      <trkpt lat="48.03031" lon="-3.7944">
        <ele>177.22684090879</ele>
        <time>2021-08-19T13:23:55.214Z</time>
      </trkpt>
      <trkpt lat="48.03048" lon="-3.79382">
        <ele>178.51178891926</ele>
        <time>2021-08-19T13:24:03.437Z</time>
      </trkpt>
      <trkpt lat="48.03174" lon="-3.7907">
        <ele>179.47154959905</ele>
        <time>2021-08-19T13:24:11.693Z</time>
      </trkpt>
      <trkpt lat="48.03183" lon="-3.79023">
        <ele>180.619758513</ele>
        <time>2021-08-19T13:24:19.954Z</time>
      </trkpt>
      <trkpt lat="48.03187" lon="-3.78976">
        <ele>181.74718097557</ele>
        <time>2021-08-19T13:24:28.219Z</time>
      </trkpt>
      <trkpt lat="48.03193" lon="-3.78932">
        <ele>182.8504580826</ele>
        <time>2021-08-19T13:24:36.488Z</time>
      </trkpt>
      <trkpt lat="48.03211" lon="-3.78865">
        <ele>184.01445096639</ele>
        <time>2021-08-19T13:24:44.764Z</time>
      </trkpt>
      <trkpt lat="48.0323" lon="-3.78814">
        <ele>185.09777131397</ele>
        <time>2021-08-19T13:24:53.045Z</time>
      </trkpt>
      <trkpt lat="48.03247" lon="-3.78781">
        <ele>186.10709755038</ele>
        <time>2021-08-19T13:25:01.330Z</time>
      </trkpt>
      <trkpt lat="48.03344" lon="-3.78639">
        <ele>187.22379317721</ele>
        <time>2021-08-19T13:25:09.633Z</time>
      </trkpt>
      <trkpt lat="48.03376" lon="-3.78586">
        <ele>188.16813380107</ele>
        <time>2021-08-19T13:25:17.943Z</time>
      </trkpt>
      <trkpt lat="48.03385" lon="-3.78557">
        <ele>189.08046823657</ele>
        <time>2021-08-19T13:25:26.256Z</time>
      </trkpt>
      <trkpt lat="48.03388" lon="-3.78537">
        <ele>190.00969290765</ele>
        <time>2021-08-19T13:25:34.570Z</time>
      </trkpt>
      <trkpt lat="48.03409" lon="-3.78374">
        <ele>190.80193008559</ele>
        <time>2021-08-19T13:25:42.899Z</time>
      </trkpt>
      <trkpt lat="48.03423" lon="-3.78324">
        <ele>191.76909086594</ele>
        <time>2021-08-19T13:25:51.233Z</time>
      </trkpt>
      <trkpt lat="48.03438" lon="-3.78292">
        <ele>192.8372287408</ele>
        <time>2021-08-19T13:25:59.571Z</time>
      </trkpt>
      <trkpt lat="48.03474" lon="-3.78225">
        <ele>194.00236390781</ele>
        <time>2021-08-19T13:26:07.917Z</time>
      </trkpt>
      <trkpt lat="48.03541" lon="-3.78119">
        <ele>195.34291812351</ele>
        <time>2021-08-19T13:26:16.276Z</time>
      </trkpt>
      <trkpt lat="48.03568" lon="-3.7807">
        <ele>196.62802392872</ele>
        <time>2021-08-19T13:26:24.641Z</time>
      </trkpt>
      <trkpt lat="48.03658" lon="-3.77871">
        <ele>198.36289254679</ele>
        <time>2021-08-19T13:26:33.027Z</time>
      </trkpt>
      <trkpt lat="48.03683" lon="-3.77818">
        <ele>199.66019996679</ele>
        <time>2021-08-19T13:26:41.419Z</time>
      </trkpt>
      <trkpt lat="48.037" lon="-3.77777">
        <ele>200.91007395482</ele>
        <time>2021-08-19T13:26:49.816Z</time>
      </trkpt>
      <trkpt lat="48.03736" lon="-3.77632">
        <ele>202.23118226544</ele>
        <time>2021-08-19T13:26:58.227Z</time>
      </trkpt>
      <trkpt lat="48.03759" lon="-3.77565">
        <ele>203.44294739352</ele>
        <time>2021-08-19T13:27:06.645Z</time>
      </trkpt>
      <trkpt lat="48.03822" lon="-3.7747">
        <ele>204.62057572464</ele>
        <time>2021-08-19T13:27:15.075Z</time>
      </trkpt>
      <trkpt lat="48.03939" lon="-3.773">
        <ele>205.98025020953</ele>
        <time>2021-08-19T13:27:23.527Z</time>
      </trkpt>
      <trkpt lat="48.03951" lon="-3.77277">
        <ele>207.15702421541</ele>
        <time>2021-08-19T13:27:31.981Z</time>
      </trkpt>
      <trkpt lat="48.03972" lon="-3.77218">
        <ele>208.34368083186</ele>
        <time>2021-08-19T13:27:40.441Z</time>
      </trkpt>
      <trkpt lat="48.03991" lon="-3.77149">
        <ele>209.38848701704</ele>
        <time>2021-08-19T13:27:48.908Z</time>
      </trkpt>
      <trkpt lat="48.04" lon="-3.77125">
        <ele>210.43907965673</ele>
        <time>2021-08-19T13:27:57.378Z</time>
      </trkpt>
      <trkpt lat="48.04194" lon="-3.76677">
        <ele>211.60281383361</ele>
        <time>2021-08-19T13:28:05.896Z</time>
      </trkpt>
      <trkpt lat="48.04217" lon="-3.76611">
        <ele>212.59754847667</ele>
        <time>2021-08-19T13:28:14.421Z</time>
      </trkpt>
      <trkpt lat="48.04233" lon="-3.76544">
        <ele>213.67496081135</ele>
        <time>2021-08-19T13:28:22.952Z</time>
      </trkpt>
      <trkpt lat="48.0425" lon="-3.76495">
        <ele>214.75762205506</ele>
        <time>2021-08-19T13:28:31.488Z</time>
      </trkpt>
      <trkpt lat="48.04258" lon="-3.76477">
        <ele>215.81822338288</ele>
        <time>2021-08-19T13:28:40.026Z</time>
      </trkpt>
      <trkpt lat="48.0428" lon="-3.76439">
        <ele>216.96651359853</ele>
        <time>2021-08-19T13:28:48.569Z</time>
      </trkpt>
      <trkpt lat="48.04292" lon="-3.76422">
        <ele>218.11056159026</ele>
        <time>2021-08-19T13:28:57.114Z</time>
      </trkpt>
      <trkpt lat="48.04305" lon="-3.76408">
        <ele>219.28356749155</ele>
        <time>2021-08-19T13:29:05.661Z</time>
      </trkpt>
      <trkpt lat="48.04324" lon="-3.76392">
        <ele>220.50485205227</ele>
        <time>2021-08-19T13:29:14.211Z</time>
      </trkpt>
      <trkpt lat="48.04401" lon="-3.76336">
        <ele>222.01947254497</ele>
        <time>2021-08-19T13:29:22.773Z</time>
      </trkpt>
      <trkpt lat="48.04401" lon="-3.76336">
        <ele>223.19040550624</ele>
        <time>2021-08-19T13:29:31.335Z</time>
      </trkpt>
      <trkpt lat="48.04426" lon="-3.76314">
        <ele>225.6618153651</ele>
        <time>2021-08-19T13:29:39.901Z</time>
      </trkpt>
      <trkpt lat="48.0444" lon="-3.76298">
        <ele>226.89410682267</ele>
        <time>2021-08-19T13:29:48.469Z</time>
      </trkpt>
      <trkpt lat="48.04451" lon="-3.76279">
        <ele>228.10047282285</ele>
        <time>2021-08-19T13:29:57.039Z</time>
      </trkpt>
      <trkpt lat="48.04481" lon="-3.76198">
        <ele>229.41665668895</ele>
        <time>2021-08-19T13:30:05.618Z</time>
      </trkpt>
      <trkpt lat="48.04489" lon="-3.76185">
        <ele>230.5497237057</ele>
        <time>2021-08-19T13:30:14.198Z</time>
      </trkpt>
      <trkpt lat="48.04496" lon="-3.7619">
        <ele>231.6377688539</ele>
        <time>2021-08-19T13:30:22.779Z</time>
      </trkpt>
      <trkpt lat="48.045" lon="-3.76196">
        <ele>232.65352845745</ele>
        <time>2021-08-19T13:30:31.361Z</time>
      </trkpt>
      <trkpt lat="48.04513" lon="-3.76228">
        <ele>233.61618989793</ele>
        <time>2021-08-19T13:30:39.946Z</time>
      </trkpt>
      <trkpt lat="48.04543" lon="-3.76333">
        <ele>234.66393168801</ele>
        <time>2021-08-19T13:30:48.542Z</time>
      </trkpt>
      <trkpt lat="48.04558" lon="-3.76404">
        <ele>235.55904068304</ele>
        <time>2021-08-19T13:30:57.145Z</time>
      </trkpt>
      <trkpt lat="48.04562" lon="-3.76411">
        <ele>236.26035397103</ele>
        <time>2021-08-19T13:31:05.748Z</time>
      </trkpt>
      <trkpt lat="48.04572" lon="-3.76419">
        <ele>236.91133351335</ele>
        <time>2021-08-19T13:31:14.353Z</time>
      </trkpt>
      <trkpt lat="48.04585" lon="-3.76411">
        <ele>237.49331163022</ele>
        <time>2021-08-19T13:31:22.960Z</time>
      </trkpt>
      <trkpt lat="48.04603" lon="-3.76406">
        <ele>237.91534367705</ele>
        <time>2021-08-19T13:31:31.569Z</time>
      </trkpt>
      <trkpt lat="48.04611" lon="-3.76395">
        <ele>238.18687554831</ele>
        <time>2021-08-19T13:31:40.180Z</time>
      </trkpt>
      <trkpt lat="48.04617" lon="-3.76362">
        <ele>238.36812764374</ele>
        <time>2021-08-19T13:31:48.794Z</time>
      </trkpt>
      <trkpt lat="48.04623" lon="-3.76351">
        <ele>238.42499388795</ele>
        <time>2021-08-19T13:31:57.409Z</time>
      </trkpt>
      <trkpt lat="48.04631" lon="-3.76344">
        <ele>238.37510334633</ele>
        <time>2021-08-19T13:32:06.025Z</time>
      </trkpt>
      <trkpt lat="48.04642" lon="-3.76343">
        <ele>238.22466482884</ele>
        <time>2021-08-19T13:32:14.643Z</time>
      </trkpt>
      <trkpt lat="48.04663" lon="-3.76346">
        <ele>237.97642292302</ele>
        <time>2021-08-19T13:32:23.264Z</time>
      </trkpt>
      <trkpt lat="48.04683" lon="-3.76353">
        <ele>237.63927253457</ele>
        <time>2021-08-19T13:32:31.887Z</time>
      </trkpt>
      <trkpt lat="48.04699" lon="-3.76366">
        <ele>237.22678751235</ele>
        <time>2021-08-19T13:32:40.513Z</time>
      </trkpt>
      <trkpt lat="48.04722" lon="-3.76404">
        <ele>236.73962997221</ele>
        <time>2021-08-19T13:32:49.144Z</time>
      </trkpt>
      <trkpt lat="48.04805" lon="-3.7656">
        <ele>236.54171302515</ele>
        <time>2021-08-19T13:32:57.793Z</time>
      </trkpt>
      <trkpt lat="48.04835" lon="-3.76611">
        <ele>236.10758161585</ele>
        <time>2021-08-19T13:33:06.448Z</time>
      </trkpt>
      <trkpt lat="48.04895" lon="-3.76701">
        <ele>235.34310035903</ele>
        <time>2021-08-19T13:33:15.114Z</time>
      </trkpt>
      <trkpt lat="48.04937" lon="-3.7675">
        <ele>234.6863081191</ele>
        <time>2021-08-19T13:33:23.788Z</time>
      </trkpt>
      <trkpt lat="48.05105" lon="-3.76926">
        <ele>233.94098849413</ele>
        <time>2021-08-19T13:33:32.489Z</time>
      </trkpt>
      <trkpt lat="48.05159" lon="-3.76986">
        <ele>233.59834687317</ele>
        <time>2021-08-19T13:33:41.199Z</time>
      </trkpt>
      <trkpt lat="48.05188" lon="-3.77015">
        <ele>233.32074864814</ele>
        <time>2021-08-19T13:33:49.914Z</time>
      </trkpt>
      <trkpt lat="48.05218" lon="-3.77041">
        <ele>233.10935137206</ele>
        <time>2021-08-19T13:33:58.634Z</time>
      </trkpt>
      <trkpt lat="48.05419" lon="-3.77193">
        <ele>232.99063468691</ele>
        <time>2021-08-19T13:34:07.384Z</time>
      </trkpt>
      <trkpt lat="48.05474" lon="-3.77238">
        <ele>233.11110394425</ele>
        <time>2021-08-19T13:34:16.143Z</time>
      </trkpt>
      <trkpt lat="48.05544" lon="-3.77287">
        <ele>233.23480802835</ele>
        <time>2021-08-19T13:34:24.912Z</time>
      </trkpt>
      <trkpt lat="48.05657" lon="-3.77372">
        <ele>233.52567442062</ele>
        <time>2021-08-19T13:34:33.698Z</time>
      </trkpt>
      <trkpt lat="48.05688" lon="-3.77399">
        <ele>233.72024747323</ele>
        <time>2021-08-19T13:34:42.489Z</time>
      </trkpt>
      <trkpt lat="48.05711" lon="-3.77425">
        <ele>233.94537830867</ele>
        <time>2021-08-19T13:34:51.284Z</time>
      </trkpt>
      <trkpt lat="48.05748" lon="-3.77479">
        <ele>234.3135421762</ele>
        <time>2021-08-19T13:35:00.086Z</time>
      </trkpt>
      <trkpt lat="48.05812" lon="-3.77619">
        <ele>234.6427792092</ele>
        <time>2021-08-19T13:35:08.903Z</time>
      </trkpt>
      <trkpt lat="48.0587" lon="-3.77751">
        <ele>234.74717003577</ele>
        <time>2021-08-19T13:35:17.735Z</time>
      </trkpt>
      <trkpt lat="48.05894" lon="-3.77804">
        <ele>234.77580973373</ele>
        <time>2021-08-19T13:35:26.573Z</time>
      </trkpt>
      <trkpt lat="48.05917" lon="-3.77839">
        <ele>235.10733499499</ele>
        <time>2021-08-19T13:35:35.415Z</time>
      </trkpt>
      <trkpt lat="48.05935" lon="-3.77859">
        <ele>235.33307051533</ele>
        <time>2021-08-19T13:35:44.260Z</time>
      </trkpt>
      <trkpt lat="48.05954" lon="-3.77872">
        <ele>235.46209833558</ele>
        <time>2021-08-19T13:35:53.108Z</time>
      </trkpt>
      <trkpt lat="48.05961" lon="-3.77874">
        <ele>235.5272303492</ele>
        <time>2021-08-19T13:36:01.957Z</time>
      </trkpt>
      <trkpt lat="48.06012" lon="-3.77885">
        <ele>235.53291654156</ele>
        <time>2021-08-19T13:36:10.813Z</time>
      </trkpt>
      <trkpt lat="48.06042" lon="-3.77888">
        <ele>235.48502465692</ele>
        <time>2021-08-19T13:36:19.673Z</time>
      </trkpt>
      <trkpt lat="48.06094" lon="-3.77888">
        <ele>235.33602564465</ele>
        <time>2021-08-19T13:36:28.540Z</time>
      </trkpt>
      <trkpt lat="48.06133" lon="-3.7789">
        <ele>235.08348534156</ele>
        <time>2021-08-19T13:36:37.412Z</time>
      </trkpt>
      <trkpt lat="48.06158" lon="-3.77895">
        <ele>234.70323293801</ele>
        <time>2021-08-19T13:36:46.288Z</time>
      </trkpt>
      <trkpt lat="48.06192" lon="-3.77907">
        <ele>234.21004519542</ele>
        <time>2021-08-19T13:36:55.168Z</time>
      </trkpt>
      <trkpt lat="48.06317" lon="-3.77976">
        <ele>233.56427809278</ele>
        <time>2021-08-19T13:37:04.066Z</time>
      </trkpt>
      <trkpt lat="48.06438" lon="-3.78051">
        <ele>232.8777947625</ele>
        <time>2021-08-19T13:37:12.982Z</time>
      </trkpt>
      <trkpt lat="48.06586" lon="-3.78147">
        <ele>232.03545298024</ele>
        <time>2021-08-19T13:37:21.920Z</time>
      </trkpt>
      <trkpt lat="48.06669" lon="-3.78195">
        <ele>231.15574037844</ele>
        <time>2021-08-19T13:37:30.870Z</time>
      </trkpt>
      <trkpt lat="48.06773" lon="-3.78266">
        <ele>230.24133158049</ele>
        <time>2021-08-19T13:37:39.835Z</time>
      </trkpt>
      <trkpt lat="48.07069" lon="-3.78446">
        <ele>228.94733536437</ele>
        <time>2021-08-19T13:37:48.844Z</time>
      </trkpt>
      <trkpt lat="48.07084" lon="-3.78453">
        <ele>227.93028274534</ele>
        <time>2021-08-19T13:37:57.855Z</time>
      </trkpt>
      <trkpt lat="48.07124" lon="-3.78462">
        <ele>226.84546153947</ele>
        <time>2021-08-19T13:38:06.871Z</time>
      </trkpt>
      <trkpt lat="48.07149" lon="-3.78461">
        <ele>225.73584739116</ele>
        <time>2021-08-19T13:38:15.891Z</time>
      </trkpt>
      <trkpt lat="48.07174" lon="-3.78456">
        <ele>224.62405440174</ele>
        <time>2021-08-19T13:38:24.914Z</time>
      </trkpt>
      <trkpt lat="48.07205" lon="-3.78445">
        <ele>223.4695612306</ele>
        <time>2021-08-19T13:38:33.941Z</time>
      </trkpt>
      <trkpt lat="48.07222" lon="-3.78436">
        <ele>222.28781304452</ele>
        <time>2021-08-19T13:38:42.971Z</time>
      </trkpt>
      <trkpt lat="48.07252" lon="-3.78413">
        <ele>221.1012778568</ele>
        <time>2021-08-19T13:38:52.005Z</time>
      </trkpt>
      <trkpt lat="48.07266" lon="-3.784">
        <ele>219.90059254698</ele>
        <time>2021-08-19T13:39:01.042Z</time>
      </trkpt>
      <trkpt lat="48.07285" lon="-3.78378">
        <ele>218.72211689311</ele>
        <time>2021-08-19T13:39:10.082Z</time>
      </trkpt>
      <trkpt lat="48.07472" lon="-3.78132">
        <ele>217.7068511648</ele>
        <time>2021-08-19T13:39:19.156Z</time>
      </trkpt>
      <trkpt lat="48.07624" lon="-3.77937">
        <ele>216.04133221661</ele>
        <time>2021-08-19T13:39:28.257Z</time>
      </trkpt>
      <trkpt lat="48.07685" lon="-3.77854">
        <ele>214.57813139405</ele>
        <time>2021-08-19T13:39:37.369Z</time>
      </trkpt>
      <trkpt lat="48.07934" lon="-3.77535">
        <ele>212.38326039915</ele>
        <time>2021-08-19T13:39:46.525Z</time>
      </trkpt>
      <trkpt lat="48.07997" lon="-3.77452">
        <ele>211.24096412859</ele>
        <time>2021-08-19T13:39:55.693Z</time>
      </trkpt>
      <trkpt lat="48.08025" lon="-3.77416">
        <ele>210.3242002794</ele>
        <time>2021-08-19T13:40:04.866Z</time>
      </trkpt>
      <trkpt lat="48.08064" lon="-3.77376">
        <ele>209.54678239919</ele>
        <time>2021-08-19T13:40:14.045Z</time>
      </trkpt>
      <trkpt lat="48.08083" lon="-3.77358">
        <ele>208.94362581111</ele>
        <time>2021-08-19T13:40:23.227Z</time>
      </trkpt>
      <trkpt lat="48.08114" lon="-3.77333">
        <ele>208.47311914585</ele>
        <time>2021-08-19T13:40:32.414Z</time>
      </trkpt>
      <trkpt lat="48.08592" lon="-3.76981">
        <ele>208.87554041102</ele>
        <time>2021-08-19T13:40:41.673Z</time>
      </trkpt>
      <trkpt lat="48.08835" lon="-3.76794">
        <ele>209.20448670609</ele>
        <time>2021-08-19T13:40:50.969Z</time>
      </trkpt>
      <trkpt lat="48.08881" lon="-3.76765">
        <ele>208.92297270517</ele>
        <time>2021-08-19T13:41:00.272Z</time>
      </trkpt>
      <trkpt lat="48.08923" lon="-3.76742">
        <ele>208.55610910198</ele>
        <time>2021-08-19T13:41:09.581Z</time>
      </trkpt>
      <trkpt lat="48.08955" lon="-3.7673">
        <ele>208.22681192802</ele>
        <time>2021-08-19T13:41:18.894Z</time>
      </trkpt>
      <trkpt lat="48.08994" lon="-3.76723">
        <ele>207.81548621648</ele>
        <time>2021-08-19T13:41:28.212Z</time>
      </trkpt>
      <trkpt lat="48.09073" lon="-3.76725">
        <ele>207.3616206272</ele>
        <time>2021-08-19T13:41:37.541Z</time>
      </trkpt>
      <trkpt lat="48.09142" lon="-3.76731">
        <ele>206.80965177462</ele>
        <time>2021-08-19T13:41:46.879Z</time>
      </trkpt>
      <trkpt lat="48.09182" lon="-3.76732">
        <ele>206.21086975164</ele>
        <time>2021-08-19T13:41:56.223Z</time>
      </trkpt>
      <trkpt lat="48.09189" lon="-3.76735">
        <ele>205.61182851629</ele>
        <time>2021-08-19T13:42:05.568Z</time>
      </trkpt>
      <trkpt lat="48.09209" lon="-3.76737">
        <ele>204.90988477356</ele>
        <time>2021-08-19T13:42:14.915Z</time>
      </trkpt>
      <trkpt lat="48.09314" lon="-3.76736">
        <ele>203.91828978294</ele>
        <time>2021-08-19T13:42:24.277Z</time>
      </trkpt>
      <trkpt lat="48.09468" lon="-3.76744">
        <ele>202.89020351541</ele>
        <time>2021-08-19T13:42:33.660Z</time>
      </trkpt>
      <trkpt lat="48.09507" lon="-3.76747">
        <ele>201.91923620604</ele>
        <time>2021-08-19T13:42:43.048Z</time>
      </trkpt>
      <trkpt lat="48.09539" lon="-3.76757">
        <ele>200.88598368582</ele>
        <time>2021-08-19T13:42:52.440Z</time>
      </trkpt>
      <trkpt lat="48.09719" lon="-3.76831">
        <ele>199.7261448726</ele>
        <time>2021-08-19T13:43:01.857Z</time>
      </trkpt>
      <trkpt lat="48.09937" lon="-3.76914">
        <ele>198.17882137961</ele>
        <time>2021-08-19T13:43:11.305Z</time>
      </trkpt>
      <trkpt lat="48.09963" lon="-3.76928">
        <ele>196.79796910406</ele>
        <time>2021-08-19T13:43:20.757Z</time>
      </trkpt>
      <trkpt lat="48.10015" lon="-3.76963">
        <ele>195.2358799004</ele>
        <time>2021-08-19T13:43:30.216Z</time>
      </trkpt>
      <trkpt lat="48.10202" lon="-3.7711">
        <ele>193.41730965574</ele>
        <time>2021-08-19T13:43:39.704Z</time>
      </trkpt>
      <trkpt lat="48.10281" lon="-3.77169">
        <ele>191.75061597054</ele>
        <time>2021-08-19T13:43:49.204Z</time>
      </trkpt>
      <trkpt lat="48.10314" lon="-3.77198">
        <ele>190.21510397422</ele>
        <time>2021-08-19T13:43:58.709Z</time>
      </trkpt>
      <trkpt lat="48.10351" lon="-3.77246">
        <ele>188.57906631559</ele>
        <time>2021-08-19T13:44:08.221Z</time>
      </trkpt>
      <trkpt lat="48.1038" lon="-3.77288">
        <ele>186.97081478665</ele>
        <time>2021-08-19T13:44:17.738Z</time>
      </trkpt>
      <trkpt lat="48.10561" lon="-3.77567">
        <ele>184.85887740677</ele>
        <time>2021-08-19T13:44:27.290Z</time>
      </trkpt>
      <trkpt lat="48.10615" lon="-3.77648">
        <ele>183.17208773194</ele>
        <time>2021-08-19T13:44:36.853Z</time>
      </trkpt>
      <trkpt lat="48.10643" lon="-3.77681">
        <ele>181.52217255378</ele>
        <time>2021-08-19T13:44:46.421Z</time>
      </trkpt>
      <trkpt lat="48.10693" lon="-3.7773">
        <ele>179.85392133156</ele>
        <time>2021-08-19T13:44:55.997Z</time>
      </trkpt>
      <trkpt lat="48.1082" lon="-3.77864">
        <ele>178.17627139548</ele>
        <time>2021-08-19T13:45:05.594Z</time>
      </trkpt>
      <trkpt lat="48.10849" lon="-3.77886">
        <ele>176.38444425129</ele>
        <time>2021-08-19T13:45:15.195Z</time>
      </trkpt>
      <trkpt lat="48.10866" lon="-3.77894">
        <ele>174.42845836386</ele>
        <time>2021-08-19T13:45:24.798Z</time>
      </trkpt>
      <trkpt lat="48.10883" lon="-3.77901">
        <ele>172.36799312325</ele>
        <time>2021-08-19T13:45:34.404Z</time>
      </trkpt>
      <trkpt lat="48.10919" lon="-3.77908">
        <ele>170.19280373009</ele>
        <time>2021-08-19T13:45:44.015Z</time>
      </trkpt>
      <trkpt lat="48.10939" lon="-3.77907">
        <ele>167.88349653899</ele>
        <time>2021-08-19T13:45:53.628Z</time>
      </trkpt>
      <trkpt lat="48.1097" lon="-3.77898">
        <ele>165.37772592331</ele>
        <time>2021-08-19T13:46:03.246Z</time>
      </trkpt>
      <trkpt lat="48.1099" lon="-3.77889">
        <ele>162.76908226645</ele>
        <time>2021-08-19T13:46:12.867Z</time>
      </trkpt>
      <trkpt lat="48.11141" lon="-3.77803">
        <ele>159.58627799279</ele>
        <time>2021-08-19T13:46:22.509Z</time>
      </trkpt>
      <trkpt lat="48.1122" lon="-3.77755">
        <ele>156.55585680873</ele>
        <time>2021-08-19T13:46:32.163Z</time>
      </trkpt>
      <trkpt lat="48.11268" lon="-3.77738">
        <ele>153.56607774007</ele>
        <time>2021-08-19T13:46:41.824Z</time>
      </trkpt>
      <trkpt lat="48.11293" lon="-3.77735">
        <ele>150.58482860616</ele>
        <time>2021-08-19T13:46:51.488Z</time>
      </trkpt>
      <trkpt lat="48.11329" lon="-3.77738">
        <ele>147.45980091794</ele>
        <time>2021-08-19T13:47:01.157Z</time>
      </trkpt>
      <trkpt lat="48.11341" lon="-3.77741">
        <ele>144.39856102108</ele>
        <time>2021-08-19T13:47:10.828Z</time>
      </trkpt>
      <trkpt lat="48.11366" lon="-3.7775">
        <ele>141.25279051463</ele>
        <time>2021-08-19T13:47:20.502Z</time>
      </trkpt>
      <trkpt lat="48.11377" lon="-3.77757">
        <ele>138.23390530852</ele>
        <time>2021-08-19T13:47:30.178Z</time>
      </trkpt>
      <trkpt lat="48.11399" lon="-3.77776">
        <ele>135.24171631438</ele>
        <time>2021-08-19T13:47:39.857Z</time>
      </trkpt>
      <trkpt lat="48.11465" lon="-3.77857">
        <ele>132.18271266933</ele>
        <time>2021-08-19T13:47:49.548Z</time>
      </trkpt>
      <trkpt lat="48.11754" lon="-3.78231">
        <ele>128.81885877669</ele>
        <time>2021-08-19T13:47:59.290Z</time>
      </trkpt>
      <trkpt lat="48.11903" lon="-3.7841">
        <ele>126.05463824557</ele>
        <time>2021-08-19T13:48:09.058Z</time>
      </trkpt>
      <trkpt lat="48.12046" lon="-3.78585">
        <ele>123.29862518934</ele>
        <time>2021-08-19T13:48:18.851Z</time>
      </trkpt>
      <trkpt lat="48.12081" lon="-3.78625">
        <ele>121.33555417744</ele>
        <time>2021-08-19T13:48:28.650Z</time>
      </trkpt>
      <trkpt lat="48.121" lon="-3.78641">
        <ele>119.86060091799</ele>
        <time>2021-08-19T13:48:38.452Z</time>
      </trkpt>
      <trkpt lat="48.12111" lon="-3.78648">
        <ele>118.76523339503</ele>
        <time>2021-08-19T13:48:48.256Z</time>
      </trkpt>
      <trkpt lat="48.12121" lon="-3.78653">
        <ele>118.08200667889</ele>
        <time>2021-08-19T13:48:58.061Z</time>
      </trkpt>
      <trkpt lat="48.12142" lon="-3.78659">
        <ele>117.83512152874</ele>
        <time>2021-08-19T13:49:07.869Z</time>
      </trkpt>
      <trkpt lat="48.1227" lon="-3.78687">
        <ele>117.95271608717</ele>
        <time>2021-08-19T13:49:17.695Z</time>
      </trkpt>
      <trkpt lat="48.12369" lon="-3.7871">
        <ele>118.73744183406</ele>
        <time>2021-08-19T13:49:27.534Z</time>
      </trkpt>
      <trkpt lat="48.12397" lon="-3.78719">
        <ele>119.79162392425</ele>
        <time>2021-08-19T13:49:37.377Z</time>
      </trkpt>
      <trkpt lat="48.12434" lon="-3.7874">
        <ele>121.38607370696</ele>
        <time>2021-08-19T13:49:47.225Z</time>
      </trkpt>
      <trkpt lat="48.12473" lon="-3.78766">
        <ele>123.34726141477</ele>
        <time>2021-08-19T13:49:57.079Z</time>
      </trkpt>
      <trkpt lat="48.12556" lon="-3.78827">
        <ele>125.7527548051</ele>
        <time>2021-08-19T13:50:06.946Z</time>
      </trkpt>
      <trkpt lat="48.12689" lon="-3.78954">
        <ele>128.90779778969</ele>
        <time>2021-08-19T13:50:16.834Z</time>
      </trkpt>
      <trkpt lat="48.12758" lon="-3.79024">
        <ele>132.12369742425</ele>
        <time>2021-08-19T13:50:26.733Z</time>
      </trkpt>
      <trkpt lat="48.12812" lon="-3.79071">
        <ele>135.45840735205</ele>
        <time>2021-08-19T13:50:36.641Z</time>
      </trkpt>
      <trkpt lat="48.12839" lon="-3.79089">
        <ele>138.84465634005</ele>
        <time>2021-08-19T13:50:46.553Z</time>
      </trkpt>
      <trkpt lat="48.12894" lon="-3.79114">
        <ele>142.55566959349</ele>
        <time>2021-08-19T13:50:56.473Z</time>
      </trkpt>
      <trkpt lat="48.12925" lon="-3.79119">
        <ele>146.21568641394</ele>
        <time>2021-08-19T13:51:06.397Z</time>
      </trkpt>
      <trkpt lat="48.12944" lon="-3.7912">
        <ele>149.84515663718</ele>
        <time>2021-08-19T13:51:16.323Z</time>
      </trkpt>
      <trkpt lat="48.12975" lon="-3.79116">
        <ele>153.56346942678</ele>
        <time>2021-08-19T13:51:26.253Z</time>
      </trkpt>
      <trkpt lat="48.13001" lon="-3.79109">
        <ele>157.29110092538</ele>
        <time>2021-08-19T13:51:36.187Z</time>
      </trkpt>
      <trkpt lat="48.13016" lon="-3.79102">
        <ele>161.02835876907</ele>
        <time>2021-08-19T13:51:46.123Z</time>
      </trkpt>
      <trkpt lat="48.13038" lon="-3.79088">
        <ele>164.86852150723</ele>
        <time>2021-08-19T13:51:56.062Z</time>
      </trkpt>
      <trkpt lat="48.13051" lon="-3.79077">
        <ele>168.64379748551</ele>
        <time>2021-08-19T13:52:06.003Z</time>
      </trkpt>
      <trkpt lat="48.13063" lon="-3.79063">
        <ele>172.40090115152</ele>
        <time>2021-08-19T13:52:15.946Z</time>
      </trkpt>
      <trkpt lat="48.13141" lon="-3.78938">
        <ele>176.57975001432</ele>
        <time>2021-08-19T13:52:25.905Z</time>
      </trkpt>
      <trkpt lat="48.13174" lon="-3.7889">
        <ele>180.4180430045</ele>
        <time>2021-08-19T13:52:35.870Z</time>
      </trkpt>
      <trkpt lat="48.1319" lon="-3.78871">
        <ele>184.12853864773</ele>
        <time>2021-08-19T13:52:45.838Z</time>
      </trkpt>
      <trkpt lat="48.13238" lon="-3.78803">
        <ele>187.93720852443</ele>
        <time>2021-08-19T13:52:55.815Z</time>
      </trkpt>
      <trkpt lat="48.13281" lon="-3.78754">
        <ele>191.65165631314</ele>
        <time>2021-08-19T13:53:05.799Z</time>
      </trkpt>
      <trkpt lat="48.13309" lon="-3.78728">
        <ele>195.19075111182</ele>
        <time>2021-08-19T13:53:15.788Z</time>
      </trkpt>
      <trkpt lat="48.13337" lon="-3.78697">
        <ele>198.58971720165</ele>
        <time>2021-08-19T13:53:25.781Z</time>
      </trkpt>
      <trkpt lat="48.13367" lon="-3.78668">
        <ele>201.81346412921</ele>
        <time>2021-08-19T13:53:35.779Z</time>
      </trkpt>
      <trkpt lat="48.13397" lon="-3.78631">
        <ele>204.83864515909</ele>
        <time>2021-08-19T13:53:45.782Z</time>
      </trkpt>
      <trkpt lat="48.13455" lon="-3.78547">
        <ele>207.89618828828</ele>
        <time>2021-08-19T13:53:55.796Z</time>
      </trkpt>
      <trkpt lat="48.13533" lon="-3.78428">
        <ele>210.99229692851</ele>
        <time>2021-08-19T13:54:05.825Z</time>
      </trkpt>
      <trkpt lat="48.13571" lon="-3.78374">
        <ele>213.67134994298</ele>
        <time>2021-08-19T13:54:15.861Z</time>
      </trkpt>
      <trkpt lat="48.13655" lon="-3.78244">
        <ele>216.25904353821</ele>
        <time>2021-08-19T13:54:25.914Z</time>
      </trkpt>
      <trkpt lat="48.13675" lon="-3.78215">
        <ele>218.37880572309</ele>
        <time>2021-08-19T13:54:35.971Z</time>
      </trkpt>
      <trkpt lat="48.13695" lon="-3.78196">
        <ele>220.25171235373</ele>
        <time>2021-08-19T13:54:46.031Z</time>
      </trkpt>
      <trkpt lat="48.13704" lon="-3.78191">
        <ele>221.89449984978</ele>
        <time>2021-08-19T13:54:56.092Z</time>
      </trkpt>
      <trkpt lat="48.13723" lon="-3.78184">
        <ele>223.38351168358</ele>
        <time>2021-08-19T13:55:06.156Z</time>
      </trkpt>
      <trkpt lat="48.13733" lon="-3.78184">
        <ele>224.66647636974</ele>
        <time>2021-08-19T13:55:16.221Z</time>
      </trkpt>
      <trkpt lat="48.13742" lon="-3.78186">
        <ele>225.78798681309</ele>
        <time>2021-08-19T13:55:26.287Z</time>
      </trkpt>
      <trkpt lat="48.13764" lon="-3.78197">
        <ele>226.80003948627</ele>
        <time>2021-08-19T13:55:36.357Z</time>
      </trkpt>
      <trkpt lat="48.13788" lon="-3.78211">
        <ele>227.64299060948</ele>
        <time>2021-08-19T13:55:46.430Z</time>
      </trkpt>
      <trkpt lat="48.13802" lon="-3.78223">
        <ele>228.37390060233</ele>
        <time>2021-08-19T13:55:56.505Z</time>
      </trkpt>
      <trkpt lat="48.13804" lon="-3.78238">
        <ele>229.00171615755</ele>
        <time>2021-08-19T13:56:06.582Z</time>
      </trkpt>
      <trkpt lat="48.13803" lon="-3.78253">
        <ele>229.56116120008</ele>
        <time>2021-08-19T13:56:16.660Z</time>
      </trkpt>
      <trkpt lat="48.13769" lon="-3.78406">
        <ele>230.06496566929</ele>
        <time>2021-08-19T13:56:26.753Z</time>
      </trkpt>
      <trkpt lat="48.13766" lon="-3.78427">
        <ele>230.56613864024</ele>
        <time>2021-08-19T13:56:36.848Z</time>
      </trkpt>
      <trkpt lat="48.13762" lon="-3.7847">
        <ele>231.10284489201</ele>
        <time>2021-08-19T13:56:46.946Z</time>
      </trkpt>
      <trkpt lat="48.13763" lon="-3.7849">
        <ele>231.61455478167</ele>
        <time>2021-08-19T13:56:57.046Z</time>
      </trkpt>
      <trkpt lat="48.13767" lon="-3.78519">
        <ele>232.13423005078</ele>
        <time>2021-08-19T13:57:07.149Z</time>
      </trkpt>
      <trkpt lat="48.13773" lon="-3.78546">
        <ele>232.66896862944</ele>
        <time>2021-08-19T13:57:17.254Z</time>
      </trkpt>
      <trkpt lat="48.13818" lon="-3.78683">
        <ele>233.42405613084</ele>
        <time>2021-08-19T13:57:27.373Z</time>
      </trkpt>
      <trkpt lat="48.13835" lon="-3.78748">
        <ele>234.05928773005</ele>
        <time>2021-08-19T13:57:37.499Z</time>
      </trkpt>
      <trkpt lat="48.13848" lon="-3.78823">
        <ele>234.51314371818</ele>
        <time>2021-08-19T13:57:47.632Z</time>
      </trkpt>
      <trkpt lat="48.1385" lon="-3.78887">
        <ele>234.982274186</ele>
        <time>2021-08-19T13:57:57.770Z</time>
      </trkpt>
      <trkpt lat="48.13845" lon="-3.79215">
        <ele>235.8156079293</ele>
        <time>2021-08-19T13:58:07.938Z</time>
      </trkpt>
      <trkpt lat="48.13842" lon="-3.79319">
        <ele>236.11049303533</ele>
        <time>2021-08-19T13:58:18.116Z</time>
      </trkpt>
      <trkpt lat="48.13831" lon="-3.79408">
        <ele>236.39600412838</ele>
        <time>2021-08-19T13:58:28.302Z</time>
      </trkpt>
      <trkpt lat="48.13794" lon="-3.79606">
        <ele>237.02130137643</ele>
        <time>2021-08-19T13:58:38.506Z</time>
      </trkpt>
      <trkpt lat="48.13786" lon="-3.79689">
        <ele>237.35739904869</ele>
        <time>2021-08-19T13:58:48.718Z</time>
      </trkpt>
      <trkpt lat="48.13789" lon="-3.7978">
        <ele>237.35856135383</ele>
        <time>2021-08-19T13:58:58.938Z</time>
      </trkpt>
      <trkpt lat="48.13797" lon="-3.79836">
        <ele>237.36984834718</ele>
        <time>2021-08-19T13:59:09.163Z</time>
      </trkpt>
      <trkpt lat="48.13819" lon="-3.79944">
        <ele>237.18172156194</ele>
        <time>2021-08-19T13:59:19.399Z</time>
      </trkpt>
      <trkpt lat="48.13836" lon="-3.80033">
        <ele>237.19402885236</ele>
        <time>2021-08-19T13:59:29.643Z</time>
      </trkpt>
      <trkpt lat="48.13847" lon="-3.80082">
        <ele>237.29141781326</ele>
        <time>2021-08-19T13:59:39.892Z</time>
      </trkpt>
      <trkpt lat="48.1386" lon="-3.80129">
        <ele>237.30982828553</ele>
        <time>2021-08-19T13:59:50.145Z</time>
      </trkpt>
      <trkpt lat="48.139" lon="-3.8025">
        <ele>237.39169152221</ele>
        <time>2021-08-19T14:00:00.410Z</time>
      </trkpt>
      <trkpt lat="48.13932" lon="-3.80367">
        <ele>237.51694898626</ele>
        <time>2021-08-19T14:00:10.687Z</time>
      </trkpt>
      <trkpt lat="48.14002" lon="-3.80655">
        <ele>237.56894071081</ele>
        <time>2021-08-19T14:00:20.992Z</time>
      </trkpt>
      <trkpt lat="48.14025" lon="-3.80814">
        <ele>237.58278269722</ele>
        <time>2021-08-19T14:00:31.311Z</time>
      </trkpt>
      <trkpt lat="48.14039" lon="-3.80945">
        <ele>237.38305233742</ele>
        <time>2021-08-19T14:00:41.642Z</time>
      </trkpt>
      <trkpt lat="48.14044" lon="-3.81007">
        <ele>236.95213986279</ele>
        <time>2021-08-19T14:00:51.979Z</time>
      </trkpt>
      <trkpt lat="48.14047" lon="-3.81088">
        <ele>236.64337333784</ele>
        <time>2021-08-19T14:01:02.323Z</time>
      </trkpt>
      <trkpt lat="48.1405" lon="-3.81217">
        <ele>236.42408023975</ele>
        <time>2021-08-19T14:01:12.679Z</time>
      </trkpt>
      <trkpt lat="48.14055" lon="-3.81304">
        <ele>236.07407877019</ele>
        <time>2021-08-19T14:01:23.043Z</time>
      </trkpt>
      <trkpt lat="48.14061" lon="-3.81448">
        <ele>235.67029597605</ele>
        <time>2021-08-19T14:01:33.420Z</time>
      </trkpt>
      <trkpt lat="48.1406" lon="-3.8161">
        <ele>235.29420117471</ele>
        <time>2021-08-19T14:01:43.812Z</time>
      </trkpt>
      <trkpt lat="48.14051" lon="-3.81734">
        <ele>234.89340791191</ele>
        <time>2021-08-19T14:01:54.215Z</time>
      </trkpt>
      <trkpt lat="48.14019" lon="-3.82032">
        <ele>234.80984736198</ele>
        <time>2021-08-19T14:02:04.645Z</time>
      </trkpt>
      <trkpt lat="48.13992" lon="-3.82229">
        <ele>234.42682848502</ele>
        <time>2021-08-19T14:02:15.094Z</time>
      </trkpt>
      <trkpt lat="48.13987" lon="-3.82304">
        <ele>234.41408043356</ele>
        <time>2021-08-19T14:02:25.549Z</time>
      </trkpt>
      <trkpt lat="48.13989" lon="-3.82412">
        <ele>234.51345071592</ele>
        <time>2021-08-19T14:02:36.014Z</time>
      </trkpt>
      <trkpt lat="48.13989" lon="-3.82456">
        <ele>234.51297442434</ele>
        <time>2021-08-19T14:02:46.483Z</time>
      </trkpt>
      <trkpt lat="48.13966" lon="-3.82652">
        <ele>234.6188335173</ele>
        <time>2021-08-19T14:02:56.970Z</time>
      </trkpt>
      <trkpt lat="48.13951" lon="-3.82762">
        <ele>234.62234913106</ele>
        <time>2021-08-19T14:03:07.467Z</time>
      </trkpt>
      <trkpt lat="48.13945" lon="-3.82795">
        <ele>234.69054190494</ele>
        <time>2021-08-19T14:03:17.967Z</time>
      </trkpt>
      <trkpt lat="48.13909" lon="-3.82944">
        <ele>234.8520814504</ele>
        <time>2021-08-19T14:03:28.482Z</time>
      </trkpt>
      <trkpt lat="48.13886" lon="-3.83017">
        <ele>234.89936706652</ele>
        <time>2021-08-19T14:03:39.004Z</time>
      </trkpt>
      <trkpt lat="48.13819" lon="-3.83258">
        <ele>234.94688045969</ele>
        <time>2021-08-19T14:03:49.550Z</time>
      </trkpt>
      <trkpt lat="48.13815" lon="-3.83278">
        <ele>234.88667688569</ele>
        <time>2021-08-19T14:04:00.098Z</time>
      </trkpt>
      <trkpt lat="48.13812" lon="-3.8331">
        <ele>234.79600133557</ele>
        <time>2021-08-19T14:04:10.648Z</time>
      </trkpt>
      <trkpt lat="48.13813" lon="-3.83366">
        <ele>234.55520714246</ele>
        <time>2021-08-19T14:04:21.203Z</time>
      </trkpt>
      <trkpt lat="48.13818" lon="-3.83383">
        <ele>234.25127133011</ele>
        <time>2021-08-19T14:04:31.760Z</time>
      </trkpt>
      <trkpt lat="48.13825" lon="-3.83397">
        <ele>233.81141853917</ele>
        <time>2021-08-19T14:04:42.319Z</time>
      </trkpt>
      <trkpt lat="48.13826" lon="-3.83403">
        <ele>233.25590852567</ele>
        <time>2021-08-19T14:04:52.878Z</time>
      </trkpt>
      <trkpt lat="48.13821" lon="-3.83435">
        <ele>232.57266669194</ele>
        <time>2021-08-19T14:05:03.440Z</time>
      </trkpt>
      <trkpt lat="48.1383" lon="-3.83456">
        <ele>231.7373786206</ele>
        <time>2021-08-19T14:05:14.005Z</time>
      </trkpt>
      <trkpt lat="48.13854" lon="-3.83484">
        <ele>230.6569947084</ele>
        <time>2021-08-19T14:05:24.574Z</time>
      </trkpt>
      <trkpt lat="48.13868" lon="-3.83508">
        <ele>229.37380503886</ele>
        <time>2021-08-19T14:05:35.146Z</time>
      </trkpt>
      <trkpt lat="48.13876" lon="-3.83535">
        <ele>227.94983887274</ele>
        <time>2021-08-19T14:05:45.720Z</time>
      </trkpt>
      <trkpt lat="48.13878" lon="-3.83558">
        <ele>226.48374740843</ele>
        <time>2021-08-19T14:05:56.296Z</time>
      </trkpt>
      <trkpt lat="48.1388" lon="-3.83612">
        <ele>224.84645290615</ele>
        <time>2021-08-19T14:06:06.877Z</time>
      </trkpt>
      <trkpt lat="48.13891" lon="-3.83759">
        <ele>222.89636195639</ele>
        <time>2021-08-19T14:06:17.472Z</time>
      </trkpt>
      <trkpt lat="48.13889" lon="-3.83828">
        <ele>221.04815234631</ele>
        <time>2021-08-19T14:06:28.073Z</time>
      </trkpt>
      <trkpt lat="48.13878" lon="-3.83967">
        <ele>219.03933951151</ele>
        <time>2021-08-19T14:06:38.687Z</time>
      </trkpt>
      <trkpt lat="48.13874" lon="-3.83991">
        <ele>217.20006407086</ele>
        <time>2021-08-19T14:06:49.303Z</time>
      </trkpt>
      <trkpt lat="48.13875" lon="-3.84011">
        <ele>215.30401986779</ele>
        <time>2021-08-19T14:06:59.921Z</time>
      </trkpt>
      <trkpt lat="48.13885" lon="-3.84029">
        <ele>213.26783736766</ele>
        <time>2021-08-19T14:07:10.541Z</time>
      </trkpt>
      <trkpt lat="48.13912" lon="-3.8407">
        <ele>211.02495634709</ele>
        <time>2021-08-19T14:07:21.166Z</time>
      </trkpt>
      <trkpt lat="48.13925" lon="-3.84095">
        <ele>208.96119402008</ele>
        <time>2021-08-19T14:07:31.794Z</time>
      </trkpt>
      <trkpt lat="48.13936" lon="-3.84125">
        <ele>206.94226506483</ele>
        <time>2021-08-19T14:07:42.425Z</time>
      </trkpt>
      <trkpt lat="48.13948" lon="-3.84173">
        <ele>204.9275859665</ele>
        <time>2021-08-19T14:07:53.060Z</time>
      </trkpt>
      <trkpt lat="48.13985" lon="-3.84374">
        <ele>202.67930911083</ele>
        <time>2021-08-19T14:08:03.714Z</time>
      </trkpt>
      <trkpt lat="48.14028" lon="-3.84583">
        <ele>200.33356284035</ele>
        <time>2021-08-19T14:08:14.388Z</time>
      </trkpt>
      <trkpt lat="48.14043" lon="-3.84663">
        <ele>198.3762194126</ele>
        <time>2021-08-19T14:08:25.070Z</time>
      </trkpt>
      <trkpt lat="48.1405" lon="-3.84742">
        <ele>196.84454456412</ele>
        <time>2021-08-19T14:08:35.759Z</time>
      </trkpt>
      <trkpt lat="48.1405" lon="-3.84833">
        <ele>195.34036789491</ele>
        <time>2021-08-19T14:08:46.456Z</time>
      </trkpt>
      <trkpt lat="48.14045" lon="-3.84878">
        <ele>193.72711236951</ele>
        <time>2021-08-19T14:08:57.157Z</time>
      </trkpt>
      <trkpt lat="48.14029" lon="-3.84981">
        <ele>192.25654529332</ele>
        <time>2021-08-19T14:09:07.868Z</time>
      </trkpt>
      <trkpt lat="48.14023" lon="-3.85076">
        <ele>190.80678123456</ele>
        <time>2021-08-19T14:09:18.587Z</time>
      </trkpt>
      <trkpt lat="48.14021" lon="-3.85144">
        <ele>189.39776256718</ele>
        <time>2021-08-19T14:09:29.313Z</time>
      </trkpt>
      <trkpt lat="48.14022" lon="-3.85185">
        <ele>188.02756967068</ele>
        <time>2021-08-19T14:09:40.042Z</time>
      </trkpt>
      <trkpt lat="48.14028" lon="-3.85267">
        <ele>186.47310131503</ele>
        <time>2021-08-19T14:09:50.779Z</time>
      </trkpt>
      <trkpt lat="48.14022" lon="-3.85382">
        <ele>185.09638874969</ele>
        <time>2021-08-19T14:10:01.526Z</time>
      </trkpt>
      <trkpt lat="48.14025" lon="-3.85406">
        <ele>183.79372461275</ele>
        <time>2021-08-19T14:10:12.275Z</time>
      </trkpt>
      <trkpt lat="48.14031" lon="-3.8543">
        <ele>182.50546073077</ele>
        <time>2021-08-19T14:10:23.027Z</time>
      </trkpt>
      <trkpt lat="48.14044" lon="-3.85465">
        <ele>181.19571537713</ele>
        <time>2021-08-19T14:10:33.782Z</time>
      </trkpt>
      <trkpt lat="48.14055" lon="-3.85489">
        <ele>179.98930069576</ele>
        <time>2021-08-19T14:10:44.540Z</time>
      </trkpt>
      <trkpt lat="48.14071" lon="-3.85509">
        <ele>178.87836610968</ele>
        <time>2021-08-19T14:10:55.301Z</time>
      </trkpt>
      <trkpt lat="48.14089" lon="-3.85525">
        <ele>177.77527274867</ele>
        <time>2021-08-19T14:11:06.065Z</time>
      </trkpt>
      <trkpt lat="48.14209" lon="-3.856">
        <ele>176.30772401447</ele>
        <time>2021-08-19T14:11:16.846Z</time>
      </trkpt>
      <trkpt lat="48.14232" lon="-3.85601">
        <ele>175.32887966355</ele>
        <time>2021-08-19T14:11:27.630Z</time>
      </trkpt>
      <trkpt lat="48.14252" lon="-3.85588">
        <ele>174.30881696883</ele>
        <time>2021-08-19T14:11:38.417Z</time>
      </trkpt>
      <trkpt lat="48.1426" lon="-3.85579">
        <ele>173.32353378476</ele>
        <time>2021-08-19T14:11:49.206Z</time>
      </trkpt>
      <trkpt lat="48.14295" lon="-3.85525">
        <ele>172.29564543454</ele>
        <time>2021-08-19T14:12:00.002Z</time>
      </trkpt>
      <trkpt lat="48.14331" lon="-3.85473">
        <ele>171.26995849446</ele>
        <time>2021-08-19T14:12:10.804Z</time>
      </trkpt>
      <trkpt lat="48.14339" lon="-3.85464">
        <ele>170.37967095111</ele>
        <time>2021-08-19T14:12:21.608Z</time>
      </trkpt>
      <trkpt lat="48.1439" lon="-3.85423">
        <ele>169.6222379561</ele>
        <time>2021-08-19T14:12:32.419Z</time>
      </trkpt>
      <trkpt lat="48.14404" lon="-3.85403">
        <ele>168.73860727268</ele>
        <time>2021-08-19T14:12:43.233Z</time>
      </trkpt>
      <trkpt lat="48.14416" lon="-3.85377">
        <ele>167.78623034457</ele>
        <time>2021-08-19T14:12:54.050Z</time>
      </trkpt>
      <trkpt lat="48.14487" lon="-3.85184">
        <ele>166.40799831231</ele>
        <time>2021-08-19T14:13:04.887Z</time>
      </trkpt>
      <trkpt lat="48.14499" lon="-3.85163">
        <ele>165.548575679</ele>
        <time>2021-08-19T14:13:15.726Z</time>
      </trkpt>
      <trkpt lat="48.14515" lon="-3.85149">
        <ele>164.63354141323</ele>
        <time>2021-08-19T14:13:26.568Z</time>
      </trkpt>
      <trkpt lat="48.14534" lon="-3.85142">
        <ele>163.50198086606</ele>
        <time>2021-08-19T14:13:37.413Z</time>
      </trkpt>
      <trkpt lat="48.14606" lon="-3.85142">
        <ele>162.3435598123</ele>
        <time>2021-08-19T14:13:48.267Z</time>
      </trkpt>
      <trkpt lat="48.14647" lon="-3.85133">
        <ele>161.00004615608</ele>
        <time>2021-08-19T14:13:59.127Z</time>
      </trkpt>
      <trkpt lat="48.14668" lon="-3.85132">
        <ele>159.86718727035</ele>
        <time>2021-08-19T14:14:09.990Z</time>
      </trkpt>
      <trkpt lat="48.14679" lon="-3.85134">
        <ele>158.71084337947</ele>
        <time>2021-08-19T14:14:20.854Z</time>
      </trkpt>
      <trkpt lat="48.14702" lon="-3.85145">
        <ele>157.46921743372</ele>
        <time>2021-08-19T14:14:31.721Z</time>
      </trkpt>
      <trkpt lat="48.14735" lon="-3.85169">
        <ele>156.0446450874</ele>
        <time>2021-08-19T14:14:42.593Z</time>
      </trkpt>
      <trkpt lat="48.14772" lon="-3.8521">
        <ele>154.59910274084</ele>
        <time>2021-08-19T14:14:53.472Z</time>
      </trkpt>
      <trkpt lat="48.14798" lon="-3.85247">
        <ele>153.20713671059</ele>
        <time>2021-08-19T14:15:04.355Z</time>
      </trkpt>
      <trkpt lat="48.14808" lon="-3.85257">
        <ele>151.44433801097</ele>
        <time>2021-08-19T14:15:15.240Z</time>
      </trkpt>
      <trkpt lat="48.14819" lon="-3.85264">
        <ele>149.54179768579</ele>
        <time>2021-08-19T14:15:26.127Z</time>
      </trkpt>
      <trkpt lat="48.14842" lon="-3.85271">
        <ele>147.34123540162</ele>
        <time>2021-08-19T14:15:37.017Z</time>
      </trkpt>
      <trkpt lat="48.14934" lon="-3.85287">
        <ele>144.89639661867</ele>
        <time>2021-08-19T14:15:47.919Z</time>
      </trkpt>
      <trkpt lat="48.14956" lon="-3.85298">
        <ele>142.6973738113</ele>
        <time>2021-08-19T14:15:58.825Z</time>
      </trkpt>
      <trkpt lat="48.14967" lon="-3.85307">
        <ele>140.50890736546</ele>
        <time>2021-08-19T14:16:09.732Z</time>
      </trkpt>
      <trkpt lat="48.14994" lon="-3.85343">
        <ele>138.28669256724</ele>
        <time>2021-08-19T14:16:20.644Z</time>
      </trkpt>
      <trkpt lat="48.1502" lon="-3.85382">
        <ele>135.98958333043</ele>
        <time>2021-08-19T14:16:31.561Z</time>
      </trkpt>
      <trkpt lat="48.15079" lon="-3.85455">
        <ele>133.47077432777</ele>
        <time>2021-08-19T14:16:42.489Z</time>
      </trkpt>
      <trkpt lat="48.15106" lon="-3.85501">
        <ele>130.86932798283</ele>
        <time>2021-08-19T14:16:53.422Z</time>
      </trkpt>
      <trkpt lat="48.15149" lon="-3.85589">
        <ele>128.11500420253</ele>
        <time>2021-08-19T14:17:04.365Z</time>
      </trkpt>
      <trkpt lat="48.1517" lon="-3.85623">
        <ele>125.69223187206</ele>
        <time>2021-08-19T14:17:15.312Z</time>
      </trkpt>
      <trkpt lat="48.15194" lon="-3.85653">
        <ele>123.34574877351</ele>
        <time>2021-08-19T14:17:26.263Z</time>
      </trkpt>
      <trkpt lat="48.15207" lon="-3.85665">
        <ele>121.12364738183</ele>
        <time>2021-08-19T14:17:37.216Z</time>
      </trkpt>
      <trkpt lat="48.15221" lon="-3.85674">
        <ele>118.9694332811</ele>
        <time>2021-08-19T14:17:48.171Z</time>
      </trkpt>
      <trkpt lat="48.15235" lon="-3.85681">
        <ele>116.87521398416</ele>
        <time>2021-08-19T14:17:59.128Z</time>
      </trkpt>
      <trkpt lat="48.15249" lon="-3.85686">
        <ele>114.84886847921</ele>
        <time>2021-08-19T14:18:10.087Z</time>
      </trkpt>
      <trkpt lat="48.15292" lon="-3.85696">
        <ele>112.79520675861</ele>
        <time>2021-08-19T14:18:21.052Z</time>
      </trkpt>
      <trkpt lat="48.15306" lon="-3.85701">
        <ele>110.95201338857</ele>
        <time>2021-08-19T14:18:32.019Z</time>
      </trkpt>
      <trkpt lat="48.1532" lon="-3.85709">
        <ele>109.18503489913</ele>
        <time>2021-08-19T14:18:42.988Z</time>
      </trkpt>
      <trkpt lat="48.1536" lon="-3.85737">
        <ele>107.22760544565</ele>
        <time>2021-08-19T14:18:53.963Z</time>
      </trkpt>
      <trkpt lat="48.15389" lon="-3.85751">
        <ele>105.4941230827</ele>
        <time>2021-08-19T14:19:04.942Z</time>
      </trkpt>
      <trkpt lat="48.15403" lon="-3.85756">
        <ele>103.93258776941</ele>
        <time>2021-08-19T14:19:15.923Z</time>
      </trkpt>
      <trkpt lat="48.15433" lon="-3.85761">
        <ele>102.34885368868</ele>
        <time>2021-08-19T14:19:26.908Z</time>
      </trkpt>
      <trkpt lat="48.15494" lon="-3.85762">
        <ele>100.59375107551</ele>
        <time>2021-08-19T14:19:37.902Z</time>
      </trkpt>
      <trkpt lat="48.15522" lon="-3.85766">
        <ele>99.152058026145</ele>
        <time>2021-08-19T14:19:48.900Z</time>
      </trkpt>
      <trkpt lat="48.15575" lon="-3.8579">
        <ele>97.844041899263</ele>
        <time>2021-08-19T14:19:59.905Z</time>
      </trkpt>
      <trkpt lat="48.15622" lon="-3.85817">
        <ele>96.500214658033</ele>
        <time>2021-08-19T14:20:10.917Z</time>
      </trkpt>
      <trkpt lat="48.15634" lon="-3.8582">
        <ele>95.185055807004</ele>
        <time>2021-08-19T14:20:21.930Z</time>
      </trkpt>
      <trkpt lat="48.15645" lon="-3.8582">
        <ele>93.851103159218</ele>
        <time>2021-08-19T14:20:32.945Z</time>
      </trkpt>
      <trkpt lat="48.15656" lon="-3.85816">
        <ele>92.470424787548</ele>
        <time>2021-08-19T14:20:43.961Z</time>
      </trkpt>
      <trkpt lat="48.1569" lon="-3.85799">
        <ele>90.919553781948</ele>
        <time>2021-08-19T14:20:54.982Z</time>
      </trkpt>
      <trkpt lat="48.15714" lon="-3.85791">
        <ele>89.35492128842</ele>
        <time>2021-08-19T14:21:06.007Z</time>
      </trkpt>
      <trkpt lat="48.15727" lon="-3.85789">
        <ele>87.77701555276</ele>
        <time>2021-08-19T14:21:17.033Z</time>
      </trkpt>
      <trkpt lat="48.15739" lon="-3.8579">
        <ele>86.117222037533</ele>
        <time>2021-08-19T14:21:28.061Z</time>
      </trkpt>
      <trkpt lat="48.15752" lon="-3.85793">
        <ele>84.356277633262</ele>
        <time>2021-08-19T14:21:39.091Z</time>
      </trkpt>
      <trkpt lat="48.15776" lon="-3.85806">
        <ele>82.301844069968</ele>
        <time>2021-08-19T14:21:50.124Z</time>
      </trkpt>
      <trkpt lat="48.15788" lon="-3.85815">
        <ele>80.212677931221</ele>
        <time>2021-08-19T14:22:01.159Z</time>
      </trkpt>
      <trkpt lat="48.15822" lon="-3.85845">
        <ele>77.875560646002</ele>
        <time>2021-08-19T14:22:12.199Z</time>
      </trkpt>
      <trkpt lat="48.15843" lon="-3.85871">
        <ele>75.612903651149</ele>
        <time>2021-08-19T14:22:23.243Z</time>
      </trkpt>
      <trkpt lat="48.15891" lon="-3.85946">
        <ele>73.327632161665</ele>
        <time>2021-08-19T14:22:34.296Z</time>
      </trkpt>
      <trkpt lat="48.15902" lon="-3.85958">
        <ele>70.875214023686</ele>
        <time>2021-08-19T14:22:45.351Z</time>
      </trkpt>
      <trkpt lat="48.15951" lon="-3.86">
        <ele>68.051563254555</ele>
        <time>2021-08-19T14:22:56.414Z</time>
      </trkpt>
      <trkpt lat="48.15978" lon="-3.8602">
        <ele>65.356608709823</ele>
        <time>2021-08-19T14:23:07.481Z</time>
      </trkpt>
      <trkpt lat="48.16006" lon="-3.86036">
        <ele>62.591686785147</ele>
        <time>2021-08-19T14:23:18.552Z</time>
      </trkpt>
      <trkpt lat="48.16033" lon="-3.8605">
        <ele>59.960654805442</ele>
        <time>2021-08-19T14:23:29.627Z</time>
      </trkpt>
      <trkpt lat="48.16096" lon="-3.86074">
        <ele>57.210866999944</ele>
        <time>2021-08-19T14:23:40.711Z</time>
      </trkpt>
      <trkpt lat="48.16121" lon="-3.86079">
        <ele>54.527267666225</ele>
        <time>2021-08-19T14:23:51.798Z</time>
      </trkpt>
      <trkpt lat="48.16214" lon="-3.86085">
        <ele>51.583586844855</ele>
        <time>2021-08-19T14:24:02.898Z</time>
      </trkpt>
      <trkpt lat="48.16256" lon="-3.86089">
        <ele>48.80642045448</ele>
        <time>2021-08-19T14:24:14.003Z</time>
      </trkpt>
      <trkpt lat="48.16269" lon="-3.86092">
        <ele>46.337613237439</ele>
        <time>2021-08-19T14:24:25.110Z</time>
      </trkpt>
      <trkpt lat="48.1631" lon="-3.86111">
        <ele>43.837029706498</ele>
        <time>2021-08-19T14:24:36.223Z</time>
      </trkpt>
      <trkpt lat="48.16435" lon="-3.8618">
        <ele>41.095049302348</ele>
        <time>2021-08-19T14:24:47.354Z</time>
      </trkpt>
      <trkpt lat="48.16443" lon="-3.8618">
        <ele>39.177108924297</ele>
        <time>2021-08-19T14:24:58.486Z</time>
      </trkpt>
      <trkpt lat="48.16451" lon="-3.86178">
        <ele>37.45897969992</ele>
        <time>2021-08-19T14:25:09.619Z</time>
      </trkpt>
      <trkpt lat="48.165" lon="-3.86153">
        <ele>35.902194155233</ele>
        <time>2021-08-19T14:25:20.759Z</time>
      </trkpt>
      <trkpt lat="48.1655" lon="-3.86134">
        <ele>34.583224950254</ele>
        <time>2021-08-19T14:25:31.906Z</time>
      </trkpt>
      <trkpt lat="48.16599" lon="-3.86111">
        <ele>33.480833351795</ele>
        <time>2021-08-19T14:25:43.060Z</time>
      </trkpt>
      <trkpt lat="48.16649" lon="-3.86091">
        <ele>32.671062456451</ele>
        <time>2021-08-19T14:25:54.221Z</time>
      </trkpt>
      <trkpt lat="48.16655" lon="-3.86087">
        <ele>32.084451451314</ele>
        <time>2021-08-19T14:26:05.383Z</time>
      </trkpt>
      <trkpt lat="48.16675" lon="-3.86069">
        <ele>31.725012466679</ele>
        <time>2021-08-19T14:26:16.548Z</time>
      </trkpt>
      <trkpt lat="48.16682" lon="-3.86065">
        <ele>31.571668776586</ele>
        <time>2021-08-19T14:26:27.714Z</time>
      </trkpt>
      <trkpt lat="48.16685" lon="-3.86065">
        <ele>31.601564942895</ele>
        <time>2021-08-19T14:26:38.881Z</time>
      </trkpt>
      <trkpt lat="48.16688" lon="-3.86068">
        <ele>31.808067486318</ele>
        <time>2021-08-19T14:26:50.048Z</time>
      </trkpt>
      <trkpt lat="48.16689" lon="-3.86088">
        <ele>32.149428130047</ele>
        <time>2021-08-19T14:27:01.217Z</time>
      </trkpt>
      <trkpt lat="48.16683" lon="-3.86149">
        <ele>32.588043671118</ele>
        <time>2021-08-19T14:27:12.391Z</time>
      </trkpt>
      <trkpt lat="48.16659" lon="-3.86326">
        <ele>33.25811630297</ele>
        <time>2021-08-19T14:27:23.582Z</time>
      </trkpt>
      <trkpt lat="48.16651" lon="-3.86365">
        <ele>33.978575560072</ele>
        <time>2021-08-19T14:27:34.776Z</time>
      </trkpt>
      <trkpt lat="48.1664" lon="-3.86402">
        <ele>34.794147196908</ele>
        <time>2021-08-19T14:27:45.974Z</time>
      </trkpt>
      <trkpt lat="48.16609" lon="-3.86471">
        <ele>35.665359380472</ele>
        <time>2021-08-19T14:27:57.180Z</time>
      </trkpt>
      <trkpt lat="48.1651" lon="-3.86643">
        <ele>37.170401480505</ele>
        <time>2021-08-19T14:28:08.406Z</time>
      </trkpt>
      <trkpt lat="48.16498" lon="-3.86665">
        <ele>38.131534194453</ele>
        <time>2021-08-19T14:28:19.635Z</time>
      </trkpt>
      <trkpt lat="48.16487" lon="-3.86687">
        <ele>39.066281890444</ele>
        <time>2021-08-19T14:28:30.866Z</time>
      </trkpt>
      <trkpt lat="48.16486" lon="-3.86694">
        <ele>39.883900874667</ele>
        <time>2021-08-19T14:28:42.098Z</time>
      </trkpt>
      <trkpt lat="48.16486" lon="-3.86703">
        <ele>40.612387049131</ele>
        <time>2021-08-19T14:28:53.331Z</time>
      </trkpt>
      <trkpt lat="48.16494" lon="-3.86718">
        <ele>41.215520322524</ele>
        <time>2021-08-19T14:29:04.565Z</time>
      </trkpt>
      <trkpt lat="48.16506" lon="-3.8673">
        <ele>41.766564877162</ele>
        <time>2021-08-19T14:29:15.801Z</time>
      </trkpt>
      <trkpt lat="48.16535" lon="-3.86751">
        <ele>42.204587658361</ele>
        <time>2021-08-19T14:29:27.042Z</time>
      </trkpt>
      <trkpt lat="48.16601" lon="-3.86792">
        <ele>42.84401149386</ele>
        <time>2021-08-19T14:29:38.292Z</time>
      </trkpt>
      <trkpt lat="48.16622" lon="-3.86808">
        <ele>43.366684637381</ele>
        <time>2021-08-19T14:29:49.546Z</time>
      </trkpt>
      <trkpt lat="48.16651" lon="-3.86846">
        <ele>43.807019120578</ele>
        <time>2021-08-19T14:30:00.805Z</time>
      </trkpt>
      <trkpt lat="48.16668" lon="-3.86883">
        <ele>44.154802212029</ele>
        <time>2021-08-19T14:30:12.068Z</time>
      </trkpt>
      <trkpt lat="48.167" lon="-3.86982">
        <ele>44.408327818329</ele>
        <time>2021-08-19T14:30:23.341Z</time>
      </trkpt>
      <trkpt lat="48.16722" lon="-3.87041">
        <ele>44.289519173328</ele>
        <time>2021-08-19T14:30:34.620Z</time>
      </trkpt>
      <trkpt lat="48.16788" lon="-3.87192">
        <ele>44.240466813638</ele>
        <time>2021-08-19T14:30:45.915Z</time>
      </trkpt>
      <trkpt lat="48.16817" lon="-3.87267">
        <ele>44.051534601324</ele>
        <time>2021-08-19T14:30:57.218Z</time>
      </trkpt>
      <trkpt lat="48.16901" lon="-3.87516">
        <ele>43.778421125444</ele>
        <time>2021-08-19T14:31:08.546Z</time>
      </trkpt>
      <trkpt lat="48.16923" lon="-3.87568">
        <ele>43.458355533259</ele>
        <time>2021-08-19T14:31:19.880Z</time>
      </trkpt>
      <trkpt lat="48.16962" lon="-3.87647">
        <ele>42.997474643257</ele>
        <time>2021-08-19T14:31:31.223Z</time>
      </trkpt>
      <trkpt lat="48.16987" lon="-3.87714">
        <ele>42.312159046842</ele>
        <time>2021-08-19T14:31:42.573Z</time>
      </trkpt>
      <trkpt lat="48.16993" lon="-3.87774">
        <ele>42.052271642527</ele>
        <time>2021-08-19T14:31:53.928Z</time>
      </trkpt>
      <trkpt lat="48.17002" lon="-3.87787">
        <ele>41.716758195014</ele>
        <time>2021-08-19T14:32:05.285Z</time>
      </trkpt>
      <trkpt lat="48.17014" lon="-3.87797">
        <ele>41.449489958891</ele>
        <time>2021-08-19T14:32:16.644Z</time>
      </trkpt>
      <trkpt lat="48.17019" lon="-3.87805">
        <ele>41.294771564388</ele>
        <time>2021-08-19T14:32:28.004Z</time>
      </trkpt>
      <trkpt lat="48.17027" lon="-3.87824">
        <ele>41.232630667209</ele>
        <time>2021-08-19T14:32:39.366Z</time>
      </trkpt>
      <trkpt lat="48.1704" lon="-3.87864">
        <ele>41.263331595929</ele>
        <time>2021-08-19T14:32:50.732Z</time>
      </trkpt>
      <trkpt lat="48.17081" lon="-3.88008">
        <ele>41.463426836267</ele>
        <time>2021-08-19T14:33:02.112Z</time>
      </trkpt>
      <trkpt lat="48.17091" lon="-3.88049">
        <ele>41.7383023714</ele>
        <time>2021-08-19T14:33:13.496Z</time>
      </trkpt>
      <trkpt lat="48.17097" lon="-3.881">
        <ele>42.246659993495</ele>
        <time>2021-08-19T14:33:24.885Z</time>
      </trkpt>
      <trkpt lat="48.17103" lon="-3.8817">
        <ele>43.014347735199</ele>
        <time>2021-08-19T14:33:36.280Z</time>
      </trkpt>
      <trkpt lat="48.1712" lon="-3.88325">
        <ele>44.305451548972</ele>
        <time>2021-08-19T14:33:47.689Z</time>
      </trkpt>
      <trkpt lat="48.17144" lon="-3.88477">
        <ele>45.072953782247</ele>
        <time>2021-08-19T14:33:59.112Z</time>
      </trkpt>
      <trkpt lat="48.17144" lon="-3.88477">
        <ele>46.024026968158</ele>
        <time>2021-08-19T14:34:10.535Z</time>
      </trkpt>
      <trkpt lat="48.17159" lon="-3.88553">
        <ele>48.300506032209</ele>
        <time>2021-08-19T14:34:21.965Z</time>
      </trkpt>
      <trkpt lat="48.17171" lon="-3.88596">
        <ele>49.638188402286</ele>
        <time>2021-08-19T14:34:33.400Z</time>
      </trkpt>
      <trkpt lat="48.17209" lon="-3.88716">
        <ele>51.106823518408</ele>
        <time>2021-08-19T14:34:44.847Z</time>
      </trkpt>
      <trkpt lat="48.17229" lon="-3.88789">
        <ele>52.234003159981</ele>
        <time>2021-08-19T14:34:56.301Z</time>
      </trkpt>
      <trkpt lat="48.17242" lon="-3.88826">
        <ele>53.517092920766</ele>
        <time>2021-08-19T14:35:07.759Z</time>
      </trkpt>
      <trkpt lat="48.17267" lon="-3.88893">
        <ele>54.881141205733</ele>
        <time>2021-08-19T14:35:19.224Z</time>
      </trkpt>
      <trkpt lat="48.17285" lon="-3.88952">
        <ele>56.187123055457</ele>
        <time>2021-08-19T14:35:30.694Z</time>
      </trkpt>
      <trkpt lat="48.17313" lon="-3.89053">
        <ele>57.280294272946</ele>
        <time>2021-08-19T14:35:42.174Z</time>
      </trkpt>
      <trkpt lat="48.17361" lon="-3.8918">
        <ele>58.514645725561</ele>
        <time>2021-08-19T14:35:53.667Z</time>
      </trkpt>
      <trkpt lat="48.17367" lon="-3.89197">
        <ele>59.516682632612</ele>
        <time>2021-08-19T14:36:05.162Z</time>
      </trkpt>
      <trkpt lat="48.17375" lon="-3.89234">
        <ele>60.395791095631</ele>
        <time>2021-08-19T14:36:16.661Z</time>
      </trkpt>
      <trkpt lat="48.1738" lon="-3.89283">
        <ele>61.340032556112</ele>
        <time>2021-08-19T14:36:28.164Z</time>
      </trkpt>
      <trkpt lat="48.17379" lon="-3.89311">
        <ele>62.143090090207</ele>
        <time>2021-08-19T14:36:39.670Z</time>
      </trkpt>
      <trkpt lat="48.17369" lon="-3.89389">
        <ele>63.200565450771</ele>
        <time>2021-08-19T14:36:51.183Z</time>
      </trkpt>
      <trkpt lat="48.17348" lon="-3.8948">
        <ele>64.449506045581</ele>
        <time>2021-08-19T14:37:02.705Z</time>
      </trkpt>
      <trkpt lat="48.17339" lon="-3.89525">
        <ele>65.152835571305</ele>
        <time>2021-08-19T14:37:14.231Z</time>
      </trkpt>
      <trkpt lat="48.17333" lon="-3.89649">
        <ele>65.754416045756</ele>
        <time>2021-08-19T14:37:25.768Z</time>
      </trkpt>
      <trkpt lat="48.17333" lon="-3.89684">
        <ele>65.962639894059</ele>
        <time>2021-08-19T14:37:37.308Z</time>
      </trkpt>
      <trkpt lat="48.17335" lon="-3.89697">
        <ele>65.956626594091</ele>
        <time>2021-08-19T14:37:48.849Z</time>
      </trkpt>
      <trkpt lat="48.17343" lon="-3.89717">
        <ele>65.736102692326</ele>
        <time>2021-08-19T14:38:00.393Z</time>
      </trkpt>
      <trkpt lat="48.17377" lon="-3.89768">
        <ele>65.336333721025</ele>
        <time>2021-08-19T14:38:11.943Z</time>
      </trkpt>
      <trkpt lat="48.17458" lon="-3.89917">
        <ele>64.522256657536</ele>
        <time>2021-08-19T14:38:23.511Z</time>
      </trkpt>
      <trkpt lat="48.17513" lon="-3.90033">
        <ele>63.474158100095</ele>
        <time>2021-08-19T14:38:35.091Z</time>
      </trkpt>
      <trkpt lat="48.17524" lon="-3.90064">
        <ele>62.772545598362</ele>
        <time>2021-08-19T14:38:46.675Z</time>
      </trkpt>
      <trkpt lat="48.17528" lon="-3.90082">
        <ele>62.073273774844</ele>
        <time>2021-08-19T14:38:58.260Z</time>
      </trkpt>
      <trkpt lat="48.17533" lon="-3.9012">
        <ele>61.234251986192</ele>
        <time>2021-08-19T14:39:09.849Z</time>
      </trkpt>
      <trkpt lat="48.17532" lon="-3.9014">
        <ele>60.551279402708</ele>
        <time>2021-08-19T14:39:21.440Z</time>
      </trkpt>
      <trkpt lat="48.17527" lon="-3.9018">
        <ele>59.843823331754</ele>
        <time>2021-08-19T14:39:33.034Z</time>
      </trkpt>
      <trkpt lat="48.17517" lon="-3.90216">
        <ele>59.156123443299</ele>
        <time>2021-08-19T14:39:44.632Z</time>
      </trkpt>
      <trkpt lat="48.17499" lon="-3.90262">
        <ele>58.546799958544</ele>
        <time>2021-08-19T14:39:56.235Z</time>
      </trkpt>
      <trkpt lat="48.17472" lon="-3.9031">
        <ele>58.224871372171</ele>
        <time>2021-08-19T14:40:07.843Z</time>
      </trkpt>
      <trkpt lat="48.17408" lon="-3.90398">
        <ele>58.343791802669</ele>
        <time>2021-08-19T14:40:19.463Z</time>
      </trkpt>
      <trkpt lat="48.17385" lon="-3.90436">
        <ele>58.272844923031</ele>
        <time>2021-08-19T14:40:31.088Z</time>
      </trkpt>
      <trkpt lat="48.17378" lon="-3.90453">
        <ele>58.022913128219</ele>
        <time>2021-08-19T14:40:42.714Z</time>
      </trkpt>
      <trkpt lat="48.17368" lon="-3.90483">
        <ele>57.79640211157</ele>
        <time>2021-08-19T14:40:54.344Z</time>
      </trkpt>
      <trkpt lat="48.17356" lon="-3.9055">
        <ele>57.472438539254</ele>
        <time>2021-08-19T14:41:05.980Z</time>
      </trkpt>
      <trkpt lat="48.17347" lon="-3.90637">
        <ele>56.945996670046</ele>
        <time>2021-08-19T14:41:17.624Z</time>
      </trkpt>
      <trkpt lat="48.17336" lon="-3.90704">
        <ele>56.328188477366</ele>
        <time>2021-08-19T14:41:29.274Z</time>
      </trkpt>
      <trkpt lat="48.17324" lon="-3.90754">
        <ele>55.631573287819</ele>
        <time>2021-08-19T14:41:40.929Z</time>
      </trkpt>
      <trkpt lat="48.17305" lon="-3.90806">
        <ele>55.054727791782</ele>
        <time>2021-08-19T14:41:52.589Z</time>
      </trkpt>
      <trkpt lat="48.17285" lon="-3.90857">
        <ele>54.568069760195</ele>
        <time>2021-08-19T14:42:04.254Z</time>
      </trkpt>
      <trkpt lat="48.17265" lon="-3.90901">
        <ele>54.032337683502</ele>
        <time>2021-08-19T14:42:15.924Z</time>
      </trkpt>
      <trkpt lat="48.1721" lon="-3.91032">
        <ele>53.173852151047</ele>
        <time>2021-08-19T14:42:27.608Z</time>
      </trkpt>
      <trkpt lat="48.17193" lon="-3.91082">
        <ele>52.374269378456</ele>
        <time>2021-08-19T14:42:39.297Z</time>
      </trkpt>
      <trkpt lat="48.17152" lon="-3.91225">
        <ele>51.9092920358</ele>
        <time>2021-08-19T14:42:51.000Z</time>
      </trkpt>
      <trkpt lat="48.17136" lon="-3.91275">
        <ele>51.81015748956</ele>
        <time>2021-08-19T14:43:02.708Z</time>
      </trkpt>
      <trkpt lat="48.17117" lon="-3.91315">
        <ele>51.747221126869</ele>
        <time>2021-08-19T14:43:14.421Z</time>
      </trkpt>
      <trkpt lat="48.17076" lon="-3.91382">
        <ele>52.096842014172</ele>
        <time>2021-08-19T14:43:26.142Z</time>
      </trkpt>
      <trkpt lat="48.17048" lon="-3.91439">
        <ele>52.241784479018</ele>
        <time>2021-08-19T14:43:37.869Z</time>
      </trkpt>
      <trkpt lat="48.17034" lon="-3.9148">
        <ele>52.109201540308</ele>
        <time>2021-08-19T14:43:49.601Z</time>
      </trkpt>
      <trkpt lat="48.17027" lon="-3.91512">
        <ele>51.936080395106</ele>
        <time>2021-08-19T14:44:01.336Z</time>
      </trkpt>
      <trkpt lat="48.17019" lon="-3.91563">
        <ele>51.719445548488</ele>
        <time>2021-08-19T14:44:13.075Z</time>
      </trkpt>
      <trkpt lat="48.17" lon="-3.91718">
        <ele>51.494403109346</ele>
        <time>2021-08-19T14:44:24.829Z</time>
      </trkpt>
      <trkpt lat="48.16998" lon="-3.91749">
        <ele>51.571266231174</ele>
        <time>2021-08-19T14:44:36.586Z</time>
      </trkpt>
      <trkpt lat="48.16995" lon="-3.91849">
        <ele>51.48085884909</ele>
        <time>2021-08-19T14:44:48.352Z</time>
      </trkpt>
      <trkpt lat="48.17002" lon="-3.91959">
        <ele>51.21959472318</ele>
        <time>2021-08-19T14:45:00.128Z</time>
      </trkpt>
      <trkpt lat="48.17022" lon="-3.92152">
        <ele>51.028816212947</ele>
        <time>2021-08-19T14:45:11.921Z</time>
      </trkpt>
      <trkpt lat="48.17046" lon="-3.92365">
        <ele>52.758028204035</ele>
        <time>2021-08-19T14:45:23.734Z</time>
      </trkpt>
      <trkpt lat="48.1706" lon="-3.92667">
        <ele>54.114476799397</ele>
        <time>2021-08-19T14:45:35.574Z</time>
      </trkpt>
      <trkpt lat="48.17057" lon="-3.9272">
        <ele>55.047014944326</ele>
        <time>2021-08-19T14:45:47.419Z</time>
      </trkpt>
      <trkpt lat="48.17055" lon="-3.92739">
        <ele>56.06585073544</ele>
        <time>2021-08-19T14:45:59.266Z</time>
      </trkpt>
      <trkpt lat="48.17045" lon="-3.92779">
        <ele>57.222277899471</ele>
        <time>2021-08-19T14:46:11.117Z</time>
      </trkpt>
      <trkpt lat="48.17028" lon="-3.92822">
        <ele>58.488832158801</ele>
        <time>2021-08-19T14:46:22.972Z</time>
      </trkpt>
      <trkpt lat="48.1699" lon="-3.92896">
        <ele>59.871149695179</ele>
        <time>2021-08-19T14:46:34.835Z</time>
      </trkpt>
      <trkpt lat="48.16971" lon="-3.92948">
        <ele>61.361567942372</ele>
        <time>2021-08-19T14:46:46.704Z</time>
      </trkpt>
      <trkpt lat="48.16964" lon="-3.92982">
        <ele>63.113028398466</ele>
        <time>2021-08-19T14:46:58.576Z</time>
      </trkpt>
      <trkpt lat="48.1696" lon="-3.9301">
        <ele>65.070359617482</ele>
        <time>2021-08-19T14:47:10.451Z</time>
      </trkpt>
      <trkpt lat="48.16959" lon="-3.9305">
        <ele>67.135828939249</ele>
        <time>2021-08-19T14:47:22.329Z</time>
      </trkpt>
      <trkpt lat="48.16965" lon="-3.93096">
        <ele>69.367269750274</ele>
        <time>2021-08-19T14:47:34.212Z</time>
      </trkpt>
      <trkpt lat="48.16974" lon="-3.93139">
        <ele>71.773812705274</ele>
        <time>2021-08-19T14:47:46.099Z</time>
      </trkpt>
      <trkpt lat="48.16987" lon="-3.93181">
        <ele>74.258377010635</ele>
        <time>2021-08-19T14:47:57.990Z</time>
      </trkpt>
      <trkpt lat="48.1702" lon="-3.93267">
        <ele>77.117267418783</ele>
        <time>2021-08-19T14:48:09.890Z</time>
      </trkpt>
      <trkpt lat="48.17051" lon="-3.93368">
        <ele>79.882767682602</ele>
        <time>2021-08-19T14:48:21.800Z</time>
      </trkpt>
      <trkpt lat="48.17059" lon="-3.93406">
        <ele>82.363239251302</ele>
        <time>2021-08-19T14:48:33.713Z</time>
      </trkpt>
      <trkpt lat="48.17066" lon="-3.93455">
        <ele>84.816611082488</ele>
        <time>2021-08-19T14:48:45.631Z</time>
      </trkpt>
      <trkpt lat="48.1707" lon="-3.93489">
        <ele>87.070169821954</ele>
        <time>2021-08-19T14:48:57.552Z</time>
      </trkpt>
      <trkpt lat="48.17068" lon="-3.93502">
        <ele>89.241511967392</ele>
        <time>2021-08-19T14:49:09.474Z</time>
      </trkpt>
      <trkpt lat="48.17061" lon="-3.93512">
        <ele>91.345885677104</ele>
        <time>2021-08-19T14:49:21.398Z</time>
      </trkpt>
      <trkpt lat="48.17051" lon="-3.93518">
        <ele>93.382588992566</ele>
        <time>2021-08-19T14:49:33.323Z</time>
      </trkpt>
      <trkpt lat="48.1681" lon="-3.93612">
        <ele>95.326734578742</ele>
        <time>2021-08-19T14:49:45.282Z</time>
      </trkpt>
      <trkpt lat="48.16749" lon="-3.93632">
        <ele>97.255604159566</ele>
        <time>2021-08-19T14:49:57.249Z</time>
      </trkpt>
      <trkpt lat="48.1673" lon="-3.93637">
        <ele>99.097712744845</ele>
        <time>2021-08-19T14:50:09.219Z</time>
      </trkpt>
      <trkpt lat="48.16691" lon="-3.93644">
        <ele>100.86878557526</ele>
        <time>2021-08-19T14:50:21.194Z</time>
      </trkpt>
      <trkpt lat="48.16601" lon="-3.93656">
        <ele>102.86383549739</ele>
        <time>2021-08-19T14:50:33.181Z</time>
      </trkpt>
      <trkpt lat="48.16585" lon="-3.93656">
        <ele>104.46597129878</ele>
        <time>2021-08-19T14:50:45.170Z</time>
      </trkpt>
      <trkpt lat="48.1656" lon="-3.93652">
        <ele>105.98954343988</ele>
        <time>2021-08-19T14:50:57.163Z</time>
      </trkpt>
      <trkpt lat="48.16523" lon="-3.93644">
        <ele>107.4304354671</ele>
        <time>2021-08-19T14:51:09.161Z</time>
      </trkpt>
      <trkpt lat="48.16502" lon="-3.93646">
        <ele>108.58281464668</ele>
        <time>2021-08-19T14:51:21.162Z</time>
      </trkpt>
      <trkpt lat="48.16493" lon="-3.93652">
        <ele>109.48000491469</ele>
        <time>2021-08-19T14:51:33.164Z</time>
      </trkpt>
      <trkpt lat="48.16479" lon="-3.93663">
        <ele>110.18595918386</ele>
        <time>2021-08-19T14:51:45.168Z</time>
      </trkpt>
      <trkpt lat="48.16458" lon="-3.93689">
        <ele>110.69850932746</ele>
        <time>2021-08-19T14:51:57.176Z</time>
      </trkpt>
      <trkpt lat="48.16435" lon="-3.93742">
        <ele>110.89799865132</ele>
        <time>2021-08-19T14:52:09.190Z</time>
      </trkpt>
      <trkpt lat="48.16371" lon="-3.93914">
        <ele>111.06216334638</ele>
        <time>2021-08-19T14:52:21.222Z</time>
      </trkpt>
      <trkpt lat="48.16353" lon="-3.9395">
        <ele>110.85498292787</ele>
        <time>2021-08-19T14:52:33.258Z</time>
      </trkpt>
      <trkpt lat="48.16348" lon="-3.93957">
        <ele>110.33190446115</ele>
        <time>2021-08-19T14:52:45.294Z</time>
      </trkpt>
      <trkpt lat="48.16346" lon="-3.93965">
        <ele>109.5260092608</ele>
        <time>2021-08-19T14:52:57.331Z</time>
      </trkpt>
      <trkpt lat="48.16357" lon="-3.94035">
        <ele>108.36232193443</ele>
        <time>2021-08-19T14:53:09.375Z</time>
      </trkpt>
      <trkpt lat="48.16373" lon="-3.94109">
        <ele>106.88292533949</ele>
        <time>2021-08-19T14:53:21.426Z</time>
      </trkpt>
      <trkpt lat="48.16381" lon="-3.94133">
        <ele>105.30300391711</ele>
        <time>2021-08-19T14:53:33.479Z</time>
      </trkpt>
      <trkpt lat="48.16402" lon="-3.94174">
        <ele>103.41234837466</ele>
        <time>2021-08-19T14:53:45.537Z</time>
      </trkpt>
      <trkpt lat="48.16408" lon="-3.94183">
        <ele>101.5227213096</ele>
        <time>2021-08-19T14:53:57.596Z</time>
      </trkpt>
      <trkpt lat="48.16496" lon="-3.94307">
        <ele>99.279184730151</ele>
        <time>2021-08-19T14:54:09.671Z</time>
      </trkpt>
      <trkpt lat="48.16588" lon="-3.94431">
        <ele>97.050405285825</ele>
        <time>2021-08-19T14:54:21.763Z</time>
      </trkpt>
      <trkpt lat="48.16669" lon="-3.94553">
        <ele>94.777948128749</ele>
        <time>2021-08-19T14:54:33.871Z</time>
      </trkpt>
      <trkpt lat="48.16692" lon="-3.94587">
        <ele>92.704054358983</ele>
        <time>2021-08-19T14:54:45.983Z</time>
      </trkpt>
      <trkpt lat="48.16708" lon="-3.94608">
        <ele>90.709565911468</ele>
        <time>2021-08-19T14:54:58.098Z</time>
      </trkpt>
      <trkpt lat="48.16736" lon="-3.94635">
        <ele>88.715422205623</ele>
        <time>2021-08-19T14:55:10.217Z</time>
      </trkpt>
      <trkpt lat="48.16766" lon="-3.94657">
        <ele>86.881109579696</ele>
        <time>2021-08-19T14:55:22.341Z</time>
      </trkpt>
      <trkpt lat="48.16787" lon="-3.94668">
        <ele>85.224670819154</ele>
        <time>2021-08-19T14:55:34.468Z</time>
      </trkpt>
      <trkpt lat="48.16855" lon="-3.94698">
        <ele>83.572523065572</ele>
        <time>2021-08-19T14:55:46.605Z</time>
      </trkpt>
      <trkpt lat="48.16887" lon="-3.9472">
        <ele>82.291024412403</ele>
        <time>2021-08-19T14:55:58.746Z</time>
      </trkpt>
      <trkpt lat="48.16905" lon="-3.94741">
        <ele>81.295176324702</ele>
        <time>2021-08-19T14:56:10.890Z</time>
      </trkpt>
      <trkpt lat="48.16921" lon="-3.94768">
        <ele>80.561802239654</ele>
        <time>2021-08-19T14:56:23.038Z</time>
      </trkpt>
      <trkpt lat="48.16939" lon="-3.94813">
        <ele>80.181047656249</ele>
        <time>2021-08-19T14:56:35.190Z</time>
      </trkpt>
      <trkpt lat="48.16947" lon="-3.94845">
        <ele>80.117504830732</ele>
        <time>2021-08-19T14:56:47.346Z</time>
      </trkpt>
      <trkpt lat="48.16952" lon="-3.94877">
        <ele>80.367718804454</ele>
        <time>2021-08-19T14:56:59.504Z</time>
      </trkpt>
      <trkpt lat="48.16968" lon="-3.95048">
        <ele>81.207053305101</ele>
        <time>2021-08-19T14:57:11.678Z</time>
      </trkpt>
      <trkpt lat="48.16971" lon="-3.95117">
        <ele>82.09680757713</ele>
        <time>2021-08-19T14:57:23.858Z</time>
      </trkpt>
      <trkpt lat="48.1697" lon="-3.95174">
        <ele>83.133215522529</ele>
        <time>2021-08-19T14:57:36.043Z</time>
      </trkpt>
      <trkpt lat="48.16965" lon="-3.95225">
        <ele>84.327874436732</ele>
        <time>2021-08-19T14:57:48.233Z</time>
      </trkpt>
      <trkpt lat="48.16952" lon="-3.95292">
        <ele>85.626494258599</ele>
        <time>2021-08-19T14:58:00.429Z</time>
      </trkpt>
      <trkpt lat="48.1694" lon="-3.95336">
        <ele>87.12688095098</ele>
        <time>2021-08-19T14:58:12.630Z</time>
      </trkpt>
      <trkpt lat="48.16915" lon="-3.95419">
        <ele>88.86126687734</ele>
        <time>2021-08-19T14:58:24.839Z</time>
      </trkpt>
      <trkpt lat="48.16907" lon="-3.95455">
        <ele>90.618296504826</ele>
        <time>2021-08-19T14:58:37.051Z</time>
      </trkpt>
      <trkpt lat="48.16903" lon="-3.95503">
        <ele>92.451597798745</ele>
        <time>2021-08-19T14:58:49.268Z</time>
      </trkpt>
      <trkpt lat="48.16903" lon="-3.95572">
        <ele>94.321968707459</ele>
        <time>2021-08-19T14:59:01.491Z</time>
      </trkpt>
      <trkpt lat="48.16912" lon="-3.95648">
        <ele>96.148611510837</ele>
        <time>2021-08-19T14:59:13.721Z</time>
      </trkpt>
      <trkpt lat="48.16947" lon="-3.95819">
        <ele>98.148242659555</ele>
        <time>2021-08-19T14:59:25.967Z</time>
      </trkpt>
      <trkpt lat="48.16954" lon="-3.95847">
        <ele>99.783207921899</ele>
        <time>2021-08-19T14:59:38.216Z</time>
      </trkpt>
      <trkpt lat="48.16969" lon="-3.95894">
        <ele>101.35825565924</ele>
        <time>2021-08-19T14:59:50.470Z</time>
      </trkpt>
      <trkpt lat="48.17006" lon="-3.95983">
        <ele>102.87891613275</ele>
        <time>2021-08-19T15:00:02.733Z</time>
      </trkpt>
      <trkpt lat="48.17014" lon="-3.96016">
        <ele>104.05197420285</ele>
        <time>2021-08-19T15:00:14.999Z</time>
      </trkpt>
      <trkpt lat="48.17025" lon="-3.96133">
        <ele>104.9836507498</ele>
        <time>2021-08-19T15:00:27.276Z</time>
      </trkpt>
      <trkpt lat="48.17047" lon="-3.96353">
        <ele>105.29629777971</ele>
        <time>2021-08-19T15:00:39.573Z</time>
      </trkpt>
      <trkpt lat="48.1705" lon="-3.96409">
        <ele>105.5040798876</ele>
        <time>2021-08-19T15:00:51.875Z</time>
      </trkpt>
      <trkpt lat="48.17049" lon="-3.96471">
        <ele>105.30454818329</ele>
        <time>2021-08-19T15:01:04.183Z</time>
      </trkpt>
      <trkpt lat="48.17029" lon="-3.96934">
        <ele>104.491252755</ele>
        <time>2021-08-19T15:01:16.533Z</time>
      </trkpt>
      <trkpt lat="48.17015" lon="-3.97087">
        <ele>104.20975997836</ele>
        <time>2021-08-19T15:01:28.897Z</time>
      </trkpt>
      <trkpt lat="48.17017" lon="-3.97122">
        <ele>103.60359054409</ele>
        <time>2021-08-19T15:01:41.264Z</time>
      </trkpt>
      <trkpt lat="48.17015" lon="-3.9714">
        <ele>102.85782408927</ele>
        <time>2021-08-19T15:01:53.633Z</time>
      </trkpt>
      <trkpt lat="48.17003" lon="-3.97188">
        <ele>101.98807592524</ele>
        <time>2021-08-19T15:02:06.006Z</time>
      </trkpt>
      <trkpt lat="48.16986" lon="-3.97284">
        <ele>100.92578250562</ele>
        <time>2021-08-19T15:02:18.388Z</time>
      </trkpt>
      <trkpt lat="48.16971" lon="-3.97334">
        <ele>99.841438013711</ele>
        <time>2021-08-19T15:02:30.775Z</time>
      </trkpt>
      <trkpt lat="48.16901" lon="-3.97488">
        <ele>98.733557795949</ele>
        <time>2021-08-19T15:02:43.179Z</time>
      </trkpt>
      <trkpt lat="48.16883" lon="-3.97544">
        <ele>97.201929389028</ele>
        <time>2021-08-19T15:02:55.589Z</time>
      </trkpt>
      <trkpt lat="48.16879" lon="-3.97562">
        <ele>95.591981370229</ele>
        <time>2021-08-19T15:03:08.000Z</time>
      </trkpt>
      <trkpt lat="48.16877" lon="-3.97581">
        <ele>93.873835418923</ele>
        <time>2021-08-19T15:03:20.413Z</time>
      </trkpt>
      <trkpt lat="48.16881" lon="-3.97613">
        <ele>92.063821206911</ele>
        <time>2021-08-19T15:03:32.829Z</time>
      </trkpt>
      <trkpt lat="48.16915" lon="-3.97728">
        <ele>89.816868502463</ele>
        <time>2021-08-19T15:03:45.256Z</time>
      </trkpt>
      <trkpt lat="48.16945" lon="-3.97814">
        <ele>87.576908984275</ele>
        <time>2021-08-19T15:03:57.692Z</time>
      </trkpt>
      <trkpt lat="48.16975" lon="-3.97885">
        <ele>85.578407346279</ele>
        <time>2021-08-19T15:04:10.136Z</time>
      </trkpt>
      <trkpt lat="48.16984" lon="-3.97915">
        <ele>83.70779080392</ele>
        <time>2021-08-19T15:04:22.583Z</time>
      </trkpt>
      <trkpt lat="48.17004" lon="-3.98012">
        <ele>81.719025901495</ele>
        <time>2021-08-19T15:04:35.039Z</time>
      </trkpt>
      <trkpt lat="48.17011" lon="-3.9806">
        <ele>80.06250727427</ele>
        <time>2021-08-19T15:04:47.499Z</time>
      </trkpt>
      <trkpt lat="48.17024" lon="-3.98216">
        <ele>78.495162088137</ele>
        <time>2021-08-19T15:04:59.974Z</time>
      </trkpt>
      <trkpt lat="48.17033" lon="-3.9828">
        <ele>77.195918177928</ele>
        <time>2021-08-19T15:05:12.454Z</time>
      </trkpt>
      <trkpt lat="48.17042" lon="-3.98327">
        <ele>76.199169480246</ele>
        <time>2021-08-19T15:05:24.939Z</time>
      </trkpt>
      <trkpt lat="48.17057" lon="-3.98386">
        <ele>75.279481224877</ele>
        <time>2021-08-19T15:05:37.430Z</time>
      </trkpt>
      <trkpt lat="48.17169" lon="-3.98748">
        <ele>74.443305692212</ele>
        <time>2021-08-19T15:05:49.957Z</time>
      </trkpt>
      <trkpt lat="48.17187" lon="-3.98818">
        <ele>74.308090288554</ele>
        <time>2021-08-19T15:06:02.490Z</time>
      </trkpt>
      <trkpt lat="48.17202" lon="-3.98917">
        <ele>74.623220612663</ele>
        <time>2021-08-19T15:06:15.033Z</time>
      </trkpt>
      <trkpt lat="48.1721" lon="-3.98995">
        <ele>75.136331151553</ele>
        <time>2021-08-19T15:06:27.583Z</time>
      </trkpt>
      <trkpt lat="48.17217" lon="-3.99219">
        <ele>76.015952682797</ele>
        <time>2021-08-19T15:06:40.153Z</time>
      </trkpt>
      <trkpt lat="48.17226" lon="-3.99296">
        <ele>76.622302431285</ele>
        <time>2021-08-19T15:06:52.730Z</time>
      </trkpt>
      <trkpt lat="48.17232" lon="-3.9933">
        <ele>77.31829783446</ele>
        <time>2021-08-19T15:07:05.310Z</time>
      </trkpt>
      <trkpt lat="48.1723" lon="-3.9933">
        <ele>78.938143232996</ele>
        <time>2021-08-19T15:07:17.891Z</time>
      </trkpt>
      <trkpt lat="48.17254" lon="-3.99471">
        <ele>79.985481805562</ele>
        <time>2021-08-19T15:07:30.485Z</time>
      </trkpt>
      <trkpt lat="48.17263" lon="-3.99527">
        <ele>81.005802067068</ele>
        <time>2021-08-19T15:07:43.084Z</time>
      </trkpt>
      <trkpt lat="48.1728" lon="-3.99621">
        <ele>81.93154887442</ele>
        <time>2021-08-19T15:07:55.692Z</time>
      </trkpt>
      <trkpt lat="48.17282" lon="-3.99631">
        <ele>82.752762576421</ele>
        <time>2021-08-19T15:08:08.301Z</time>
      </trkpt>
      <trkpt lat="48.17286" lon="-3.99668">
        <ele>83.496742331372</ele>
        <time>2021-08-19T15:08:20.913Z</time>
      </trkpt>
      <trkpt lat="48.17292" lon="-3.99698">
        <ele>84.215268642182</ele>
        <time>2021-08-19T15:08:33.528Z</time>
      </trkpt>
      <trkpt lat="48.17294" lon="-3.99719">
        <ele>84.897404903011</ele>
        <time>2021-08-19T15:08:46.145Z</time>
      </trkpt>
      <trkpt lat="48.1729" lon="-3.99749">
        <ele>85.532176827138</ele>
        <time>2021-08-19T15:08:58.765Z</time>
      </trkpt>
      <trkpt lat="48.1729" lon="-3.99749">
        <ele>86.054252154367</ele>
        <time>2021-08-19T15:09:11.385Z</time>
      </trkpt>
      <trkpt lat="48.17289" lon="-3.99753">
        <ele>86.504655232743</ele>
        <time>2021-08-19T15:09:24.005Z</time>
      </trkpt>
      <trkpt lat="48.17285" lon="-3.99767">
        <ele>86.899033567154</ele>
        <time>2021-08-19T15:09:36.626Z</time>
      </trkpt>
      <trkpt lat="48.1728" lon="-3.99809">
        <ele>87.217626262718</ele>
        <time>2021-08-19T15:09:49.251Z</time>
      </trkpt>
      <trkpt lat="48.17272" lon="-3.99849">
        <ele>87.46647551224</ele>
        <time>2021-08-19T15:10:01.880Z</time>
      </trkpt>
      <trkpt lat="48.17252" lon="-3.99927">
        <ele>87.451259684861</ele>
        <time>2021-08-19T15:10:14.516Z</time>
      </trkpt>
      <trkpt lat="48.1723" lon="-4">
        <ele>87.423366575307</ele>
        <time>2021-08-19T15:10:27.160Z</time>
      </trkpt>
      <trkpt lat="48.1723" lon="-4">
        <ele>87.48690844172</ele>
        <time>2021-08-19T15:10:39.804Z</time>
      </trkpt>
      <trkpt lat="48.17229" lon="-4.00004">
        <ele>87.508622584699</ele>
        <time>2021-08-19T15:10:52.448Z</time>
      </trkpt>
      <trkpt lat="48.17203" lon="-4.00006">
        <ele>87.524218166123</ele>
        <time>2021-08-19T15:11:05.096Z</time>
      </trkpt>
      <trkpt lat="48.17173" lon="-4.00014">
        <ele>87.521246307931</ele>
        <time>2021-08-19T15:11:17.748Z</time>
      </trkpt>
      <trkpt lat="48.1714" lon="-4.00045">
        <ele>87.480453481978</ele>
        <time>2021-08-19T15:11:30.405Z</time>
      </trkpt>
      <trkpt lat="48.17049" lon="-4.00157">
        <ele>87.496243547467</ele>
        <time>2021-08-19T15:11:43.078Z</time>
      </trkpt>
      <trkpt lat="48.17053" lon="-4.00164">
        <ele>87.36634920608</ele>
        <time>2021-08-19T15:11:55.752Z</time>
      </trkpt>
      <trkpt lat="48.1697" lon="-4.00266">
        <ele>87.405805794106</ele>
        <time>2021-08-19T15:12:08.440Z</time>
      </trkpt>
      <trkpt lat="48.16928" lon="-4.00315">
        <ele>87.309968255351</ele>
        <time>2021-08-19T15:12:21.136Z</time>
      </trkpt>
      <trkpt lat="48.16922" lon="-4.00321">
        <ele>87.114484631528</ele>
        <time>2021-08-19T15:12:33.832Z</time>
      </trkpt>
      <trkpt lat="48.16909" lon="-4.00329">
        <ele>86.879125451088</ele>
        <time>2021-08-19T15:12:46.530Z</time>
      </trkpt>
      <trkpt lat="48.16895" lon="-4.00335">
        <ele>86.633389412664</ele>
        <time>2021-08-19T15:12:59.230Z</time>
      </trkpt>
      <trkpt lat="48.16881" lon="-4.00338">
        <ele>86.381748063652</ele>
        <time>2021-08-19T15:13:11.932Z</time>
      </trkpt>
      <trkpt lat="48.16858" lon="-4.00338">
        <ele>86.142356369388</ele>
        <time>2021-08-19T15:13:24.637Z</time>
      </trkpt>
      <trkpt lat="48.16834" lon="-4.00335">
        <ele>85.918424753506</ele>
        <time>2021-08-19T15:13:37.346Z</time>
      </trkpt>
      <trkpt lat="48.1681" lon="-4.00336">
        <ele>85.646712458636</ele>
        <time>2021-08-19T15:13:50.058Z</time>
      </trkpt>
      <trkpt lat="48.16802" lon="-4.00339">
        <ele>85.369192287425</ele>
        <time>2021-08-19T15:14:02.771Z</time>
      </trkpt>
      <trkpt lat="48.16794" lon="-4.00342">
        <ele>85.094643204456</ele>
        <time>2021-08-19T15:14:15.485Z</time>
      </trkpt>
      <trkpt lat="48.16773" lon="-4.00361">
        <ele>84.764183776478</ele>
        <time>2021-08-19T15:14:28.202Z</time>
      </trkpt>
      <trkpt lat="48.16762" lon="-4.00379">
        <ele>84.520125392032</ele>
        <time>2021-08-19T15:14:40.922Z</time>
      </trkpt>
      <trkpt lat="48.16753" lon="-4.00399">
        <ele>84.331745818224</ele>
        <time>2021-08-19T15:14:53.644Z</time>
      </trkpt>
      <trkpt lat="48.16747" lon="-4.00421">
        <ele>84.185915920692</ele>
        <time>2021-08-19T15:15:06.368Z</time>
      </trkpt>
      <trkpt lat="48.16745" lon="-4.00445">
        <ele>84.107699712797</ele>
        <time>2021-08-19T15:15:19.094Z</time>
      </trkpt>
      <trkpt lat="48.16745" lon="-4.00457">
        <ele>84.165156989712</ele>
        <time>2021-08-19T15:15:31.821Z</time>
      </trkpt>
      <trkpt lat="48.16748" lon="-4.0048">
        <ele>84.254987730502</ele>
        <time>2021-08-19T15:15:44.550Z</time>
      </trkpt>
      <trkpt lat="48.16759" lon="-4.0051">
        <ele>84.390301287436</ele>
        <time>2021-08-19T15:15:57.282Z</time>
      </trkpt>
      <trkpt lat="48.16783" lon="-4.00565">
        <ele>84.708643449974</ele>
        <time>2021-08-19T15:16:10.020Z</time>
      </trkpt>
      <trkpt lat="48.16813" lon="-4.00639">
        <ele>85.050784336278</ele>
        <time>2021-08-19T15:16:22.766Z</time>
      </trkpt>
      <trkpt lat="48.16827" lon="-4.00689">
        <ele>85.621591962617</ele>
        <time>2021-08-19T15:16:35.517Z</time>
      </trkpt>
      <trkpt lat="48.16833" lon="-4.0072">
        <ele>86.193239079762</ele>
        <time>2021-08-19T15:16:48.271Z</time>
      </trkpt>
      <trkpt lat="48.1684" lon="-4.00794">
        <ele>86.869044685716</ele>
        <time>2021-08-19T15:17:01.032Z</time>
      </trkpt>
      <trkpt lat="48.16839" lon="-4.00836">
        <ele>87.498655489538</ele>
        <time>2021-08-19T15:17:13.797Z</time>
      </trkpt>
      <trkpt lat="48.16836" lon="-4.00868">
        <ele>88.252980326042</ele>
        <time>2021-08-19T15:17:26.565Z</time>
      </trkpt>
      <trkpt lat="48.16812" lon="-4.01035">
        <ele>89.276773547022</ele>
        <time>2021-08-19T15:17:39.348Z</time>
      </trkpt>
      <trkpt lat="48.168" lon="-4.01096">
        <ele>90.108103441559</ele>
        <time>2021-08-19T15:17:52.137Z</time>
      </trkpt>
      <trkpt lat="48.16788" lon="-4.01134">
        <ele>90.984765710748</ele>
        <time>2021-08-19T15:18:04.930Z</time>
      </trkpt>
      <trkpt lat="48.16773" lon="-4.01169">
        <ele>91.927875886218</ele>
        <time>2021-08-19T15:18:17.726Z</time>
      </trkpt>
      <trkpt lat="48.16748" lon="-4.01208">
        <ele>92.874389529393</ele>
        <time>2021-08-19T15:18:30.527Z</time>
      </trkpt>
      <trkpt lat="48.16713" lon="-4.01248">
        <ele>93.755114370174</ele>
        <time>2021-08-19T15:18:43.334Z</time>
      </trkpt>
      <trkpt lat="48.16666" lon="-4.0128">
        <ele>94.672949574662</ele>
        <time>2021-08-19T15:18:56.148Z</time>
      </trkpt>
      <trkpt lat="48.1666" lon="-4.01283">
        <ele>95.475144737107</ele>
        <time>2021-08-19T15:19:08.963Z</time>
      </trkpt>
      <trkpt lat="48.16623" lon="-4.01291">
        <ele>96.290597568701</ele>
        <time>2021-08-19T15:19:21.783Z</time>
      </trkpt>
      <trkpt lat="48.16579" lon="-4.01289">
        <ele>97.128469220029</ele>
        <time>2021-08-19T15:19:34.609Z</time>
      </trkpt>
      <trkpt lat="48.16543" lon="-4.01276">
        <ele>97.887821804554</ele>
        <time>2021-08-19T15:19:47.440Z</time>
      </trkpt>
      <trkpt lat="48.16536" lon="-4.01272">
        <ele>98.60252414997</ele>
        <time>2021-08-19T15:20:00.272Z</time>
      </trkpt>
      <trkpt lat="48.1649" lon="-4.0124">
        <ele>99.376733143251</ele>
        <time>2021-08-19T15:20:13.111Z</time>
      </trkpt>
      <trkpt lat="48.16456" lon="-4.01202">
        <ele>100.10238161973</ele>
        <time>2021-08-19T15:20:25.956Z</time>
      </trkpt>
      <trkpt lat="48.16417" lon="-4.01151">
        <ele>100.78286028148</ele>
        <time>2021-08-19T15:20:38.808Z</time>
      </trkpt>
      <trkpt lat="48.16375" lon="-4.01102">
        <ele>101.39454139855</ele>
        <time>2021-08-19T15:20:51.667Z</time>
      </trkpt>
      <trkpt lat="48.16369" lon="-4.01097">
        <ele>101.91654899398</ele>
        <time>2021-08-19T15:21:04.527Z</time>
      </trkpt>
      <trkpt lat="48.16347" lon="-4.01087">
        <ele>102.36309324298</ele>
        <time>2021-08-19T15:21:17.390Z</time>
      </trkpt>
      <trkpt lat="48.16339" lon="-4.01086">
        <ele>102.87975785952</ele>
        <time>2021-08-19T15:21:30.254Z</time>
      </trkpt>
      <trkpt lat="48.16324" lon="-4.0109">
        <ele>103.43551839214</ele>
        <time>2021-08-19T15:21:43.120Z</time>
      </trkpt>
      <trkpt lat="48.16317" lon="-4.01093">
        <ele>103.93781276353</ele>
        <time>2021-08-19T15:21:55.987Z</time>
      </trkpt>
      <trkpt lat="48.16304" lon="-4.01105">
        <ele>104.43403345168</ele>
        <time>2021-08-19T15:22:08.856Z</time>
      </trkpt>
      <trkpt lat="48.16294" lon="-4.01121">
        <ele>104.94791898037</ele>
        <time>2021-08-19T15:22:21.727Z</time>
      </trkpt>
      <trkpt lat="48.16275" lon="-4.01169">
        <ele>105.50910301948</ele>
        <time>2021-08-19T15:22:34.603Z</time>
      </trkpt>
      <trkpt lat="48.1619" lon="-4.01404">
        <ele>106.02128942323</ele>
        <time>2021-08-19T15:22:47.503Z</time>
      </trkpt>
      <trkpt lat="48.16163" lon="-4.01453">
        <ele>106.52438174126</ele>
        <time>2021-08-19T15:23:00.409Z</time>
      </trkpt>
      <trkpt lat="48.16143" lon="-4.01482">
        <ele>107.05653291695</ele>
        <time>2021-08-19T15:23:13.319Z</time>
      </trkpt>
      <trkpt lat="48.16124" lon="-4.01501">
        <ele>107.67687549937</ele>
        <time>2021-08-19T15:23:26.232Z</time>
      </trkpt>
      <trkpt lat="48.1611" lon="-4.01508">
        <ele>108.34795470293</ele>
        <time>2021-08-19T15:23:39.147Z</time>
      </trkpt>
      <trkpt lat="48.16102" lon="-4.0151">
        <ele>109.01290744705</ele>
        <time>2021-08-19T15:23:52.063Z</time>
      </trkpt>
      <trkpt lat="48.16063" lon="-4.01513">
        <ele>109.56768308248</ele>
        <time>2021-08-19T15:24:04.984Z</time>
      </trkpt>
      <trkpt lat="48.16041" lon="-4.01506">
        <ele>110.16646525287</ele>
        <time>2021-08-19T15:24:17.908Z</time>
      </trkpt>
      <trkpt lat="48.16027" lon="-4.01498">
        <ele>110.83249881859</ele>
        <time>2021-08-19T15:24:30.834Z</time>
      </trkpt>
      <trkpt lat="48.15942" lon="-4.01426">
        <ele>111.89472397187</ele>
        <time>2021-08-19T15:24:43.774Z</time>
      </trkpt>
      <trkpt lat="48.15924" lon="-4.01419">
        <ele>112.49641747449</ele>
        <time>2021-08-19T15:24:56.716Z</time>
      </trkpt>
      <trkpt lat="48.15906" lon="-4.01416">
        <ele>113.20103451654</ele>
        <time>2021-08-19T15:25:09.660Z</time>
      </trkpt>
      <trkpt lat="48.15897" lon="-4.01416">
        <ele>113.83750068098</ele>
        <time>2021-08-19T15:25:22.606Z</time>
      </trkpt>
      <trkpt lat="48.15872" lon="-4.01422">
        <ele>114.46778176988</ele>
        <time>2021-08-19T15:25:35.555Z</time>
      </trkpt>
      <trkpt lat="48.15847" lon="-4.01434">
        <ele>115.0230380738</ele>
        <time>2021-08-19T15:25:48.508Z</time>
      </trkpt>
      <trkpt lat="48.15808" lon="-4.01459">
        <ele>115.38954965144</ele>
        <time>2021-08-19T15:26:01.466Z</time>
      </trkpt>
      <trkpt lat="48.15775" lon="-4.01473">
        <ele>115.80341437403</ele>
        <time>2021-08-19T15:26:14.429Z</time>
      </trkpt>
      <trkpt lat="48.15758" lon="-4.01477">
        <ele>116.28840992573</ele>
        <time>2021-08-19T15:26:27.394Z</time>
      </trkpt>
      <trkpt lat="48.15732" lon="-4.01479">
        <ele>116.78675740956</ele>
        <time>2021-08-19T15:26:40.363Z</time>
      </trkpt>
      <trkpt lat="48.15698" lon="-4.01472">
        <ele>117.24847102109</ele>
        <time>2021-08-19T15:26:53.337Z</time>
      </trkpt>
      <trkpt lat="48.15652" lon="-4.01446">
        <ele>117.77142437226</ele>
        <time>2021-08-19T15:27:06.317Z</time>
      </trkpt>
      <trkpt lat="48.15607" lon="-4.01412">
        <ele>118.25361166634</ele>
        <time>2021-08-19T15:27:19.304Z</time>
      </trkpt>
      <trkpt lat="48.15576" lon="-4.01394">
        <ele>118.74606535704</ele>
        <time>2021-08-19T15:27:32.296Z</time>
      </trkpt>
      <trkpt lat="48.15558" lon="-4.01388">
        <ele>119.00001113309</ele>
        <time>2021-08-19T15:27:45.290Z</time>
      </trkpt>
      <trkpt lat="48.15522" lon="-4.01386">
        <ele>119.07439228827</ele>
        <time>2021-08-19T15:27:58.289Z</time>
      </trkpt>
      <trkpt lat="48.15513" lon="-4.01388">
        <ele>119.05543365383</ele>
        <time>2021-08-19T15:28:11.289Z</time>
      </trkpt>
      <trkpt lat="48.15417" lon="-4.01427">
        <ele>118.67391007573</ele>
        <time>2021-08-19T15:28:24.302Z</time>
      </trkpt>
      <trkpt lat="48.15394" lon="-4.01433">
        <ele>118.54488222364</ele>
        <time>2021-08-19T15:28:37.319Z</time>
      </trkpt>
      <trkpt lat="48.15356" lon="-4.01439">
        <ele>118.42864669369</ele>
        <time>2021-08-19T15:28:50.341Z</time>
      </trkpt>
      <trkpt lat="48.15316" lon="-4.0144">
        <ele>118.19307660075</ele>
        <time>2021-08-19T15:29:03.368Z</time>
      </trkpt>
      <trkpt lat="48.153" lon="-4.01438">
        <ele>117.85653515487</ele>
        <time>2021-08-19T15:29:16.397Z</time>
      </trkpt>
      <trkpt lat="48.15261" lon="-4.01426">
        <ele>117.52430379347</ele>
        <time>2021-08-19T15:29:29.432Z</time>
      </trkpt>
      <trkpt lat="48.15208" lon="-4.01398">
        <ele>116.92189596263</ele>
        <time>2021-08-19T15:29:42.474Z</time>
      </trkpt>
      <trkpt lat="48.15158" lon="-4.01358">
        <ele>116.16142868249</ele>
        <time>2021-08-19T15:29:55.524Z</time>
      </trkpt>
      <trkpt lat="48.15108" lon="-4.01311">
        <ele>115.23438802742</ele>
        <time>2021-08-19T15:30:08.582Z</time>
      </trkpt>
      <trkpt lat="48.15028" lon="-4.01231">
        <ele>114.73378001168</ele>
        <time>2021-08-19T15:30:21.653Z</time>
      </trkpt>
      <trkpt lat="48.1498" lon="-4.01188">
        <ele>113.99650386816</ele>
        <time>2021-08-19T15:30:34.732Z</time>
      </trkpt>
      <trkpt lat="48.14798" lon="-4.01076">
        <ele>113.3754012163</ele>
        <time>2021-08-19T15:30:47.837Z</time>
      </trkpt>
      <trkpt lat="48.14775" lon="-4.01065">
        <ele>112.71526088515</ele>
        <time>2021-08-19T15:31:00.946Z</time>
      </trkpt>
      <trkpt lat="48.14758" lon="-4.01063">
        <ele>112.0661331665</ele>
        <time>2021-08-19T15:31:14.057Z</time>
      </trkpt>
      <trkpt lat="48.14734" lon="-4.01072">
        <ele>111.45044228252</ele>
        <time>2021-08-19T15:31:27.171Z</time>
      </trkpt>
      <trkpt lat="48.14719" lon="-4.01085">
        <ele>110.88498980446</ele>
        <time>2021-08-19T15:31:40.288Z</time>
      </trkpt>
      <trkpt lat="48.14707" lon="-4.01104">
        <ele>110.37794199817</ele>
        <time>2021-08-19T15:31:53.407Z</time>
      </trkpt>
      <trkpt lat="48.1468" lon="-4.01165">
        <ele>109.97646096061</ele>
        <time>2021-08-19T15:32:06.533Z</time>
      </trkpt>
      <trkpt lat="48.14654" lon="-4.01212">
        <ele>109.71349188428</ele>
        <time>2021-08-19T15:32:19.664Z</time>
      </trkpt>
      <trkpt lat="48.14642" lon="-4.01228">
        <ele>109.56782831609</ele>
        <time>2021-08-19T15:32:32.797Z</time>
      </trkpt>
      <trkpt lat="48.14608" lon="-4.0127">
        <ele>109.55259980095</ele>
        <time>2021-08-19T15:32:45.936Z</time>
      </trkpt>
      <trkpt lat="48.14571" lon="-4.01304">
        <ele>109.62111034835</ele>
        <time>2021-08-19T15:32:59.081Z</time>
      </trkpt>
      <trkpt lat="48.14551" lon="-4.01319">
        <ele>109.80196445575</ele>
        <time>2021-08-19T15:33:12.229Z</time>
      </trkpt>
      <trkpt lat="48.14467" lon="-4.01356">
        <ele>110.10810348999</ele>
        <time>2021-08-19T15:33:25.389Z</time>
      </trkpt>
      <trkpt lat="48.14331" lon="-4.01411">
        <ele>110.67303406127</ele>
        <time>2021-08-19T15:33:38.568Z</time>
      </trkpt>
      <trkpt lat="48.14239" lon="-4.01451">
        <ele>111.2868091521</ele>
        <time>2021-08-19T15:33:51.760Z</time>
      </trkpt>
      <trkpt lat="48.14121" lon="-4.01504">
        <ele>112.10426747175</ele>
        <time>2021-08-19T15:34:04.969Z</time>
      </trkpt>
      <trkpt lat="48.13968" lon="-4.0157">
        <ele>113.06781966852</ele>
        <time>2021-08-19T15:34:18.199Z</time>
      </trkpt>
      <trkpt lat="48.13921" lon="-4.01586">
        <ele>114.17638610116</ele>
        <time>2021-08-19T15:34:31.436Z</time>
      </trkpt>
      <trkpt lat="48.13897" lon="-4.01592">
        <ele>115.37489627106</ele>
        <time>2021-08-19T15:34:44.676Z</time>
      </trkpt>
      <trkpt lat="48.13684" lon="-4.01639">
        <ele>116.86754221427</ele>
        <time>2021-08-19T15:34:57.945Z</time>
      </trkpt>
      <trkpt lat="48.13515" lon="-4.01682">
        <ele>118.40967633087</ele>
        <time>2021-08-19T15:35:11.237Z</time>
      </trkpt>
      <trkpt lat="48.13401" lon="-4.01708">
        <ele>120.09816486778</ele>
        <time>2021-08-19T15:35:24.545Z</time>
      </trkpt>
      <trkpt lat="48.13354" lon="-4.01718">
        <ele>121.85546160972</ele>
        <time>2021-08-19T15:35:37.859Z</time>
      </trkpt>
      <trkpt lat="48.13336" lon="-4.0172">
        <ele>123.55411569003</ele>
        <time>2021-08-19T15:35:51.176Z</time>
      </trkpt>
      <trkpt lat="48.13298" lon="-4.01729">
        <ele>125.36753187348</ele>
        <time>2021-08-19T15:36:04.498Z</time>
      </trkpt>
      <trkpt lat="48.13272" lon="-4.01737">
        <ele>127.16002859624</ele>
        <time>2021-08-19T15:36:17.823Z</time>
      </trkpt>
      <trkpt lat="48.1322" lon="-4.01759">
        <ele>128.99937658407</ele>
        <time>2021-08-19T15:36:31.156Z</time>
      </trkpt>
      <trkpt lat="48.13101" lon="-4.01819">
        <ele>131.040965399</ele>
        <time>2021-08-19T15:36:44.506Z</time>
      </trkpt>
      <trkpt lat="48.13069" lon="-4.01832">
        <ele>132.69239185206</ele>
        <time>2021-08-19T15:36:57.860Z</time>
      </trkpt>
      <trkpt lat="48.13024" lon="-4.01847">
        <ele>134.28402162622</ele>
        <time>2021-08-19T15:37:11.221Z</time>
      </trkpt>
      <trkpt lat="48.12988" lon="-4.01852">
        <ele>135.76392753129</ele>
        <time>2021-08-19T15:37:24.586Z</time>
      </trkpt>
      <trkpt lat="48.12964" lon="-4.01854">
        <ele>137.15922801498</ele>
        <time>2021-08-19T15:37:37.955Z</time>
      </trkpt>
      <trkpt lat="48.1294" lon="-4.01853">
        <ele>138.4695255774</ele>
        <time>2021-08-19T15:37:51.327Z</time>
      </trkpt>
      <trkpt lat="48.12887" lon="-4.01846">
        <ele>139.68133781455</ele>
        <time>2021-08-19T15:38:04.706Z</time>
      </trkpt>
      <trkpt lat="48.12782" lon="-4.01834">
        <ele>140.62672439482</ele>
        <time>2021-08-19T15:38:18.099Z</time>
      </trkpt>
      <trkpt lat="48.12731" lon="-4.01831">
        <ele>141.66153603278</ele>
        <time>2021-08-19T15:38:31.499Z</time>
      </trkpt>
      <trkpt lat="48.12707" lon="-4.01833">
        <ele>142.65703998846</ele>
        <time>2021-08-19T15:38:44.903Z</time>
      </trkpt>
      <trkpt lat="48.12682" lon="-4.01837">
        <ele>143.5660760312</ele>
        <time>2021-08-19T15:38:58.310Z</time>
      </trkpt>
      <trkpt lat="48.1265" lon="-4.01847">
        <ele>144.44761490711</ele>
        <time>2021-08-19T15:39:11.721Z</time>
      </trkpt>
      <trkpt lat="48.12605" lon="-4.01872">
        <ele>145.2992099323</ele>
        <time>2021-08-19T15:39:25.139Z</time>
      </trkpt>
      <trkpt lat="48.12479" lon="-4.01953">
        <ele>146.2318497872</ele>
        <time>2021-08-19T15:39:38.575Z</time>
      </trkpt>
      <trkpt lat="48.12399" lon="-4.02">
        <ele>146.98069657476</ele>
        <time>2021-08-19T15:39:52.023Z</time>
      </trkpt>
      <trkpt lat="48.1233" lon="-4.02045">
        <ele>147.52343416511</ele>
        <time>2021-08-19T15:40:05.481Z</time>
      </trkpt>
      <trkpt lat="48.12282" lon="-4.02087">
        <ele>147.89439748976</ele>
        <time>2021-08-19T15:40:18.947Z</time>
      </trkpt>
      <trkpt lat="48.12248" lon="-4.02131">
        <ele>148.06384562051</ele>
        <time>2021-08-19T15:40:32.419Z</time>
      </trkpt>
      <trkpt lat="48.12234" lon="-4.02157">
        <ele>148.05776724538</ele>
        <time>2021-08-19T15:40:45.894Z</time>
      </trkpt>
      <trkpt lat="48.12222" lon="-4.02186">
        <ele>147.90679531728</ele>
        <time>2021-08-19T15:40:59.372Z</time>
      </trkpt>
      <trkpt lat="48.12204" lon="-4.0224">
        <ele>147.62583036987</ele>
        <time>2021-08-19T15:41:12.855Z</time>
      </trkpt>
      <trkpt lat="48.12196" lon="-4.02273">
        <ele>147.24828565153</ele>
        <time>2021-08-19T15:41:26.342Z</time>
      </trkpt>
      <trkpt lat="48.12156" lon="-4.02406">
        <ele>146.52036439487</ele>
        <time>2021-08-19T15:41:39.842Z</time>
      </trkpt>
      <trkpt lat="48.12075" lon="-4.02688">
        <ele>145.9637516687</ele>
        <time>2021-08-19T15:41:53.370Z</time>
      </trkpt>
      <trkpt lat="48.12045" lon="-4.02759">
        <ele>145.31553706564</ele>
        <time>2021-08-19T15:42:06.905Z</time>
      </trkpt>
      <trkpt lat="48.12002" lon="-4.02846">
        <ele>144.64923937536</ele>
        <time>2021-08-19T15:42:20.450Z</time>
      </trkpt>
      <trkpt lat="48.11938" lon="-4.02983">
        <ele>143.87787265616</ele>
        <time>2021-08-19T15:42:34.010Z</time>
      </trkpt>
      <trkpt lat="48.11917" lon="-4.03029">
        <ele>143.11627276163</ele>
        <time>2021-08-19T15:42:47.575Z</time>
      </trkpt>
      <trkpt lat="48.11899" lon="-4.03077">
        <ele>142.36695664348</ele>
        <time>2021-08-19T15:43:01.145Z</time>
      </trkpt>
      <trkpt lat="48.11885" lon="-4.03127">
        <ele>141.57270347122</ele>
        <time>2021-08-19T15:43:14.720Z</time>
      </trkpt>
      <trkpt lat="48.11878" lon="-4.03168">
        <ele>140.75637256662</ele>
        <time>2021-08-19T15:43:28.299Z</time>
      </trkpt>
      <trkpt lat="48.11873" lon="-4.03242">
        <ele>139.96968912466</ele>
        <time>2021-08-19T15:43:41.885Z</time>
      </trkpt>
      <trkpt lat="48.11879" lon="-4.03324">
        <ele>139.26576811489</ele>
        <time>2021-08-19T15:43:55.478Z</time>
      </trkpt>
      <trkpt lat="48.11897" lon="-4.03453">
        <ele>138.32450789209</ele>
        <time>2021-08-19T15:44:09.083Z</time>
      </trkpt>
      <trkpt lat="48.11902" lon="-4.03503">
        <ele>137.78557766377</ele>
        <time>2021-08-19T15:44:22.693Z</time>
      </trkpt>
      <trkpt lat="48.11904" lon="-4.03537">
        <ele>137.42967994143</ele>
        <time>2021-08-19T15:44:36.306Z</time>
      </trkpt>
      <trkpt lat="48.11902" lon="-4.0362">
        <ele>137.26098082366</ele>
        <time>2021-08-19T15:44:49.926Z</time>
      </trkpt>
      <trkpt lat="48.11895" lon="-4.03665">
        <ele>137.16705865365</ele>
        <time>2021-08-19T15:45:03.550Z</time>
      </trkpt>
      <trkpt lat="48.11877" lon="-4.03732">
        <ele>137.13084138277</ele>
        <time>2021-08-19T15:45:17.181Z</time>
      </trkpt>
      <trkpt lat="48.11821" lon="-4.0389">
        <ele>137.07277364107</ele>
        <time>2021-08-19T15:45:30.828Z</time>
      </trkpt>
      <trkpt lat="48.118" lon="-4.03958">
        <ele>137.22808120883</ele>
        <time>2021-08-19T15:45:44.482Z</time>
      </trkpt>
      <trkpt lat="48.11783" lon="-4.04024">
        <ele>137.37666495214</ele>
        <time>2021-08-19T15:45:58.142Z</time>
      </trkpt>
      <trkpt lat="48.1176" lon="-4.04151">
        <ele>137.78928701686</ele>
        <time>2021-08-19T15:46:11.814Z</time>
      </trkpt>
      <trkpt lat="48.11716" lon="-4.04537">
        <ele>138.55840800475</ele>
        <time>2021-08-19T15:46:25.522Z</time>
      </trkpt>
      <trkpt lat="48.11668" lon="-4.04923">
        <ele>139.30922075517</ele>
        <time>2021-08-19T15:46:39.265Z</time>
      </trkpt>
      <trkpt lat="48.11651" lon="-4.0507">
        <ele>139.5684560874</ele>
        <time>2021-08-19T15:46:53.022Z</time>
      </trkpt>
      <trkpt lat="48.11649" lon="-4.05138">
        <ele>139.62592645341</ele>
        <time>2021-08-19T15:47:06.785Z</time>
      </trkpt>
      <trkpt lat="48.11661" lon="-4.05425">
        <ele>139.53903832967</ele>
        <time>2021-08-19T15:47:20.574Z</time>
      </trkpt>
      <trkpt lat="48.1166" lon="-4.05488">
        <ele>138.58977565087</ele>
        <time>2021-08-19T15:47:34.369Z</time>
      </trkpt>
      <trkpt lat="48.11595" lon="-4.06101">
        <ele>135.26314229019</ele>
        <time>2021-08-19T15:47:48.220Z</time>
      </trkpt>
      <trkpt lat="48.11559" lon="-4.0642">
        <ele>133.41526739653</ele>
        <time>2021-08-19T15:48:02.100Z</time>
      </trkpt>
      <trkpt lat="48.1155" lon="-4.06482">
        <ele>131.84942280368</ele>
        <time>2021-08-19T15:48:15.986Z</time>
      </trkpt>
      <trkpt lat="48.11545" lon="-4.06512">
        <ele>130.22276569402</ele>
        <time>2021-08-19T15:48:29.875Z</time>
      </trkpt>
      <trkpt lat="48.11524" lon="-4.06598">
        <ele>128.33529194059</ele>
        <time>2021-08-19T15:48:43.772Z</time>
      </trkpt>
      <trkpt lat="48.11441" lon="-4.06918">
        <ele>126.2722860808</ele>
        <time>2021-08-19T15:48:57.700Z</time>
      </trkpt>
      <trkpt lat="48.11429" lon="-4.06972">
        <ele>124.45609976613</ele>
        <time>2021-08-19T15:49:11.633Z</time>
      </trkpt>
      <trkpt lat="48.11426" lon="-4.07005">
        <ele>122.61264088325</ele>
        <time>2021-08-19T15:49:25.569Z</time>
      </trkpt>
      <trkpt lat="48.11423" lon="-4.07025">
        <ele>120.73930356384</ele>
        <time>2021-08-19T15:49:39.507Z</time>
      </trkpt>
      <trkpt lat="48.11409" lon="-4.07047">
        <ele>118.81954667956</ele>
        <time>2021-08-19T15:49:53.448Z</time>
      </trkpt>
      <trkpt lat="48.1135" lon="-4.07182">
        <ele>116.93586467369</ele>
        <time>2021-08-19T15:50:07.403Z</time>
      </trkpt>
      <trkpt lat="48.11328" lon="-4.07222">
        <ele>115.00396104559</ele>
        <time>2021-08-19T15:50:21.363Z</time>
      </trkpt>
      <trkpt lat="48.113" lon="-4.07264">
        <ele>113.00027656277</ele>
        <time>2021-08-19T15:50:35.328Z</time>
      </trkpt>
      <trkpt lat="48.11228" lon="-4.07351">
        <ele>110.8880072548</ele>
        <time>2021-08-19T15:50:49.306Z</time>
      </trkpt>
      <trkpt lat="48.11194" lon="-4.07398">
        <ele>108.79427216503</ele>
        <time>2021-08-19T15:51:03.290Z</time>
      </trkpt>
      <trkpt lat="48.11172" lon="-4.07448">
        <ele>106.71388490493</ele>
        <time>2021-08-19T15:51:17.280Z</time>
      </trkpt>
      <trkpt lat="48.11118" lon="-4.07641">
        <ele>104.14734043107</ele>
        <time>2021-08-19T15:51:31.289Z</time>
      </trkpt>
      <trkpt lat="48.11103" lon="-4.07684">
        <ele>101.82919219182</ele>
        <time>2021-08-19T15:51:45.302Z</time>
      </trkpt>
      <trkpt lat="48.11087" lon="-4.07726">
        <ele>99.508425324854</ele>
        <time>2021-08-19T15:51:59.319Z</time>
      </trkpt>
      <trkpt lat="48.11011" lon="-4.07899">
        <ele>97.003584501754</ele>
        <time>2021-08-19T15:52:13.355Z</time>
      </trkpt>
      <trkpt lat="48.11009" lon="-4.07913">
        <ele>94.813514061818</ele>
        <time>2021-08-19T15:52:27.392Z</time>
      </trkpt>
      <trkpt lat="48.11012" lon="-4.07924">
        <ele>92.64165435013</ele>
        <time>2021-08-19T15:52:41.430Z</time>
      </trkpt>
      <trkpt lat="48.1102" lon="-4.07931">
        <ele>90.490004957152</ele>
        <time>2021-08-19T15:52:55.470Z</time>
      </trkpt>
      <trkpt lat="48.11053" lon="-4.07946">
        <ele>88.293190306977</ele>
        <time>2021-08-19T15:53:09.514Z</time>
      </trkpt>
      <trkpt lat="48.11166" lon="-4.08003">
        <ele>85.847906923448</ele>
        <time>2021-08-19T15:53:23.575Z</time>
      </trkpt>
      <trkpt lat="48.11246" lon="-4.0805">
        <ele>83.576702412949</ele>
        <time>2021-08-19T15:53:37.647Z</time>
      </trkpt>
      <trkpt lat="48.11267" lon="-4.08065">
        <ele>81.507261862374</ele>
        <time>2021-08-19T15:53:51.722Z</time>
      </trkpt>
      <trkpt lat="48.11323" lon="-4.08116">
        <ele>79.328204752984</ele>
        <time>2021-08-19T15:54:05.806Z</time>
      </trkpt>
      <trkpt lat="48.11388" lon="-4.0818">
        <ele>77.399864850173</ele>
        <time>2021-08-19T15:54:19.901Z</time>
      </trkpt>
      <trkpt lat="48.11388" lon="-4.0818">
        <ele>75.924112150307</ele>
        <time>2021-08-19T15:54:33.996Z</time>
      </trkpt>
      <trkpt lat="48.11418" lon="-4.08207">
        <ele>73.443829971011</ele>
        <time>2021-08-19T15:54:48.095Z</time>
      </trkpt>
      <trkpt lat="48.11468" lon="-4.08256">
        <ele>72.262857636937</ele>
        <time>2021-08-19T15:55:02.202Z</time>
      </trkpt>
      <trkpt lat="48.11552" lon="-4.08333">
        <ele>71.384302914109</ele>
        <time>2021-08-19T15:55:16.323Z</time>
      </trkpt>
      <trkpt lat="48.11634" lon="-4.08413">
        <ele>70.859611177633</ele>
        <time>2021-08-19T15:55:30.457Z</time>
      </trkpt>
      <trkpt lat="48.11664" lon="-4.08445">
        <ele>70.482247899424</ele>
        <time>2021-08-19T15:55:44.596Z</time>
      </trkpt>
      <trkpt lat="48.11669" lon="-4.08454">
        <ele>70.210286952634</ele>
        <time>2021-08-19T15:55:58.736Z</time>
      </trkpt>
      <trkpt lat="48.11671" lon="-4.08463">
        <ele>70.065497753746</ele>
        <time>2021-08-19T15:56:12.877Z</time>
      </trkpt>
      <trkpt lat="48.11669" lon="-4.08483">
        <ele>70.031758773163</ele>
        <time>2021-08-19T15:56:27.020Z</time>
      </trkpt>
      <trkpt lat="48.11665" lon="-4.08492">
        <ele>70.071222378379</ele>
        <time>2021-08-19T15:56:41.164Z</time>
      </trkpt>
      <trkpt lat="48.11615" lon="-4.08587">
        <ele>70.202630378068</ele>
        <time>2021-08-19T15:56:55.319Z</time>
      </trkpt>
      <trkpt lat="48.11606" lon="-4.08629">
        <ele>70.347837355278</ele>
        <time>2021-08-19T15:57:09.478Z</time>
      </trkpt>
      <trkpt lat="48.1161" lon="-4.0866">
        <ele>70.509461204057</ele>
        <time>2021-08-19T15:57:23.640Z</time>
      </trkpt>
      <trkpt lat="48.11642" lon="-4.0877">
        <ele>70.705713843968</ele>
        <time>2021-08-19T15:57:37.812Z</time>
      </trkpt>
      <trkpt lat="48.11653" lon="-4.08835">
        <ele>70.790764361032</ele>
        <time>2021-08-19T15:57:51.991Z</time>
      </trkpt>
      <trkpt lat="48.11656" lon="-4.08914">
        <ele>70.827959171244</ele>
        <time>2021-08-19T15:58:06.177Z</time>
      </trkpt>
      <trkpt lat="48.11655" lon="-4.09006">
        <ele>70.868214032749</ele>
        <time>2021-08-19T15:58:20.371Z</time>
      </trkpt>
      <trkpt lat="48.11638" lon="-4.09253">
        <ele>71.071181637182</ele>
        <time>2021-08-19T15:58:34.587Z</time>
      </trkpt>
      <trkpt lat="48.11627" lon="-4.09489">
        <ele>71.063964372403</ele>
        <time>2021-08-19T15:58:48.825Z</time>
      </trkpt>
      <trkpt lat="48.11626" lon="-4.0955">
        <ele>70.588481172411</ele>
        <time>2021-08-19T15:59:03.068Z</time>
      </trkpt>
      <trkpt lat="48.11629" lon="-4.09763">
        <ele>69.635597115692</ele>
        <time>2021-08-19T15:59:17.331Z</time>
      </trkpt>
      <trkpt lat="48.11624" lon="-4.09852">
        <ele>68.723537267516</ele>
        <time>2021-08-19T15:59:31.602Z</time>
      </trkpt>
      <trkpt lat="48.11624" lon="-4.09901">
        <ele>67.796203140342</ele>
        <time>2021-08-19T15:59:45.877Z</time>
      </trkpt>
      <trkpt lat="48.11633" lon="-4.1002">
        <ele>66.735851513106</ele>
        <time>2021-08-19T16:00:00.163Z</time>
      </trkpt>
      <trkpt lat="48.11635" lon="-4.10176">
        <ele>65.692495271036</ele>
        <time>2021-08-19T16:00:14.463Z</time>
      </trkpt>
      <trkpt lat="48.11643" lon="-4.10258">
        <ele>64.670305720537</ele>
        <time>2021-08-19T16:00:28.771Z</time>
      </trkpt>
      <trkpt lat="48.11659" lon="-4.10379">
        <ele>63.787538537451</ele>
        <time>2021-08-19T16:00:43.090Z</time>
      </trkpt>
      <trkpt lat="48.11677" lon="-4.10533">
        <ele>63.006775611088</ele>
        <time>2021-08-19T16:00:57.423Z</time>
      </trkpt>
      <trkpt lat="48.11715" lon="-4.10745">
        <ele>62.290179613727</ele>
        <time>2021-08-19T16:01:11.776Z</time>
      </trkpt>
      <trkpt lat="48.11716" lon="-4.10773">
        <ele>61.839088451788</ele>
        <time>2021-08-19T16:01:26.131Z</time>
      </trkpt>
      <trkpt lat="48.11715" lon="-4.10787">
        <ele>61.581567061441</ele>
        <time>2021-08-19T16:01:40.488Z</time>
      </trkpt>
      <trkpt lat="48.1171" lon="-4.10813">
        <ele>61.520296271144</ele>
        <time>2021-08-19T16:01:54.847Z</time>
      </trkpt>
      <trkpt lat="48.11702" lon="-4.10837">
        <ele>61.648449000005</ele>
        <time>2021-08-19T16:02:09.209Z</time>
      </trkpt>
      <trkpt lat="48.11671" lon="-4.10901">
        <ele>62.01685817002</ele>
        <time>2021-08-19T16:02:23.578Z</time>
      </trkpt>
      <trkpt lat="48.11601" lon="-4.11031">
        <ele>62.792755604637</ele>
        <time>2021-08-19T16:02:37.962Z</time>
      </trkpt>
      <trkpt lat="48.11567" lon="-4.11098">
        <ele>63.685115252794</ele>
        <time>2021-08-19T16:02:52.354Z</time>
      </trkpt>
      <trkpt lat="48.11557" lon="-4.11123">
        <ele>64.709400683594</ele>
        <time>2021-08-19T16:03:06.748Z</time>
      </trkpt>
      <trkpt lat="48.11547" lon="-4.11159">
        <ele>65.948848932739</ele>
        <time>2021-08-19T16:03:21.146Z</time>
      </trkpt>
      <trkpt lat="48.11534" lon="-4.1131">
        <ele>67.609945764049</ele>
        <time>2021-08-19T16:03:35.558Z</time>
      </trkpt>
      <trkpt lat="48.11534" lon="-4.11338">
        <ele>69.211738670532</ele>
        <time>2021-08-19T16:03:49.972Z</time>
      </trkpt>
      <trkpt lat="48.11542" lon="-4.114">
        <ele>70.954869437799</ele>
        <time>2021-08-19T16:04:04.392Z</time>
      </trkpt>
      <trkpt lat="48.11546" lon="-4.11461">
        <ele>72.888618300738</ele>
        <time>2021-08-19T16:04:18.817Z</time>
      </trkpt>
      <trkpt lat="48.11543" lon="-4.11534">
        <ele>75.041477086654</ele>
        <time>2021-08-19T16:04:33.249Z</time>
      </trkpt>
      <trkpt lat="48.1154" lon="-4.11565">
        <ele>77.123045093259</ele>
        <time>2021-08-19T16:04:47.684Z</time>
      </trkpt>
      <trkpt lat="48.11531" lon="-4.1161">
        <ele>79.290889904139</ele>
        <time>2021-08-19T16:05:02.123Z</time>
      </trkpt>
      <trkpt lat="48.11491" lon="-4.11759">
        <ele>81.643263649631</ele>
        <time>2021-08-19T16:05:16.577Z</time>
      </trkpt>
      <trkpt lat="48.11481" lon="-4.11814">
        <ele>83.943838442572</ele>
        <time>2021-08-19T16:05:31.036Z</time>
      </trkpt>
      <trkpt lat="48.11478" lon="-4.11846">
        <ele>86.166990258225</ele>
        <time>2021-08-19T16:05:45.498Z</time>
      </trkpt>
      <trkpt lat="48.11476" lon="-4.11902">
        <ele>88.413910018371</ele>
        <time>2021-08-19T16:05:59.965Z</time>
      </trkpt>
      <trkpt lat="48.11474" lon="-4.12038">
        <ele>90.795358812207</ele>
        <time>2021-08-19T16:06:14.444Z</time>
      </trkpt>
      <trkpt lat="48.11472" lon="-4.12056">
        <ele>92.790195891644</ele>
        <time>2021-08-19T16:06:28.925Z</time>
      </trkpt>
      <trkpt lat="48.11455" lon="-4.12082">
        <ele>94.732051313972</ele>
        <time>2021-08-19T16:06:43.409Z</time>
      </trkpt>
      <trkpt lat="48.11402" lon="-4.12133">
        <ele>96.804186587369</ele>
        <time>2021-08-19T16:06:57.901Z</time>
      </trkpt>
      <trkpt lat="48.11381" lon="-4.12149">
        <ele>98.655601265226</ele>
        <time>2021-08-19T16:07:12.397Z</time>
      </trkpt>
      <trkpt lat="48.11372" lon="-4.12152">
        <ele>100.27044891647</ele>
        <time>2021-08-19T16:07:26.894Z</time>
      </trkpt>
      <trkpt lat="48.11355" lon="-4.12155">
        <ele>101.81620030708</ele>
        <time>2021-08-19T16:07:41.393Z</time>
      </trkpt>
      <trkpt lat="48.11347" lon="-4.1216">
        <ele>103.13937844223</ele>
        <time>2021-08-19T16:07:55.893Z</time>
      </trkpt>
      <trkpt lat="48.11337" lon="-4.12179">
        <ele>104.3122297597</ele>
        <time>2021-08-19T16:08:10.396Z</time>
      </trkpt>
      <trkpt lat="48.11329" lon="-4.12214">
        <ele>105.32818655657</ele>
        <time>2021-08-19T16:08:24.902Z</time>
      </trkpt>
      <trkpt lat="48.11324" lon="-4.12247">
        <ele>106.18677190597</ele>
        <time>2021-08-19T16:08:39.411Z</time>
      </trkpt>
      <trkpt lat="48.11323" lon="-4.12276">
        <ele>106.90068061512</ele>
        <time>2021-08-19T16:08:53.923Z</time>
      </trkpt>
      <trkpt lat="48.11324" lon="-4.12314">
        <ele>107.53379090597</ele>
        <time>2021-08-19T16:09:08.438Z</time>
      </trkpt>
      <trkpt lat="48.1133" lon="-4.12379">
        <ele>108.12773676973</ele>
        <time>2021-08-19T16:09:22.959Z</time>
      </trkpt>
      <trkpt lat="48.11333" lon="-4.12436">
        <ele>108.53240685085</ele>
        <time>2021-08-19T16:09:37.485Z</time>
      </trkpt>
      <trkpt lat="48.11336" lon="-4.12727">
        <ele>108.98984511096</ele>
        <time>2021-08-19T16:09:52.038Z</time>
      </trkpt>
      <trkpt lat="48.11334" lon="-4.12777">
        <ele>109.24964519221</ele>
        <time>2021-08-19T16:10:06.595Z</time>
      </trkpt>
      <trkpt lat="48.11331" lon="-4.12806">
        <ele>109.53407092756</ele>
        <time>2021-08-19T16:10:21.155Z</time>
      </trkpt>
      <trkpt lat="48.11327" lon="-4.12836">
        <ele>109.82807496644</ele>
        <time>2021-08-19T16:10:35.718Z</time>
      </trkpt>
      <trkpt lat="48.11301" lon="-4.1296">
        <ele>110.05387986104</ele>
        <time>2021-08-19T16:10:50.292Z</time>
      </trkpt>
      <trkpt lat="48.11279" lon="-4.13052">
        <ele>110.17514031357</ele>
        <time>2021-08-19T16:11:04.875Z</time>
      </trkpt>
      <trkpt lat="48.11261" lon="-4.13148">
        <ele>110.24664595496</ele>
        <time>2021-08-19T16:11:19.467Z</time>
      </trkpt>
      <trkpt lat="48.11233" lon="-4.13317">
        <ele>110.30671567059</ele>
        <time>2021-08-19T16:11:34.075Z</time>
      </trkpt>
      <trkpt lat="48.11233" lon="-4.13347">
        <ele>110.85301529975</ele>
        <time>2021-08-19T16:11:48.686Z</time>
      </trkpt>
      <trkpt lat="48.11239" lon="-4.13448">
        <ele>111.545422767</ele>
        <time>2021-08-19T16:12:03.306Z</time>
      </trkpt>
      <trkpt lat="48.11244" lon="-4.13631">
        <ele>113.11407465558</ele>
        <time>2021-08-19T16:12:17.942Z</time>
      </trkpt>
      <trkpt lat="48.1124" lon="-4.13693">
        <ele>114.15100340404</ele>
        <time>2021-08-19T16:12:32.584Z</time>
      </trkpt>
      <trkpt lat="48.11239" lon="-4.13773">
        <ele>115.18662591431</ele>
        <time>2021-08-19T16:12:47.233Z</time>
      </trkpt>
      <trkpt lat="48.11232" lon="-4.1397">
        <ele>116.50474935745</ele>
        <time>2021-08-19T16:13:01.900Z</time>
      </trkpt>
      <trkpt lat="48.1123" lon="-4.13993">
        <ele>117.44857816093</ele>
        <time>2021-08-19T16:13:16.569Z</time>
      </trkpt>
      <trkpt lat="48.11218" lon="-4.14056">
        <ele>118.4077729326</ele>
        <time>2021-08-19T16:13:31.244Z</time>
      </trkpt>
      <trkpt lat="48.11214" lon="-4.14073">
        <ele>119.29947688398</ele>
        <time>2021-08-19T16:13:45.921Z</time>
      </trkpt>
      <trkpt lat="48.11205" lon="-4.14097">
        <ele>120.16046905509</ele>
        <time>2021-08-19T16:14:00.600Z</time>
      </trkpt>
      <trkpt lat="48.11194" lon="-4.14119">
        <ele>120.98368828436</ele>
        <time>2021-08-19T16:14:15.282Z</time>
      </trkpt>
      <trkpt lat="48.11164" lon="-4.14168">
        <ele>121.83582473295</ele>
        <time>2021-08-19T16:14:29.970Z</time>
      </trkpt>
      <trkpt lat="48.11093" lon="-4.14274">
        <ele>122.63950886046</ele>
        <time>2021-08-19T16:14:44.671Z</time>
      </trkpt>
      <trkpt lat="48.11065" lon="-4.1432">
        <ele>123.21628208622</ele>
        <time>2021-08-19T16:14:59.378Z</time>
      </trkpt>
      <trkpt lat="48.11062" lon="-4.1433">
        <ele>123.74785178488</ele>
        <time>2021-08-19T16:15:14.086Z</time>
      </trkpt>
      <trkpt lat="48.11051" lon="-4.14373">
        <ele>124.1700045535</ele>
        <time>2021-08-19T16:15:28.798Z</time>
      </trkpt>
      <trkpt lat="48.11041" lon="-4.14423">
        <ele>124.51998611466</ele>
        <time>2021-08-19T16:15:43.515Z</time>
      </trkpt>
      <trkpt lat="48.1103" lon="-4.14461">
        <ele>124.82475109078</ele>
        <time>2021-08-19T16:15:58.236Z</time>
      </trkpt>
      <trkpt lat="48.11011" lon="-4.14511">
        <ele>125.05175212246</ele>
        <time>2021-08-19T16:16:12.962Z</time>
      </trkpt>
      <trkpt lat="48.10984" lon="-4.14572">
        <ele>125.31107299477</ele>
        <time>2021-08-19T16:16:27.694Z</time>
      </trkpt>
      <trkpt lat="48.1098" lon="-4.14585">
        <ele>125.55440398002</ele>
        <time>2021-08-19T16:16:42.428Z</time>
      </trkpt>
      <trkpt lat="48.10972" lon="-4.14642">
        <ele>125.76501627814</ele>
        <time>2021-08-19T16:16:57.167Z</time>
      </trkpt>
      <trkpt lat="48.1097" lon="-4.14708">
        <ele>126.04597392144</ele>
        <time>2021-08-19T16:17:11.912Z</time>
      </trkpt>
      <trkpt lat="48.10973" lon="-4.14753">
        <ele>126.34261340723</ele>
        <time>2021-08-19T16:17:26.661Z</time>
      </trkpt>
      <trkpt lat="48.10981" lon="-4.14819">
        <ele>126.60947139166</ele>
        <time>2021-08-19T16:17:41.416Z</time>
      </trkpt>
      <trkpt lat="48.10981" lon="-4.14838">
        <ele>126.73054026771</ele>
        <time>2021-08-19T16:17:56.173Z</time>
      </trkpt>
      <trkpt lat="48.10979" lon="-4.14905">
        <ele>126.85569669512</ele>
        <time>2021-08-19T16:18:10.936Z</time>
      </trkpt>
      <trkpt lat="48.10973" lon="-4.14965">
        <ele>126.90698045597</ele>
        <time>2021-08-19T16:18:25.704Z</time>
      </trkpt>
      <trkpt lat="48.10969" lon="-4.15021">
        <ele>126.8434882751</ele>
        <time>2021-08-19T16:18:40.478Z</time>
      </trkpt>
      <trkpt lat="48.10969" lon="-4.15073">
        <ele>126.75720999569</ele>
        <time>2021-08-19T16:18:55.256Z</time>
      </trkpt>
      <trkpt lat="48.10963" lon="-4.152">
        <ele>126.46765635433</ele>
        <time>2021-08-19T16:19:10.046Z</time>
      </trkpt>
      <trkpt lat="48.10963" lon="-4.15268">
        <ele>126.30153700422</ele>
        <time>2021-08-19T16:19:24.842Z</time>
      </trkpt>
      <trkpt lat="48.10969" lon="-4.15354">
        <ele>126.20811670781</ele>
        <time>2021-08-19T16:19:39.646Z</time>
      </trkpt>
      <trkpt lat="48.10975" lon="-4.15397">
        <ele>125.95151603696</ele>
        <time>2021-08-19T16:19:54.454Z</time>
      </trkpt>
      <trkpt lat="48.10981" lon="-4.15417">
        <ele>125.67379339201</ele>
        <time>2021-08-19T16:20:09.264Z</time>
      </trkpt>
      <trkpt lat="48.10998" lon="-4.15453">
        <ele>125.32752384273</ele>
        <time>2021-08-19T16:20:24.078Z</time>
      </trkpt>
      <trkpt lat="48.11023" lon="-4.15483">
        <ele>124.91588775579</ele>
        <time>2021-08-19T16:20:38.896Z</time>
      </trkpt>
      <trkpt lat="48.11038" lon="-4.15491">
        <ele>124.47753636342</ele>
        <time>2021-08-19T16:20:53.716Z</time>
      </trkpt>
      <trkpt lat="48.11056" lon="-4.15495">
        <ele>123.98478727333</ele>
        <time>2021-08-19T16:21:08.539Z</time>
      </trkpt>
      <trkpt lat="48.11075" lon="-4.15494">
        <ele>123.4497275103</ele>
        <time>2021-08-19T16:21:23.364Z</time>
      </trkpt>
      <trkpt lat="48.11112" lon="-4.15489">
        <ele>122.84691049136</ele>
        <time>2021-08-19T16:21:38.194Z</time>
      </trkpt>
      <trkpt lat="48.11167" lon="-4.15487">
        <ele>122.22111489307</ele>
        <time>2021-08-19T16:21:53.032Z</time>
      </trkpt>
      <trkpt lat="48.1121" lon="-4.15504">
        <ele>121.59769468298</ele>
        <time>2021-08-19T16:22:07.876Z</time>
      </trkpt>
      <trkpt lat="48.11227" lon="-4.15516">
        <ele>121.01062183798</ele>
        <time>2021-08-19T16:22:22.722Z</time>
      </trkpt>
      <trkpt lat="48.11235" lon="-4.15524">
        <ele>120.47830354647</ele>
        <time>2021-08-19T16:22:37.570Z</time>
      </trkpt>
      <trkpt lat="48.11256" lon="-4.15555">
        <ele>119.96412557153</ele>
        <time>2021-08-19T16:22:52.422Z</time>
      </trkpt>
      <trkpt lat="48.11268" lon="-4.15578">
        <ele>119.53887149928</ele>
        <time>2021-08-19T16:23:07.276Z</time>
      </trkpt>
      <trkpt lat="48.11294" lon="-4.1564">
        <ele>119.04808028358</ele>
        <time>2021-08-19T16:23:22.137Z</time>
      </trkpt>
      <trkpt lat="48.11308" lon="-4.1568">
        <ele>118.77638589812</ele>
        <time>2021-08-19T16:23:37.002Z</time>
      </trkpt>
      <trkpt lat="48.11323" lon="-4.1574">
        <ele>118.58349350987</ele>
        <time>2021-08-19T16:23:51.873Z</time>
      </trkpt>
      <trkpt lat="48.1133" lon="-4.15787">
        <ele>118.47139737496</ele>
        <time>2021-08-19T16:24:06.748Z</time>
      </trkpt>
      <trkpt lat="48.11331" lon="-4.1582">
        <ele>118.47167532525</ele>
        <time>2021-08-19T16:24:21.626Z</time>
      </trkpt>
      <trkpt lat="48.1133" lon="-4.15854">
        <ele>118.61281297274</ele>
        <time>2021-08-19T16:24:36.507Z</time>
      </trkpt>
      <trkpt lat="48.11322" lon="-4.15945">
        <ele>118.7469600251</ele>
        <time>2021-08-19T16:24:51.397Z</time>
      </trkpt>
      <trkpt lat="48.11322" lon="-4.16">
        <ele>118.9789189613</ele>
        <time>2021-08-19T16:25:06.291Z</time>
      </trkpt>
      <trkpt lat="48.11344" lon="-4.16218">
        <ele>119.74485788538</ele>
        <time>2021-08-19T16:25:21.205Z</time>
      </trkpt>
      <trkpt lat="48.11358" lon="-4.16299">
        <ele>120.70366768877</ele>
        <time>2021-08-19T16:25:36.127Z</time>
      </trkpt>
      <trkpt lat="48.11375" lon="-4.16379">
        <ele>121.75398225084</ele>
        <time>2021-08-19T16:25:51.057Z</time>
      </trkpt>
      <trkpt lat="48.11423" lon="-4.16536">
        <ele>122.94793617238</ele>
        <time>2021-08-19T16:26:06.002Z</time>
      </trkpt>
      <trkpt lat="48.11427" lon="-4.1658">
        <ele>123.99648104728</ele>
        <time>2021-08-19T16:26:20.951Z</time>
      </trkpt>
      <trkpt lat="48.11424" lon="-4.16695">
        <ele>125.11650884379</ele>
        <time>2021-08-19T16:26:35.911Z</time>
      </trkpt>
      <trkpt lat="48.11417" lon="-4.16744">
        <ele>126.24192119855</ele>
        <time>2021-08-19T16:26:50.875Z</time>
      </trkpt>
      <trkpt lat="48.11396" lon="-4.16836">
        <ele>127.41709653853</ele>
        <time>2021-08-19T16:27:05.848Z</time>
      </trkpt>
      <trkpt lat="48.11394" lon="-4.16864">
        <ele>128.37231079612</ele>
        <time>2021-08-19T16:27:20.824Z</time>
      </trkpt>
      <trkpt lat="48.11396" lon="-4.16922">
        <ele>129.33490870264</ele>
        <time>2021-08-19T16:27:35.805Z</time>
      </trkpt>
      <trkpt lat="48.11401" lon="-4.1694">
        <ele>130.0963791652</ele>
        <time>2021-08-19T16:27:50.788Z</time>
      </trkpt>
      <trkpt lat="48.11401" lon="-4.16949">
        <ele>130.7159998228</ele>
        <time>2021-08-19T16:28:05.771Z</time>
      </trkpt>
      <trkpt lat="48.11397" lon="-4.1696">
        <ele>131.2046386173</ele>
        <time>2021-08-19T16:28:20.756Z</time>
      </trkpt>
      <trkpt lat="48.11374" lon="-4.17002">
        <ele>131.5712930943</ele>
        <time>2021-08-19T16:28:35.745Z</time>
      </trkpt>
      <trkpt lat="48.11308" lon="-4.17144">
        <ele>131.94087050551</ele>
        <time>2021-08-19T16:28:50.750Z</time>
      </trkpt>
      <trkpt lat="48.11265" lon="-4.17228">
        <ele>132.1306351592</ele>
        <time>2021-08-19T16:29:05.765Z</time>
      </trkpt>
      <trkpt lat="48.11203" lon="-4.17325">
        <ele>132.14248716944</ele>
        <time>2021-08-19T16:29:20.792Z</time>
      </trkpt>
      <trkpt lat="48.11084" lon="-4.175">
        <ele>132.07605867831</ele>
        <time>2021-08-19T16:29:35.842Z</time>
      </trkpt>
      <trkpt lat="48.11048" lon="-4.17545">
        <ele>131.8514313419</ele>
        <time>2021-08-19T16:29:50.898Z</time>
      </trkpt>
      <trkpt lat="48.10988" lon="-4.1761">
        <ele>131.48734764615</ele>
        <time>2021-08-19T16:30:05.964Z</time>
      </trkpt>
      <trkpt lat="48.10945" lon="-4.17662">
        <ele>131.01725768944</ele>
        <time>2021-08-19T16:30:21.037Z</time>
      </trkpt>
      <trkpt lat="48.10931" lon="-4.17682">
        <ele>130.6704355281</ele>
        <time>2021-08-19T16:30:36.113Z</time>
      </trkpt>
      <trkpt lat="48.10911" lon="-4.17715">
        <ele>130.30185037542</ele>
        <time>2021-08-19T16:30:51.193Z</time>
      </trkpt>
      <trkpt lat="48.10871" lon="-4.17804">
        <ele>129.80604435471</ele>
        <time>2021-08-19T16:31:06.283Z</time>
      </trkpt>
      <trkpt lat="48.10857" lon="-4.1783">
        <ele>129.63491004853</ele>
        <time>2021-08-19T16:31:21.376Z</time>
      </trkpt>
      <trkpt lat="48.10832" lon="-4.17866">
        <ele>129.56479517158</ele>
        <time>2021-08-19T16:31:36.473Z</time>
      </trkpt>
      <trkpt lat="48.10773" lon="-4.17947">
        <ele>129.5709397</ele>
        <time>2021-08-19T16:31:51.581Z</time>
      </trkpt>
      <trkpt lat="48.10743" lon="-4.17992">
        <ele>130.04032617602</ele>
        <time>2021-08-19T16:32:06.695Z</time>
      </trkpt>
      <trkpt lat="48.10729" lon="-4.18014">
        <ele>130.66512324206</ele>
        <time>2021-08-19T16:32:21.812Z</time>
      </trkpt>
      <trkpt lat="48.10706" lon="-4.18059">
        <ele>131.51078713397</ele>
        <time>2021-08-19T16:32:36.934Z</time>
      </trkpt>
      <trkpt lat="48.10673" lon="-4.18132">
        <ele>132.50298920841</ele>
        <time>2021-08-19T16:32:52.064Z</time>
      </trkpt>
      <trkpt lat="48.10619" lon="-4.18262">
        <ele>133.46461371613</ele>
        <time>2021-08-19T16:33:07.208Z</time>
      </trkpt>
      <trkpt lat="48.1051" lon="-4.18515">
        <ele>135.31653998992</ele>
        <time>2021-08-19T16:33:22.379Z</time>
      </trkpt>
      <trkpt lat="48.10491" lon="-4.1857">
        <ele>136.47498269278</ele>
        <time>2021-08-19T16:33:37.556Z</time>
      </trkpt>
      <trkpt lat="48.10452" lon="-4.18731">
        <ele>137.61313301086</ele>
        <time>2021-08-19T16:33:52.748Z</time>
      </trkpt>
      <trkpt lat="48.10436" lon="-4.1878">
        <ele>138.67551513661</ele>
        <time>2021-08-19T16:34:07.945Z</time>
      </trkpt>
      <trkpt lat="48.10428" lon="-4.18799">
        <ele>139.72878630058</ele>
        <time>2021-08-19T16:34:23.144Z</time>
      </trkpt>
      <trkpt lat="48.1041" lon="-4.18835">
        <ele>140.83960974897</ele>
        <time>2021-08-19T16:34:38.347Z</time>
      </trkpt>
      <trkpt lat="48.10391" lon="-4.18868">
        <ele>141.8861429992</ele>
        <time>2021-08-19T16:34:53.554Z</time>
      </trkpt>
      <trkpt lat="48.10304" lon="-4.18992">
        <ele>142.78369588865</ele>
        <time>2021-08-19T16:35:08.777Z</time>
      </trkpt>
      <trkpt lat="48.10258" lon="-4.19062">
        <ele>143.34872642879</ele>
        <time>2021-08-19T16:35:24.009Z</time>
      </trkpt>
      <trkpt lat="48.10234" lon="-4.19103">
        <ele>143.79718657884</ele>
        <time>2021-08-19T16:35:39.246Z</time>
      </trkpt>
      <trkpt lat="48.10214" lon="-4.19145">
        <ele>144.29529662395</ele>
        <time>2021-08-19T16:35:54.488Z</time>
      </trkpt>
      <trkpt lat="48.10196" lon="-4.19194">
        <ele>144.6487043261</ele>
        <time>2021-08-19T16:36:09.735Z</time>
      </trkpt>
      <trkpt lat="48.10162" lon="-4.1932">
        <ele>144.91900177983</ele>
        <time>2021-08-19T16:36:24.994Z</time>
      </trkpt>
      <trkpt lat="48.10127" lon="-4.19429">
        <ele>144.86248805022</ele>
        <time>2021-08-19T16:36:40.264Z</time>
      </trkpt>
      <trkpt lat="48.10015" lon="-4.19758">
        <ele>143.70951396445</ele>
        <time>2021-08-19T16:36:55.568Z</time>
      </trkpt>
      <trkpt lat="48.09994" lon="-4.19827">
        <ele>142.58994778908</ele>
        <time>2021-08-19T16:37:10.878Z</time>
      </trkpt>
      <trkpt lat="48.09985" lon="-4.19874">
        <ele>141.33094857782</ele>
        <time>2021-08-19T16:37:26.193Z</time>
      </trkpt>
      <trkpt lat="48.09981" lon="-4.19908">
        <ele>139.90758916475</ele>
        <time>2021-08-19T16:37:41.511Z</time>
      </trkpt>
      <trkpt lat="48.09979" lon="-4.19941">
        <ele>138.27103373485</ele>
        <time>2021-08-19T16:37:56.832Z</time>
      </trkpt>
      <trkpt lat="48.09983" lon="-4.19989">
        <ele>136.50898223461</ele>
        <time>2021-08-19T16:38:12.157Z</time>
      </trkpt>
      <trkpt lat="48.09989" lon="-4.20018">
        <ele>134.63384432394</ele>
        <time>2021-08-19T16:38:27.485Z</time>
      </trkpt>
      <trkpt lat="48.09995" lon="-4.20031">
        <ele>132.71520703286</ele>
        <time>2021-08-19T16:38:42.815Z</time>
      </trkpt>
      <trkpt lat="48.10009" lon="-4.20054">
        <ele>130.67751073736</ele>
        <time>2021-08-19T16:38:58.147Z</time>
      </trkpt>
      <trkpt lat="48.10017" lon="-4.20083">
        <ele>128.64655750806</ele>
        <time>2021-08-19T16:39:13.482Z</time>
      </trkpt>
      <trkpt lat="48.10021" lon="-4.20129">
        <ele>126.54040194651</ele>
        <time>2021-08-19T16:39:28.821Z</time>
      </trkpt>
      <trkpt lat="48.10025" lon="-4.20145">
        <ele>124.38730761836</ele>
        <time>2021-08-19T16:39:44.162Z</time>
      </trkpt>
      <trkpt lat="48.10039" lon="-4.2019">
        <ele>122.05859843045</ele>
        <time>2021-08-19T16:39:59.507Z</time>
      </trkpt>
      <trkpt lat="48.10061" lon="-4.20249">
        <ele>119.72177697067</ele>
        <time>2021-08-19T16:40:14.858Z</time>
      </trkpt>
      <trkpt lat="48.10091" lon="-4.20323">
        <ele>117.3924959211</ele>
        <time>2021-08-19T16:40:30.217Z</time>
      </trkpt>
      <trkpt lat="48.10119" lon="-4.20382">
        <ele>115.07909198296</ele>
        <time>2021-08-19T16:40:45.583Z</time>
      </trkpt>
      <trkpt lat="48.10151" lon="-4.20434">
        <ele>112.68403587958</ele>
        <time>2021-08-19T16:41:00.955Z</time>
      </trkpt>
      <trkpt lat="48.10186" lon="-4.20481">
        <ele>110.36147229143</ele>
        <time>2021-08-19T16:41:16.334Z</time>
      </trkpt>
      <trkpt lat="48.10215" lon="-4.20511">
        <ele>108.27608206718</ele>
        <time>2021-08-19T16:41:31.717Z</time>
      </trkpt>
      <trkpt lat="48.10245" lon="-4.20538">
        <ele>106.32077112986</ele>
        <time>2021-08-19T16:41:47.105Z</time>
      </trkpt>
      <trkpt lat="48.10291" lon="-4.20571">
        <ele>104.55957006697</ele>
        <time>2021-08-19T16:42:02.500Z</time>
      </trkpt>
      <trkpt lat="48.103" lon="-4.20575">
        <ele>103.0379507054</ele>
        <time>2021-08-19T16:42:17.896Z</time>
      </trkpt>
      <trkpt lat="48.1032" lon="-4.20575">
        <ele>101.59540854121</ele>
        <time>2021-08-19T16:42:33.295Z</time>
      </trkpt>
      <trkpt lat="48.10337" lon="-4.20581">
        <ele>100.37662472894</ele>
        <time>2021-08-19T16:42:48.696Z</time>
      </trkpt>
      <trkpt lat="48.10343" lon="-4.20589">
        <ele>99.464530270388</ele>
        <time>2021-08-19T16:43:04.099Z</time>
      </trkpt>
      <trkpt lat="48.10345" lon="-4.206">
        <ele>98.817248132986</ele>
        <time>2021-08-19T16:43:19.502Z</time>
      </trkpt>
      <trkpt lat="48.10343" lon="-4.2061">
        <ele>98.404196927709</ele>
        <time>2021-08-19T16:43:34.906Z</time>
      </trkpt>
      <trkpt lat="48.10339" lon="-4.20619">
        <ele>98.239610695122</ele>
        <time>2021-08-19T16:43:50.311Z</time>
      </trkpt>
      <trkpt lat="48.10318" lon="-4.20646">
        <ele>98.43311694507</ele>
        <time>2021-08-19T16:44:05.720Z</time>
      </trkpt>
      <trkpt lat="48.10311" lon="-4.20664">
        <ele>98.72815394528</ele>
        <time>2021-08-19T16:44:21.131Z</time>
      </trkpt>
      <trkpt lat="48.10299" lon="-4.20747">
        <ele>99.357394211209</ele>
        <time>2021-08-19T16:44:36.550Z</time>
      </trkpt>
      <trkpt lat="48.10291" lon="-4.20859">
        <ele>100.03172670603</ele>
        <time>2021-08-19T16:44:51.979Z</time>
      </trkpt>
      <trkpt lat="48.10282" lon="-4.20917">
        <ele>100.70389063261</ele>
        <time>2021-08-19T16:45:07.413Z</time>
      </trkpt>
      <trkpt lat="48.10271" lon="-4.20953">
        <ele>101.68212914397</ele>
        <time>2021-08-19T16:45:22.851Z</time>
      </trkpt>
      <trkpt lat="48.10264" lon="-4.2097">
        <ele>102.88498494925</ele>
        <time>2021-08-19T16:45:38.291Z</time>
      </trkpt>
      <trkpt lat="48.10244" lon="-4.21011">
        <ele>104.31272654777</ele>
        <time>2021-08-19T16:45:53.735Z</time>
      </trkpt>
      <trkpt lat="48.10218" lon="-4.2105">
        <ele>106.0243832899</ele>
        <time>2021-08-19T16:46:09.184Z</time>
      </trkpt>
      <trkpt lat="48.1017" lon="-4.21107">
        <ele>108.07974002884</ele>
        <time>2021-08-19T16:46:24.642Z</time>
      </trkpt>
      <trkpt lat="48.10149" lon="-4.21129">
        <ele>110.03339547996</ele>
        <time>2021-08-19T16:46:40.103Z</time>
      </trkpt>
      <trkpt lat="48.10126" lon="-4.21156">
        <ele>112.11507978287</ele>
        <time>2021-08-19T16:46:55.568Z</time>
      </trkpt>
      <trkpt lat="48.10105" lon="-4.21187">
        <ele>114.29061664851</ele>
        <time>2021-08-19T16:47:11.037Z</time>
      </trkpt>
      <trkpt lat="48.10084" lon="-4.21231">
        <ele>116.60922981745</ele>
        <time>2021-08-19T16:47:26.511Z</time>
      </trkpt>
      <trkpt lat="48.10076" lon="-4.21252">
        <ele>118.91023294188</ele>
        <time>2021-08-19T16:47:41.987Z</time>
      </trkpt>
      <trkpt lat="48.10038" lon="-4.21364">
        <ele>121.58511110521</ele>
        <time>2021-08-19T16:47:57.475Z</time>
      </trkpt>
      <trkpt lat="48.10019" lon="-4.21407">
        <ele>123.98900899619</ele>
        <time>2021-08-19T16:48:12.967Z</time>
      </trkpt>
      <trkpt lat="48.10004" lon="-4.21433">
        <ele>126.41219175767</ele>
        <time>2021-08-19T16:48:28.462Z</time>
      </trkpt>
      <trkpt lat="48.09993" lon="-4.21449">
        <ele>128.82693682512</ele>
        <time>2021-08-19T16:48:43.959Z</time>
      </trkpt>
      <trkpt lat="48.09964" lon="-4.21481">
        <ele>131.30494182905</ele>
        <time>2021-08-19T16:48:59.461Z</time>
      </trkpt>
      <trkpt lat="48.09941" lon="-4.215">
        <ele>133.76008251884</ele>
        <time>2021-08-19T16:49:14.967Z</time>
      </trkpt>
      <trkpt lat="48.09923" lon="-4.21511">
        <ele>136.17612374129</ele>
        <time>2021-08-19T16:49:30.475Z</time>
      </trkpt>
      <trkpt lat="48.09905" lon="-4.2152">
        <ele>138.57329221474</ele>
        <time>2021-08-19T16:49:45.986Z</time>
      </trkpt>
      <trkpt lat="48.09882" lon="-4.21528">
        <ele>140.9690090237</ele>
        <time>2021-08-19T16:50:01.500Z</time>
      </trkpt>
      <trkpt lat="48.09854" lon="-4.21531">
        <ele>143.35840174658</ele>
        <time>2021-08-19T16:50:17.018Z</time>
      </trkpt>
      <trkpt lat="48.09826" lon="-4.2153">
        <ele>145.61982003949</ele>
        <time>2021-08-19T16:50:32.540Z</time>
      </trkpt>
      <trkpt lat="48.09782" lon="-4.21524">
        <ele>147.80800101113</ele>
        <time>2021-08-19T16:50:48.068Z</time>
      </trkpt>
      <trkpt lat="48.09773" lon="-4.21528">
        <ele>149.76107423418</ele>
        <time>2021-08-19T16:51:03.597Z</time>
      </trkpt>
      <trkpt lat="48.09759" lon="-4.21537">
        <ele>151.62188719235</ele>
        <time>2021-08-19T16:51:19.128Z</time>
      </trkpt>
      <trkpt lat="48.09748" lon="-4.21538">
        <ele>153.44475096837</ele>
        <time>2021-08-19T16:51:34.661Z</time>
      </trkpt>
      <trkpt lat="48.09737" lon="-4.21531">
        <ele>155.20637401097</ele>
        <time>2021-08-19T16:51:50.195Z</time>
      </trkpt>
      <trkpt lat="48.09715" lon="-4.21505">
        <ele>156.99350279125</ele>
        <time>2021-08-19T16:52:05.733Z</time>
      </trkpt>
      <trkpt lat="48.09704" lon="-4.215">
        <ele>158.51706366651</ele>
        <time>2021-08-19T16:52:21.272Z</time>
      </trkpt>
      <trkpt lat="48.0961" lon="-4.21465">
        <ele>160.31707837358</ele>
        <time>2021-08-19T16:52:36.825Z</time>
      </trkpt>
      <trkpt lat="48.09556" lon="-4.21437">
        <ele>161.54678074382</ele>
        <time>2021-08-19T16:52:52.385Z</time>
      </trkpt>
      <trkpt lat="48.09536" lon="-4.21424">
        <ele>162.53189512127</ele>
        <time>2021-08-19T16:53:07.948Z</time>
      </trkpt>
      <trkpt lat="48.09468" lon="-4.21366">
        <ele>163.31043946252</ele>
        <time>2021-08-19T16:53:23.522Z</time>
      </trkpt>
      <trkpt lat="48.09265" lon="-4.2115">
        <ele>164.11025163997</ele>
        <time>2021-08-19T16:53:39.130Z</time>
      </trkpt>
      <trkpt lat="48.09239" lon="-4.21127">
        <ele>164.5764229426</ele>
        <time>2021-08-19T16:53:54.742Z</time>
      </trkpt>
      <trkpt lat="48.09211" lon="-4.21106">
        <ele>164.9127339666</ele>
        <time>2021-08-19T16:54:10.358Z</time>
      </trkpt>
      <trkpt lat="48.09166" lon="-4.21079">
        <ele>165.02373694925</ele>
        <time>2021-08-19T16:54:25.980Z</time>
      </trkpt>
      <trkpt lat="48.09159" lon="-4.21076">
        <ele>164.93026023618</ele>
        <time>2021-08-19T16:54:41.603Z</time>
      </trkpt>
      <trkpt lat="48.09119" lon="-4.21067">
        <ele>164.61024044263</ele>
        <time>2021-08-19T16:54:57.232Z</time>
      </trkpt>
      <trkpt lat="48.08965" lon="-4.21048">
        <ele>163.86275219427</ele>
        <time>2021-08-19T16:55:12.882Z</time>
      </trkpt>
      <trkpt lat="48.08923" lon="-4.21037">
        <ele>163.1888809019</ele>
        <time>2021-08-19T16:55:28.538Z</time>
      </trkpt>
      <trkpt lat="48.08902" lon="-4.21029">
        <ele>162.45522746142</ele>
        <time>2021-08-19T16:55:44.197Z</time>
      </trkpt>
      <trkpt lat="48.08849" lon="-4.20996">
        <ele>161.65417619379</ele>
        <time>2021-08-19T16:55:59.863Z</time>
      </trkpt>
      <trkpt lat="48.08804" lon="-4.20954">
        <ele>160.89269499677</ele>
        <time>2021-08-19T16:56:15.537Z</time>
      </trkpt>
      <trkpt lat="48.0876" lon="-4.20897">
        <ele>159.90826545913</ele>
        <time>2021-08-19T16:56:31.218Z</time>
      </trkpt>
      <trkpt lat="48.0872" lon="-4.20838">
        <ele>158.85470405081</ele>
        <time>2021-08-19T16:56:46.907Z</time>
      </trkpt>
      <trkpt lat="48.08586" lon="-4.20636">
        <ele>157.19862142711</ele>
        <time>2021-08-19T16:57:02.622Z</time>
      </trkpt>
      <trkpt lat="48.08559" lon="-4.20584">
        <ele>155.70810285782</ele>
        <time>2021-08-19T16:57:18.343Z</time>
      </trkpt>
      <trkpt lat="48.08537" lon="-4.2053">
        <ele>154.14022355547</ele>
        <time>2021-08-19T16:57:34.069Z</time>
      </trkpt>
      <trkpt lat="48.08522" lon="-4.20486">
        <ele>152.6025796658</ele>
        <time>2021-08-19T16:57:49.800Z</time>
      </trkpt>
      <trkpt lat="48.08504" lon="-4.20405">
        <ele>151.01496441814</ele>
        <time>2021-08-19T16:58:05.539Z</time>
      </trkpt>
      <trkpt lat="48.08498" lon="-4.20372">
        <ele>149.47669312557</ele>
        <time>2021-08-19T16:58:21.281Z</time>
      </trkpt>
      <trkpt lat="48.08494" lon="-4.20303">
        <ele>147.79700260962</ele>
        <time>2021-08-19T16:58:37.029Z</time>
      </trkpt>
      <trkpt lat="48.08495" lon="-4.20251">
        <ele>146.17434944051</ele>
        <time>2021-08-19T16:58:52.782Z</time>
      </trkpt>
      <trkpt lat="48.08498" lon="-4.20216">
        <ele>144.6213742648</ele>
        <time>2021-08-19T16:59:08.538Z</time>
      </trkpt>
      <trkpt lat="48.08506" lon="-4.20165">
        <ele>143.0714765022</ele>
        <time>2021-08-19T16:59:24.299Z</time>
      </trkpt>
      <trkpt lat="48.08577" lon="-4.19872">
        <ele>141.09659283214</ele>
        <time>2021-08-19T16:59:40.088Z</time>
      </trkpt>
      <trkpt lat="48.08582" lon="-4.19835">
        <ele>139.8160211315</ele>
        <time>2021-08-19T16:59:55.880Z</time>
      </trkpt>
      <trkpt lat="48.08583" lon="-4.19799">
        <ele>138.62556047698</ele>
        <time>2021-08-19T17:00:11.676Z</time>
      </trkpt>
      <trkpt lat="48.0858" lon="-4.19746">
        <ele>137.42620380395</ele>
        <time>2021-08-19T17:00:27.476Z</time>
      </trkpt>
      <trkpt lat="48.08574" lon="-4.19696">
        <ele>136.22953885171</ele>
        <time>2021-08-19T17:00:43.281Z</time>
      </trkpt>
      <trkpt lat="48.08563" lon="-4.19632">
        <ele>134.91643524023</ele>
        <time>2021-08-19T17:00:59.092Z</time>
      </trkpt>
      <trkpt lat="48.08539" lon="-4.19575">
        <ele>133.57683296951</ele>
        <time>2021-08-19T17:01:14.909Z</time>
      </trkpt>
      <trkpt lat="48.08532" lon="-4.19562">
        <ele>132.3464972825</ele>
        <time>2021-08-19T17:01:30.728Z</time>
      </trkpt>
      <trkpt lat="48.08513" lon="-4.1954">
        <ele>131.05388263617</ele>
        <time>2021-08-19T17:01:46.550Z</time>
      </trkpt>
      <trkpt lat="48.08503" lon="-4.19531">
        <ele>129.95744614512</ele>
        <time>2021-08-19T17:02:02.373Z</time>
      </trkpt>
      <trkpt lat="48.08417" lon="-4.19465">
        <ele>128.74985316779</ele>
        <time>2021-08-19T17:02:18.210Z</time>
      </trkpt>
      <trkpt lat="48.08398" lon="-4.19453">
        <ele>127.87507887368</ele>
        <time>2021-08-19T17:02:34.049Z</time>
      </trkpt>
      <trkpt lat="48.08352" lon="-4.19397">
        <ele>127.01717496952</ele>
        <time>2021-08-19T17:02:49.896Z</time>
      </trkpt>
      <trkpt lat="48.08335" lon="-4.1938">
        <ele>126.30192441784</ele>
        <time>2021-08-19T17:03:05.746Z</time>
      </trkpt>
      <trkpt lat="48.08296" lon="-4.19348">
        <ele>125.64288594279</ele>
        <time>2021-08-19T17:03:21.602Z</time>
      </trkpt>
      <trkpt lat="48.08121" lon="-4.19221">
        <ele>124.74599291566</ele>
        <time>2021-08-19T17:03:37.484Z</time>
      </trkpt>
      <trkpt lat="48.07792" lon="-4.18987">
        <ele>124.55286512217</ele>
        <time>2021-08-19T17:03:53.416Z</time>
      </trkpt>
      <trkpt lat="48.07659" lon="-4.18889">
        <ele>123.90975503849</ele>
        <time>2021-08-19T17:04:09.368Z</time>
      </trkpt>
      <trkpt lat="48.07455" lon="-4.18744">
        <ele>124.31640110106</ele>
        <time>2021-08-19T17:04:25.350Z</time>
      </trkpt>
      <trkpt lat="48.0742" lon="-4.18718">
        <ele>124.29641844338</ele>
        <time>2021-08-19T17:04:41.338Z</time>
      </trkpt>
      <trkpt lat="48.07393" lon="-4.18699">
        <ele>124.29791127381</ele>
        <time>2021-08-19T17:04:57.330Z</time>
      </trkpt>
      <trkpt lat="48.07382" lon="-4.18697">
        <ele>124.3344393887</ele>
        <time>2021-08-19T17:05:13.323Z</time>
      </trkpt>
      <trkpt lat="48.07372" lon="-4.18703">
        <ele>124.41462123785</ele>
        <time>2021-08-19T17:05:29.318Z</time>
      </trkpt>
      <trkpt lat="48.07366" lon="-4.1872">
        <ele>124.52407105322</ele>
        <time>2021-08-19T17:05:45.314Z</time>
      </trkpt>
      <trkpt lat="48.07362" lon="-4.1878">
        <ele>124.64355551004</ele>
        <time>2021-08-19T17:06:01.316Z</time>
      </trkpt>
      <trkpt lat="48.07358" lon="-4.1881">
        <ele>124.74887446867</ele>
        <time>2021-08-19T17:06:17.321Z</time>
      </trkpt>
      <trkpt lat="48.07314" lon="-4.18982">
        <ele>124.72608166453</ele>
        <time>2021-08-19T17:06:33.342Z</time>
      </trkpt>
      <trkpt lat="48.07308" lon="-4.19071">
        <ele>124.79984348104</ele>
        <time>2021-08-19T17:06:49.371Z</time>
      </trkpt>
      <trkpt lat="48.07314" lon="-4.19126">
        <ele>124.81362431286</ele>
        <time>2021-08-19T17:07:05.405Z</time>
      </trkpt>
      <trkpt lat="48.07317" lon="-4.19172">
        <ele>124.78542946475</ele>
        <time>2021-08-19T17:07:21.444Z</time>
      </trkpt>
      <trkpt lat="48.07316" lon="-4.19195">
        <ele>124.70755935677</ele>
        <time>2021-08-19T17:07:37.485Z</time>
      </trkpt>
      <trkpt lat="48.07314" lon="-4.19218">
        <ele>124.53437086346</ele>
        <time>2021-08-19T17:07:53.528Z</time>
      </trkpt>
      <trkpt lat="48.07304" lon="-4.19272">
        <ele>124.35027988116</ele>
        <time>2021-08-19T17:08:09.576Z</time>
      </trkpt>
      <trkpt lat="48.07301" lon="-4.19281">
        <ele>124.0783362622</ele>
        <time>2021-08-19T17:08:25.625Z</time>
      </trkpt>
      <trkpt lat="48.07296" lon="-4.19289">
        <ele>123.72185079112</ele>
        <time>2021-08-19T17:08:41.675Z</time>
      </trkpt>
      <trkpt lat="48.07221" lon="-4.1935">
        <ele>123.12564920206</ele>
        <time>2021-08-19T17:08:57.736Z</time>
      </trkpt>
      <trkpt lat="48.07166" lon="-4.19413">
        <ele>122.55065210316</ele>
        <time>2021-08-19T17:09:13.807Z</time>
      </trkpt>
      <trkpt lat="48.07142" lon="-4.19437">
        <ele>121.98322725022</ele>
        <time>2021-08-19T17:09:29.882Z</time>
      </trkpt>
      <trkpt lat="48.07108" lon="-4.19466">
        <ele>121.39833187709</ele>
        <time>2021-08-19T17:09:45.962Z</time>
      </trkpt>
      <trkpt lat="48.07072" lon="-4.19487">
        <ele>120.67691239796</ele>
        <time>2021-08-19T17:10:02.047Z</time>
      </trkpt>
      <trkpt lat="48.07007" lon="-4.19513">
        <ele>119.7475150865</ele>
        <time>2021-08-19T17:10:18.141Z</time>
      </trkpt>
      <trkpt lat="48.06952" lon="-4.1955">
        <ele>119.03615075473</ele>
        <time>2021-08-19T17:10:34.243Z</time>
      </trkpt>
      <trkpt lat="48.06894" lon="-4.19585">
        <ele>118.31553314798</ele>
        <time>2021-08-19T17:10:50.354Z</time>
      </trkpt>
      <trkpt lat="48.0688" lon="-4.19596">
        <ele>117.49230119408</ele>
        <time>2021-08-19T17:11:06.467Z</time>
      </trkpt>
      <trkpt lat="48.06862" lon="-4.19619">
        <ele>116.61682375927</ele>
        <time>2021-08-19T17:11:22.583Z</time>
      </trkpt>
      <trkpt lat="48.06846" lon="-4.19648">
        <ele>115.6090535531</ele>
        <time>2021-08-19T17:11:38.703Z</time>
      </trkpt>
      <trkpt lat="48.06806" lon="-4.19735">
        <ele>114.46095625926</ele>
        <time>2021-08-19T17:11:54.832Z</time>
      </trkpt>
      <trkpt lat="48.06758" lon="-4.19881">
        <ele>113.18426715666</ele>
        <time>2021-08-19T17:12:10.976Z</time>
      </trkpt>
      <trkpt lat="48.06741" lon="-4.19916">
        <ele>111.98593089901</ele>
        <time>2021-08-19T17:12:27.124Z</time>
      </trkpt>
      <trkpt lat="48.06721" lon="-4.1995">
        <ele>110.74756502362</ele>
        <time>2021-08-19T17:12:43.276Z</time>
      </trkpt>
      <trkpt lat="48.06692" lon="-4.19991">
        <ele>109.44268062281</ele>
        <time>2021-08-19T17:12:59.433Z</time>
      </trkpt>
      <trkpt lat="48.06633" lon="-4.20066">
        <ele>108.14490229922</ele>
        <time>2021-08-19T17:13:15.601Z</time>
      </trkpt>
      <trkpt lat="48.06611" lon="-4.20093">
        <ele>106.93999939917</ele>
        <time>2021-08-19T17:13:31.773Z</time>
      </trkpt>
      <trkpt lat="48.06602" lon="-4.20101">
        <ele>105.69977108204</ele>
        <time>2021-08-19T17:13:47.946Z</time>
      </trkpt>
      <trkpt lat="48.06583" lon="-4.20109">
        <ele>104.45651912397</ele>
        <time>2021-08-19T17:14:04.122Z</time>
      </trkpt>
      <trkpt lat="48.06573" lon="-4.20109">
        <ele>103.18610758381</ele>
        <time>2021-08-19T17:14:20.299Z</time>
      </trkpt>
      <trkpt lat="48.06563" lon="-4.20107">
        <ele>101.88236735841</ele>
        <time>2021-08-19T17:14:36.477Z</time>
      </trkpt>
      <trkpt lat="48.06481" lon="-4.20076">
        <ele>100.47174337806</ele>
        <time>2021-08-19T17:14:52.667Z</time>
      </trkpt>
      <trkpt lat="48.06448" lon="-4.2008">
        <ele>99.126838229111</ele>
        <time>2021-08-19T17:15:08.861Z</time>
      </trkpt>
      <trkpt lat="48.06432" lon="-4.20089">
        <ele>97.791864265194</ele>
        <time>2021-08-19T17:15:25.058Z</time>
      </trkpt>
      <trkpt lat="48.06399" lon="-4.20111">
        <ele>96.293511047856</ele>
        <time>2021-08-19T17:15:41.259Z</time>
      </trkpt>
      <trkpt lat="48.06343" lon="-4.20164">
        <ele>94.544022044721</ele>
        <time>2021-08-19T17:15:57.470Z</time>
      </trkpt>
      <trkpt lat="48.06308" lon="-4.20192">
        <ele>92.992203451779</ele>
        <time>2021-08-19T17:16:13.686Z</time>
      </trkpt>
      <trkpt lat="48.06188" lon="-4.2028">
        <ele>91.373705569807</ele>
        <time>2021-08-19T17:16:29.920Z</time>
      </trkpt>
      <trkpt lat="48.06162" lon="-4.20296">
        <ele>90.248785350816</ele>
        <time>2021-08-19T17:16:46.158Z</time>
      </trkpt>
      <trkpt lat="48.06144" lon="-4.20304">
        <ele>89.223032794388</ele>
        <time>2021-08-19T17:17:02.398Z</time>
      </trkpt>
      <trkpt lat="48.06099" lon="-4.20313">
        <ele>88.306565633041</ele>
        <time>2021-08-19T17:17:18.644Z</time>
      </trkpt>
      <trkpt lat="48.06062" lon="-4.20318">
        <ele>87.580446397175</ele>
        <time>2021-08-19T17:17:34.895Z</time>
      </trkpt>
      <trkpt lat="48.06023" lon="-4.20318">
        <ele>86.998721017758</ele>
        <time>2021-08-19T17:17:51.152Z</time>
      </trkpt>
      <trkpt lat="48.05954" lon="-4.20305">
        <ele>86.588661943407</ele>
        <time>2021-08-19T17:18:07.418Z</time>
      </trkpt>
      <trkpt lat="48.05927" lon="-4.20306">
        <ele>86.520742435491</ele>
        <time>2021-08-19T17:18:23.688Z</time>
      </trkpt>
      <trkpt lat="48.059" lon="-4.20316">
        <ele>86.606413280892</ele>
        <time>2021-08-19T17:18:39.961Z</time>
      </trkpt>
      <trkpt lat="48.05845" lon="-4.20352">
        <ele>86.942494694433</ele>
        <time>2021-08-19T17:18:56.243Z</time>
      </trkpt>
      <trkpt lat="48.05825" lon="-4.20362">
        <ele>87.584954814058</ele>
        <time>2021-08-19T17:19:12.527Z</time>
      </trkpt>
      <trkpt lat="48.05804" lon="-4.20367">
        <ele>88.46755985743</ele>
        <time>2021-08-19T17:19:28.814Z</time>
      </trkpt>
      <trkpt lat="48.05772" lon="-4.2037">
        <ele>89.601980201858</ele>
        <time>2021-08-19T17:19:45.106Z</time>
      </trkpt>
      <trkpt lat="48.05688" lon="-4.20366">
        <ele>91.014877407286</ele>
        <time>2021-08-19T17:20:01.409Z</time>
      </trkpt>
      <trkpt lat="48.05598" lon="-4.20364">
        <ele>92.737157796854</ele>
        <time>2021-08-19T17:20:17.724Z</time>
      </trkpt>
      <trkpt lat="48.05407" lon="-4.20346">
        <ele>94.869240374586</ele>
        <time>2021-08-19T17:20:34.065Z</time>
      </trkpt>
      <trkpt lat="48.05292" lon="-4.20332">
        <ele>97.122410717029</ele>
        <time>2021-08-19T17:20:50.422Z</time>
      </trkpt>
      <trkpt lat="48.05246" lon="-4.20336">
        <ele>99.302551344374</ele>
        <time>2021-08-19T17:21:06.785Z</time>
      </trkpt>
      <trkpt lat="48.052" lon="-4.20359">
        <ele>101.53623551071</ele>
        <time>2021-08-19T17:21:23.154Z</time>
      </trkpt>
      <trkpt lat="48.04829" lon="-4.20652">
        <ele>105.12834142357</ele>
        <time>2021-08-19T17:21:39.580Z</time>
      </trkpt>
      <trkpt lat="48.04811" lon="-4.20663">
        <ele>107.5002570971</ele>
        <time>2021-08-19T17:21:56.009Z</time>
      </trkpt>
      <trkpt lat="48.04763" lon="-4.20685">
        <ele>109.95743656125</ele>
        <time>2021-08-19T17:22:12.445Z</time>
      </trkpt>
      <trkpt lat="48.04743" lon="-4.20692">
        <ele>112.14647874738</ele>
        <time>2021-08-19T17:22:28.883Z</time>
      </trkpt>
      <trkpt lat="48.04722" lon="-4.20698">
        <ele>114.17906390405</ele>
        <time>2021-08-19T17:22:45.324Z</time>
      </trkpt>
      <trkpt lat="48.04672" lon="-4.20707">
        <ele>116.09308365658</ele>
        <time>2021-08-19T17:23:01.772Z</time>
      </trkpt>
      <trkpt lat="48.04661" lon="-4.20707">
        <ele>117.66270419108</ele>
        <time>2021-08-19T17:23:18.222Z</time>
      </trkpt>
      <trkpt lat="48.04625" lon="-4.20708">
        <ele>119.09828068207</ele>
        <time>2021-08-19T17:23:34.676Z</time>
      </trkpt>
      <trkpt lat="48.04588" lon="-4.20703">
        <ele>120.37647795701</ele>
        <time>2021-08-19T17:23:51.136Z</time>
      </trkpt>
      <trkpt lat="48.04527" lon="-4.20688">
        <ele>121.40466804337</ele>
        <time>2021-08-19T17:24:07.604Z</time>
      </trkpt>
      <trkpt lat="48.0442" lon="-4.20652">
        <ele>122.15958063715</ele>
        <time>2021-08-19T17:24:24.087Z</time>
      </trkpt>
      <trkpt lat="48.04388" lon="-4.20651">
        <ele>122.58449272785</ele>
        <time>2021-08-19T17:24:40.574Z</time>
      </trkpt>
      <trkpt lat="48.04368" lon="-4.20645">
        <ele>122.74576359658</ele>
        <time>2021-08-19T17:24:57.064Z</time>
      </trkpt>
      <trkpt lat="48.0432" lon="-4.20642">
        <ele>122.61745128226</ele>
        <time>2021-08-19T17:25:13.560Z</time>
      </trkpt>
      <trkpt lat="48.04303" lon="-4.20638">
        <ele>122.44035901391</ele>
        <time>2021-08-19T17:25:30.059Z</time>
      </trkpt>
      <trkpt lat="48.04275" lon="-4.20624">
        <ele>122.06473649676</ele>
        <time>2021-08-19T17:25:46.562Z</time>
      </trkpt>
      <trkpt lat="48.04269" lon="-4.20623">
        <ele>121.7147417541</ele>
        <time>2021-08-19T17:26:03.065Z</time>
      </trkpt>
      <trkpt lat="48.04264" lon="-4.20627">
        <ele>121.30184899193</ele>
        <time>2021-08-19T17:26:19.569Z</time>
      </trkpt>
      <trkpt lat="48.0426" lon="-4.20634">
        <ele>120.84826138506</ele>
        <time>2021-08-19T17:26:36.074Z</time>
      </trkpt>
      <trkpt lat="48.04243" lon="-4.2067">
        <ele>120.37371439606</ele>
        <time>2021-08-19T17:26:52.583Z</time>
      </trkpt>
      <trkpt lat="48.04223" lon="-4.20704">
        <ele>119.90460308241</ele>
        <time>2021-08-19T17:27:09.096Z</time>
      </trkpt>
      <trkpt lat="48.04191" lon="-4.20747">
        <ele>119.47350948852</ele>
        <time>2021-08-19T17:27:25.615Z</time>
      </trkpt>
      <trkpt lat="48.04168" lon="-4.20784">
        <ele>119.11791652966</ele>
        <time>2021-08-19T17:27:42.139Z</time>
      </trkpt>
      <trkpt lat="48.04162" lon="-4.2079">
        <ele>118.81837673228</ele>
        <time>2021-08-19T17:27:58.663Z</time>
      </trkpt>
      <trkpt lat="48.04144" lon="-4.20803">
        <ele>118.60808367465</ele>
        <time>2021-08-19T17:28:15.190Z</time>
      </trkpt>
      <trkpt lat="48.04112" lon="-4.20824">
        <ele>118.50150264748</ele>
        <time>2021-08-19T17:28:31.722Z</time>
      </trkpt>
      <trkpt lat="48.041" lon="-4.20835">
        <ele>118.51362310365</ele>
        <time>2021-08-19T17:28:48.256Z</time>
      </trkpt>
      <trkpt lat="48.039" lon="-4.21036">
        <ele>118.64636547724</ele>
        <time>2021-08-19T17:29:04.823Z</time>
      </trkpt>
      <trkpt lat="48.03875" lon="-4.21064">
        <ele>118.91540867812</ele>
        <time>2021-08-19T17:29:21.394Z</time>
      </trkpt>
      <trkpt lat="48.0386" lon="-4.21084">
        <ele>119.32883829716</ele>
        <time>2021-08-19T17:29:37.967Z</time>
      </trkpt>
      <trkpt lat="48.03827" lon="-4.21137">
        <ele>119.8151557254</ele>
        <time>2021-08-19T17:29:54.547Z</time>
      </trkpt>
      <trkpt lat="48.03806" lon="-4.21184">
        <ele>120.44116386136</ele>
        <time>2021-08-19T17:30:11.132Z</time>
      </trkpt>
      <trkpt lat="48.03697" lon="-4.21483">
        <ele>121.37856583751</ele>
        <time>2021-08-19T17:30:27.748Z</time>
      </trkpt>
      <trkpt lat="48.0363" lon="-4.21661">
        <ele>122.56535297722</ele>
        <time>2021-08-19T17:30:44.383Z</time>
      </trkpt>
      <trkpt lat="48.03564" lon="-4.21844">
        <ele>123.95422369015</ele>
        <time>2021-08-19T17:31:01.036Z</time>
      </trkpt>
      <trkpt lat="48.03535" lon="-4.21919">
        <ele>125.33355401437</ele>
        <time>2021-08-19T17:31:17.697Z</time>
      </trkpt>
      <trkpt lat="48.03521" lon="-4.21942">
        <ele>126.30441630947</ele>
        <time>2021-08-19T17:31:34.361Z</time>
      </trkpt>
      <trkpt lat="48.03486" lon="-4.21966">
        <ele>127.27763185775</ele>
        <time>2021-08-19T17:31:51.030Z</time>
      </trkpt>
      <trkpt lat="48.03462" lon="-4.21984">
        <ele>127.94907884802</ele>
        <time>2021-08-19T17:32:07.703Z</time>
      </trkpt>
      <trkpt lat="48.03394" lon="-4.22047">
        <ele>128.75894485824</ele>
        <time>2021-08-19T17:32:24.387Z</time>
      </trkpt>
      <trkpt lat="48.03282" lon="-4.22158">
        <ele>129.13536295883</ele>
        <time>2021-08-19T17:32:41.089Z</time>
      </trkpt>
      <trkpt lat="48.03196" lon="-4.22249">
        <ele>128.46825082075</ele>
        <time>2021-08-19T17:32:57.805Z</time>
      </trkpt>
      <trkpt lat="48.03157" lon="-4.22285">
        <ele>127.81793217652</ele>
        <time>2021-08-19T17:33:14.527Z</time>
      </trkpt>
      <trkpt lat="48.03094" lon="-4.22329">
        <ele>126.97525858085</ele>
        <time>2021-08-19T17:33:31.259Z</time>
      </trkpt>
      <trkpt lat="48.03017" lon="-4.22376">
        <ele>126.08641683404</ele>
        <time>2021-08-19T17:33:48.002Z</time>
      </trkpt>
      <trkpt lat="48.02988" lon="-4.22391">
        <ele>126.53892364348</ele>
        <time>2021-08-19T17:34:04.749Z</time>
      </trkpt>
      <trkpt lat="48.02916" lon="-4.22418">
        <ele>127.39468924696</ele>
        <time>2021-08-19T17:34:21.506Z</time>
      </trkpt>
      <trkpt lat="48.02894" lon="-4.22429">
        <ele>128.47904361448</ele>
        <time>2021-08-19T17:34:38.266Z</time>
      </trkpt>
      <trkpt lat="48.02684" lon="-4.22603">
        <ele>130.3414467728</ele>
        <time>2021-08-19T17:34:55.059Z</time>
      </trkpt>
      <trkpt lat="48.02651" lon="-4.2262">
        <ele>131.68497462457</ele>
        <time>2021-08-19T17:35:11.857Z</time>
      </trkpt>
      <trkpt lat="48.02559" lon="-4.22647">
        <ele>133.55600789044</ele>
        <time>2021-08-19T17:35:28.667Z</time>
      </trkpt>
      <trkpt lat="48.02544" lon="-4.22646">
        <ele>134.89576032584</ele>
        <time>2021-08-19T17:35:45.479Z</time>
      </trkpt>
      <trkpt lat="48.02529" lon="-4.2264">
        <ele>136.33264028661</ele>
        <time>2021-08-19T17:36:02.293Z</time>
      </trkpt>
      <trkpt lat="48.02511" lon="-4.22626">
        <ele>137.87025733074</ele>
        <time>2021-08-19T17:36:19.110Z</time>
      </trkpt>
      <trkpt lat="48.02502" lon="-4.22617">
        <ele>139.49394663338</ele>
        <time>2021-08-19T17:36:35.929Z</time>
      </trkpt>
      <trkpt lat="48.02421" lon="-4.22514">
        <ele>141.61966309257</ele>
        <time>2021-08-19T17:36:52.762Z</time>
      </trkpt>
      <trkpt lat="48.02388" lon="-4.22467">
        <ele>143.25180300546</ele>
        <time>2021-08-19T17:37:09.601Z</time>
      </trkpt>
      <trkpt lat="48.02374" lon="-4.22451">
        <ele>144.53035555607</ele>
        <time>2021-08-19T17:37:26.442Z</time>
      </trkpt>
      <trkpt lat="48.02356" lon="-4.22439">
        <ele>145.58744677435</ele>
        <time>2021-08-19T17:37:43.286Z</time>
      </trkpt>
      <trkpt lat="48.02348" lon="-4.2243">
        <ele>146.38813380448</ele>
        <time>2021-08-19T17:38:00.132Z</time>
      </trkpt>
      <trkpt lat="48.02321" lon="-4.22386">
        <ele>146.90917649419</ele>
        <time>2021-08-19T17:38:16.983Z</time>
      </trkpt>
      <trkpt lat="48.02298" lon="-4.22333">
        <ele>147.18459834354</ele>
        <time>2021-08-19T17:38:33.840Z</time>
      </trkpt>
      <trkpt lat="48.02284" lon="-4.22304">
        <ele>147.23120881078</ele>
        <time>2021-08-19T17:38:50.700Z</time>
      </trkpt>
      <trkpt lat="48.02219" lon="-4.22143">
        <ele>146.67197663635</ele>
        <time>2021-08-19T17:39:07.577Z</time>
      </trkpt>
      <trkpt lat="48.02136" lon="-4.21947">
        <ele>146.0767844301</ele>
        <time>2021-08-19T17:39:24.475Z</time>
      </trkpt>
      <trkpt lat="48.02084" lon="-4.21833">
        <ele>145.65805867473</ele>
        <time>2021-08-19T17:39:41.385Z</time>
      </trkpt>
      <trkpt lat="48.02069" lon="-4.21795">
        <ele>145.41015332817</ele>
        <time>2021-08-19T17:39:58.300Z</time>
      </trkpt>
    </trkseg>
  </trk>
</gpx>